<?xml version='1.0' encoding='UTF-8'?><gpx version="1.1" creator="JPX - https://github.com/jenetics/jpx" xmlns="http://www.topografix.com/GPX/1/1"><trk><trkseg><trkpt lat="46.2693467" lon="11.778"><ele>1619.0</ele><time>2026-04-18T11:45:05.604Z</time></trkpt><trkpt lat="46.2692717" lon="11.77807"><ele>1619.0</ele><time>2026-04-18T11:45:07.604Z</time></trkpt><trkpt lat="46.2691733" lon="11.7781483"><ele>1619.0</ele><time>2026-04-18T11:45:09.604Z</time></trkpt><trkpt lat="46.269065" lon="11.778225"><ele>1619.0</ele><time>2026-04-18T11:45:11.605Z</time></trkpt><trkpt lat="46.26896" lon="11.778315"><ele>1619.0</ele><time>2026-04-18T11:45:13.605Z</time></trkpt><trkpt lat="46.268905" lon="11.7783767"><ele>1617.6666666666665</ele><time>2026-04-18T11:45:14.604Z</time></trkpt><trkpt lat="46.268855" lon="11.7784433"><ele>1616.3333333333333</ele><time>2026-04-18T11:45:15.604Z</time></trkpt><trkpt lat="46.2687967" lon="11.7785017"><ele>1615.0</ele><time>2026-04-18T11:45:16.604Z</time></trkpt><trkpt lat="46.2687333" lon="11.7785567"><ele>1613.6666666666665</ele><time>2026-04-18T11:45:17.604Z</time></trkpt><trkpt lat="46.2686633" lon="11.7786233"><ele>1612.3333333333333</ele><time>2026-04-18T11:45:18.605Z</time></trkpt><trkpt lat="46.26859" lon="11.7786917"><ele>1611.0</ele><time>2026-04-18T11:45:19.604Z</time></trkpt><trkpt lat="46.2685117" lon="11.7787583"><ele>1611.0</ele><time>2026-04-18T11:45:20.604Z</time></trkpt><trkpt lat="46.2684333" lon="11.7788233"><ele>1611.0</ele><time>2026-04-18T11:45:21.604Z</time></trkpt><trkpt lat="46.268355" lon="11.778895"><ele>1611.0</ele><time>2026-04-18T11:45:22.605Z</time></trkpt><trkpt lat="46.2682783" lon="11.7789717"><ele>1611.0</ele><time>2026-04-18T11:45:23.604Z</time></trkpt><trkpt lat="46.2681967" lon="11.7790467"><ele>1611.0</ele><time>2026-04-18T11:45:24.604Z</time></trkpt><trkpt lat="46.2681133" lon="11.7791183"><ele>1610.0</ele><time>2026-04-18T11:45:25.604Z</time></trkpt><trkpt lat="46.26803" lon="11.7792033"><ele>1609.0</ele><time>2026-04-18T11:45:26.604Z</time></trkpt><trkpt lat="46.267945" lon="11.7792883"><ele>1608.0</ele><time>2026-04-18T11:45:27.604Z</time></trkpt><trkpt lat="46.2678533" lon="11.779365"><ele>1607.0</ele><time>2026-04-18T11:45:28.604Z</time></trkpt><trkpt lat="46.267765" lon="11.779445"><ele>1606.0</ele><time>2026-04-18T11:45:29.604Z</time></trkpt><trkpt lat="46.267675" lon="11.7795267"><ele>1606.0</ele><time>2026-04-18T11:45:30.604Z</time></trkpt><trkpt lat="46.2675817" lon="11.7796283"><ele>1606.0</ele><time>2026-04-18T11:45:31.604Z</time></trkpt><trkpt lat="46.267495" lon="11.779725"><ele>1606.0</ele><time>2026-04-18T11:45:32.604Z</time></trkpt><trkpt lat="46.2674067" lon="11.7798217"><ele>1606.0</ele><time>2026-04-18T11:45:33.604Z</time></trkpt><trkpt lat="46.2673317" lon="11.77993"><ele>1606.0</ele><time>2026-04-18T11:45:34.605Z</time></trkpt><trkpt lat="46.2672517" lon="11.7800283"><ele>1603.4</ele><time>2026-04-18T11:45:35.604Z</time></trkpt><trkpt lat="46.2671817" lon="11.7801417"><ele>1600.8</ele><time>2026-04-18T11:45:36.604Z</time></trkpt><trkpt lat="46.2671267" lon="11.780255"><ele>1598.2</ele><time>2026-04-18T11:45:37.604Z</time></trkpt><trkpt lat="46.2670683" lon="11.78036"><ele>1595.6000000000001</ele><time>2026-04-18T11:45:38.604Z</time></trkpt><trkpt lat="46.2670167" lon="11.780465"><ele>1593.0</ele><time>2026-04-18T11:45:39.604Z</time></trkpt><trkpt lat="46.2669733" lon="11.7805733"><ele>1592.8333333333333</ele><time>2026-04-18T11:45:40.604Z</time></trkpt><trkpt lat="46.2669433" lon="11.7806767"><ele>1592.6666666666665</ele><time>2026-04-18T11:45:41.604Z</time></trkpt><trkpt lat="46.2669283" lon="11.78078"><ele>1592.5</ele><time>2026-04-18T11:45:42.604Z</time></trkpt><trkpt lat="46.2669283" lon="11.7808933"><ele>1592.3333333333333</ele><time>2026-04-18T11:45:43.605Z</time></trkpt><trkpt lat="46.2669317" lon="11.7810133"><ele>1592.1666666666665</ele><time>2026-04-18T11:45:44.604Z</time></trkpt><trkpt lat="46.2669483" lon="11.78115"><ele>1592.0</ele><time>2026-04-18T11:45:45.605Z</time></trkpt><trkpt lat="46.26698" lon="11.7812983"><ele>1591.3999999999999</ele><time>2026-04-18T11:45:46.604Z</time></trkpt><trkpt lat="46.2670083" lon="11.7814417"><ele>1590.8</ele><time>2026-04-18T11:45:47.604Z</time></trkpt><trkpt lat="46.26704" lon="11.7815783"><ele>1590.2</ele><time>2026-04-18T11:45:48.605Z</time></trkpt><trkpt lat="46.2670733" lon="11.7817083"><ele>1589.6</ele><time>2026-04-18T11:45:49.604Z</time></trkpt><trkpt lat="46.2671133" lon="11.781855"><ele>1589.0</ele><time>2026-04-18T11:45:50.604Z</time></trkpt><trkpt lat="46.2671567" lon="11.7819983"><ele>1586.0</ele><time>2026-04-18T11:45:51.604Z</time></trkpt><trkpt lat="46.2671917" lon="11.7821467"><ele>1583.0</ele><time>2026-04-18T11:45:52.604Z</time></trkpt><trkpt lat="46.267215" lon="11.78229"><ele>1580.0</ele><time>2026-04-18T11:45:53.604Z</time></trkpt><trkpt lat="46.267235" lon="11.7824483"><ele>1577.0</ele><time>2026-04-18T11:45:54.604Z</time></trkpt><trkpt lat="46.2672367" lon="11.782615"><ele>1574.0</ele><time>2026-04-18T11:45:55.605Z</time></trkpt><trkpt lat="46.267225" lon="11.7827817"><ele>1571.4</ele><time>2026-04-18T11:45:56.604Z</time></trkpt><trkpt lat="46.267215" lon="11.78294"><ele>1568.8000000000002</ele><time>2026-04-18T11:45:57.604Z</time></trkpt><trkpt lat="46.2671983" lon="11.7830867"><ele>1566.1999999999998</ele><time>2026-04-18T11:45:58.604Z</time></trkpt><trkpt lat="46.267185" lon="11.7832067"><ele>1563.6</ele><time>2026-04-18T11:45:59.604Z</time></trkpt><trkpt lat="46.2671717" lon="11.7833283"><ele>1561.0</ele><time>2026-04-18T11:46:00.604Z</time></trkpt><trkpt lat="46.2671617" lon="11.78346"><ele>1559.5000000000002</ele><time>2026-04-18T11:46:01.604Z</time></trkpt><trkpt lat="46.2671567" lon="11.7835867"><ele>1558.0</ele><time>2026-04-18T11:46:02.604Z</time></trkpt><trkpt lat="46.2671667" lon="11.7837033"><ele>1556.5</ele><time>2026-04-18T11:46:03.604Z</time></trkpt><trkpt lat="46.267185" lon="11.7838217"><ele>1555.0</ele><time>2026-04-18T11:46:04.604Z</time></trkpt><trkpt lat="46.2672183" lon="11.7839233"><ele>1553.5000000000002</ele><time>2026-04-18T11:46:05.604Z</time></trkpt><trkpt lat="46.2672633" lon="11.7840283"><ele>1552.0</ele><time>2026-04-18T11:46:06.605Z</time></trkpt><trkpt lat="46.2673183" lon="11.7841283"><ele>1554.8333333333335</ele><time>2026-04-18T11:46:07.605Z</time></trkpt><trkpt lat="46.267375" lon="11.7842017"><ele>1557.6666666666667</ele><time>2026-04-18T11:46:08.605Z</time></trkpt><trkpt lat="46.267425" lon="11.7842983"><ele>1560.5</ele><time>2026-04-18T11:46:09.604Z</time></trkpt><trkpt lat="46.267465" lon="11.7844"><ele>1563.3333333333335</ele><time>2026-04-18T11:46:10.605Z</time></trkpt><trkpt lat="46.2675083" lon="11.7844917"><ele>1566.1666666666667</ele><time>2026-04-18T11:46:11.604Z</time></trkpt><trkpt lat="46.2675317" lon="11.78458"><ele>1569.0</ele><time>2026-04-18T11:46:12.605Z</time></trkpt><trkpt lat="46.2674967" lon="11.78474"><ele>1569.0</ele><time>2026-04-18T11:46:14.604Z</time></trkpt><trkpt lat="46.2674167" lon="11.7847617"><ele>1569.0</ele><time>2026-04-18T11:46:15.605Z</time></trkpt><trkpt lat="46.26734" lon="11.7847417"><ele>1569.0</ele><time>2026-04-18T11:46:16.604Z</time></trkpt><trkpt lat="46.2672717" lon="11.7846883"><ele>1569.0</ele><time>2026-04-18T11:46:17.604Z</time></trkpt><trkpt lat="46.2672033" lon="11.7846017"><ele>1569.0</ele><time>2026-04-18T11:46:18.604Z</time></trkpt><trkpt lat="46.2671383" lon="11.784485"><ele>1569.0</ele><time>2026-04-18T11:46:19.605Z</time></trkpt><trkpt lat="46.2670717" lon="11.78435"><ele>1564.75</ele><time>2026-04-18T11:46:20.604Z</time></trkpt><trkpt lat="46.2670083" lon="11.78421"><ele>1560.5</ele><time>2026-04-18T11:46:21.604Z</time></trkpt><trkpt lat="46.2669583" lon="11.7840567"><ele>1556.25</ele><time>2026-04-18T11:46:22.604Z</time></trkpt><trkpt lat="46.2669067" lon="11.7838883"><ele>1552.0</ele><time>2026-04-18T11:46:23.604Z</time></trkpt><trkpt lat="46.26688" lon="11.7837333"><ele>1552.0000000000002</ele><time>2026-04-18T11:46:24.605Z</time></trkpt><trkpt lat="46.2668517" lon="11.7835867"><ele>1552.0</ele><time>2026-04-18T11:46:25.604Z</time></trkpt><trkpt lat="46.2668333" lon="11.783465"><ele>1552.0</ele><time>2026-04-18T11:46:26.605Z</time></trkpt><trkpt lat="46.2668217" lon="11.783345"><ele>1552.0</ele><time>2026-04-18T11:46:27.604Z</time></trkpt><trkpt lat="46.2667933" lon="11.7832633"><ele>1552.0000000000002</ele><time>2026-04-18T11:46:28.605Z</time></trkpt><trkpt lat="46.2667133" lon="11.78326"><ele>1552.0</ele><time>2026-04-18T11:46:30.604Z</time></trkpt><trkpt lat="46.2666917" lon="11.7833917"><ele>1552.0</ele><time>2026-04-18T11:46:32.604Z</time></trkpt><trkpt lat="46.2667117" lon="11.7835433"><ele>1552.0</ele><time>2026-04-18T11:46:34.604Z</time></trkpt><trkpt lat="46.26675" lon="11.7836867"><ele>1552.0</ele><time>2026-04-18T11:46:36.604Z</time></trkpt><trkpt lat="46.2667783" lon="11.78385"><ele>1552.0</ele><time>2026-04-18T11:46:38.604Z</time></trkpt><trkpt lat="46.2667867" lon="11.7839467"><ele>1552.0</ele><time>2026-04-18T11:46:39.604Z</time></trkpt><trkpt lat="46.2667917" lon="11.784065"><ele>1552.0</ele><time>2026-04-18T11:46:40.605Z</time></trkpt><trkpt lat="46.2668067" lon="11.7841967"><ele>1552.0</ele><time>2026-04-18T11:46:41.604Z</time></trkpt><trkpt lat="46.2668167" lon="11.7843433"><ele>1552.0</ele><time>2026-04-18T11:46:42.605Z</time></trkpt><trkpt lat="46.2668333" lon="11.7844983"><ele>1552.0</ele><time>2026-04-18T11:46:43.604Z</time></trkpt><trkpt lat="46.2668383" lon="11.7846667"><ele>1552.0</ele><time>2026-04-18T11:46:44.604Z</time></trkpt><trkpt lat="46.2668483" lon="11.7848333"><ele>1550.1999999999998</ele><time>2026-04-18T11:46:45.604Z</time></trkpt><trkpt lat="46.2668617" lon="11.7849917"><ele>1548.4</ele><time>2026-04-18T11:46:46.604Z</time></trkpt><trkpt lat="46.2668683" lon="11.78515"><ele>1546.6</ele><time>2026-04-18T11:46:47.604Z</time></trkpt><trkpt lat="46.26686" lon="11.7853033"><ele>1544.8000000000002</ele><time>2026-04-18T11:46:48.604Z</time></trkpt><trkpt lat="46.2668433" lon="11.7854517"><ele>1543.0</ele><time>2026-04-18T11:46:49.604Z</time></trkpt><trkpt lat="46.266815" lon="11.7855933"><ele>1542.8333333333335</ele><time>2026-04-18T11:46:50.604Z</time></trkpt><trkpt lat="46.266795" lon="11.785715"><ele>1542.6666666666667</ele><time>2026-04-18T11:46:51.604Z</time></trkpt><trkpt lat="46.2667783" lon="11.7858233"><ele>1542.5</ele><time>2026-04-18T11:46:52.604Z</time></trkpt><trkpt lat="46.2667567" lon="11.7859367"><ele>1542.3333333333335</ele><time>2026-04-18T11:46:53.604Z</time></trkpt><trkpt lat="46.266745" lon="11.7860367"><ele>1542.1666666666667</ele><time>2026-04-18T11:46:54.605Z</time></trkpt><trkpt lat="46.2667417" lon="11.786135"><ele>1542.0</ele><time>2026-04-18T11:46:55.604Z</time></trkpt><trkpt lat="46.26674" lon="11.7863"><ele>1541.3333333333333</ele><time>2026-04-18T11:46:57.604Z</time></trkpt><trkpt lat="46.26676" lon="11.7864133"><ele>1540.6666666666665</ele><time>2026-04-18T11:46:59.604Z</time></trkpt><trkpt lat="46.2667917" lon="11.7865333"><ele>1540.0</ele><time>2026-04-18T11:47:01.604Z</time></trkpt><trkpt lat="46.2668067" lon="11.7867033"><ele>1539.3333333333333</ele><time>2026-04-18T11:47:03.604Z</time></trkpt><trkpt lat="46.2668067" lon="11.7868033"><ele>1538.6666666666665</ele><time>2026-04-18T11:47:04.604Z</time></trkpt><trkpt lat="46.2668133" lon="11.7869067"><ele>1538.0</ele><time>2026-04-18T11:47:05.604Z</time></trkpt><trkpt lat="46.2668367" lon="11.7870183"><ele>1535.0</ele><time>2026-04-18T11:47:06.604Z</time></trkpt><trkpt lat="46.26687" lon="11.787135"><ele>1532.0</ele><time>2026-04-18T11:47:07.605Z</time></trkpt><trkpt lat="46.2669167" lon="11.7872467"><ele>1529.0</ele><time>2026-04-18T11:47:08.605Z</time></trkpt><trkpt lat="46.2669767" lon="11.7873433"><ele>1526.0</ele><time>2026-04-18T11:47:09.604Z</time></trkpt><trkpt lat="46.2670317" lon="11.7874683"><ele>1523.0</ele><time>2026-04-18T11:47:10.604Z</time></trkpt><trkpt lat="46.267075" lon="11.7876117"><ele>1521.0</ele><time>2026-04-18T11:47:11.604Z</time></trkpt><trkpt lat="46.2671133" lon="11.7877733"><ele>1519.0</ele><time>2026-04-18T11:47:12.604Z</time></trkpt><trkpt lat="46.2671383" lon="11.7879417"><ele>1517.0</ele><time>2026-04-18T11:47:13.605Z</time></trkpt><trkpt lat="46.26715" lon="11.7881317"><ele>1515.0</ele><time>2026-04-18T11:47:14.604Z</time></trkpt><trkpt lat="46.2671667" lon="11.788305"><ele>1515.0</ele><time>2026-04-18T11:47:15.604Z</time></trkpt><trkpt lat="46.267175" lon="11.7884567"><ele>1515.0</ele><time>2026-04-18T11:47:16.604Z</time></trkpt><trkpt lat="46.2671717" lon="11.7885767"><ele>1515.0</ele><time>2026-04-18T11:47:17.604Z</time></trkpt><trkpt lat="46.2671333" lon="11.78871"><ele>1515.0</ele><time>2026-04-18T11:47:18.604Z</time></trkpt><trkpt lat="46.2670583" lon="11.78886"><ele>1515.0</ele><time>2026-04-18T11:47:19.605Z</time></trkpt><trkpt lat="46.266955" lon="11.78902"><ele>1517.0</ele><time>2026-04-18T11:47:20.604Z</time></trkpt><trkpt lat="46.266835" lon="11.7891783"><ele>1519.0</ele><time>2026-04-18T11:47:21.604Z</time></trkpt><trkpt lat="46.2667217" lon="11.789345"><ele>1521.0</ele><time>2026-04-18T11:47:22.604Z</time></trkpt><trkpt lat="46.26661" lon="11.7895317"><ele>1524.3333333333333</ele><time>2026-04-18T11:47:23.604Z</time></trkpt><trkpt lat="46.2664983" lon="11.7897183"><ele>1527.6666666666665</ele><time>2026-04-18T11:47:24.604Z</time></trkpt><trkpt lat="46.26638" lon="11.78991"><ele>1531.0</ele><time>2026-04-18T11:47:25.604Z</time></trkpt><trkpt lat="46.2662683" lon="11.7900967"><ele>1524.3333333333333</ele><time>2026-04-18T11:47:26.604Z</time></trkpt><trkpt lat="46.26617" lon="11.7902733"><ele>1517.6666666666667</ele><time>2026-04-18T11:47:27.604Z</time></trkpt><trkpt lat="46.2660667" lon="11.7904583"><ele>1511.0</ele><time>2026-04-18T11:47:28.604Z</time></trkpt><trkpt lat="46.26596" lon="11.7906317"><ele>1511.0</ele><time>2026-04-18T11:47:29.604Z</time></trkpt><trkpt lat="46.265865" lon="11.7907967"><ele>1511.0</ele><time>2026-04-18T11:47:30.605Z</time></trkpt><trkpt lat="46.26578" lon="11.7909617"><ele>1511.0</ele><time>2026-04-18T11:47:31.604Z</time></trkpt><trkpt lat="46.265705" lon="11.7911283"><ele>1511.0</ele><time>2026-04-18T11:47:32.605Z</time></trkpt><trkpt lat="46.2656317" lon="11.7912933"><ele>1509.75</ele><time>2026-04-18T11:47:33.604Z</time></trkpt><trkpt lat="46.2655633" lon="11.791455"><ele>1508.5</ele><time>2026-04-18T11:47:34.604Z</time></trkpt><trkpt lat="46.2655033" lon="11.7916117"><ele>1507.25</ele><time>2026-04-18T11:47:35.604Z</time></trkpt><trkpt lat="46.265445" lon="11.7917717"><ele>1506.0</ele><time>2026-04-18T11:47:36.604Z</time></trkpt><trkpt lat="46.2653817" lon="11.7919317"><ele>1506.0</ele><time>2026-04-18T11:47:37.605Z</time></trkpt><trkpt lat="46.2652983" lon="11.792095"><ele>1506.0</ele><time>2026-04-18T11:47:38.604Z</time></trkpt><trkpt lat="46.2651967" lon="11.7922617"><ele>1506.0</ele><time>2026-04-18T11:47:39.604Z</time></trkpt><trkpt lat="46.2650983" lon="11.7924183"><ele>1506.0</ele><time>2026-04-18T11:47:40.604Z</time></trkpt><trkpt lat="46.2650233" lon="11.7925917"><ele>1503.0</ele><time>2026-04-18T11:47:41.604Z</time></trkpt><trkpt lat="46.26496" lon="11.7927617"><ele>1500.0</ele><time>2026-04-18T11:47:42.605Z</time></trkpt><trkpt lat="46.2649017" lon="11.7929467"><ele>1497.0</ele><time>2026-04-18T11:47:43.605Z</time></trkpt><trkpt lat="46.26484" lon="11.7931183"><ele>1494.0</ele><time>2026-04-18T11:47:44.605Z</time></trkpt><trkpt lat="46.2647783" lon="11.7932883"><ele>1494.0</ele><time>2026-04-18T11:47:45.605Z</time></trkpt><trkpt lat="46.2647183" lon="11.7934633"><ele>1494.0</ele><time>2026-04-18T11:47:46.604Z</time></trkpt><trkpt lat="46.2646517" lon="11.7936217"><ele>1494.0</ele><time>2026-04-18T11:47:47.605Z</time></trkpt><trkpt lat="46.2645833" lon="11.793785"><ele>1494.0</ele><time>2026-04-18T11:47:48.604Z</time></trkpt><trkpt lat="46.26451" lon="11.793935"><ele>1494.25</ele><time>2026-04-18T11:47:49.605Z</time></trkpt><trkpt lat="46.2644467" lon="11.7941"><ele>1494.5</ele><time>2026-04-18T11:47:50.604Z</time></trkpt><trkpt lat="46.2643767" lon="11.794265"><ele>1494.75</ele><time>2026-04-18T11:47:51.604Z</time></trkpt><trkpt lat="46.26432" lon="11.7944183"><ele>1495.0</ele><time>2026-04-18T11:47:52.605Z</time></trkpt><trkpt lat="46.2642717" lon="11.7945583"><ele>1496.0</ele><time>2026-04-18T11:47:53.604Z</time></trkpt><trkpt lat="46.2642533" lon="11.7946983"><ele>1497.0</ele><time>2026-04-18T11:47:54.604Z</time></trkpt><trkpt lat="46.264245" lon="11.7948467"><ele>1498.0</ele><time>2026-04-18T11:47:55.604Z</time></trkpt><trkpt lat="46.2642433" lon="11.7949983"><ele>1499.0</ele><time>2026-04-18T11:47:56.604Z</time></trkpt><trkpt lat="46.26424" lon="11.7951533"><ele>1500.0</ele><time>2026-04-18T11:47:57.604Z</time></trkpt><trkpt lat="46.2642267" lon="11.7952983"><ele>1500.0</ele><time>2026-04-18T11:47:58.605Z</time></trkpt><trkpt lat="46.2641883" lon="11.795445"><ele>1500.0</ele><time>2026-04-18T11:47:59.604Z</time></trkpt><trkpt lat="46.264135" lon="11.79559"><ele>1500.0</ele><time>2026-04-18T11:48:00.605Z</time></trkpt><trkpt lat="46.2640767" lon="11.7957283"><ele>1500.0</ele><time>2026-04-18T11:48:01.604Z</time></trkpt><trkpt lat="46.2640017" lon="11.7958833"><ele>1493.5</ele><time>2026-04-18T11:48:02.604Z</time></trkpt><trkpt lat="46.2639167" lon="11.796045"><ele>1487.0</ele><time>2026-04-18T11:48:03.604Z</time></trkpt><trkpt lat="46.2638117" lon="11.796185"><ele>1480.5</ele><time>2026-04-18T11:48:04.604Z</time></trkpt><trkpt lat="46.263715" lon="11.7962967"><ele>1474.0</ele><time>2026-04-18T11:48:05.604Z</time></trkpt><trkpt lat="46.263615" lon="11.796415"><ele>1474.0</ele><time>2026-04-18T11:48:06.604Z</time></trkpt><trkpt lat="46.2635217" lon="11.79653"><ele>1474.0</ele><time>2026-04-18T11:48:07.604Z</time></trkpt><trkpt lat="46.2634383" lon="11.7966317"><ele>1474.0</ele><time>2026-04-18T11:48:08.605Z</time></trkpt><trkpt lat="46.2633683" lon="11.7967217"><ele>1474.0</ele><time>2026-04-18T11:48:09.604Z</time></trkpt><trkpt lat="46.2633117" lon="11.7968067"><ele>1474.0</ele><time>2026-04-18T11:48:10.604Z</time></trkpt><trkpt lat="46.2632683" lon="11.79689"><ele>1474.4</ele><time>2026-04-18T11:48:11.604Z</time></trkpt><trkpt lat="46.2632083" lon="11.79704"><ele>1474.8000000000002</ele><time>2026-04-18T11:48:13.604Z</time></trkpt><trkpt lat="46.2631717" lon="11.7971717"><ele>1475.1999999999998</ele><time>2026-04-18T11:48:15.604Z</time></trkpt><trkpt lat="46.2631367" lon="11.7972817"><ele>1475.6</ele><time>2026-04-18T11:48:17.604Z</time></trkpt><trkpt lat="46.263115" lon="11.7974033"><ele>1476.0</ele><time>2026-04-18T11:48:19.604Z</time></trkpt><trkpt lat="46.263095" lon="11.7975317"><ele>1476.0</ele><time>2026-04-18T11:48:21.604Z</time></trkpt><trkpt lat="46.2630717" lon="11.7976683"><ele>1476.0</ele><time>2026-04-18T11:48:23.604Z</time></trkpt><trkpt lat="46.263055" lon="11.797805"><ele>1476.0</ele><time>2026-04-18T11:48:25.604Z</time></trkpt><trkpt lat="46.2630233" lon="11.7979567"><ele>1476.0</ele><time>2026-04-18T11:48:27.604Z</time></trkpt><trkpt lat="46.263005" lon="11.7981033"><ele>1476.0</ele><time>2026-04-18T11:48:29.604Z</time></trkpt><trkpt lat="46.2629867" lon="11.798255"><ele>1476.1999999999998</ele><time>2026-04-18T11:48:31.605Z</time></trkpt><trkpt lat="46.2629583" lon="11.7984033"><ele>1476.3999999999999</ele><time>2026-04-18T11:48:33.604Z</time></trkpt><trkpt lat="46.26293" lon="11.798505"><ele>1476.6</ele><time>2026-04-18T11:48:35.605Z</time></trkpt><trkpt lat="46.2629833" lon="11.7985917"><ele>1476.8</ele><time>2026-04-18T11:48:40.604Z</time></trkpt><trkpt lat="46.2630583" lon="11.79864"><ele>1477.0</ele><time>2026-04-18T11:48:42.604Z</time></trkpt><trkpt lat="46.2631233" lon="11.7987633"><ele>1477.1666666666665</ele><time>2026-04-18T11:48:44.604Z</time></trkpt><trkpt lat="46.2631433" lon="11.7988533"><ele>1477.3333333333333</ele><time>2026-04-18T11:48:45.605Z</time></trkpt><trkpt lat="46.2631567" lon="11.7989633"><ele>1477.5</ele><time>2026-04-18T11:48:46.604Z</time></trkpt><trkpt lat="46.2631667" lon="11.79907"><ele>1477.6666666666667</ele><time>2026-04-18T11:48:47.604Z</time></trkpt><trkpt lat="46.2631633" lon="11.79918"><ele>1477.8333333333335</ele><time>2026-04-18T11:48:48.604Z</time></trkpt><trkpt lat="46.2631467" lon="11.799305"><ele>1478.0</ele><time>2026-04-18T11:48:49.604Z</time></trkpt><trkpt lat="46.2631283" lon="11.7994217"><ele>1477.0</ele><time>2026-04-18T11:48:50.604Z</time></trkpt><trkpt lat="46.2630983" lon="11.7995267"><ele>1476.0</ele><time>2026-04-18T11:48:51.604Z</time></trkpt><trkpt lat="46.263075" lon="11.799635"><ele>1475.0</ele><time>2026-04-18T11:48:52.604Z</time></trkpt><trkpt lat="46.2630583" lon="11.7997283"><ele>1474.0</ele><time>2026-04-18T11:48:53.605Z</time></trkpt><trkpt lat="46.263045" lon="11.7998833"><ele>1473.0</ele><time>2026-04-18T11:48:55.604Z</time></trkpt><trkpt lat="46.263045" lon="11.8000517"><ele>1472.0</ele><time>2026-04-18T11:48:57.604Z</time></trkpt><trkpt lat="46.2630483" lon="11.800145"><ele>1471.1999999999998</ele><time>2026-04-18T11:48:58.604Z</time></trkpt><trkpt lat="46.263075" lon="11.8002817"><ele>1470.4</ele><time>2026-04-18T11:49:00.604Z</time></trkpt><trkpt lat="46.2631033" lon="11.8003783"><ele>1469.6</ele><time>2026-04-18T11:49:14.605Z</time></trkpt><trkpt lat="46.26315" lon="11.8004733"><ele>1468.8000000000002</ele><time>2026-04-18T11:49:16.604Z</time></trkpt><trkpt lat="46.2631983" lon="11.800605"><ele>1468.0</ele><time>2026-04-18T11:49:18.605Z</time></trkpt><trkpt lat="46.263245" lon="11.8007317"><ele>1470.0</ele><time>2026-04-18T11:49:20.605Z</time></trkpt><trkpt lat="46.263295" lon="11.8008317"><ele>1472.0</ele><time>2026-04-18T11:49:22.605Z</time></trkpt><trkpt lat="46.263325" lon="11.8009233"><ele>1474.0</ele><time>2026-04-18T11:49:24.604Z</time></trkpt><trkpt lat="46.263315" lon="11.8010783"><ele>1476.0</ele><time>2026-04-18T11:49:27.604Z</time></trkpt><trkpt lat="46.2632367" lon="11.8011983"><ele>1478.0</ele><time>2026-04-18T11:49:29.604Z</time></trkpt><trkpt lat="46.2631183" lon="11.8012667"><ele>1477.0</ele><time>2026-04-18T11:49:31.604Z</time></trkpt><trkpt lat="46.2630583" lon="11.801295"><ele>1476.0</ele><time>2026-04-18T11:49:32.604Z</time></trkpt><trkpt lat="46.2629767" lon="11.8013383"><ele>1475.0</ele><time>2026-04-18T11:49:34.604Z</time></trkpt><trkpt lat="46.2629233" lon="11.8014"><ele>1474.0</ele><time>2026-04-18T11:49:36.604Z</time></trkpt><trkpt lat="46.2628967" lon="11.8014883"><ele>1473.0</ele><time>2026-04-18T11:49:38.604Z</time></trkpt><trkpt lat="46.2628917" lon="11.801605"><ele>1472.0</ele><time>2026-04-18T11:49:40.604Z</time></trkpt><trkpt lat="46.26289" lon="11.8017083"><ele>1471.0</ele><time>2026-04-18T11:49:42.604Z</time></trkpt><trkpt lat="46.26289" lon="11.801805"><ele>1471.5</ele><time>2026-04-18T11:49:44.604Z</time></trkpt><trkpt lat="46.2628983" lon="11.8019083"><ele>1472.0</ele><time>2026-04-18T11:49:48.604Z</time></trkpt><trkpt lat="46.2629417" lon="11.8020283"><ele>1472.5</ele><time>2026-04-18T11:49:51.604Z</time></trkpt><trkpt lat="46.2629667" lon="11.80214"><ele>1473.0</ele><time>2026-04-18T11:49:53.605Z</time></trkpt><trkpt lat="46.2629917" lon="11.8022667"><ele>1473.5</ele><time>2026-04-18T11:49:55.604Z</time></trkpt><trkpt lat="46.2630217" lon="11.8024"><ele>1474.0</ele><time>2026-04-18T11:49:57.604Z</time></trkpt><trkpt lat="46.2630383" lon="11.8025367"><ele>1474.0</ele><time>2026-04-18T11:49:59.604Z</time></trkpt><trkpt lat="46.2630533" lon="11.802695"><ele>1474.0</ele><time>2026-04-18T11:50:01.604Z</time></trkpt><trkpt lat="46.26309" lon="11.80285"><ele>1474.0</ele><time>2026-04-18T11:50:03.605Z</time></trkpt><trkpt lat="46.2631067" lon="11.8029583"><ele>1474.0</ele><time>2026-04-18T11:50:05.604Z</time></trkpt><trkpt lat="46.2631233" lon="11.8030517"><ele>1474.0</ele><time>2026-04-18T11:50:34.604Z</time></trkpt><trkpt lat="46.2630633" lon="11.8031533"><ele>1474.0</ele><time>2026-04-18T11:50:36.604Z</time></trkpt><trkpt lat="46.2630117" lon="11.8032583"><ele>1474.0</ele><time>2026-04-18T11:50:38.604Z</time></trkpt><trkpt lat="46.26298" lon="11.803365"><ele>1474.0</ele><time>2026-04-18T11:50:40.604Z</time></trkpt><trkpt lat="46.2629483" lon="11.803455"><ele>1474.0</ele><time>2026-04-18T11:50:42.604Z</time></trkpt><trkpt lat="46.262895" lon="11.8035317"><ele>1474.0</ele><time>2026-04-18T11:50:44.604Z</time></trkpt><trkpt lat="46.2628383" lon="11.8035933"><ele>1474.0</ele><time>2026-04-18T11:50:46.604Z</time></trkpt><trkpt lat="46.2627733" lon="11.8036867"><ele>1474.0</ele><time>2026-04-18T11:50:49.604Z</time></trkpt><trkpt lat="46.2627333" lon="11.8037583"><ele>1474.0</ele><time>2026-04-18T11:50:51.604Z</time></trkpt><trkpt lat="46.2626867" lon="11.8038383"><ele>1474.0</ele><time>2026-04-18T11:50:53.605Z</time></trkpt><trkpt lat="46.2626433" lon="11.8039233"><ele>1474.0</ele><time>2026-04-18T11:50:55.604Z</time></trkpt><trkpt lat="46.2625983" lon="11.804015"><ele>1474.0</ele><time>2026-04-18T11:50:57.605Z</time></trkpt><trkpt lat="46.2625417" lon="11.8041033"><ele>1474.0</ele><time>2026-04-18T11:50:59.604Z</time></trkpt><trkpt lat="46.2624867" lon="11.8041933"><ele>1474.0</ele><time>2026-04-18T11:51:01.604Z</time></trkpt><trkpt lat="46.2624383" lon="11.8042867"><ele>1474.0</ele><time>2026-04-18T11:51:03.604Z</time></trkpt><trkpt lat="46.262375" lon="11.8043717"><ele>1474.0</ele><time>2026-04-18T11:51:05.604Z</time></trkpt><trkpt lat="46.26231" lon="11.8044533"><ele>1474.0</ele><time>2026-04-18T11:51:07.604Z</time></trkpt><trkpt lat="46.2622433" lon="11.8045317"><ele>1474.0</ele><time>2026-04-18T11:51:09.604Z</time></trkpt><trkpt lat="46.262185" lon="11.8046117"><ele>1474.0</ele><time>2026-04-18T11:51:11.604Z</time></trkpt><trkpt lat="46.2621033" lon="11.8046867"><ele>1474.0</ele><time>2026-04-18T11:51:13.604Z</time></trkpt><trkpt lat="46.262005" lon="11.804805"><ele>1474.0</ele><time>2026-04-18T11:51:15.604Z</time></trkpt><trkpt lat="46.2619517" lon="11.80487"><ele>1474.0</ele><time>2026-04-18T11:51:16.605Z</time></trkpt><trkpt lat="46.2619033" lon="11.8049433"><ele>1474.0</ele><time>2026-04-18T11:51:17.604Z</time></trkpt><trkpt lat="46.2618583" lon="11.80502"><ele>1474.0</ele><time>2026-04-18T11:51:18.604Z</time></trkpt><trkpt lat="46.261815" lon="11.8051033"><ele>1474.0</ele><time>2026-04-18T11:51:19.604Z</time></trkpt><trkpt lat="46.26177" lon="11.8051983"><ele>1474.5</ele><time>2026-04-18T11:51:20.604Z</time></trkpt><trkpt lat="46.2617417" lon="11.8053033"><ele>1475.0</ele><time>2026-04-18T11:51:21.604Z</time></trkpt><trkpt lat="46.2617417" lon="11.805425"><ele>1475.5</ele><time>2026-04-18T11:51:22.604Z</time></trkpt><trkpt lat="46.2617317" lon="11.80554"><ele>1476.0</ele><time>2026-04-18T11:51:23.604Z</time></trkpt><trkpt lat="46.2617167" lon="11.8056383"><ele>1476.5</ele><time>2026-04-18T11:51:24.605Z</time></trkpt><trkpt lat="46.2617" lon="11.8057417"><ele>1477.0</ele><time>2026-04-18T11:51:26.604Z</time></trkpt><trkpt lat="46.2616517" lon="11.8058183"><ele>1477.0</ele><time>2026-04-18T11:51:28.604Z</time></trkpt><trkpt lat="46.2615967" lon="11.8058733"><ele>1477.0</ele><time>2026-04-18T11:51:30.604Z</time></trkpt><trkpt lat="46.261525" lon="11.80598"><ele>1477.0</ele><time>2026-04-18T11:51:32.604Z</time></trkpt><trkpt lat="46.26142" lon="11.8060767"><ele>1477.0</ele><time>2026-04-18T11:51:34.604Z</time></trkpt><trkpt lat="46.2613717" lon="11.8061367"><ele>1477.0</ele><time>2026-04-18T11:51:35.605Z</time></trkpt><trkpt lat="46.261285" lon="11.80626"><ele>1475.1999999999998</ele><time>2026-04-18T11:51:37.604Z</time></trkpt><trkpt lat="46.2612167" lon="11.8063767"><ele>1473.4</ele><time>2026-04-18T11:51:39.604Z</time></trkpt><trkpt lat="46.2611583" lon="11.8065"><ele>1471.6</ele><time>2026-04-18T11:51:41.605Z</time></trkpt><trkpt lat="46.2611233" lon="11.8066217"><ele>1469.8000000000002</ele><time>2026-04-18T11:51:43.604Z</time></trkpt><trkpt lat="46.2611" lon="11.8067567"><ele>1468.0</ele><time>2026-04-18T11:51:45.605Z</time></trkpt><trkpt lat="46.2610767" lon="11.8069067"><ele>1468.0</ele><time>2026-04-18T11:51:47.604Z</time></trkpt><trkpt lat="46.2610367" lon="11.8070567"><ele>1468.0</ele><time>2026-04-18T11:51:49.605Z</time></trkpt><trkpt lat="46.2610183" lon="11.80721"><ele>1468.0</ele><time>2026-04-18T11:51:51.604Z</time></trkpt><trkpt lat="46.2610017" lon="11.8073467"><ele>1468.0</ele><time>2026-04-18T11:51:53.604Z</time></trkpt><trkpt lat="46.260985" lon="11.807475"><ele>1468.0</ele><time>2026-04-18T11:51:55.604Z</time></trkpt><trkpt lat="46.2609633" lon="11.8076117"><ele>1468.3333333333333</ele><time>2026-04-18T11:51:57.604Z</time></trkpt><trkpt lat="46.2609667" lon="11.807745"><ele>1468.6666666666665</ele><time>2026-04-18T11:51:59.604Z</time></trkpt><trkpt lat="46.26098" lon="11.8078717"><ele>1469.0</ele><time>2026-04-18T11:52:01.604Z</time></trkpt><trkpt lat="46.2609833" lon="11.8079833"><ele>1469.3333333333333</ele><time>2026-04-18T11:52:03.604Z</time></trkpt><trkpt lat="46.2609733" lon="11.8080933"><ele>1469.6666666666667</ele><time>2026-04-18T11:52:05.604Z</time></trkpt><trkpt lat="46.2609633" lon="11.8082133"><ele>1470.0</ele><time>2026-04-18T11:52:07.604Z</time></trkpt><trkpt lat="46.2609883" lon="11.80831"><ele>1470.0</ele><time>2026-04-18T11:52:20.605Z</time></trkpt><trkpt lat="46.2609217" lon="11.8082033"><ele>1470.0</ele><time>2026-04-18T11:52:35.604Z</time></trkpt><trkpt lat="46.2609033" lon="11.8080867"><ele>1470.0</ele><time>2026-04-18T11:52:37.604Z</time></trkpt><trkpt lat="46.2609267" lon="11.807935"><ele>1470.0</ele><time>2026-04-18T11:52:39.604Z</time></trkpt><trkpt lat="46.2609317" lon="11.8077817"><ele>1470.0</ele><time>2026-04-18T11:52:41.604Z</time></trkpt><trkpt lat="46.2609433" lon="11.8076233"><ele>1469.6</ele><time>2026-04-18T11:52:43.604Z</time></trkpt><trkpt lat="46.26097" lon="11.8074467"><ele>1469.2</ele><time>2026-04-18T11:52:45.604Z</time></trkpt><trkpt lat="46.26099" lon="11.807285"><ele>1468.8000000000002</ele><time>2026-04-18T11:52:47.604Z</time></trkpt><trkpt lat="46.261" lon="11.80714"><ele>1468.4</ele><time>2026-04-18T11:52:49.604Z</time></trkpt><trkpt lat="46.261015" lon="11.806995"><ele>1468.0</ele><time>2026-04-18T11:52:51.604Z</time></trkpt><trkpt lat="46.261055" lon="11.806835"><ele>1468.0</ele><time>2026-04-18T11:52:53.604Z</time></trkpt><trkpt lat="46.2610917" lon="11.8066783"><ele>1468.0</ele><time>2026-04-18T11:52:55.604Z</time></trkpt><trkpt lat="46.2611317" lon="11.80654"><ele>1468.0</ele><time>2026-04-18T11:52:57.604Z</time></trkpt><trkpt lat="46.2611983" lon="11.8064067"><ele>1468.0</ele><time>2026-04-18T11:52:59.604Z</time></trkpt><trkpt lat="46.2612717" lon="11.806275"><ele>1468.0</ele><time>2026-04-18T11:53:01.604Z</time></trkpt><trkpt lat="46.261345" lon="11.8061533"><ele>1468.0</ele><time>2026-04-18T11:53:03.604Z</time></trkpt><trkpt lat="46.261435" lon="11.8060583"><ele>1468.0</ele><time>2026-04-18T11:53:05.604Z</time></trkpt><trkpt lat="46.26149" lon="11.8060067"><ele>1468.0</ele><time>2026-04-18T11:53:06.604Z</time></trkpt><trkpt lat="46.2615633" lon="11.8059033"><ele>1468.0</ele><time>2026-04-18T11:53:08.605Z</time></trkpt><trkpt lat="46.261595" lon="11.8058117"><ele>1468.0</ele><time>2026-04-18T11:53:10.604Z</time></trkpt><trkpt lat="46.2615483" lon="11.805715"><ele>1468.0</ele><time>2026-04-18T11:53:12.605Z</time></trkpt><trkpt lat="46.261455" lon="11.805595"><ele>1467.2</ele><time>2026-04-18T11:53:14.604Z</time></trkpt><trkpt lat="46.261405" lon="11.8055267"><ele>1466.4</ele><time>2026-04-18T11:53:15.604Z</time></trkpt><trkpt lat="46.261305" lon="11.8053833"><ele>1465.6000000000001</ele><time>2026-04-18T11:53:17.604Z</time></trkpt><trkpt lat="46.2612633" lon="11.8053133"><ele>1464.8000000000002</ele><time>2026-04-18T11:53:18.605Z</time></trkpt><trkpt lat="46.2611883" lon="11.80521"><ele>1464.0</ele><time>2026-04-18T11:53:20.605Z</time></trkpt><trkpt lat="46.2611167" lon="11.8051617"><ele>1464.0</ele><time>2026-04-18T11:53:23.605Z</time></trkpt><trkpt lat="46.26103" lon="11.8052317"><ele>1464.0</ele><time>2026-04-18T11:53:25.604Z</time></trkpt><trkpt lat="46.2609633" lon="11.8053033"><ele>1464.0</ele><time>2026-04-18T11:53:26.605Z</time></trkpt><trkpt lat="46.260885" lon="11.8053967"><ele>1464.0</ele><time>2026-04-18T11:53:27.604Z</time></trkpt><trkpt lat="46.2608117" lon="11.805505"><ele>1464.0</ele><time>2026-04-18T11:53:28.604Z</time></trkpt><trkpt lat="46.2607483" lon="11.8056017"><ele>1464.0</ele><time>2026-04-18T11:53:29.604Z</time></trkpt><trkpt lat="46.260695" lon="11.8057067"><ele>1464.0</ele><time>2026-04-18T11:53:30.604Z</time></trkpt><trkpt lat="46.2606333" lon="11.8058033"><ele>1464.0</ele><time>2026-04-18T11:53:31.604Z</time></trkpt><trkpt lat="46.26057" lon="11.8059033"><ele>1464.0</ele><time>2026-04-18T11:53:32.604Z</time></trkpt><trkpt lat="46.26051" lon="11.8059983"><ele>1464.0</ele><time>2026-04-18T11:53:33.604Z</time></trkpt><trkpt lat="46.26045" lon="11.8060983"><ele>1462.5</ele><time>2026-04-18T11:53:34.604Z</time></trkpt><trkpt lat="46.2603983" lon="11.8062"><ele>1461.0</ele><time>2026-04-18T11:53:35.605Z</time></trkpt><trkpt lat="46.2603533" lon="11.8062967"><ele>1459.5</ele><time>2026-04-18T11:53:36.603Z</time></trkpt><trkpt lat="46.2603233" lon="11.8064133"><ele>1458.0</ele><time>2026-04-18T11:53:37.604Z</time></trkpt><trkpt lat="46.2603033" lon="11.806525"><ele>1456.5</ele><time>2026-04-18T11:53:38.603Z</time></trkpt><trkpt lat="46.2603017" lon="11.80665"><ele>1455.0</ele><time>2026-04-18T11:53:39.603Z</time></trkpt><trkpt lat="46.260305" lon="11.8067717"><ele>1455.1666666666667</ele><time>2026-04-18T11:53:40.603Z</time></trkpt><trkpt lat="46.2603067" lon="11.80689"><ele>1455.3333333333333</ele><time>2026-04-18T11:53:41.603Z</time></trkpt><trkpt lat="46.2603117" lon="11.80701"><ele>1455.5</ele><time>2026-04-18T11:53:42.603Z</time></trkpt><trkpt lat="46.2603217" lon="11.8071233"><ele>1455.6666666666665</ele><time>2026-04-18T11:53:43.604Z</time></trkpt><trkpt lat="46.2603283" lon="11.807245"><ele>1455.8333333333333</ele><time>2026-04-18T11:53:44.603Z</time></trkpt><trkpt lat="46.26033" lon="11.8073667"><ele>1456.0</ele><time>2026-04-18T11:53:45.604Z</time></trkpt><trkpt lat="46.260335" lon="11.8075017"><ele>1456.0</ele><time>2026-04-18T11:53:46.603Z</time></trkpt><trkpt lat="46.2603283" lon="11.8076267"><ele>1456.0</ele><time>2026-04-18T11:53:47.603Z</time></trkpt><trkpt lat="46.26033" lon="11.80774"><ele>1456.0</ele><time>2026-04-18T11:53:48.603Z</time></trkpt><trkpt lat="46.260315" lon="11.8078467"><ele>1456.0</ele><time>2026-04-18T11:53:49.603Z</time></trkpt><trkpt lat="46.2602833" lon="11.8079433"><ele>1456.0</ele><time>2026-04-18T11:53:50.604Z</time></trkpt><trkpt lat="46.260235" lon="11.8080317"><ele>1456.0</ele><time>2026-04-18T11:53:51.603Z</time></trkpt><trkpt lat="46.26017" lon="11.8081133"><ele>1456.3333333333333</ele><time>2026-04-18T11:53:52.603Z</time></trkpt><trkpt lat="46.2600917" lon="11.8081917"><ele>1456.6666666666665</ele><time>2026-04-18T11:53:53.603Z</time></trkpt><trkpt lat="46.2600183" lon="11.8082533"><ele>1457.0</ele><time>2026-04-18T11:53:54.603Z</time></trkpt><trkpt lat="46.2599567" lon="11.8083167"><ele>1457.3333333333333</ele><time>2026-04-18T11:53:55.603Z</time></trkpt><trkpt lat="46.2599017" lon="11.80839"><ele>1457.6666666666667</ele><time>2026-04-18T11:53:56.603Z</time></trkpt><trkpt lat="46.2598533" lon="11.8084567"><ele>1458.0</ele><time>2026-04-18T11:53:57.603Z</time></trkpt><trkpt lat="46.25977" lon="11.80858"><ele>1458.1666666666667</ele><time>2026-04-18T11:53:59.603Z</time></trkpt><trkpt lat="46.2597167" lon="11.8086367"><ele>1458.3333333333333</ele><time>2026-04-18T11:54:00.603Z</time></trkpt><trkpt lat="46.2596467" lon="11.8086817"><ele>1458.5</ele><time>2026-04-18T11:54:01.604Z</time></trkpt><trkpt lat="46.2595783" lon="11.8087367"><ele>1458.6666666666665</ele><time>2026-04-18T11:54:02.603Z</time></trkpt><trkpt lat="46.25951" lon="11.80879"><ele>1458.8333333333333</ele><time>2026-04-18T11:54:03.603Z</time></trkpt><trkpt lat="46.2594383" lon="11.808845"><ele>1459.0</ele><time>2026-04-18T11:54:04.603Z</time></trkpt><trkpt lat="46.2593683" lon="11.8089"><ele>1458.9999999999998</ele><time>2026-04-18T11:54:05.604Z</time></trkpt><trkpt lat="46.2593017" lon="11.8089517"><ele>1459.0</ele><time>2026-04-18T11:54:06.603Z</time></trkpt><trkpt lat="46.2592383" lon="11.8089967"><ele>1459.0</ele><time>2026-04-18T11:54:07.603Z</time></trkpt><trkpt lat="46.259175" lon="11.8090183"><ele>1459.0</ele><time>2026-04-18T11:54:08.603Z</time></trkpt><trkpt lat="46.2591117" lon="11.809015"><ele>1459.0</ele><time>2026-04-18T11:54:09.603Z</time></trkpt><trkpt lat="46.2590467" lon="11.8089783"><ele>1458.9999999999998</ele><time>2026-04-18T11:54:10.603Z</time></trkpt><trkpt lat="46.2589933" lon="11.8088833"><ele>1459.0</ele><time>2026-04-18T11:54:11.603Z</time></trkpt><trkpt lat="46.258945" lon="11.8087783"><ele>1458.8000000000002</ele><time>2026-04-18T11:54:12.604Z</time></trkpt><trkpt lat="46.2588933" lon="11.8086533"><ele>1458.6000000000001</ele><time>2026-04-18T11:54:13.604Z</time></trkpt><trkpt lat="46.2588317" lon="11.8085217"><ele>1458.4</ele><time>2026-04-18T11:54:14.603Z</time></trkpt><trkpt lat="46.2587783" lon="11.8083883"><ele>1458.2</ele><time>2026-04-18T11:54:15.603Z</time></trkpt><trkpt lat="46.2587233" lon="11.8082583"><ele>1458.0</ele><time>2026-04-18T11:54:16.603Z</time></trkpt><trkpt lat="46.258675" lon="11.8081333"><ele>1457.5</ele><time>2026-04-18T11:54:17.603Z</time></trkpt><trkpt lat="46.2586283" lon="11.80802"><ele>1457.0</ele><time>2026-04-18T11:54:18.603Z</time></trkpt><trkpt lat="46.2585833" lon="11.8079083"><ele>1456.5</ele><time>2026-04-18T11:54:19.603Z</time></trkpt><trkpt lat="46.2585567" lon="11.8077933"><ele>1456.0</ele><time>2026-04-18T11:54:20.603Z</time></trkpt><trkpt lat="46.258555" lon="11.8076767"><ele>1455.5</ele><time>2026-04-18T11:54:21.603Z</time></trkpt><trkpt lat="46.25857" lon="11.8075483"><ele>1455.0</ele><time>2026-04-18T11:54:22.603Z</time></trkpt><trkpt lat="46.2586167" lon="11.80745"><ele>1453.0</ele><time>2026-04-18T11:54:23.604Z</time></trkpt><trkpt lat="46.2586783" lon="11.8073717"><ele>1451.0</ele><time>2026-04-18T11:54:24.603Z</time></trkpt><trkpt lat="46.25876" lon="11.8073267"><ele>1449.0</ele><time>2026-04-18T11:54:25.604Z</time></trkpt><trkpt lat="46.2588767" lon="11.8073233"><ele>1447.0</ele><time>2026-04-18T11:54:26.603Z</time></trkpt><trkpt lat="46.258995" lon="11.807315"><ele>1445.0</ele><time>2026-04-18T11:54:27.603Z</time></trkpt><trkpt lat="46.2591033" lon="11.8072917"><ele>1445.0</ele><time>2026-04-18T11:54:28.604Z</time></trkpt><trkpt lat="46.2592" lon="11.8072717"><ele>1445.0</ele><time>2026-04-18T11:54:29.603Z</time></trkpt><trkpt lat="46.259285" lon="11.80727"><ele>1445.0</ele><time>2026-04-18T11:54:30.603Z</time></trkpt><trkpt lat="46.259375" lon="11.807195"><ele>1445.0</ele><time>2026-04-18T11:54:32.603Z</time></trkpt><trkpt lat="46.25939" lon="11.807095"><ele>1445.0</ele><time>2026-04-18T11:54:39.603Z</time></trkpt><trkpt lat="46.2593583" lon="11.8069333"><ele>1444.9999999999998</ele><time>2026-04-18T11:54:41.603Z</time></trkpt><trkpt lat="46.259325" lon="11.8068483"><ele>1445.0</ele><time>2026-04-18T11:54:42.603Z</time></trkpt><trkpt lat="46.2592783" lon="11.80678"><ele>1445.0</ele><time>2026-04-18T11:54:43.604Z</time></trkpt><trkpt lat="46.25922" lon="11.8067333"><ele>1445.0</ele><time>2026-04-18T11:54:44.603Z</time></trkpt><trkpt lat="46.2591283" lon="11.8066783"><ele>1445.0</ele><time>2026-04-18T11:54:46.603Z</time></trkpt><trkpt lat="46.2590667" lon="11.806635"><ele>1444.9999999999998</ele><time>2026-04-18T11:54:48.603Z</time></trkpt><trkpt lat="46.25903" lon="11.8065333"><ele>1445.0</ele><time>2026-04-18T11:54:51.603Z</time></trkpt><trkpt lat="46.2589967" lon="11.8064017"><ele>1444.3333333333335</ele><time>2026-04-18T11:54:53.603Z</time></trkpt><trkpt lat="46.2589833" lon="11.8063117"><ele>1443.6666666666667</ele><time>2026-04-18T11:54:54.604Z</time></trkpt><trkpt lat="46.258985" lon="11.8062017"><ele>1443.0</ele><time>2026-04-18T11:54:55.603Z</time></trkpt><trkpt lat="46.258995" lon="11.80609"><ele>1442.3333333333333</ele><time>2026-04-18T11:54:56.603Z</time></trkpt><trkpt lat="46.2590183" lon="11.8059717"><ele>1441.6666666666665</ele><time>2026-04-18T11:54:57.604Z</time></trkpt><trkpt lat="46.2590533" lon="11.8058683"><ele>1441.0</ele><time>2026-04-18T11:54:58.603Z</time></trkpt><trkpt lat="46.2590817" lon="11.8057633"><ele>1441.0</ele><time>2026-04-18T11:54:59.604Z</time></trkpt><trkpt lat="46.2591033" lon="11.8056583"><ele>1441.0</ele><time>2026-04-18T11:55:00.604Z</time></trkpt><trkpt lat="46.2591183" lon="11.8054783"><ele>1441.0</ele><time>2026-04-18T11:55:02.603Z</time></trkpt><trkpt lat="46.2591483" lon="11.80531"><ele>1441.0</ele><time>2026-04-18T11:55:04.603Z</time></trkpt><trkpt lat="46.2592067" lon="11.8051667"><ele>1441.0</ele><time>2026-04-18T11:55:06.604Z</time></trkpt><trkpt lat="46.259245" lon="11.80504"><ele>1440.5</ele><time>2026-04-18T11:55:08.603Z</time></trkpt><trkpt lat="46.2592667" lon="11.80493"><ele>1440.0</ele><time>2026-04-18T11:55:10.603Z</time></trkpt><trkpt lat="46.25927" lon="11.804825"><ele>1439.5</ele><time>2026-04-18T11:55:12.603Z</time></trkpt><trkpt lat="46.2592583" lon="11.8047"><ele>1439.0</ele><time>2026-04-18T11:55:14.603Z</time></trkpt><trkpt lat="46.25924" lon="11.8045733"><ele>1438.5</ele><time>2026-04-18T11:55:16.603Z</time></trkpt><trkpt lat="46.25923" lon="11.8044283"><ele>1438.0</ele><time>2026-04-18T11:55:18.603Z</time></trkpt><trkpt lat="46.25923" lon="11.8043333"><ele>1437.8000000000002</ele><time>2026-04-18T11:55:19.603Z</time></trkpt><trkpt lat="46.2592283" lon="11.8041567"><ele>1437.6</ele><time>2026-04-18T11:55:21.603Z</time></trkpt><trkpt lat="46.25925" lon="11.8039883"><ele>1437.4</ele><time>2026-04-18T11:55:23.603Z</time></trkpt><trkpt lat="46.25926" lon="11.803895"><ele>1437.1999999999998</ele><time>2026-04-18T11:55:24.603Z</time></trkpt><trkpt lat="46.259275" lon="11.8037867"><ele>1437.0</ele><time>2026-04-18T11:55:25.603Z</time></trkpt><trkpt lat="46.259295" lon="11.8036683"><ele>1437.0</ele><time>2026-04-18T11:55:26.603Z</time></trkpt><trkpt lat="46.2593133" lon="11.8035483"><ele>1437.0</ele><time>2026-04-18T11:55:27.603Z</time></trkpt><trkpt lat="46.2593367" lon="11.8034217"><ele>1437.0</ele><time>2026-04-18T11:55:28.604Z</time></trkpt><trkpt lat="46.25936" lon="11.8032767"><ele>1437.0</ele><time>2026-04-18T11:55:29.603Z</time></trkpt><trkpt lat="46.2593667" lon="11.8031233"><ele>1437.0</ele><time>2026-04-18T11:55:30.603Z</time></trkpt><trkpt lat="46.259345" lon="11.8029833"><ele>1436.6</ele><time>2026-04-18T11:55:31.603Z</time></trkpt><trkpt lat="46.2592933" lon="11.8028467"><ele>1436.1999999999998</ele><time>2026-04-18T11:55:32.603Z</time></trkpt><trkpt lat="46.2592167" lon="11.8027233"><ele>1435.8</ele><time>2026-04-18T11:55:33.603Z</time></trkpt><trkpt lat="46.2591433" lon="11.8026183"><ele>1435.4</ele><time>2026-04-18T11:55:34.603Z</time></trkpt><trkpt lat="46.25909" lon="11.802555"><ele>1435.0</ele><time>2026-04-18T11:55:35.603Z</time></trkpt><trkpt lat="46.2590217" lon="11.8024767"><ele>1436.4</ele><time>2026-04-18T11:55:37.603Z</time></trkpt><trkpt lat="46.2588967" lon="11.8024467"><ele>1437.8</ele><time>2026-04-18T11:55:40.603Z</time></trkpt><trkpt lat="46.25882" lon="11.8024633"><ele>1439.1999999999998</ele><time>2026-04-18T11:55:41.603Z</time></trkpt><trkpt lat="46.2587267" lon="11.8024883"><ele>1440.6</ele><time>2026-04-18T11:55:42.603Z</time></trkpt><trkpt lat="46.2586117" lon="11.8025217"><ele>1442.0</ele><time>2026-04-18T11:55:43.604Z</time></trkpt><trkpt lat="46.2584817" lon="11.802545"><ele>1442.0</ele><time>2026-04-18T11:55:44.603Z</time></trkpt><trkpt lat="46.2583333" lon="11.80255"><ele>1442.0</ele><time>2026-04-18T11:55:45.604Z</time></trkpt><trkpt lat="46.2581867" lon="11.8025417"><ele>1442.0</ele><time>2026-04-18T11:55:46.603Z</time></trkpt><trkpt lat="46.2580483" lon="11.8025367"><ele>1442.0</ele><time>2026-04-18T11:55:47.604Z</time></trkpt><trkpt lat="46.2579217" lon="11.8025317"><ele>1440.75</ele><time>2026-04-18T11:55:48.603Z</time></trkpt><trkpt lat="46.2577983" lon="11.8025217"><ele>1439.5</ele><time>2026-04-18T11:55:49.603Z</time></trkpt><trkpt lat="46.2576767" lon="11.802485"><ele>1438.25</ele><time>2026-04-18T11:55:50.604Z</time></trkpt><trkpt lat="46.25756" lon="11.80244"><ele>1437.0</ele><time>2026-04-18T11:55:51.603Z</time></trkpt><trkpt lat="46.2574517" lon="11.8023817"><ele>1437.0</ele><time>2026-04-18T11:55:52.603Z</time></trkpt><trkpt lat="46.25734" lon="11.8023"><ele>1437.0</ele><time>2026-04-18T11:55:53.603Z</time></trkpt><trkpt lat="46.25723" lon="11.8022117"><ele>1437.0</ele><time>2026-04-18T11:55:54.603Z</time></trkpt><trkpt lat="46.2571217" lon="11.8021417"><ele>1437.0</ele><time>2026-04-18T11:55:55.603Z</time></trkpt><trkpt lat="46.2570233" lon="11.8021167"><ele>1436.3999999999999</ele><time>2026-04-18T11:55:56.603Z</time></trkpt><trkpt lat="46.2569217" lon="11.8021283"><ele>1435.8</ele><time>2026-04-18T11:55:57.603Z</time></trkpt><trkpt lat="46.2568433" lon="11.8021883"><ele>1435.2</ele><time>2026-04-18T11:55:58.603Z</time></trkpt><trkpt lat="46.2567917" lon="11.8022917"><ele>1434.6</ele><time>2026-04-18T11:55:59.604Z</time></trkpt><trkpt lat="46.2567733" lon="11.802415"><ele>1434.0</ele><time>2026-04-18T11:56:00.603Z</time></trkpt><trkpt lat="46.2568033" lon="11.8025533"><ele>1432.0</ele><time>2026-04-18T11:56:01.603Z</time></trkpt><trkpt lat="46.2568617" lon="11.8026883"><ele>1430.0</ele><time>2026-04-18T11:56:02.603Z</time></trkpt><trkpt lat="46.2569183" lon="11.8028217"><ele>1428.0</ele><time>2026-04-18T11:56:03.603Z</time></trkpt><trkpt lat="46.2569533" lon="11.8029467"><ele>1426.0</ele><time>2026-04-18T11:56:04.603Z</time></trkpt><trkpt lat="46.2569633" lon="11.80306"><ele>1424.0</ele><time>2026-04-18T11:56:05.603Z</time></trkpt><trkpt lat="46.25694" lon="11.8031633"><ele>1424.0</ele><time>2026-04-18T11:56:06.603Z</time></trkpt><trkpt lat="46.2568933" lon="11.8032433"><ele>1424.0</ele><time>2026-04-18T11:56:07.603Z</time></trkpt><trkpt lat="46.256775" lon="11.8032117"><ele>1424.0</ele><time>2026-04-18T11:56:08.603Z</time></trkpt><trkpt lat="46.2566767" lon="11.8031683"><ele>1424.0</ele><time>2026-04-18T11:56:09.604Z</time></trkpt><trkpt lat="46.2565767" lon="11.8030967"><ele>1424.0</ele><time>2026-04-18T11:56:10.603Z</time></trkpt><trkpt lat="46.2564783" lon="11.8030267"><ele>1422.25</ele><time>2026-04-18T11:56:11.603Z</time></trkpt><trkpt lat="46.2563783" lon="11.80295"><ele>1420.5</ele><time>2026-04-18T11:56:12.603Z</time></trkpt><trkpt lat="46.2562867" lon="11.8028433"><ele>1418.75</ele><time>2026-04-18T11:56:13.604Z</time></trkpt><trkpt lat="46.2562" lon="11.8027233"><ele>1417.0</ele><time>2026-04-18T11:56:14.603Z</time></trkpt><trkpt lat="46.2561167" lon="11.80257"><ele>1417.0</ele><time>2026-04-18T11:56:15.603Z</time></trkpt><trkpt lat="46.256035" lon="11.802395"><ele>1417.0</ele><time>2026-04-18T11:56:16.603Z</time></trkpt><trkpt lat="46.255965" lon="11.8022267"><ele>1417.0</ele><time>2026-04-18T11:56:17.604Z</time></trkpt><trkpt lat="46.255905" lon="11.8020633"><ele>1417.0</ele><time>2026-04-18T11:56:18.603Z</time></trkpt><trkpt lat="46.25585" lon="11.8018933"><ele>1419.0</ele><time>2026-04-18T11:56:19.604Z</time></trkpt><trkpt lat="46.2558033" lon="11.8017117"><ele>1421.0</ele><time>2026-04-18T11:56:20.603Z</time></trkpt><trkpt lat="46.2557617" lon="11.8015183"><ele>1423.0</ele><time>2026-04-18T11:56:21.603Z</time></trkpt><trkpt lat="46.2557233" lon="11.8013283"><ele>1425.0</ele><time>2026-04-18T11:56:22.603Z</time></trkpt><trkpt lat="46.25569" lon="11.80114"><ele>1428.25</ele><time>2026-04-18T11:56:23.604Z</time></trkpt><trkpt lat="46.2556533" lon="11.8009417"><ele>1431.5</ele><time>2026-04-18T11:56:24.603Z</time></trkpt><trkpt lat="46.2556283" lon="11.800745"><ele>1434.75</ele><time>2026-04-18T11:56:25.603Z</time></trkpt><trkpt lat="46.2556083" lon="11.8005517"><ele>1438.0</ele><time>2026-04-18T11:56:26.603Z</time></trkpt><trkpt lat="46.2556017" lon="11.8003733"><ele>1428.25</ele><time>2026-04-18T11:56:27.603Z</time></trkpt><trkpt lat="46.2555933" lon="11.800215"><ele>1418.5</ele><time>2026-04-18T11:56:28.603Z</time></trkpt><trkpt lat="46.25555" lon="11.8000517"><ele>1408.75</ele><time>2026-04-18T11:56:29.603Z</time></trkpt><trkpt lat="46.25546" lon="11.79991"><ele>1399.0</ele><time>2026-04-18T11:56:30.603Z</time></trkpt><trkpt lat="46.2553617" lon="11.799785"><ele>1399.0</ele><time>2026-04-18T11:56:31.603Z</time></trkpt><trkpt lat="46.25527" lon="11.799685"><ele>1399.0</ele><time>2026-04-18T11:56:32.603Z</time></trkpt><trkpt lat="46.2551933" lon="11.7995817"><ele>1399.0</ele><time>2026-04-18T11:56:33.604Z</time></trkpt><trkpt lat="46.2551133" lon="11.799505"><ele>1399.0</ele><time>2026-04-18T11:56:34.604Z</time></trkpt><trkpt lat="46.2550317" lon="11.7994717"><ele>1399.0</ele><time>2026-04-18T11:56:35.603Z</time></trkpt><trkpt lat="46.254935" lon="11.799495"><ele>1399.0</ele><time>2026-04-18T11:56:36.603Z</time></trkpt><trkpt lat="46.25484" lon="11.79957"><ele>1399.0</ele><time>2026-04-18T11:56:37.603Z</time></trkpt><trkpt lat="46.2547567" lon="11.79971"><ele>1399.0</ele><time>2026-04-18T11:56:38.603Z</time></trkpt><trkpt lat="46.254715" lon="11.7998833"><ele>1399.0</ele><time>2026-04-18T11:56:39.603Z</time></trkpt><trkpt lat="46.2546883" lon="11.8000817"><ele>1400.25</ele><time>2026-04-18T11:56:40.603Z</time></trkpt><trkpt lat="46.254685" lon="11.8002817"><ele>1401.5</ele><time>2026-04-18T11:56:41.603Z</time></trkpt><trkpt lat="46.2547" lon="11.800475"><ele>1402.75</ele><time>2026-04-18T11:56:42.604Z</time></trkpt><trkpt lat="46.2546917" lon="11.8006767"><ele>1404.0</ele><time>2026-04-18T11:56:43.603Z</time></trkpt><trkpt lat="46.25468" lon="11.8008683"><ele>1402.5</ele><time>2026-04-18T11:56:44.604Z</time></trkpt><trkpt lat="46.2546667" lon="11.8010617"><ele>1401.0</ele><time>2026-04-18T11:56:45.604Z</time></trkpt><trkpt lat="46.2546433" lon="11.8012483"><ele>1399.5</ele><time>2026-04-18T11:56:46.603Z</time></trkpt><trkpt lat="46.25459" lon="11.801425"><ele>1398.0</ele><time>2026-04-18T11:56:47.603Z</time></trkpt><trkpt lat="46.2545117" lon="11.8015883"><ele>1398.0</ele><time>2026-04-18T11:56:48.603Z</time></trkpt><trkpt lat="46.2544267" lon="11.8017433"><ele>1398.0</ele><time>2026-04-18T11:56:49.603Z</time></trkpt><trkpt lat="46.25435" lon="11.801885"><ele>1398.0</ele><time>2026-04-18T11:56:50.604Z</time></trkpt><trkpt lat="46.2543067" lon="11.802055"><ele>1398.0</ele><time>2026-04-18T11:56:51.603Z</time></trkpt><trkpt lat="46.2542733" lon="11.8022217"><ele>1396.6000000000001</ele><time>2026-04-18T11:56:52.603Z</time></trkpt><trkpt lat="46.2542433" lon="11.8023783"><ele>1395.2</ele><time>2026-04-18T11:56:53.603Z</time></trkpt><trkpt lat="46.2541983" lon="11.802515"><ele>1393.8</ele><time>2026-04-18T11:56:54.603Z</time></trkpt><trkpt lat="46.25414" lon="11.8026083"><ele>1392.4</ele><time>2026-04-18T11:56:55.603Z</time></trkpt><trkpt lat="46.254065" lon="11.80267"><ele>1391.0</ele><time>2026-04-18T11:56:56.603Z</time></trkpt><trkpt lat="46.2539567" lon="11.8026717"><ele>1389.25</ele><time>2026-04-18T11:56:57.603Z</time></trkpt><trkpt lat="46.2538383" lon="11.802655"><ele>1387.5</ele><time>2026-04-18T11:56:58.603Z</time></trkpt><trkpt lat="46.2537033" lon="11.8026167"><ele>1385.75</ele><time>2026-04-18T11:56:59.603Z</time></trkpt><trkpt lat="46.2535633" lon="11.8025833"><ele>1384.0</ele><time>2026-04-18T11:57:00.603Z</time></trkpt><trkpt lat="46.2534083" lon="11.8025467"><ele>1384.0</ele><time>2026-04-18T11:57:01.603Z</time></trkpt><trkpt lat="46.25324" lon="11.80252"><ele>1384.0</ele><time>2026-04-18T11:57:02.603Z</time></trkpt><trkpt lat="46.2530717" lon="11.8025017"><ele>1384.0</ele><time>2026-04-18T11:57:03.603Z</time></trkpt><trkpt lat="46.2528983" lon="11.8024783"><ele>1381.0</ele><time>2026-04-18T11:57:04.604Z</time></trkpt><trkpt lat="46.2527183" lon="11.8024467"><ele>1378.0</ele><time>2026-04-18T11:57:05.603Z</time></trkpt><trkpt lat="46.2525467" lon="11.80242"><ele>1375.0</ele><time>2026-04-18T11:57:06.604Z</time></trkpt><trkpt lat="46.25238" lon="11.802405"><ele>1374.3333333333333</ele><time>2026-04-18T11:57:07.603Z</time></trkpt><trkpt lat="46.25223" lon="11.8023817"><ele>1373.6666666666667</ele><time>2026-04-18T11:57:08.603Z</time></trkpt><trkpt lat="46.2520733" lon="11.8023617"><ele>1373.0</ele><time>2026-04-18T11:57:09.603Z</time></trkpt><trkpt lat="46.25193" lon="11.802345"><ele>1373.0</ele><time>2026-04-18T11:57:10.604Z</time></trkpt><trkpt lat="46.2517817" lon="11.8023183"><ele>1373.0</ele><time>2026-04-18T11:57:11.603Z</time></trkpt><trkpt lat="46.25163" lon="11.80229"><ele>1373.0</ele><time>2026-04-18T11:57:12.603Z</time></trkpt><trkpt lat="46.2514733" lon="11.8022533"><ele>1371.3333333333335</ele><time>2026-04-18T11:57:13.604Z</time></trkpt><trkpt lat="46.2513233" lon="11.8022583"><ele>1369.6666666666667</ele><time>2026-04-18T11:57:14.603Z</time></trkpt><trkpt lat="46.2511667" lon="11.8022617"><ele>1368.0</ele><time>2026-04-18T11:57:15.603Z</time></trkpt><trkpt lat="46.251005" lon="11.8022633"><ele>1368.0</ele><time>2026-04-18T11:57:16.603Z</time></trkpt><trkpt lat="46.2508467" lon="11.802255"><ele>1368.0</ele><time>2026-04-18T11:57:17.603Z</time></trkpt><trkpt lat="46.25069" lon="11.8022367"><ele>1368.0</ele><time>2026-04-18T11:57:18.603Z</time></trkpt><trkpt lat="46.2505383" lon="11.802215"><ele>1366.0</ele><time>2026-04-18T11:57:19.603Z</time></trkpt><trkpt lat="46.250375" lon="11.80221"><ele>1364.0</ele><time>2026-04-18T11:57:20.603Z</time></trkpt><trkpt lat="46.25022" lon="11.8022017"><ele>1362.0</ele><time>2026-04-18T11:57:21.603Z</time></trkpt><trkpt lat="46.25007" lon="11.8022133"><ele>1362.0</ele><time>2026-04-18T11:57:22.603Z</time></trkpt><trkpt lat="46.2499333" lon="11.8022217"><ele>1362.0</ele><time>2026-04-18T11:57:23.604Z</time></trkpt><trkpt lat="46.249805" lon="11.8022183"><ele>1362.0</ele><time>2026-04-18T11:57:24.604Z</time></trkpt><trkpt lat="46.2496833" lon="11.802215"><ele>1362.0</ele><time>2026-04-18T11:57:25.603Z</time></trkpt><trkpt lat="46.24956" lon="11.8022317"><ele>1364.6666666666667</ele><time>2026-04-18T11:57:26.603Z</time></trkpt><trkpt lat="46.24943" lon="11.802295"><ele>1367.3333333333335</ele><time>2026-04-18T11:57:27.603Z</time></trkpt><trkpt lat="46.249275" lon="11.8024033"><ele>1370.0</ele><time>2026-04-18T11:57:28.603Z</time></trkpt><trkpt lat="46.2491183" lon="11.8025183"><ele>1370.0</ele><time>2026-04-18T11:57:29.603Z</time></trkpt><trkpt lat="46.2489667" lon="11.802625"><ele>1370.0</ele><time>2026-04-18T11:57:30.604Z</time></trkpt><trkpt lat="46.2488117" lon="11.80272"><ele>1370.0</ele><time>2026-04-18T11:57:31.603Z</time></trkpt><trkpt lat="46.2486633" lon="11.8027983"><ele>1363.5</ele><time>2026-04-18T11:57:32.603Z</time></trkpt><trkpt lat="46.2485333" lon="11.80289"><ele>1357.0</ele><time>2026-04-18T11:57:33.603Z</time></trkpt><trkpt lat="46.2484133" lon="11.802985"><ele>1350.5</ele><time>2026-04-18T11:57:34.604Z</time></trkpt><trkpt lat="46.24829" lon="11.8030883"><ele>1344.0</ele><time>2026-04-18T11:57:35.603Z</time></trkpt><trkpt lat="46.2481667" lon="11.8031533"><ele>1345.25</ele><time>2026-04-18T11:57:36.603Z</time></trkpt><trkpt lat="46.2480383" lon="11.8031883"><ele>1346.5</ele><time>2026-04-18T11:57:37.603Z</time></trkpt><trkpt lat="46.2479033" lon="11.8032033"><ele>1347.75</ele><time>2026-04-18T11:57:38.603Z</time></trkpt><trkpt lat="46.2477683" lon="11.8032167"><ele>1349.0</ele><time>2026-04-18T11:57:39.603Z</time></trkpt><trkpt lat="46.2476283" lon="11.8032367"><ele>1349.0</ele><time>2026-04-18T11:57:40.603Z</time></trkpt><trkpt lat="46.2474983" lon="11.8032667"><ele>1349.0</ele><time>2026-04-18T11:57:41.604Z</time></trkpt><trkpt lat="46.247385" lon="11.8033317"><ele>1349.0</ele><time>2026-04-18T11:57:42.603Z</time></trkpt><trkpt lat="46.24728" lon="11.8033983"><ele>1349.0</ele><time>2026-04-18T11:57:43.603Z</time></trkpt><trkpt lat="46.2471867" lon="11.8034683"><ele>1350.0</ele><time>2026-04-18T11:57:44.604Z</time></trkpt><trkpt lat="46.2470883" lon="11.8034783"><ele>1351.0</ele><time>2026-04-18T11:57:45.603Z</time></trkpt><trkpt lat="46.2469933" lon="11.8034417"><ele>1352.0</ele><time>2026-04-18T11:57:46.603Z</time></trkpt><trkpt lat="46.2469" lon="11.8033833"><ele>1353.0</ele><time>2026-04-18T11:57:47.603Z</time></trkpt><trkpt lat="46.2468067" lon="11.8033283"><ele>1354.0</ele><time>2026-04-18T11:57:48.603Z</time></trkpt><trkpt lat="46.2467117" lon="11.8033017"><ele>1354.0</ele><time>2026-04-18T11:57:49.603Z</time></trkpt><trkpt lat="46.24662" lon="11.8033417"><ele>1354.0</ele><time>2026-04-18T11:57:50.604Z</time></trkpt><trkpt lat="46.2465117" lon="11.8034067"><ele>1354.0</ele><time>2026-04-18T11:57:51.604Z</time></trkpt><trkpt lat="46.2464033" lon="11.8035017"><ele>1354.0</ele><time>2026-04-18T11:57:52.603Z</time></trkpt><trkpt lat="46.2462883" lon="11.8035767"><ele>1347.0</ele><time>2026-04-18T11:57:53.603Z</time></trkpt><trkpt lat="46.2461717" lon="11.8036417"><ele>1340.0</ele><time>2026-04-18T11:57:54.604Z</time></trkpt><trkpt lat="46.2460333" lon="11.8037283"><ele>1333.0</ele><time>2026-04-18T11:57:55.603Z</time></trkpt><trkpt lat="46.2458833" lon="11.80384"><ele>1326.0</ele><time>2026-04-18T11:57:56.603Z</time></trkpt><trkpt lat="46.2457183" lon="11.8039933"><ele>1327.3333333333333</ele><time>2026-04-18T11:57:57.604Z</time></trkpt><trkpt lat="46.245565" lon="11.8040933"><ele>1328.6666666666665</ele><time>2026-04-18T11:57:58.603Z</time></trkpt><trkpt lat="46.2454017" lon="11.8042167"><ele>1330.0</ele><time>2026-04-18T11:57:59.604Z</time></trkpt><trkpt lat="46.2452417" lon="11.8043317"><ele>1323.5</ele><time>2026-04-18T11:58:00.603Z</time></trkpt><trkpt lat="46.2450967" lon="11.8043967"><ele>1317.0</ele><time>2026-04-18T11:58:01.603Z</time></trkpt><trkpt lat="46.2449617" lon="11.80446"><ele>1310.5</ele><time>2026-04-18T11:58:02.604Z</time></trkpt><trkpt lat="46.2448367" lon="11.8045267"><ele>1304.0</ele><time>2026-04-18T11:58:03.603Z</time></trkpt><trkpt lat="46.2447117" lon="11.8045733"><ele>1303.5</ele><time>2026-04-18T11:58:04.603Z</time></trkpt><trkpt lat="46.2445833" lon="11.8046433"><ele>1303.0</ele><time>2026-04-18T11:58:05.604Z</time></trkpt><trkpt lat="46.2444417" lon="11.8047133"><ele>1302.5</ele><time>2026-04-18T11:58:06.603Z</time></trkpt><trkpt lat="46.2442933" lon="11.8047767"><ele>1302.0</ele><time>2026-04-18T11:58:07.603Z</time></trkpt><trkpt lat="46.2441417" lon="11.8048417"><ele>1302.0</ele><time>2026-04-18T11:58:08.603Z</time></trkpt><trkpt lat="46.2439867" lon="11.8049133"><ele>1302.0</ele><time>2026-04-18T11:58:09.603Z</time></trkpt><trkpt lat="46.243835" lon="11.8049833"><ele>1302.0</ele><time>2026-04-18T11:58:10.603Z</time></trkpt><trkpt lat="46.24369" lon="11.8050283"><ele>1309.5</ele><time>2026-04-18T11:58:11.603Z</time></trkpt><trkpt lat="46.243545" lon="11.8050433"><ele>1317.0</ele><time>2026-04-18T11:58:12.603Z</time></trkpt><trkpt lat="46.2434167" lon="11.8050217"><ele>1324.5</ele><time>2026-04-18T11:58:13.603Z</time></trkpt><trkpt lat="46.243305" lon="11.80499"><ele>1332.0</ele><time>2026-04-18T11:58:14.603Z</time></trkpt><trkpt lat="46.2432" lon="11.8050033"><ele>1333.5</ele><time>2026-04-18T11:58:15.604Z</time></trkpt><trkpt lat="46.243095" lon="11.8050367"><ele>1335.0</ele><time>2026-04-18T11:58:16.603Z</time></trkpt><trkpt lat="46.24298" lon="11.8051433"><ele>1336.5</ele><time>2026-04-18T11:58:17.603Z</time></trkpt><trkpt lat="46.24287" lon="11.80524"><ele>1338.0</ele><time>2026-04-18T11:58:18.603Z</time></trkpt><trkpt lat="46.2427617" lon="11.8053067"><ele>1334.5</ele><time>2026-04-18T11:58:19.603Z</time></trkpt><trkpt lat="46.2426417" lon="11.8053117"><ele>1331.0</ele><time>2026-04-18T11:58:20.603Z</time></trkpt><trkpt lat="46.2425" lon="11.805265"><ele>1327.5</ele><time>2026-04-18T11:58:21.603Z</time></trkpt><trkpt lat="46.24236" lon="11.8051983"><ele>1324.0</ele><time>2026-04-18T11:58:22.604Z</time></trkpt><trkpt lat="46.242225" lon="11.8051417"><ele>1324.0</ele><time>2026-04-18T11:58:23.603Z</time></trkpt><trkpt lat="46.2421017" lon="11.8051"><ele>1324.0</ele><time>2026-04-18T11:58:24.603Z</time></trkpt><trkpt lat="46.2419817" lon="11.8050983"><ele>1324.0</ele><time>2026-04-18T11:58:25.603Z</time></trkpt><trkpt lat="46.2418567" lon="11.8051767"><ele>1324.0</ele><time>2026-04-18T11:58:26.603Z</time></trkpt><trkpt lat="46.2417233" lon="11.8052983"><ele>1313.6666666666665</ele><time>2026-04-18T11:58:27.603Z</time></trkpt><trkpt lat="46.24157" lon="11.8053917"><ele>1303.3333333333333</ele><time>2026-04-18T11:58:28.603Z</time></trkpt><trkpt lat="46.2414067" lon="11.8054583"><ele>1293.0</ele><time>2026-04-18T11:58:29.603Z</time></trkpt><trkpt lat="46.2412517" lon="11.80553"><ele>1292.0</ele><time>2026-04-18T11:58:30.603Z</time></trkpt><trkpt lat="46.2411067" lon="11.8056233"><ele>1291.0</ele><time>2026-04-18T11:58:31.604Z</time></trkpt><trkpt lat="46.2409667" lon="11.8057233"><ele>1290.0</ele><time>2026-04-18T11:58:32.604Z</time></trkpt><trkpt lat="46.2408633" lon="11.80584"><ele>1289.0</ele><time>2026-04-18T11:58:33.603Z</time></trkpt><trkpt lat="46.2407583" lon="11.8059233"><ele>1289.0</ele><time>2026-04-18T11:58:34.603Z</time></trkpt><trkpt lat="46.2406417" lon="11.8059517"><ele>1289.0</ele><time>2026-04-18T11:58:35.604Z</time></trkpt><trkpt lat="46.2405267" lon="11.8059467"><ele>1289.0</ele><time>2026-04-18T11:58:36.603Z</time></trkpt><trkpt lat="46.2404117" lon="11.805915"><ele>1289.0</ele><time>2026-04-18T11:58:37.603Z</time></trkpt><trkpt lat="46.24031" lon="11.8058767"><ele>1288.5</ele><time>2026-04-18T11:58:38.603Z</time></trkpt><trkpt lat="46.24023" lon="11.8058483"><ele>1288.0</ele><time>2026-04-18T11:58:39.603Z</time></trkpt><trkpt lat="46.2401533" lon="11.805865"><ele>1287.5</ele><time>2026-04-18T11:58:40.603Z</time></trkpt><trkpt lat="46.2401033" lon="11.8059233"><ele>1287.0</ele><time>2026-04-18T11:58:41.603Z</time></trkpt><trkpt lat="46.240095" lon="11.806015"><ele>1286.5</ele><time>2026-04-18T11:58:42.603Z</time></trkpt><trkpt lat="46.2401467" lon="11.8061617"><ele>1286.0</ele><time>2026-04-18T11:58:44.604Z</time></trkpt><trkpt lat="46.2402117" lon="11.8062133"><ele>1276.3333333333335</ele><time>2026-04-18T11:58:45.603Z</time></trkpt><trkpt lat="46.2403267" lon="11.8062467"><ele>1266.6666666666667</ele><time>2026-04-18T11:58:46.603Z</time></trkpt><trkpt lat="46.2404817" lon="11.80624"><ele>1257.0</ele><time>2026-04-18T11:58:47.603Z</time></trkpt><trkpt lat="46.2407167" lon="11.8061233"><ele>1267.6666666666667</ele><time>2026-04-18T11:58:48.603Z</time></trkpt><trkpt lat="46.240925" lon="11.8058917"><ele>1278.3333333333335</ele><time>2026-04-18T11:58:49.603Z</time></trkpt><trkpt lat="46.24108" lon="11.8058283"><ele>1289.0</ele><time>2026-04-18T11:58:50.603Z</time></trkpt><trkpt lat="46.2412317" lon="11.805795"><ele>1289.0</ele><time>2026-04-18T11:58:51.603Z</time></trkpt><trkpt lat="46.241375" lon="11.8058083"><ele>1289.0</ele><time>2026-04-18T11:58:52.603Z</time></trkpt><trkpt lat="46.2415233" lon="11.8058317"><ele>1289.0</ele><time>2026-04-18T11:58:53.603Z</time></trkpt><trkpt lat="46.2416667" lon="11.8058533"><ele>1289.0</ele><time>2026-04-18T11:58:54.603Z</time></trkpt><trkpt lat="46.241795" lon="11.80585"><ele>1289.8000000000002</ele><time>2026-04-18T11:58:55.604Z</time></trkpt><trkpt lat="46.2419217" lon="11.8058217"><ele>1290.6000000000001</ele><time>2026-04-18T11:58:56.603Z</time></trkpt><trkpt lat="46.24203" lon="11.8057633"><ele>1291.4</ele><time>2026-04-18T11:58:57.603Z</time></trkpt><trkpt lat="46.2421183" lon="11.8057067"><ele>1292.2</ele><time>2026-04-18T11:58:58.603Z</time></trkpt><trkpt lat="46.242185" lon="11.8056717"><ele>1293.0</ele><time>2026-04-18T11:58:59.603Z</time></trkpt><trkpt lat="46.2422683" lon="11.805745"><ele>1293.0</ele><time>2026-04-18T11:59:01.603Z</time></trkpt><trkpt lat="46.242235" lon="11.8058783"><ele>1293.0</ele><time>2026-04-18T11:59:03.603Z</time></trkpt><trkpt lat="46.242125" lon="11.8058983"><ele>1293.0</ele><time>2026-04-18T11:59:04.603Z</time></trkpt><trkpt lat="46.2419917" lon="11.8059417"><ele>1293.0</ele><time>2026-04-18T11:59:05.603Z</time></trkpt><trkpt lat="46.241835" lon="11.8060117"><ele>1281.0</ele><time>2026-04-18T11:59:06.603Z</time></trkpt><trkpt lat="46.2416817" lon="11.8061017"><ele>1269.0</ele><time>2026-04-18T11:59:07.603Z</time></trkpt><trkpt lat="46.241525" lon="11.8061967"><ele>1257.0</ele><time>2026-04-18T11:59:08.603Z</time></trkpt><trkpt lat="46.24138" lon="11.8062733"><ele>1257.0</ele><time>2026-04-18T11:59:09.603Z</time></trkpt><trkpt lat="46.24125" lon="11.8063017"><ele>1257.0</ele><time>2026-04-18T11:59:10.603Z</time></trkpt><trkpt lat="46.241115" lon="11.8063367"><ele>1257.0</ele><time>2026-04-18T11:59:11.603Z</time></trkpt><trkpt lat="46.24097" lon="11.8064067"><ele>1257.0</ele><time>2026-04-18T11:59:12.603Z</time></trkpt><trkpt lat="46.2408333" lon="11.8064933"><ele>1257.0</ele><time>2026-04-18T11:59:13.604Z</time></trkpt><trkpt lat="46.24071" lon="11.8065617"><ele>1257.0</ele><time>2026-04-18T11:59:14.603Z</time></trkpt><trkpt lat="46.2406017" lon="11.80661"><ele>1257.0</ele><time>2026-04-18T11:59:15.603Z</time></trkpt><trkpt lat="46.2405" lon="11.80663"><ele>1257.0</ele><time>2026-04-18T11:59:16.603Z</time></trkpt><trkpt lat="46.240395" lon="11.8066167"><ele>1256.0</ele><time>2026-04-18T11:59:17.603Z</time></trkpt><trkpt lat="46.2402733" lon="11.80657"><ele>1255.0</ele><time>2026-04-18T11:59:18.603Z</time></trkpt><trkpt lat="46.2401367" lon="11.8065033"><ele>1254.0</ele><time>2026-04-18T11:59:19.603Z</time></trkpt><trkpt lat="46.2399667" lon="11.8064433"><ele>1253.0</ele><time>2026-04-18T11:59:20.603Z</time></trkpt><trkpt lat="46.23978" lon="11.80638"><ele>1250.6666666666667</ele><time>2026-04-18T11:59:21.603Z</time></trkpt><trkpt lat="46.2395967" lon="11.8063367"><ele>1248.3333333333333</ele><time>2026-04-18T11:59:22.603Z</time></trkpt><trkpt lat="46.2394333" lon="11.8062817"><ele>1246.0</ele><time>2026-04-18T11:59:23.603Z</time></trkpt><trkpt lat="46.2392883" lon="11.80627"><ele>1246.0</ele><time>2026-04-18T11:59:24.604Z</time></trkpt><trkpt lat="46.239145" lon="11.8063"><ele>1246.0</ele><time>2026-04-18T11:59:25.603Z</time></trkpt><trkpt lat="46.2390067" lon="11.80632"><ele>1246.0</ele><time>2026-04-18T11:59:26.604Z</time></trkpt><trkpt lat="46.238885" lon="11.80635"><ele>1246.0</ele><time>2026-04-18T11:59:27.603Z</time></trkpt><trkpt lat="46.2387717" lon="11.806355"><ele>1246.8</ele><time>2026-04-18T11:59:28.603Z</time></trkpt><trkpt lat="46.2386667" lon="11.8063517"><ele>1247.6</ele><time>2026-04-18T11:59:29.603Z</time></trkpt><trkpt lat="46.23857" lon="11.80637"><ele>1248.4</ele><time>2026-04-18T11:59:30.603Z</time></trkpt><trkpt lat="46.2384717" lon="11.8064017"><ele>1249.2</ele><time>2026-04-18T11:59:31.603Z</time></trkpt><trkpt lat="46.2383633" lon="11.8064883"><ele>1250.0</ele><time>2026-04-18T11:59:32.603Z</time></trkpt><trkpt lat="46.2382667" lon="11.8066"><ele>1250.0</ele><time>2026-04-18T11:59:33.603Z</time></trkpt><trkpt lat="46.2381683" lon="11.806735"><ele>1250.0</ele><time>2026-04-18T11:59:34.603Z</time></trkpt><trkpt lat="46.238075" lon="11.8068367"><ele>1250.0</ele><time>2026-04-18T11:59:35.603Z</time></trkpt><trkpt lat="46.2379767" lon="11.8069083"><ele>1250.0</ele><time>2026-04-18T11:59:36.603Z</time></trkpt><trkpt lat="46.2378717" lon="11.8069617"><ele>1250.25</ele><time>2026-04-18T11:59:37.603Z</time></trkpt><trkpt lat="46.237785" lon="11.80693"><ele>1250.5</ele><time>2026-04-18T11:59:38.603Z</time></trkpt><trkpt lat="46.2376633" lon="11.8069583"><ele>1250.75</ele><time>2026-04-18T11:59:39.603Z</time></trkpt><trkpt lat="46.2375433" lon="11.806915"><ele>1251.0</ele><time>2026-04-18T11:59:40.604Z</time></trkpt><trkpt lat="46.2374267" lon="11.8068133"><ele>1250.25</ele><time>2026-04-18T11:59:41.604Z</time></trkpt><trkpt lat="46.237295" lon="11.806735"><ele>1249.5</ele><time>2026-04-18T11:59:42.603Z</time></trkpt><trkpt lat="46.2371867" lon="11.8066933"><ele>1248.75</ele><time>2026-04-18T11:59:43.603Z</time></trkpt><trkpt lat="46.2370683" lon="11.8067433"><ele>1248.0</ele><time>2026-04-18T11:59:44.603Z</time></trkpt><trkpt lat="46.2369367" lon="11.8068617"><ele>1238.5</ele><time>2026-04-18T11:59:45.603Z</time></trkpt><trkpt lat="46.23682" lon="11.8069783"><ele>1229.0</ele><time>2026-04-18T11:59:46.603Z</time></trkpt><trkpt lat="46.236715" lon="11.807115"><ele>1219.5</ele><time>2026-04-18T11:59:47.603Z</time></trkpt><trkpt lat="46.2366133" lon="11.8072167"><ele>1210.0</ele><time>2026-04-18T11:59:48.604Z</time></trkpt><trkpt lat="46.2365" lon="11.80727"><ele>1210.0</ele><time>2026-04-18T11:59:49.603Z</time></trkpt><trkpt lat="46.2363967" lon="11.8073017"><ele>1210.0</ele><time>2026-04-18T11:59:50.603Z</time></trkpt><trkpt lat="46.236265" lon="11.8072983"><ele>1210.0</ele><time>2026-04-18T11:59:51.603Z</time></trkpt><trkpt lat="46.2361217" lon="11.8072633"><ele>1210.0</ele><time>2026-04-18T11:59:52.604Z</time></trkpt><trkpt lat="46.2359567" lon="11.8072283"><ele>1210.0</ele><time>2026-04-18T11:59:53.603Z</time></trkpt><trkpt lat="46.2357733" lon="11.80719"><ele>1210.0</ele><time>2026-04-18T11:59:54.603Z</time></trkpt><trkpt lat="46.2356117" lon="11.80718"><ele>1210.0</ele><time>2026-04-18T11:59:55.603Z</time></trkpt><trkpt lat="46.235465" lon="11.8071767"><ele>1209.0</ele><time>2026-04-18T11:59:56.603Z</time></trkpt><trkpt lat="46.2353217" lon="11.8071767"><ele>1208.0</ele><time>2026-04-18T11:59:57.604Z</time></trkpt><trkpt lat="46.2351667" lon="11.80716"><ele>1207.0</ele><time>2026-04-18T11:59:58.603Z</time></trkpt><trkpt lat="46.2350167" lon="11.8071433"><ele>1206.0</ele><time>2026-04-18T11:59:59.603Z</time></trkpt><trkpt lat="46.234875" lon="11.80714"><ele>1204.6</ele><time>2026-04-18T12:00:00.603Z</time></trkpt><trkpt lat="46.2347483" lon="11.807135"><ele>1203.1999999999998</ele><time>2026-04-18T12:00:01.603Z</time></trkpt><trkpt lat="46.2346383" lon="11.8071383"><ele>1201.8000000000002</ele><time>2026-04-18T12:00:02.603Z</time></trkpt><trkpt lat="46.2345567" lon="11.8071233"><ele>1200.4</ele><time>2026-04-18T12:00:03.604Z</time></trkpt><trkpt lat="46.234485" lon="11.807125"><ele>1199.0</ele><time>2026-04-18T12:00:04.603Z</time></trkpt><trkpt lat="46.2344217" lon="11.80715"><ele>1199.0</ele><time>2026-04-18T12:00:05.604Z</time></trkpt><trkpt lat="46.234395" lon="11.8072867"><ele>1199.0</ele><time>2026-04-18T12:00:07.603Z</time></trkpt><trkpt lat="46.2344367" lon="11.8073783"><ele>1199.0</ele><time>2026-04-18T12:00:08.603Z</time></trkpt><trkpt lat="46.2345267" lon="11.8074467"><ele>1199.0</ele><time>2026-04-18T12:00:10.604Z</time></trkpt><trkpt lat="46.23462" lon="11.8074733"><ele>1199.0</ele><time>2026-04-18T12:00:11.603Z</time></trkpt><trkpt lat="46.234745" lon="11.80749"><ele>1201.3333333333335</ele><time>2026-04-18T12:00:12.603Z</time></trkpt><trkpt lat="46.2349517" lon="11.8075"><ele>1203.6666666666667</ele><time>2026-04-18T12:00:13.603Z</time></trkpt><trkpt lat="46.2351567" lon="11.8075083"><ele>1206.0</ele><time>2026-04-18T12:00:14.603Z</time></trkpt><trkpt lat="46.2353633" lon="11.8075083"><ele>1206.0</ele><time>2026-04-18T12:00:15.604Z</time></trkpt><trkpt lat="46.235495" lon="11.80754"><ele>1206.0</ele><time>2026-04-18T12:00:16.603Z</time></trkpt><trkpt lat="46.2355867" lon="11.8075433"><ele>1206.0</ele><time>2026-04-18T12:00:17.603Z</time></trkpt><trkpt lat="46.2356633" lon="11.8075583"><ele>1206.0</ele><time>2026-04-18T12:00:18.603Z</time></trkpt><trkpt lat="46.23575" lon="11.8076417"><ele>1206.0</ele><time>2026-04-18T12:00:20.603Z</time></trkpt><trkpt lat="46.2357267" lon="11.8077417"><ele>1206.0</ele><time>2026-04-18T12:00:22.604Z</time></trkpt><trkpt lat="46.2355767" lon="11.8077167"><ele>1206.0</ele><time>2026-04-18T12:00:24.604Z</time></trkpt><trkpt lat="46.2354783" lon="11.807665"><ele>1206.0</ele><time>2026-04-18T12:00:25.604Z</time></trkpt><trkpt lat="46.2353633" lon="11.8076267"><ele>1206.0</ele><time>2026-04-18T12:00:26.603Z</time></trkpt><trkpt lat="46.2352299" lon="11.8076212"><ele>1206.0</ele><time>2026-04-18T12:00:27.603Z</time></trkpt><trkpt lat="46.2350694" lon="11.8076486"><ele>1206.0</ele><time>2026-04-18T12:00:28.603Z</time></trkpt><trkpt lat="46.2348929" lon="11.8076873"><ele>1206.0</ele><time>2026-04-18T12:00:29.603Z</time></trkpt><trkpt lat="46.2347151" lon="11.8077294"><ele>1190.0</ele><time>2026-04-18T12:00:30.604Z</time></trkpt><trkpt lat="46.2345411" lon="11.8077661"><ele>1174.0</ele><time>2026-04-18T12:00:31.603Z</time></trkpt><trkpt lat="46.2343757" lon="11.8077839"><ele>1158.0</ele><time>2026-04-18T12:00:32.603Z</time></trkpt><trkpt lat="46.2342116" lon="11.807777"><ele>1158.0</ele><time>2026-04-18T12:00:33.604Z</time></trkpt><trkpt lat="46.2340448" lon="11.8077454"><ele>1158.0</ele><time>2026-04-18T12:00:34.603Z</time></trkpt><trkpt lat="46.233875" lon="11.8077105"><ele>1158.0</ele><time>2026-04-18T12:00:35.603Z</time></trkpt><trkpt lat="46.233712" lon="11.8076706"><ele>1155.0</ele><time>2026-04-18T12:00:36.603Z</time></trkpt><trkpt lat="46.2335536" lon="11.807647"><ele>1152.0</ele><time>2026-04-18T12:00:37.603Z</time></trkpt><trkpt lat="46.2333816" lon="11.8076429"><ele>1149.0</ele><time>2026-04-18T12:00:38.603Z</time></trkpt><trkpt lat="46.2331953" lon="11.807664"><ele>1149.0</ele><time>2026-04-18T12:00:39.604Z</time></trkpt><trkpt lat="46.2330114" lon="11.8076984"><ele>1149.0</ele><time>2026-04-18T12:00:40.603Z</time></trkpt><trkpt lat="46.2328361" lon="11.8077412"><ele>1149.0</ele><time>2026-04-18T12:00:41.603Z</time></trkpt><trkpt lat="46.2326804" lon="11.8077813"><ele>1149.0</ele><time>2026-04-18T12:00:42.603Z</time></trkpt><trkpt lat="46.2325318" lon="11.8078116"><ele>1149.0</ele><time>2026-04-18T12:00:43.604Z</time></trkpt><trkpt lat="46.2323895" lon="11.8078107"><ele>1149.0</ele><time>2026-04-18T12:00:44.604Z</time></trkpt><trkpt lat="46.2322445" lon="11.8077876"><ele>1149.0</ele><time>2026-04-18T12:00:45.603Z</time></trkpt><trkpt lat="46.2321034" lon="11.8077355"><ele>1159.0</ele><time>2026-04-18T12:00:46.603Z</time></trkpt><trkpt lat="46.2319809" lon="11.8076463"><ele>1169.0</ele><time>2026-04-18T12:00:47.603Z</time></trkpt><trkpt lat="46.2318783" lon="11.8075724"><ele>1179.0</ele><time>2026-04-18T12:00:48.603Z</time></trkpt><trkpt lat="46.2317834" lon="11.8074957"><ele>1189.0</ele><time>2026-04-18T12:00:49.603Z</time></trkpt><trkpt lat="46.2317026" lon="11.8074374"><ele>1189.0</ele><time>2026-04-18T12:00:50.603Z</time></trkpt><trkpt lat="46.231622" lon="11.8074411"><ele>1189.0</ele><time>2026-04-18T12:00:51.603Z</time></trkpt><trkpt lat="46.2315332" lon="11.8075283"><ele>1189.0</ele><time>2026-04-18T12:00:52.604Z</time></trkpt><trkpt lat="46.2314387" lon="11.80769"><ele>1189.0</ele><time>2026-04-18T12:00:53.603Z</time></trkpt><trkpt lat="46.2313604" lon="11.8079383"><ele>1184.3333333333333</ele><time>2026-04-18T12:00:54.603Z</time></trkpt><trkpt lat="46.231282" lon="11.8081697"><ele>1179.6666666666667</ele><time>2026-04-18T12:00:55.603Z</time></trkpt><trkpt lat="46.2312064" lon="11.8083744"><ele>1175.0</ele><time>2026-04-18T12:00:56.604Z</time></trkpt><trkpt lat="46.2311241" lon="11.8085435"><ele>1168.25</ele><time>2026-04-18T12:00:57.603Z</time></trkpt><trkpt lat="46.2310129" lon="11.8086688"><ele>1161.5</ele><time>2026-04-18T12:00:58.603Z</time></trkpt><trkpt lat="46.2308827" lon="11.8087589"><ele>1154.75</ele><time>2026-04-18T12:00:59.604Z</time></trkpt><trkpt lat="46.2307497" lon="11.8088136"><ele>1148.0</ele><time>2026-04-18T12:01:00.603Z</time></trkpt><trkpt lat="46.2305904" lon="11.8088315"><ele>1148.0</ele><time>2026-04-18T12:01:01.603Z</time></trkpt><trkpt lat="46.2304158" lon="11.8088331"><ele>1148.0</ele><time>2026-04-18T12:01:02.604Z</time></trkpt><trkpt lat="46.2302019" lon="11.8088079"><ele>1148.0</ele><time>2026-04-18T12:01:03.604Z</time></trkpt><trkpt lat="46.229969" lon="11.8087711"><ele>1148.3333333333335</ele><time>2026-04-18T12:01:04.603Z</time></trkpt><trkpt lat="46.2297526" lon="11.8087465"><ele>1148.6666666666667</ele><time>2026-04-18T12:01:05.603Z</time></trkpt><trkpt lat="46.2295634" lon="11.8087225"><ele>1149.0</ele><time>2026-04-18T12:01:06.603Z</time></trkpt><trkpt lat="46.2294149" lon="11.8087044"><ele>1149.0</ele><time>2026-04-18T12:01:07.603Z</time></trkpt><trkpt lat="46.2292956" lon="11.808703"><ele>1149.0</ele><time>2026-04-18T12:01:08.603Z</time></trkpt><trkpt lat="46.2292015" lon="11.8087149"><ele>1149.0</ele><time>2026-04-18T12:01:09.604Z</time></trkpt><trkpt lat="46.229125" lon="11.8087427"><ele>1149.0</ele><time>2026-04-18T12:01:10.603Z</time></trkpt><trkpt lat="46.2290513" lon="11.8087783"><ele>1149.0</ele><time>2026-04-18T12:01:11.603Z</time></trkpt><trkpt lat="46.2289756" lon="11.8088229"><ele>1145.25</ele><time>2026-04-18T12:01:12.604Z</time></trkpt><trkpt lat="46.2288901" lon="11.8088568"><ele>1141.5</ele><time>2026-04-18T12:01:13.603Z</time></trkpt><trkpt lat="46.2287811" lon="11.8088773"><ele>1137.75</ele><time>2026-04-18T12:01:14.603Z</time></trkpt><trkpt lat="46.2286452" lon="11.8088841"><ele>1134.0</ele><time>2026-04-18T12:01:15.603Z</time></trkpt><trkpt lat="46.228496" lon="11.8088806"><ele>1134.0</ele><time>2026-04-18T12:01:16.603Z</time></trkpt><trkpt lat="46.2283497" lon="11.8088534"><ele>1134.0</ele><time>2026-04-18T12:01:17.603Z</time></trkpt><trkpt lat="46.2282205" lon="11.8088093"><ele>1134.0</ele><time>2026-04-18T12:01:18.604Z</time></trkpt><trkpt lat="46.2281021" lon="11.8087338"><ele>1134.0</ele><time>2026-04-18T12:01:19.604Z</time></trkpt><trkpt lat="46.228007" lon="11.8086296"><ele>1135.5</ele><time>2026-04-18T12:01:20.604Z</time></trkpt><trkpt lat="46.2279201" lon="11.8085252"><ele>1137.0</ele><time>2026-04-18T12:01:21.603Z</time></trkpt><trkpt lat="46.2278183" lon="11.8084667"><ele>1138.5</ele><time>2026-04-18T12:01:22.603Z</time></trkpt><trkpt lat="46.2277003" lon="11.8084683"><ele>1140.0</ele><time>2026-04-18T12:01:23.604Z</time></trkpt><trkpt lat="46.2275702" lon="11.8085422"><ele>1133.6666666666667</ele><time>2026-04-18T12:01:24.603Z</time></trkpt><trkpt lat="46.2274202" lon="11.8086662"><ele>1127.3333333333335</ele><time>2026-04-18T12:01:25.603Z</time></trkpt><trkpt lat="46.2272784" lon="11.8087982"><ele>1121.0</ele><time>2026-04-18T12:01:26.603Z</time></trkpt><trkpt lat="46.2271496" lon="11.8089101"><ele>1119.25</ele><time>2026-04-18T12:01:27.603Z</time></trkpt><trkpt lat="46.2270301" lon="11.809013"><ele>1117.5</ele><time>2026-04-18T12:01:28.603Z</time></trkpt><trkpt lat="46.2269047" lon="11.8090907"><ele>1115.75</ele><time>2026-04-18T12:01:29.604Z</time></trkpt><trkpt lat="46.2267615" lon="11.8091285"><ele>1114.0</ele><time>2026-04-18T12:01:30.604Z</time></trkpt><trkpt lat="46.2266273" lon="11.8091265"><ele>1114.0</ele><time>2026-04-18T12:01:31.603Z</time></trkpt><trkpt lat="46.2265065" lon="11.8090868"><ele>1114.0</ele><time>2026-04-18T12:01:32.603Z</time></trkpt><trkpt lat="46.2263933" lon="11.8090133"><ele>1114.0</ele><time>2026-04-18T12:01:33.603Z</time></trkpt><trkpt lat="46.2262917" lon="11.8089317"><ele>1114.0</ele><time>2026-04-18T12:01:34.603Z</time></trkpt><trkpt lat="46.22621" lon="11.8088167"><ele>1112.75</ele><time>2026-04-18T12:01:35.603Z</time></trkpt><trkpt lat="46.22617" lon="11.808655"><ele>1111.5</ele><time>2026-04-18T12:01:36.603Z</time></trkpt><trkpt lat="46.2261333" lon="11.808455"><ele>1110.25</ele><time>2026-04-18T12:01:37.603Z</time></trkpt><trkpt lat="46.226095" lon="11.8082267"><ele>1109.0</ele><time>2026-04-18T12:01:38.604Z</time></trkpt><trkpt lat="46.226055" lon="11.8079967"><ele>1109.0</ele><time>2026-04-18T12:01:39.603Z</time></trkpt><trkpt lat="46.2260067" lon="11.8077767"><ele>1109.0</ele><time>2026-04-18T12:01:40.604Z</time></trkpt><trkpt lat="46.2259717" lon="11.807575"><ele>1109.0</ele><time>2026-04-18T12:01:41.604Z</time></trkpt><trkpt lat="46.2259267" lon="11.8073967"><ele>1109.0</ele><time>2026-04-18T12:01:42.603Z</time></trkpt><trkpt lat="46.2258967" lon="11.807235"><ele>1111.4</ele><time>2026-04-18T12:01:43.603Z</time></trkpt><trkpt lat="46.2258667" lon="11.807085"><ele>1113.8000000000002</ele><time>2026-04-18T12:01:44.604Z</time></trkpt><trkpt lat="46.22581" lon="11.8069483"><ele>1116.1999999999998</ele><time>2026-04-18T12:01:45.604Z</time></trkpt><trkpt lat="46.2257383" lon="11.8068383"><ele>1118.6</ele><time>2026-04-18T12:01:46.603Z</time></trkpt><trkpt lat="46.2256583" lon="11.8067567"><ele>1121.0</ele><time>2026-04-18T12:01:47.603Z</time></trkpt><trkpt lat="46.225555" lon="11.8067283"><ele>1122.25</ele><time>2026-04-18T12:01:48.604Z</time></trkpt><trkpt lat="46.22545" lon="11.8067483"><ele>1123.5</ele><time>2026-04-18T12:01:49.603Z</time></trkpt><trkpt lat="46.22535" lon="11.8068033"><ele>1124.75</ele><time>2026-04-18T12:01:50.603Z</time></trkpt><trkpt lat="46.2252467" lon="11.8068917"><ele>1126.0</ele><time>2026-04-18T12:01:51.603Z</time></trkpt><trkpt lat="46.2251217" lon="11.8070533"><ele>1126.0</ele><time>2026-04-18T12:01:52.604Z</time></trkpt><trkpt lat="46.2249983" lon="11.807285"><ele>1126.0</ele><time>2026-04-18T12:01:53.603Z</time></trkpt><trkpt lat="46.22488" lon="11.80748"><ele>1126.0</ele><time>2026-04-18T12:01:54.603Z</time></trkpt><trkpt lat="46.22477" lon="11.8076467"><ele>1119.3999999999999</ele><time>2026-04-18T12:01:55.603Z</time></trkpt><trkpt lat="46.2246883" lon="11.8077967"><ele>1112.8</ele><time>2026-04-18T12:01:56.604Z</time></trkpt><trkpt lat="46.2246083" lon="11.8078967"><ele>1106.1999999999998</ele><time>2026-04-18T12:01:57.603Z</time></trkpt><trkpt lat="46.224515" lon="11.807985"><ele>1099.6</ele><time>2026-04-18T12:01:58.603Z</time></trkpt><trkpt lat="46.2244317" lon="11.8080067"><ele>1093.0</ele><time>2026-04-18T12:01:59.603Z</time></trkpt><trkpt lat="46.224345" lon="11.8079717"><ele>1093.0</ele><time>2026-04-18T12:02:00.603Z</time></trkpt><trkpt lat="46.2243067" lon="11.807805"><ele>1093.0</ele><time>2026-04-18T12:02:01.603Z</time></trkpt><trkpt lat="46.2243167" lon="11.80758"><ele>1093.0</ele><time>2026-04-18T12:02:02.603Z</time></trkpt><trkpt lat="46.2243383" lon="11.80738"><ele>1093.0</ele><time>2026-04-18T12:02:03.603Z</time></trkpt><trkpt lat="46.2243883" lon="11.8071833"><ele>1095.6</ele><time>2026-04-18T12:02:04.603Z</time></trkpt><trkpt lat="46.2244217" lon="11.807005"><ele>1098.1999999999998</ele><time>2026-04-18T12:02:05.603Z</time></trkpt><trkpt lat="46.2244267" lon="11.806845"><ele>1100.8</ele><time>2026-04-18T12:02:06.604Z</time></trkpt><trkpt lat="46.22442" lon="11.8066967"><ele>1103.3999999999999</ele><time>2026-04-18T12:02:07.603Z</time></trkpt><trkpt lat="46.2243783" lon="11.8066"><ele>1106.0</ele><time>2026-04-18T12:02:08.604Z</time></trkpt><trkpt lat="46.2243383" lon="11.8064933"><ele>1111.0</ele><time>2026-04-18T12:02:09.603Z</time></trkpt><trkpt lat="46.2242833" lon="11.806415"><ele>1116.0</ele><time>2026-04-18T12:02:10.604Z</time></trkpt><trkpt lat="46.2241833" lon="11.8064467"><ele>1121.0</ele><time>2026-04-18T12:02:11.604Z</time></trkpt><trkpt lat="46.224065" lon="11.80655"><ele>1126.0</ele><time>2026-04-18T12:02:12.603Z</time></trkpt><trkpt lat="46.2239167" lon="11.80667"><ele>1128.3333333333333</ele><time>2026-04-18T12:02:13.603Z</time></trkpt><trkpt lat="46.22373" lon="11.806815"><ele>1130.6666666666667</ele><time>2026-04-18T12:02:14.604Z</time></trkpt><trkpt lat="46.223535" lon="11.806905"><ele>1133.0</ele><time>2026-04-18T12:02:15.603Z</time></trkpt><trkpt lat="46.223375" lon="11.8069583"><ele>1139.0</ele><time>2026-04-18T12:02:16.603Z</time></trkpt><trkpt lat="46.2232317" lon="11.807"><ele>1145.0</ele><time>2026-04-18T12:02:17.603Z</time></trkpt><trkpt lat="46.223105" lon="11.807065"><ele>1151.0</ele><time>2026-04-18T12:02:18.604Z</time></trkpt><trkpt lat="46.2229933" lon="11.8071567"><ele>1157.0</ele><time>2026-04-18T12:02:19.603Z</time></trkpt><trkpt lat="46.222925" lon="11.8072917"><ele>1157.0</ele><time>2026-04-18T12:02:20.603Z</time></trkpt><trkpt lat="46.222865" lon="11.80747"><ele>1157.0</ele><time>2026-04-18T12:02:21.604Z</time></trkpt><trkpt lat="46.22282" lon="11.8076917"><ele>1157.0</ele><time>2026-04-18T12:02:22.603Z</time></trkpt><trkpt lat="46.2227983" lon="11.8079717"><ele>1150.6666666666667</ele><time>2026-04-18T12:02:23.603Z</time></trkpt><trkpt lat="46.2228133" lon="11.80825"><ele>1144.3333333333333</ele><time>2026-04-18T12:02:24.603Z</time></trkpt><trkpt lat="46.22281" lon="11.8085117"><ele>1138.0</ele><time>2026-04-18T12:02:25.604Z</time></trkpt><trkpt lat="46.222815" lon="11.8087367"><ele>1134.0</ele><time>2026-04-18T12:02:26.603Z</time></trkpt><trkpt lat="46.2227983" lon="11.8089383"><ele>1130.0</ele><time>2026-04-18T12:02:27.603Z</time></trkpt><trkpt lat="46.2227967" lon="11.809115"><ele>1126.0</ele><time>2026-04-18T12:02:28.603Z</time></trkpt><trkpt lat="46.2227883" lon="11.80931"><ele>1122.0</ele><time>2026-04-18T12:02:29.604Z</time></trkpt><trkpt lat="46.2227767" lon="11.8094783"><ele>1116.25</ele><time>2026-04-18T12:02:30.603Z</time></trkpt><trkpt lat="46.222775" lon="11.8096333"><ele>1110.5</ele><time>2026-04-18T12:02:31.603Z</time></trkpt><trkpt lat="46.2227733" lon="11.809765"><ele>1104.75</ele><time>2026-04-18T12:02:32.603Z</time></trkpt><trkpt lat="46.22272" lon="11.8099633"><ele>1099.0</ele><time>2026-04-18T12:02:34.603Z</time></trkpt><trkpt lat="46.2226467" lon="11.8100833"><ele>1096.0</ele><time>2026-04-18T12:02:35.604Z</time></trkpt><trkpt lat="46.2225567" lon="11.81019"><ele>1093.0</ele><time>2026-04-18T12:02:36.603Z</time></trkpt><trkpt lat="46.2224283" lon="11.81029"><ele>1090.0</ele><time>2026-04-18T12:02:37.603Z</time></trkpt><trkpt lat="46.22228" lon="11.8104333"><ele>1087.0</ele><time>2026-04-18T12:02:38.604Z</time></trkpt><trkpt lat="46.2221267" lon="11.81059"><ele>1087.0</ele><time>2026-04-18T12:02:39.603Z</time></trkpt><trkpt lat="46.2219667" lon="11.8107367"><ele>1087.0</ele><time>2026-04-18T12:02:40.603Z</time></trkpt><trkpt lat="46.2218233" lon="11.8108817"><ele>1087.0</ele><time>2026-04-18T12:02:41.604Z</time></trkpt><trkpt lat="46.2216767" lon="11.8109867"><ele>1078.0</ele><time>2026-04-18T12:02:42.603Z</time></trkpt><trkpt lat="46.2215283" lon="11.8110933"><ele>1069.0</ele><time>2026-04-18T12:02:43.603Z</time></trkpt><trkpt lat="46.221385" lon="11.811175"><ele>1060.0</ele><time>2026-04-18T12:02:44.604Z</time></trkpt><trkpt lat="46.2212483" lon="11.8112383"><ele>1060.0</ele><time>2026-04-18T12:02:45.603Z</time></trkpt><trkpt lat="46.2211533" lon="11.8112933"><ele>1060.0</ele><time>2026-04-18T12:02:46.603Z</time></trkpt><trkpt lat="46.221045" lon="11.8113117"><ele>1060.0</ele><time>2026-04-18T12:02:47.603Z</time></trkpt><trkpt lat="46.2209483" lon="11.8113233"><ele>1060.0</ele><time>2026-04-18T12:02:48.603Z</time></trkpt><trkpt lat="46.2208383" lon="11.8113183"><ele>1060.0</ele><time>2026-04-18T12:02:49.603Z</time></trkpt><trkpt lat="46.220725" lon="11.8112933"><ele>1063.6</ele><time>2026-04-18T12:02:50.603Z</time></trkpt><trkpt lat="46.22063" lon="11.8112183"><ele>1067.2</ele><time>2026-04-18T12:02:51.603Z</time></trkpt><trkpt lat="46.2205417" lon="11.8111433"><ele>1070.8</ele><time>2026-04-18T12:02:52.604Z</time></trkpt><trkpt lat="46.2204667" lon="11.8110917"><ele>1074.4</ele><time>2026-04-18T12:02:53.603Z</time></trkpt><trkpt lat="46.2203717" lon="11.8111"><ele>1078.0</ele><time>2026-04-18T12:02:54.603Z</time></trkpt><trkpt lat="46.2202667" lon="11.811135"><ele>1078.0</ele><time>2026-04-18T12:02:55.603Z</time></trkpt><trkpt lat="46.2201617" lon="11.8112433"><ele>1078.0</ele><time>2026-04-18T12:02:56.604Z</time></trkpt><trkpt lat="46.2200417" lon="11.81137"><ele>1078.0</ele><time>2026-04-18T12:02:57.603Z</time></trkpt><trkpt lat="46.21993" lon="11.81151"><ele>1078.0</ele><time>2026-04-18T12:02:58.604Z</time></trkpt><trkpt lat="46.2198367" lon="11.8116617"><ele>1080.8</ele><time>2026-04-18T12:02:59.603Z</time></trkpt><trkpt lat="46.2197517" lon="11.811805"><ele>1083.6</ele><time>2026-04-18T12:03:00.603Z</time></trkpt><trkpt lat="46.2196683" lon="11.81191"><ele>1086.4</ele><time>2026-04-18T12:03:01.604Z</time></trkpt><trkpt lat="46.21958" lon="11.8119667"><ele>1089.2</ele><time>2026-04-18T12:03:02.603Z</time></trkpt><trkpt lat="46.2195017" lon="11.8119767"><ele>1092.0</ele><time>2026-04-18T12:03:03.603Z</time></trkpt><trkpt lat="46.2194083" lon="11.811925"><ele>1084.75</ele><time>2026-04-18T12:03:04.603Z</time></trkpt><trkpt lat="46.2192817" lon="11.8119017"><ele>1077.5</ele><time>2026-04-18T12:03:05.604Z</time></trkpt><trkpt lat="46.2191667" lon="11.8119"><ele>1070.25</ele><time>2026-04-18T12:03:06.604Z</time></trkpt><trkpt lat="46.2190333" lon="11.8119417"><ele>1063.0</ele><time>2026-04-18T12:03:07.603Z</time></trkpt><trkpt lat="46.2188767" lon="11.81205"><ele>1063.0</ele><time>2026-04-18T12:03:08.603Z</time></trkpt><trkpt lat="46.2187167" lon="11.81221"><ele>1063.0</ele><time>2026-04-18T12:03:09.603Z</time></trkpt><trkpt lat="46.2185517" lon="11.81238"><ele>1063.0</ele><time>2026-04-18T12:03:10.603Z</time></trkpt><trkpt lat="46.218375" lon="11.8124967"><ele>1063.0</ele><time>2026-04-18T12:03:11.603Z</time></trkpt><trkpt lat="46.21821" lon="11.8125983"><ele>1063.0</ele><time>2026-04-18T12:03:12.603Z</time></trkpt><trkpt lat="46.21804" lon="11.812705"><ele>1063.0</ele><time>2026-04-18T12:03:13.603Z</time></trkpt><trkpt lat="46.217865" lon="11.8128417"><ele>1057.5</ele><time>2026-04-18T12:03:14.603Z</time></trkpt><trkpt lat="46.2176767" lon="11.8130167"><ele>1052.0</ele><time>2026-04-18T12:03:15.603Z</time></trkpt><trkpt lat="46.2174817" lon="11.8132233"><ele>1058.0</ele><time>2026-04-18T12:03:16.603Z</time></trkpt><trkpt lat="46.2172883" lon="11.8134267"><ele>1064.0</ele><time>2026-04-18T12:03:17.603Z</time></trkpt><trkpt lat="46.21711" lon="11.8136267"><ele>1055.0</ele><time>2026-04-18T12:03:18.604Z</time></trkpt><trkpt lat="46.2169133" lon="11.81377"><ele>1046.0</ele><time>2026-04-18T12:03:19.604Z</time></trkpt><trkpt lat="46.2167417" lon="11.813905"><ele>1037.0</ele><time>2026-04-18T12:03:20.603Z</time></trkpt><trkpt lat="46.2165867" lon="11.814025"><ele>1039.3333333333335</ele><time>2026-04-18T12:03:21.603Z</time></trkpt><trkpt lat="46.2164367" lon="11.8141433"><ele>1041.6666666666667</ele><time>2026-04-18T12:03:22.604Z</time></trkpt><trkpt lat="46.2162817" lon="11.8142467"><ele>1044.0</ele><time>2026-04-18T12:03:23.603Z</time></trkpt><trkpt lat="46.2161417" lon="11.814305"><ele>1036.5</ele><time>2026-04-18T12:03:24.604Z</time></trkpt><trkpt lat="46.2160067" lon="11.8143767"><ele>1029.0</ele><time>2026-04-18T12:03:25.603Z</time></trkpt><trkpt lat="46.21589" lon="11.81446"><ele>1021.5</ele><time>2026-04-18T12:03:26.603Z</time></trkpt><trkpt lat="46.2158" lon="11.8145517"><ele>1014.0</ele><time>2026-04-18T12:03:27.603Z</time></trkpt><trkpt lat="46.21569" lon="11.81462"><ele>1015.25</ele><time>2026-04-18T12:03:28.603Z</time></trkpt><trkpt lat="46.2155717" lon="11.8146683"><ele>1016.5</ele><time>2026-04-18T12:03:29.603Z</time></trkpt><trkpt lat="46.2154367" lon="11.8146767"><ele>1017.75</ele><time>2026-04-18T12:03:30.604Z</time></trkpt><trkpt lat="46.215295" lon="11.814705"><ele>1019.0</ele><time>2026-04-18T12:03:31.604Z</time></trkpt><trkpt lat="46.2151667" lon="11.8147633"><ele>1019.0</ele><time>2026-04-18T12:03:32.603Z</time></trkpt><trkpt lat="46.2150333" lon="11.81482"><ele>1019.0</ele><time>2026-04-18T12:03:33.603Z</time></trkpt><trkpt lat="46.2148917" lon="11.8148417"><ele>1019.0</ele><time>2026-04-18T12:03:34.603Z</time></trkpt><trkpt lat="46.2147483" lon="11.8148367"><ele>1019.0</ele><time>2026-04-18T12:03:35.603Z</time></trkpt><trkpt lat="46.2146117" lon="11.8148567"><ele>1022.3333333333334</ele><time>2026-04-18T12:03:36.603Z</time></trkpt><trkpt lat="46.21446" lon="11.8149233"><ele>1025.6666666666667</ele><time>2026-04-18T12:03:37.603Z</time></trkpt><trkpt lat="46.21432" lon="11.8150233"><ele>1029.0</ele><time>2026-04-18T12:03:38.603Z</time></trkpt><trkpt lat="46.2141933" lon="11.8151267"><ele>1021.25</ele><time>2026-04-18T12:03:39.603Z</time></trkpt><trkpt lat="46.2140767" lon="11.81521"><ele>1013.5</ele><time>2026-04-18T12:03:40.603Z</time></trkpt><trkpt lat="46.2139483" lon="11.8152683"><ele>1005.75</ele><time>2026-04-18T12:03:41.604Z</time></trkpt><trkpt lat="46.2138167" lon="11.81532"><ele>998.0</ele><time>2026-04-18T12:03:42.603Z</time></trkpt><trkpt lat="46.2136817" lon="11.8153617"><ele>998.0</ele><time>2026-04-18T12:03:43.604Z</time></trkpt><trkpt lat="46.2135433" lon="11.8154"><ele>998.0</ele><time>2026-04-18T12:03:44.603Z</time></trkpt><trkpt lat="46.2134" lon="11.8154917"><ele>998.0</ele><time>2026-04-18T12:03:45.603Z</time></trkpt><trkpt lat="46.213285" lon="11.8155717"><ele>998.0</ele><time>2026-04-18T12:03:46.604Z</time></trkpt><trkpt lat="46.2131717" lon="11.81568"><ele>1001.0</ele><time>2026-04-18T12:03:47.603Z</time></trkpt><trkpt lat="46.2130433" lon="11.8157483"><ele>1004.0</ele><time>2026-04-18T12:03:48.603Z</time></trkpt><trkpt lat="46.212905" lon="11.815795"><ele>1007.0</ele><time>2026-04-18T12:03:49.603Z</time></trkpt><trkpt lat="46.2127483" lon="11.815855"><ele>1010.0</ele><time>2026-04-18T12:03:50.603Z</time></trkpt><trkpt lat="46.2125783" lon="11.8159317"><ele>1001.0</ele><time>2026-04-18T12:03:51.603Z</time></trkpt><trkpt lat="46.2124" lon="11.816025"><ele>992.0</ele><time>2026-04-18T12:03:52.604Z</time></trkpt><trkpt lat="46.2122233" lon="11.816105"><ele>983.0</ele><time>2026-04-18T12:03:53.603Z</time></trkpt><trkpt lat="46.2120583" lon="11.81619"><ele>983.0</ele><time>2026-04-18T12:03:54.603Z</time></trkpt><trkpt lat="46.2118883" lon="11.8162933"><ele>983.0</ele><time>2026-04-18T12:03:55.603Z</time></trkpt><trkpt lat="46.2117267" lon="11.8163717"><ele>983.0</ele><time>2026-04-18T12:03:56.603Z</time></trkpt><trkpt lat="46.211575" lon="11.8164617"><ele>986.3333333333334</ele><time>2026-04-18T12:03:57.603Z</time></trkpt><trkpt lat="46.2114217" lon="11.8165717"><ele>989.6666666666667</ele><time>2026-04-18T12:03:58.603Z</time></trkpt><trkpt lat="46.2112683" lon="11.81669"><ele>993.0</ele><time>2026-04-18T12:03:59.603Z</time></trkpt><trkpt lat="46.2111183" lon="11.8168233"><ele>987.75</ele><time>2026-04-18T12:04:00.604Z</time></trkpt><trkpt lat="46.2109917" lon="11.8169717"><ele>982.5</ele><time>2026-04-18T12:04:01.603Z</time></trkpt><trkpt lat="46.2108833" lon="11.8171083"><ele>977.25</ele><time>2026-04-18T12:04:02.604Z</time></trkpt><trkpt lat="46.2107917" lon="11.8172533"><ele>972.0</ele><time>2026-04-18T12:04:03.603Z</time></trkpt><trkpt lat="46.210705" lon="11.817365"><ele>972.0</ele><time>2026-04-18T12:04:04.603Z</time></trkpt><trkpt lat="46.2106017" lon="11.8174433"><ele>972.0</ele><time>2026-04-18T12:04:05.603Z</time></trkpt><trkpt lat="46.2104883" lon="11.817485"><ele>972.0</ele><time>2026-04-18T12:04:06.603Z</time></trkpt><trkpt lat="46.2103433" lon="11.8174767"><ele>972.0</ele><time>2026-04-18T12:04:07.604Z</time></trkpt><trkpt lat="46.210225" lon="11.81744"><ele>972.0</ele><time>2026-04-18T12:04:08.604Z</time></trkpt><trkpt lat="46.21011" lon="11.8173667"><ele>972.0</ele><time>2026-04-18T12:04:09.603Z</time></trkpt><trkpt lat="46.210005" lon="11.8172867"><ele>972.0</ele><time>2026-04-18T12:04:10.603Z</time></trkpt><trkpt lat="46.209905" lon="11.8172133"><ele>972.0</ele><time>2026-04-18T12:04:11.603Z</time></trkpt><trkpt lat="46.20981" lon="11.81717"><ele>973.5</ele><time>2026-04-18T12:04:12.603Z</time></trkpt><trkpt lat="46.209725" lon="11.817175"><ele>975.0</ele><time>2026-04-18T12:04:13.603Z</time></trkpt><trkpt lat="46.2096017" lon="11.8172733"><ele>976.5</ele><time>2026-04-18T12:04:14.603Z</time></trkpt><trkpt lat="46.20947" lon="11.8173683"><ele>978.0</ele><time>2026-04-18T12:04:15.604Z</time></trkpt><trkpt lat="46.2093417" lon="11.817445"><ele>978.0</ele><time>2026-04-18T12:04:16.603Z</time></trkpt><trkpt lat="46.209205" lon="11.8175017"><ele>978.0</ele><time>2026-04-18T12:04:17.603Z</time></trkpt><trkpt lat="46.2090617" lon="11.81751"><ele>978.0</ele><time>2026-04-18T12:04:18.604Z</time></trkpt><trkpt lat="46.2089283" lon="11.8174933"><ele>978.0</ele><time>2026-04-18T12:04:19.603Z</time></trkpt><trkpt lat="46.2088033" lon="11.81746"><ele>974.75</ele><time>2026-04-18T12:04:20.603Z</time></trkpt><trkpt lat="46.20868" lon="11.8174117"><ele>971.5</ele><time>2026-04-18T12:04:21.603Z</time></trkpt><trkpt lat="46.2085617" lon="11.8173567"><ele>968.25</ele><time>2026-04-18T12:04:22.603Z</time></trkpt><trkpt lat="46.2084267" lon="11.8173167"><ele>965.0</ele><time>2026-04-18T12:04:23.603Z</time></trkpt><trkpt lat="46.2082633" lon="11.81729"><ele>967.0</ele><time>2026-04-18T12:04:24.603Z</time></trkpt><trkpt lat="46.208095" lon="11.8172733"><ele>969.0</ele><time>2026-04-18T12:04:25.603Z</time></trkpt><trkpt lat="46.20793" lon="11.8172683"><ele>971.0</ele><time>2026-04-18T12:04:26.604Z</time></trkpt><trkpt lat="46.207775" lon="11.8172733"><ele>971.0</ele><time>2026-04-18T12:04:27.603Z</time></trkpt><trkpt lat="46.20763" lon="11.8172883"><ele>971.0</ele><time>2026-04-18T12:04:28.603Z</time></trkpt><trkpt lat="46.207485" lon="11.8173383"><ele>971.0</ele><time>2026-04-18T12:04:29.604Z</time></trkpt><trkpt lat="46.2073517" lon="11.8174"><ele>971.0</ele><time>2026-04-18T12:04:30.603Z</time></trkpt><trkpt lat="46.207225" lon="11.8174467"><ele>969.8</ele><time>2026-04-18T12:04:31.603Z</time></trkpt><trkpt lat="46.2071117" lon="11.817485"><ele>968.5999999999999</ele><time>2026-04-18T12:04:32.603Z</time></trkpt><trkpt lat="46.2070067" lon="11.8174833"><ele>967.4</ele><time>2026-04-18T12:04:33.603Z</time></trkpt><trkpt lat="46.2069217" lon="11.817435"><ele>966.2</ele><time>2026-04-18T12:04:34.604Z</time></trkpt><trkpt lat="46.2068483" lon="11.8173467"><ele>965.0</ele><time>2026-04-18T12:04:35.603Z</time></trkpt><trkpt lat="46.206795" lon="11.8172067"><ele>965.0000000000001</ele><time>2026-04-18T12:04:36.603Z</time></trkpt><trkpt lat="46.20674" lon="11.81708"><ele>965.0</ele><time>2026-04-18T12:04:37.603Z</time></trkpt><trkpt lat="46.2066817" lon="11.8169683"><ele>965.0</ele><time>2026-04-18T12:04:38.604Z</time></trkpt><trkpt lat="46.2066317" lon="11.8168667"><ele>965.0</ele><time>2026-04-18T12:04:39.604Z</time></trkpt><trkpt lat="46.2065767" lon="11.8167917"><ele>965.0000000000001</ele><time>2026-04-18T12:04:40.604Z</time></trkpt><trkpt lat="46.2065167" lon="11.8167467"><ele>965.0</ele><time>2026-04-18T12:04:41.603Z</time></trkpt><trkpt lat="46.2064483" lon="11.8168883"><ele>971.5</ele><time>2026-04-18T12:04:42.604Z</time></trkpt><trkpt lat="46.2063917" lon="11.817025"><ele>978.0</ele><time>2026-04-18T12:04:43.603Z</time></trkpt><trkpt lat="46.2063483" lon="11.817195"><ele>984.5</ele><time>2026-04-18T12:04:44.603Z</time></trkpt><trkpt lat="46.2063217" lon="11.81742"><ele>991.0</ele><time>2026-04-18T12:04:45.603Z</time></trkpt><trkpt lat="46.2063133" lon="11.8176333"><ele>981.75</ele><time>2026-04-18T12:04:46.604Z</time></trkpt><trkpt lat="46.20627" lon="11.8178783"><ele>972.5</ele><time>2026-04-18T12:04:47.603Z</time></trkpt><trkpt lat="46.2062217" lon="11.8180667"><ele>963.25</ele><time>2026-04-18T12:04:48.603Z</time></trkpt><trkpt lat="46.206165" lon="11.8182017"><ele>954.0</ele><time>2026-04-18T12:04:49.603Z</time></trkpt><trkpt lat="46.2061017" lon="11.8182967"><ele>954.0</ele><time>2026-04-18T12:04:50.604Z</time></trkpt><trkpt lat="46.20603" lon="11.8183617"><ele>954.0</ele><time>2026-04-18T12:04:51.603Z</time></trkpt><trkpt lat="46.205915" lon="11.8183867"><ele>954.0</ele><time>2026-04-18T12:04:52.604Z</time></trkpt><trkpt lat="46.2057933" lon="11.818415"><ele>954.0</ele><time>2026-04-18T12:04:53.603Z</time></trkpt><trkpt lat="46.2056633" lon="11.8184483"><ele>956.5</ele><time>2026-04-18T12:04:54.603Z</time></trkpt><trkpt lat="46.20553" lon="11.81848"><ele>959.0</ele><time>2026-04-18T12:04:55.603Z</time></trkpt><trkpt lat="46.2054033" lon="11.8185283"><ele>961.5</ele><time>2026-04-18T12:04:56.603Z</time></trkpt><trkpt lat="46.2052833" lon="11.8185883"><ele>964.0</ele><time>2026-04-18T12:04:57.604Z</time></trkpt><trkpt lat="46.2051833" lon="11.818695"><ele>958.0</ele><time>2026-04-18T12:04:58.603Z</time></trkpt><trkpt lat="46.20509" lon="11.8188033"><ele>952.0000000000001</ele><time>2026-04-18T12:04:59.603Z</time></trkpt><trkpt lat="46.2050233" lon="11.8189233"><ele>946.0000000000001</ele><time>2026-04-18T12:05:00.603Z</time></trkpt><trkpt lat="46.2049717" lon="11.8190133"><ele>940.0</ele><time>2026-04-18T12:05:01.603Z</time></trkpt><trkpt lat="46.2049133" lon="11.8190567"><ele>934.0</ele><time>2026-04-18T12:05:02.603Z</time></trkpt><trkpt lat="46.2048017" lon="11.8190533"><ele>934.0</ele><time>2026-04-18T12:05:04.603Z</time></trkpt><trkpt lat="46.204715" lon="11.8189433"><ele>934.0000000000001</ele><time>2026-04-18T12:05:05.603Z</time></trkpt><trkpt lat="46.2046283" lon="11.8188317"><ele>934.0000000000001</ele><time>2026-04-18T12:05:06.603Z</time></trkpt><trkpt lat="46.2045517" lon="11.81874"><ele>934.0</ele><time>2026-04-18T12:05:07.604Z</time></trkpt><trkpt lat="46.2044783" lon="11.8186667"><ele>934.0</ele><time>2026-04-18T12:05:08.603Z</time></trkpt><trkpt lat="46.204415" lon="11.8186167"><ele>934.0</ele><time>2026-04-18T12:05:09.603Z</time></trkpt><trkpt lat="46.20435" lon="11.8186183"><ele>934.0000000000001</ele><time>2026-04-18T12:05:10.603Z</time></trkpt><trkpt lat="46.2042867" lon="11.8186383"><ele>934.0000000000001</ele><time>2026-04-18T12:05:11.603Z</time></trkpt><trkpt lat="46.2042217" lon="11.8187017"><ele>934.0</ele><time>2026-04-18T12:05:12.603Z</time></trkpt><trkpt lat="46.2041533" lon="11.8188233"><ele>934.0</ele><time>2026-04-18T12:05:13.603Z</time></trkpt><trkpt lat="46.2040833" lon="11.8189967"><ele>934.0</ele><time>2026-04-18T12:05:14.603Z</time></trkpt><trkpt lat="46.2040283" lon="11.81919"><ele>934.0</ele><time>2026-04-18T12:05:15.603Z</time></trkpt><trkpt lat="46.2039983" lon="11.8193783"><ele>934.0</ele><time>2026-04-18T12:05:16.603Z</time></trkpt><trkpt lat="46.20395" lon="11.81952"><ele>934.0</ele><time>2026-04-18T12:05:17.603Z</time></trkpt><trkpt lat="46.2039017" lon="11.8196633"><ele>931.25</ele><time>2026-04-18T12:05:18.603Z</time></trkpt><trkpt lat="46.2038483" lon="11.819775"><ele>928.5</ele><time>2026-04-18T12:05:19.604Z</time></trkpt><trkpt lat="46.20372" lon="11.8198183"><ele>925.75</ele><time>2026-04-18T12:05:20.603Z</time></trkpt><trkpt lat="46.2036033" lon="11.8198533"><ele>923.0</ele><time>2026-04-18T12:05:21.603Z</time></trkpt><trkpt lat="46.203465" lon="11.8198917"><ele>923.0</ele><time>2026-04-18T12:05:22.603Z</time></trkpt><trkpt lat="46.20333" lon="11.819925"><ele>923.0</ele><time>2026-04-18T12:05:23.603Z</time></trkpt><trkpt lat="46.2031867" lon="11.81997"><ele>923.0</ele><time>2026-04-18T12:05:24.603Z</time></trkpt><trkpt lat="46.2030517" lon="11.82002"><ele>923.0</ele><time>2026-04-18T12:05:25.604Z</time></trkpt><trkpt lat="46.2029183" lon="11.820065"><ele>923.75</ele><time>2026-04-18T12:05:26.603Z</time></trkpt><trkpt lat="46.2027983" lon="11.8200983"><ele>924.5</ele><time>2026-04-18T12:05:27.603Z</time></trkpt><trkpt lat="46.202675" lon="11.8201233"><ele>925.25</ele><time>2026-04-18T12:05:28.604Z</time></trkpt><trkpt lat="46.20256" lon="11.8201383"><ele>926.0</ele><time>2026-04-18T12:05:29.603Z</time></trkpt><trkpt lat="46.2024567" lon="11.82015"><ele>920.4</ele><time>2026-04-18T12:05:30.603Z</time></trkpt><trkpt lat="46.202355" lon="11.8201667"><ele>914.8</ele><time>2026-04-18T12:05:31.603Z</time></trkpt><trkpt lat="46.202255" lon="11.8201967"><ele>909.1999999999999</ele><time>2026-04-18T12:05:32.603Z</time></trkpt><trkpt lat="46.202155" lon="11.8202333"><ele>903.5999999999999</ele><time>2026-04-18T12:05:33.604Z</time></trkpt><trkpt lat="46.2020517" lon="11.8203033"><ele>898.0</ele><time>2026-04-18T12:05:34.603Z</time></trkpt><trkpt lat="46.2019483" lon="11.820385"><ele>898.0</ele><time>2026-04-18T12:05:35.604Z</time></trkpt><trkpt lat="46.2018383" lon="11.8204583"><ele>898.0</ele><time>2026-04-18T12:05:36.603Z</time></trkpt><trkpt lat="46.2017217" lon="11.8205133"><ele>898.0</ele><time>2026-04-18T12:05:37.604Z</time></trkpt><trkpt lat="46.2016183" lon="11.82054"><ele>898.0</ele><time>2026-04-18T12:05:38.603Z</time></trkpt><trkpt lat="46.201525" lon="11.820545"><ele>898.0</ele><time>2026-04-18T12:05:39.603Z</time></trkpt><trkpt lat="46.201415" lon="11.820525"><ele>896.25</ele><time>2026-04-18T12:05:40.603Z</time></trkpt><trkpt lat="46.2012917" lon="11.8204817"><ele>894.5</ele><time>2026-04-18T12:05:41.603Z</time></trkpt><trkpt lat="46.2011783" lon="11.8204183"><ele>892.75</ele><time>2026-04-18T12:05:42.604Z</time></trkpt><trkpt lat="46.20107" lon="11.8203617"><ele>891.0</ele><time>2026-04-18T12:05:43.603Z</time></trkpt><trkpt lat="46.2009633" lon="11.8203417"><ele>891.0</ele><time>2026-04-18T12:05:44.603Z</time></trkpt><trkpt lat="46.2008417" lon="11.8203467"><ele>891.0</ele><time>2026-04-18T12:05:45.603Z</time></trkpt><trkpt lat="46.2007067" lon="11.8203783"><ele>891.0</ele><time>2026-04-18T12:05:46.604Z</time></trkpt><trkpt lat="46.2005667" lon="11.8204033"><ele>891.0</ele><time>2026-04-18T12:05:47.603Z</time></trkpt><trkpt lat="46.2004317" lon="11.820415"><ele>892.6666666666667</ele><time>2026-04-18T12:05:48.603Z</time></trkpt><trkpt lat="46.2002883" lon="11.8204683"><ele>894.3333333333334</ele><time>2026-04-18T12:05:49.604Z</time></trkpt><trkpt lat="46.200125" lon="11.8205617"><ele>896.0</ele><time>2026-04-18T12:05:50.603Z</time></trkpt><trkpt lat="46.19993" lon="11.8206517"><ele>895.3333333333334</ele><time>2026-04-18T12:05:51.604Z</time></trkpt><trkpt lat="46.19973" lon="11.820735"><ele>894.6666666666667</ele><time>2026-04-18T12:05:52.603Z</time></trkpt><trkpt lat="46.1995417" lon="11.820805"><ele>894.0</ele><time>2026-04-18T12:05:53.603Z</time></trkpt><trkpt lat="46.199365" lon="11.820865"><ele>894.0</ele><time>2026-04-18T12:05:54.603Z</time></trkpt><trkpt lat="46.1992" lon="11.82091"><ele>894.0</ele><time>2026-04-18T12:05:55.603Z</time></trkpt><trkpt lat="46.1990417" lon="11.82097"><ele>894.0</ele><time>2026-04-18T12:05:56.603Z</time></trkpt><trkpt lat="46.19889" lon="11.8210283"><ele>888.5</ele><time>2026-04-18T12:05:57.603Z</time></trkpt><trkpt lat="46.1987533" lon="11.821085"><ele>883.0</ele><time>2026-04-18T12:05:58.604Z</time></trkpt><trkpt lat="46.19863" lon="11.8211583"><ele>877.5</ele><time>2026-04-18T12:05:59.603Z</time></trkpt><trkpt lat="46.19852" lon="11.82123"><ele>872.0</ele><time>2026-04-18T12:06:00.603Z</time></trkpt><trkpt lat="46.1984133" lon="11.8212767"><ele>872.0</ele><time>2026-04-18T12:06:01.603Z</time></trkpt><trkpt lat="46.19829" lon="11.8213017"><ele>872.0</ele><time>2026-04-18T12:06:02.603Z</time></trkpt><trkpt lat="46.19816" lon="11.821275"><ele>872.0</ele><time>2026-04-18T12:06:03.603Z</time></trkpt><trkpt lat="46.1980117" lon="11.82122"><ele>872.0</ele><time>2026-04-18T12:06:04.603Z</time></trkpt><trkpt lat="46.1978583" lon="11.82115"><ele>870.6666666666667</ele><time>2026-04-18T12:06:05.603Z</time></trkpt><trkpt lat="46.19769" lon="11.8210933"><ele>869.3333333333333</ele><time>2026-04-18T12:06:06.603Z</time></trkpt><trkpt lat="46.1975333" lon="11.82104"><ele>868.0</ele><time>2026-04-18T12:06:07.603Z</time></trkpt><trkpt lat="46.1973933" lon="11.8209933"><ele>873.25</ele><time>2026-04-18T12:06:08.604Z</time></trkpt><trkpt lat="46.19726" lon="11.8209517"><ele>878.5</ele><time>2026-04-18T12:06:09.603Z</time></trkpt><trkpt lat="46.1971233" lon="11.82092"><ele>883.75</ele><time>2026-04-18T12:06:10.603Z</time></trkpt><trkpt lat="46.1970167" lon="11.8209233"><ele>889.0</ele><time>2026-04-18T12:06:11.603Z</time></trkpt><trkpt lat="46.1969117" lon="11.8209767"><ele>885.75</ele><time>2026-04-18T12:06:12.604Z</time></trkpt><trkpt lat="46.1968233" lon="11.8210567"><ele>882.5</ele><time>2026-04-18T12:06:13.603Z</time></trkpt><trkpt lat="46.1967717" lon="11.8211867"><ele>879.25</ele><time>2026-04-18T12:06:14.603Z</time></trkpt><trkpt lat="46.1967417" lon="11.8213583"><ele>876.0</ele><time>2026-04-18T12:06:15.603Z</time></trkpt><trkpt lat="46.1967383" lon="11.821555"><ele>876.0</ele><time>2026-04-18T12:06:16.604Z</time></trkpt><trkpt lat="46.1967167" lon="11.8217417"><ele>876.0</ele><time>2026-04-18T12:06:17.603Z</time></trkpt><trkpt lat="46.1966567" lon="11.82191"><ele>876.0</ele><time>2026-04-18T12:06:18.603Z</time></trkpt><trkpt lat="46.19657" lon="11.82208"><ele>876.0</ele><time>2026-04-18T12:06:19.603Z</time></trkpt><trkpt lat="46.196485" lon="11.8222317"><ele>874.3333333333333</ele><time>2026-04-18T12:06:20.603Z</time></trkpt><trkpt lat="46.1963867" lon="11.8223667"><ele>872.6666666666666</ele><time>2026-04-18T12:06:21.603Z</time></trkpt><trkpt lat="46.196265" lon="11.8225083"><ele>871.0</ele><time>2026-04-18T12:06:22.603Z</time></trkpt><trkpt lat="46.1961333" lon="11.82264"><ele>860.3333333333333</ele><time>2026-04-18T12:06:23.604Z</time></trkpt><trkpt lat="46.196" lon="11.8227717"><ele>849.6666666666667</ele><time>2026-04-18T12:06:24.604Z</time></trkpt><trkpt lat="46.1958667" lon="11.8228917"><ele>839.0</ele><time>2026-04-18T12:06:25.603Z</time></trkpt><trkpt lat="46.1957333" lon="11.8229833"><ele>843.0</ele><time>2026-04-18T12:06:26.604Z</time></trkpt><trkpt lat="46.195585" lon="11.8230567"><ele>847.0</ele><time>2026-04-18T12:06:27.604Z</time></trkpt><trkpt lat="46.19542" lon="11.8231317"><ele>851.0</ele><time>2026-04-18T12:06:28.604Z</time></trkpt><trkpt lat="46.195255" lon="11.823205"><ele>851.0</ele><time>2026-04-18T12:06:29.603Z</time></trkpt><trkpt lat="46.195095" lon="11.823295"><ele>851.0</ele><time>2026-04-18T12:06:30.603Z</time></trkpt><trkpt lat="46.1949633" lon="11.823385"><ele>851.0</ele><time>2026-04-18T12:06:31.604Z</time></trkpt><trkpt lat="46.1948433" lon="11.8234583"><ele>851.0</ele><time>2026-04-18T12:06:32.603Z</time></trkpt><trkpt lat="46.1947433" lon="11.8235217"><ele>850.1999999999999</ele><time>2026-04-18T12:06:33.604Z</time></trkpt><trkpt lat="46.1946417" lon="11.823555"><ele>849.4</ele><time>2026-04-18T12:06:34.604Z</time></trkpt><trkpt lat="46.194535" lon="11.8235567"><ele>848.6</ele><time>2026-04-18T12:06:35.603Z</time></trkpt><trkpt lat="46.1944417" lon="11.8235267"><ele>847.8</ele><time>2026-04-18T12:06:36.603Z</time></trkpt><trkpt lat="46.1943617" lon="11.8234383"><ele>847.0</ele><time>2026-04-18T12:06:37.603Z</time></trkpt><trkpt lat="46.1943017" lon="11.8232967"><ele>847.0</ele><time>2026-04-18T12:06:38.603Z</time></trkpt><trkpt lat="46.194245" lon="11.8231267"><ele>847.0</ele><time>2026-04-18T12:06:39.603Z</time></trkpt><trkpt lat="46.1941817" lon="11.82295"><ele>847.0</ele><time>2026-04-18T12:06:40.603Z</time></trkpt><trkpt lat="46.19412" lon="11.822785"><ele>847.0</ele><time>2026-04-18T12:06:41.603Z</time></trkpt><trkpt lat="46.1940717" lon="11.82264"><ele>849.8</ele><time>2026-04-18T12:06:42.603Z</time></trkpt><trkpt lat="46.1940033" lon="11.8225183"><ele>852.6</ele><time>2026-04-18T12:06:43.603Z</time></trkpt><trkpt lat="46.1939167" lon="11.822445"><ele>855.3999999999999</ele><time>2026-04-18T12:06:44.603Z</time></trkpt><trkpt lat="46.1938167" lon="11.8224217"><ele>858.1999999999999</ele><time>2026-04-18T12:06:45.603Z</time></trkpt><trkpt lat="46.1937083" lon="11.8224333"><ele>861.0</ele><time>2026-04-18T12:06:46.603Z</time></trkpt><trkpt lat="46.193615" lon="11.8225067"><ele>861.0</ele><time>2026-04-18T12:06:47.603Z</time></trkpt><trkpt lat="46.193545" lon="11.8226233"><ele>861.0</ele><time>2026-04-18T12:06:48.603Z</time></trkpt><trkpt lat="46.1935067" lon="11.822785"><ele>861.0</ele><time>2026-04-18T12:06:49.604Z</time></trkpt><trkpt lat="46.1934833" lon="11.82298"><ele>861.0</ele><time>2026-04-18T12:06:50.603Z</time></trkpt><trkpt lat="46.1934767" lon="11.82319"><ele>856.25</ele><time>2026-04-18T12:06:51.603Z</time></trkpt><trkpt lat="46.1934717" lon="11.8233833"><ele>851.5</ele><time>2026-04-18T12:06:52.603Z</time></trkpt><trkpt lat="46.19348" lon="11.8235583"><ele>846.75</ele><time>2026-04-18T12:06:53.603Z</time></trkpt><trkpt lat="46.1934933" lon="11.8237233"><ele>842.0</ele><time>2026-04-18T12:06:54.603Z</time></trkpt><trkpt lat="46.1934933" lon="11.8238633"><ele>838.5</ele><time>2026-04-18T12:06:55.603Z</time></trkpt><trkpt lat="46.1934683" lon="11.8239917"><ele>835.0</ele><time>2026-04-18T12:06:56.603Z</time></trkpt><trkpt lat="46.1934167" lon="11.8241033"><ele>831.5</ele><time>2026-04-18T12:06:57.603Z</time></trkpt><trkpt lat="46.1933267" lon="11.824205"><ele>828.0</ele><time>2026-04-18T12:06:58.603Z</time></trkpt><trkpt lat="46.19319" lon="11.8243183"><ele>825.25</ele><time>2026-04-18T12:06:59.603Z</time></trkpt><trkpt lat="46.1930533" lon="11.8244383"><ele>822.5</ele><time>2026-04-18T12:07:00.603Z</time></trkpt><trkpt lat="46.1929283" lon="11.8245483"><ele>819.75</ele><time>2026-04-18T12:07:01.603Z</time></trkpt><trkpt lat="46.192805" lon="11.8246383"><ele>817.0</ele><time>2026-04-18T12:07:02.603Z</time></trkpt><trkpt lat="46.1926633" lon="11.8247083"><ele>817.0</ele><time>2026-04-18T12:07:03.604Z</time></trkpt><trkpt lat="46.1925183" lon="11.8247717"><ele>817.0</ele><time>2026-04-18T12:07:04.603Z</time></trkpt><trkpt lat="46.1923717" lon="11.8248183"><ele>817.0</ele><time>2026-04-18T12:07:05.603Z</time></trkpt><trkpt lat="46.1922283" lon="11.824865"><ele>817.0</ele><time>2026-04-18T12:07:06.603Z</time></trkpt><trkpt lat="46.1920833" lon="11.8249067"><ele>817.6666666666666</ele><time>2026-04-18T12:07:07.603Z</time></trkpt><trkpt lat="46.191935" lon="11.8249467"><ele>818.3333333333333</ele><time>2026-04-18T12:07:08.604Z</time></trkpt><trkpt lat="46.1917783" lon="11.82498"><ele>819.0</ele><time>2026-04-18T12:07:09.603Z</time></trkpt><trkpt lat="46.1916183" lon="11.8249883"><ele>816.3333333333333</ele><time>2026-04-18T12:07:10.603Z</time></trkpt><trkpt lat="46.1914433" lon="11.8249883"><ele>813.6666666666666</ele><time>2026-04-18T12:07:11.603Z</time></trkpt><trkpt lat="46.1912767" lon="11.8249833"><ele>811.0</ele><time>2026-04-18T12:07:12.603Z</time></trkpt><trkpt lat="46.1911183" lon="11.8249583"><ele>811.0</ele><time>2026-04-18T12:07:13.603Z</time></trkpt><trkpt lat="46.1909667" lon="11.8249283"><ele>811.0</ele><time>2026-04-18T12:07:14.603Z</time></trkpt><trkpt lat="46.190815" lon="11.824875"><ele>811.0</ele><time>2026-04-18T12:07:15.603Z</time></trkpt><trkpt lat="46.1906667" lon="11.8248083"><ele>808.3333333333333</ele><time>2026-04-18T12:07:16.603Z</time></trkpt><trkpt lat="46.1905083" lon="11.8247433"><ele>805.6666666666667</ele><time>2026-04-18T12:07:17.603Z</time></trkpt><trkpt lat="46.1903467" lon="11.8246583"><ele>803.0</ele><time>2026-04-18T12:07:18.604Z</time></trkpt><trkpt lat="46.1901967" lon="11.8245683"><ele>803.0</ele><time>2026-04-18T12:07:19.603Z</time></trkpt><trkpt lat="46.1900567" lon="11.8244717"><ele>803.0</ele><time>2026-04-18T12:07:20.603Z</time></trkpt><trkpt lat="46.18993" lon="11.824375"><ele>803.0</ele><time>2026-04-18T12:07:21.603Z</time></trkpt><trkpt lat="46.1898183" lon="11.8243083"><ele>803.0</ele><time>2026-04-18T12:07:22.603Z</time></trkpt><trkpt lat="46.189715" lon="11.8242583"><ele>804.75</ele><time>2026-04-18T12:07:23.603Z</time></trkpt><trkpt lat="46.18961" lon="11.8242383"><ele>806.5</ele><time>2026-04-18T12:07:24.604Z</time></trkpt><trkpt lat="46.1895067" lon="11.8242683"><ele>808.25</ele><time>2026-04-18T12:07:25.604Z</time></trkpt><trkpt lat="46.1894083" lon="11.82437"><ele>810.0</ele><time>2026-04-18T12:07:26.603Z</time></trkpt><trkpt lat="46.1893283" lon="11.8245317"><ele>810.0</ele><time>2026-04-18T12:07:27.603Z</time></trkpt><trkpt lat="46.1892667" lon="11.8247067"><ele>810.0</ele><time>2026-04-18T12:07:28.604Z</time></trkpt><trkpt lat="46.1892383" lon="11.8249033"><ele>810.0</ele><time>2026-04-18T12:07:29.603Z</time></trkpt><trkpt lat="46.1892433" lon="11.8250933"><ele>810.0</ele><time>2026-04-18T12:07:30.604Z</time></trkpt><trkpt lat="46.1892533" lon="11.8252533"><ele>806.4</ele><time>2026-04-18T12:07:31.603Z</time></trkpt><trkpt lat="46.1892417" lon="11.8254017"><ele>802.8</ele><time>2026-04-18T12:07:32.603Z</time></trkpt><trkpt lat="46.189215" lon="11.8255217"><ele>799.2</ele><time>2026-04-18T12:07:33.603Z</time></trkpt><trkpt lat="46.189175" lon="11.8256183"><ele>795.6</ele><time>2026-04-18T12:07:34.603Z</time></trkpt><trkpt lat="46.18911" lon="11.8257267"><ele>792.0</ele><time>2026-04-18T12:07:35.603Z</time></trkpt><trkpt lat="46.1890117" lon="11.8258283"><ele>791.6</ele><time>2026-04-18T12:07:36.603Z</time></trkpt><trkpt lat="46.1889217" lon="11.8259367"><ele>791.2</ele><time>2026-04-18T12:07:37.603Z</time></trkpt><trkpt lat="46.1888333" lon="11.82604"><ele>790.8</ele><time>2026-04-18T12:07:38.604Z</time></trkpt><trkpt lat="46.1887467" lon="11.826145"><ele>790.4</ele><time>2026-04-18T12:07:39.604Z</time></trkpt><trkpt lat="46.1886683" lon="11.8262467"><ele>790.0</ele><time>2026-04-18T12:07:40.604Z</time></trkpt><trkpt lat="46.1885883" lon="11.8263367"><ele>790.0</ele><time>2026-04-18T12:07:41.603Z</time></trkpt><trkpt lat="46.1885167" lon="11.8264167"><ele>790.0</ele><time>2026-04-18T12:07:42.603Z</time></trkpt><trkpt lat="46.18847" lon="11.82649"><ele>790.0</ele><time>2026-04-18T12:07:43.603Z</time></trkpt><trkpt lat="46.1884633" lon="11.8265817"><ele>790.0</ele><time>2026-04-18T12:07:44.604Z</time></trkpt><trkpt lat="46.1885733" lon="11.8266783"><ele>790.0</ele><time>2026-04-18T12:07:46.603Z</time></trkpt><trkpt lat="46.18867" lon="11.8266333"><ele>790.0</ele><time>2026-04-18T12:07:47.603Z</time></trkpt><trkpt lat="46.1887867" lon="11.82654"><ele>790.0</ele><time>2026-04-18T12:07:48.603Z</time></trkpt><trkpt lat="46.1889067" lon="11.826455"><ele>790.0</ele><time>2026-04-18T12:07:49.603Z</time></trkpt><trkpt lat="46.18902" lon="11.8263783"><ele>790.0</ele><time>2026-04-18T12:07:50.603Z</time></trkpt><trkpt lat="46.1891283" lon="11.8263067"><ele>790.5</ele><time>2026-04-18T12:07:51.603Z</time></trkpt><trkpt lat="46.1892183" lon="11.82621"><ele>791.0</ele><time>2026-04-18T12:07:52.603Z</time></trkpt><trkpt lat="46.1892817" lon="11.8260833"><ele>791.5</ele><time>2026-04-18T12:07:53.603Z</time></trkpt><trkpt lat="46.1893267" lon="11.8259183"><ele>792.0</ele><time>2026-04-18T12:07:54.603Z</time></trkpt><trkpt lat="46.1893783" lon="11.8257667"><ele>792.0</ele><time>2026-04-18T12:07:55.603Z</time></trkpt><trkpt lat="46.1894217" lon="11.8256383"><ele>792.0</ele><time>2026-04-18T12:07:56.603Z</time></trkpt><trkpt lat="46.189485" lon="11.8255383"><ele>792.0</ele><time>2026-04-18T12:07:57.604Z</time></trkpt><trkpt lat="46.189585" lon="11.8254567"><ele>792.0</ele><time>2026-04-18T12:07:58.604Z</time></trkpt><trkpt lat="46.189715" lon="11.8254033"><ele>792.0</ele><time>2026-04-18T12:07:59.603Z</time></trkpt><trkpt lat="46.1898467" lon="11.82535"><ele>789.0</ele><time>2026-04-18T12:08:00.603Z</time></trkpt><trkpt lat="46.1899767" lon="11.8253083"><ele>786.0</ele><time>2026-04-18T12:08:01.603Z</time></trkpt><trkpt lat="46.190105" lon="11.8253267"><ele>783.0</ele><time>2026-04-18T12:08:02.603Z</time></trkpt><trkpt lat="46.1902633" lon="11.82537"><ele>780.0</ele><time>2026-04-18T12:08:03.604Z</time></trkpt><trkpt lat="46.190425" lon="11.82544"><ele>780.0</ele><time>2026-04-18T12:08:04.603Z</time></trkpt><trkpt lat="46.1905667" lon="11.8255183"><ele>780.0</ele><time>2026-04-18T12:08:05.603Z</time></trkpt><trkpt lat="46.19069" lon="11.825585"><ele>780.0</ele><time>2026-04-18T12:08:06.604Z</time></trkpt><trkpt lat="46.1907833" lon="11.8256267"><ele>780.0</ele><time>2026-04-18T12:08:07.604Z</time></trkpt><trkpt lat="46.1908567" lon="11.8257083"><ele>780.8</ele><time>2026-04-18T12:08:08.604Z</time></trkpt><trkpt lat="46.1908983" lon="11.8258133"><ele>781.6</ele><time>2026-04-18T12:08:09.603Z</time></trkpt><trkpt lat="46.1908933" lon="11.8259183"><ele>782.4000000000001</ele><time>2026-04-18T12:08:10.603Z</time></trkpt><trkpt lat="46.1907717" lon="11.826025"><ele>783.2</ele><time>2026-04-18T12:08:12.603Z</time></trkpt><trkpt lat="46.1906633" lon="11.8260333"><ele>784.0</ele><time>2026-04-18T12:08:13.603Z</time></trkpt><trkpt lat="46.1905517" lon="11.82604"><ele>780.6</ele><time>2026-04-18T12:08:14.603Z</time></trkpt><trkpt lat="46.19044" lon="11.8260583"><ele>777.2</ele><time>2026-04-18T12:08:15.603Z</time></trkpt><trkpt lat="46.190345" lon="11.8260933"><ele>773.8000000000001</ele><time>2026-04-18T12:08:16.603Z</time></trkpt><trkpt lat="46.1902583" lon="11.8261683"><ele>770.4000000000001</ele><time>2026-04-18T12:08:17.603Z</time></trkpt><trkpt lat="46.1902" lon="11.8262733"><ele>767.0</ele><time>2026-04-18T12:08:18.603Z</time></trkpt><trkpt lat="46.1901583" lon="11.8263883"><ele>767.0</ele><time>2026-04-18T12:08:19.603Z</time></trkpt><trkpt lat="46.1901583" lon="11.8265217"><ele>767.0</ele><time>2026-04-18T12:08:20.603Z</time></trkpt><trkpt lat="46.19019" lon="11.8266567"><ele>767.0</ele><time>2026-04-18T12:08:21.603Z</time></trkpt><trkpt lat="46.1902367" lon="11.826805"><ele>767.0</ele><time>2026-04-18T12:08:22.604Z</time></trkpt><trkpt lat="46.1902917" lon="11.8269433"><ele>767.0</ele><time>2026-04-18T12:08:23.603Z</time></trkpt><trkpt lat="46.190335" lon="11.827085"><ele>766.0</ele><time>2026-04-18T12:08:24.604Z</time></trkpt><trkpt lat="46.1903667" lon="11.8272233"><ele>765.0</ele><time>2026-04-18T12:08:25.604Z</time></trkpt><trkpt lat="46.1903767" lon="11.8273683"><ele>764.0</ele><time>2026-04-18T12:08:26.603Z</time></trkpt><trkpt lat="46.1903683" lon="11.827515"><ele>763.0</ele><time>2026-04-18T12:08:27.603Z</time></trkpt><trkpt lat="46.190345" lon="11.8276783"><ele>762.0</ele><time>2026-04-18T12:08:28.603Z</time></trkpt><trkpt lat="46.1903017" lon="11.8278483"><ele>761.25</ele><time>2026-04-18T12:08:29.604Z</time></trkpt><trkpt lat="46.1902517" lon="11.8280083"><ele>760.5</ele><time>2026-04-18T12:08:30.603Z</time></trkpt><trkpt lat="46.190205" lon="11.8281683"><ele>759.75</ele><time>2026-04-18T12:08:31.604Z</time></trkpt><trkpt lat="46.19016" lon="11.8283217"><ele>759.0</ele><time>2026-04-18T12:08:32.603Z</time></trkpt><trkpt lat="46.1901117" lon="11.82848"><ele>759.0</ele><time>2026-04-18T12:08:33.604Z</time></trkpt><trkpt lat="46.1900617" lon="11.82863"><ele>759.0</ele><time>2026-04-18T12:08:34.603Z</time></trkpt><trkpt lat="46.1899967" lon="11.8287717"><ele>759.0</ele><time>2026-04-18T12:08:35.603Z</time></trkpt><trkpt lat="46.1899183" lon="11.8289033"><ele>759.0</ele><time>2026-04-18T12:08:36.604Z</time></trkpt><trkpt lat="46.18982" lon="11.8290083"><ele>759.0</ele><time>2026-04-18T12:08:37.603Z</time></trkpt><trkpt lat="46.1897083" lon="11.8291167"><ele>759.0</ele><time>2026-04-18T12:08:38.603Z</time></trkpt><trkpt lat="46.189595" lon="11.8292033"><ele>759.0</ele><time>2026-04-18T12:08:39.604Z</time></trkpt><trkpt lat="46.189485" lon="11.8292867"><ele>759.0</ele><time>2026-04-18T12:08:40.603Z</time></trkpt><trkpt lat="46.1893783" lon="11.829365"><ele>758.8000000000001</ele><time>2026-04-18T12:08:41.603Z</time></trkpt><trkpt lat="46.1892883" lon="11.82944"><ele>758.6</ele><time>2026-04-18T12:08:42.603Z</time></trkpt><trkpt lat="46.1892117" lon="11.8295167"><ele>758.4</ele><time>2026-04-18T12:08:43.604Z</time></trkpt><trkpt lat="46.1891183" lon="11.8295517"><ele>758.2</ele><time>2026-04-18T12:08:44.603Z</time></trkpt><trkpt lat="46.1890117" lon="11.8296"><ele>758.0</ele><time>2026-04-18T12:08:45.604Z</time></trkpt><trkpt lat="46.1888983" lon="11.8296433"><ele>758.0</ele><time>2026-04-18T12:08:46.603Z</time></trkpt><trkpt lat="46.188785" lon="11.829695"><ele>758.0</ele><time>2026-04-18T12:08:47.604Z</time></trkpt><trkpt lat="46.18867" lon="11.8297667"><ele>758.0</ele><time>2026-04-18T12:08:48.603Z</time></trkpt><trkpt lat="46.18856" lon="11.8298483"><ele>758.0</ele><time>2026-04-18T12:08:49.603Z</time></trkpt><trkpt lat="46.1884533" lon="11.8299033"><ele>758.0</ele><time>2026-04-18T12:08:50.604Z</time></trkpt><trkpt lat="46.1883467" lon="11.8299633"><ele>758.0</ele><time>2026-04-18T12:08:51.603Z</time></trkpt><trkpt lat="46.188245" lon="11.8300383"><ele>758.0</ele><time>2026-04-18T12:08:52.603Z</time></trkpt><trkpt lat="46.188135" lon="11.8301083"><ele>758.0</ele><time>2026-04-18T12:08:53.603Z</time></trkpt><trkpt lat="46.1880217" lon="11.8301867"><ele>758.75</ele><time>2026-04-18T12:08:54.603Z</time></trkpt><trkpt lat="46.187905" lon="11.8302167"><ele>759.5</ele><time>2026-04-18T12:08:55.603Z</time></trkpt><trkpt lat="46.1877933" lon="11.8302533"><ele>760.25</ele><time>2026-04-18T12:08:56.603Z</time></trkpt><trkpt lat="46.187685" lon="11.8303033"><ele>761.0</ele><time>2026-04-18T12:08:57.604Z</time></trkpt><trkpt lat="46.1875767" lon="11.830345"><ele>761.0</ele><time>2026-04-18T12:08:58.603Z</time></trkpt><trkpt lat="46.1874733" lon="11.830385"><ele>761.0</ele><time>2026-04-18T12:08:59.603Z</time></trkpt><trkpt lat="46.187355" lon="11.830415"><ele>761.0</ele><time>2026-04-18T12:09:00.603Z</time></trkpt><trkpt lat="46.187225" lon="11.8304533"><ele>761.0</ele><time>2026-04-18T12:09:01.603Z</time></trkpt><trkpt lat="46.1871083" lon="11.8304983"><ele>758.5</ele><time>2026-04-18T12:09:02.603Z</time></trkpt><trkpt lat="46.1869717" lon="11.830525"><ele>756.0</ele><time>2026-04-18T12:09:03.603Z</time></trkpt><trkpt lat="46.1868483" lon="11.8305567"><ele>753.5</ele><time>2026-04-18T12:09:04.604Z</time></trkpt><trkpt lat="46.18672" lon="11.8305933"><ele>751.0</ele><time>2026-04-18T12:09:05.603Z</time></trkpt><trkpt lat="46.1865883" lon="11.830605"><ele>750.0</ele><time>2026-04-18T12:09:06.603Z</time></trkpt><trkpt lat="46.1864617" lon="11.8306217"><ele>749.0</ele><time>2026-04-18T12:09:07.603Z</time></trkpt><trkpt lat="46.186335" lon="11.8306533"><ele>748.0</ele><time>2026-04-18T12:09:08.604Z</time></trkpt><trkpt lat="46.1862117" lon="11.8306883"><ele>747.0</ele><time>2026-04-18T12:09:09.603Z</time></trkpt><trkpt lat="46.186105" lon="11.8307267"><ele>747.0</ele><time>2026-04-18T12:09:10.604Z</time></trkpt><trkpt lat="46.1859867" lon="11.83075"><ele>747.0</ele><time>2026-04-18T12:09:11.604Z</time></trkpt><trkpt lat="46.1858733" lon="11.83076"><ele>747.0</ele><time>2026-04-18T12:09:12.603Z</time></trkpt><trkpt lat="46.1857617" lon="11.8308017"><ele>747.0</ele><time>2026-04-18T12:09:13.603Z</time></trkpt><trkpt lat="46.185645" lon="11.8308267"><ele>746.5</ele><time>2026-04-18T12:09:14.604Z</time></trkpt><trkpt lat="46.1855317" lon="11.8308667"><ele>746.0</ele><time>2026-04-18T12:09:15.604Z</time></trkpt><trkpt lat="46.1854117" lon="11.8308933"><ele>745.5</ele><time>2026-04-18T12:09:16.603Z</time></trkpt><trkpt lat="46.18528" lon="11.8309367"><ele>745.0</ele><time>2026-04-18T12:09:17.603Z</time></trkpt><trkpt lat="46.1851517" lon="11.8309817"><ele>745.0</ele><time>2026-04-18T12:09:18.604Z</time></trkpt><trkpt lat="46.1850183" lon="11.83102"><ele>745.0</ele><time>2026-04-18T12:09:19.604Z</time></trkpt><trkpt lat="46.1848833" lon="11.831065"><ele>745.0</ele><time>2026-04-18T12:09:20.603Z</time></trkpt><trkpt lat="46.18472" lon="11.8310883"><ele>745.0</ele><time>2026-04-18T12:09:21.603Z</time></trkpt><trkpt lat="46.1845667" lon="11.8311367"><ele>745.0</ele><time>2026-04-18T12:09:22.604Z</time></trkpt><trkpt lat="46.184415" lon="11.8311783"><ele>745.0</ele><time>2026-04-18T12:09:23.604Z</time></trkpt><trkpt lat="46.184275" lon="11.831225"><ele>745.0</ele><time>2026-04-18T12:09:24.603Z</time></trkpt><trkpt lat="46.18413" lon="11.8312683"><ele>745.0</ele><time>2026-04-18T12:09:25.603Z</time></trkpt><trkpt lat="46.1839817" lon="11.8313"><ele>744.75</ele><time>2026-04-18T12:09:26.603Z</time></trkpt><trkpt lat="46.1838533" lon="11.831335"><ele>744.5</ele><time>2026-04-18T12:09:27.603Z</time></trkpt><trkpt lat="46.1837217" lon="11.831375"><ele>744.25</ele><time>2026-04-18T12:09:28.603Z</time></trkpt><trkpt lat="46.18359" lon="11.8314"><ele>744.0</ele><time>2026-04-18T12:09:29.603Z</time></trkpt><trkpt lat="46.1834567" lon="11.83143"><ele>744.0</ele><time>2026-04-18T12:09:30.603Z</time></trkpt><trkpt lat="46.183325" lon="11.83146"><ele>744.0</ele><time>2026-04-18T12:09:31.603Z</time></trkpt><trkpt lat="46.1831883" lon="11.8314967"><ele>744.0</ele><time>2026-04-18T12:09:32.603Z</time></trkpt><trkpt lat="46.183055" lon="11.8315367"><ele>744.0</ele><time>2026-04-18T12:09:33.603Z</time></trkpt><trkpt lat="46.1829233" lon="11.8315767"><ele>742.25</ele><time>2026-04-18T12:09:34.603Z</time></trkpt><trkpt lat="46.1827933" lon="11.8315983"><ele>740.5</ele><time>2026-04-18T12:09:35.603Z</time></trkpt><trkpt lat="46.18267" lon="11.8316267"><ele>738.75</ele><time>2026-04-18T12:09:36.603Z</time></trkpt><trkpt lat="46.1825567" lon="11.8316533"><ele>737.0</ele><time>2026-04-18T12:09:37.603Z</time></trkpt><trkpt lat="46.1824483" lon="11.83168"><ele>735.75</ele><time>2026-04-18T12:09:38.603Z</time></trkpt><trkpt lat="46.1823367" lon="11.8317083"><ele>734.5</ele><time>2026-04-18T12:09:39.603Z</time></trkpt><trkpt lat="46.1822217" lon="11.8317467"><ele>733.25</ele><time>2026-04-18T12:09:40.603Z</time></trkpt><trkpt lat="46.1821017" lon="11.8317817"><ele>732.0</ele><time>2026-04-18T12:09:41.604Z</time></trkpt><trkpt lat="46.1819717" lon="11.83182"><ele>732.0</ele><time>2026-04-18T12:09:42.603Z</time></trkpt><trkpt lat="46.1818383" lon="11.8318567"><ele>732.0</ele><time>2026-04-18T12:09:43.604Z</time></trkpt><trkpt lat="46.1817117" lon="11.831895"><ele>732.0</ele><time>2026-04-18T12:09:44.603Z</time></trkpt><trkpt lat="46.181585" lon="11.8319233"><ele>732.0</ele><time>2026-04-18T12:09:45.603Z</time></trkpt><trkpt lat="46.1814517" lon="11.8319517"><ele>732.0</ele><time>2026-04-18T12:09:46.604Z</time></trkpt><trkpt lat="46.1813183" lon="11.8319917"><ele>732.0</ele><time>2026-04-18T12:09:47.603Z</time></trkpt><trkpt lat="46.1811817" lon="11.8320383"><ele>732.0</ele><time>2026-04-18T12:09:48.603Z</time></trkpt><trkpt lat="46.1810417" lon="11.832065"><ele>732.0</ele><time>2026-04-18T12:09:49.603Z</time></trkpt><trkpt lat="46.1809" lon="11.832105"><ele>732.0</ele><time>2026-04-18T12:09:50.602Z</time></trkpt><trkpt lat="46.1807583" lon="11.8321367"><ele>732.0</ele><time>2026-04-18T12:09:51.603Z</time></trkpt><trkpt lat="46.18062" lon="11.8321667"><ele>732.0</ele><time>2026-04-18T12:09:52.602Z</time></trkpt><trkpt lat="46.1804883" lon="11.8322067"><ele>732.0</ele><time>2026-04-18T12:09:53.602Z</time></trkpt><trkpt lat="46.1803533" lon="11.8322317"><ele>731.5</ele><time>2026-04-18T12:09:54.602Z</time></trkpt><trkpt lat="46.1802317" lon="11.8322717"><ele>731.0</ele><time>2026-04-18T12:09:55.602Z</time></trkpt><trkpt lat="46.180115" lon="11.8322983"><ele>730.5</ele><time>2026-04-18T12:09:56.602Z</time></trkpt><trkpt lat="46.1799983" lon="11.832325"><ele>730.0</ele><time>2026-04-18T12:09:57.602Z</time></trkpt><trkpt lat="46.17989" lon="11.8323667"><ele>729.0</ele><time>2026-04-18T12:09:58.602Z</time></trkpt><trkpt lat="46.1798033" lon="11.8323867"><ele>728.0</ele><time>2026-04-18T12:09:59.602Z</time></trkpt><trkpt lat="46.1797117" lon="11.8324067"><ele>727.0</ele><time>2026-04-18T12:10:00.602Z</time></trkpt><trkpt lat="46.17963" lon="11.8324317"><ele>726.0</ele><time>2026-04-18T12:10:01.602Z</time></trkpt><trkpt lat="46.17955" lon="11.8324533"><ele>725.0</ele><time>2026-04-18T12:10:02.602Z</time></trkpt><trkpt lat="46.17947" lon="11.8324717"><ele>724.0</ele><time>2026-04-18T12:10:03.603Z</time></trkpt><trkpt lat="46.1793833" lon="11.832505"><ele>724.0</ele><time>2026-04-18T12:10:04.603Z</time></trkpt><trkpt lat="46.1792983" lon="11.832535"><ele>724.0</ele><time>2026-04-18T12:10:05.602Z</time></trkpt><trkpt lat="46.1792267" lon="11.8325467"><ele>724.0</ele><time>2026-04-18T12:10:06.602Z</time></trkpt><trkpt lat="46.1791533" lon="11.8325383"><ele>724.0</ele><time>2026-04-18T12:10:07.602Z</time></trkpt><trkpt lat="46.1790867" lon="11.832525"><ele>724.0</ele><time>2026-04-18T12:10:08.602Z</time></trkpt><trkpt lat="46.1790217" lon="11.8324983"><ele>724.0</ele><time>2026-04-18T12:10:09.603Z</time></trkpt><trkpt lat="46.1789367" lon="11.832475"><ele>723.8333333333334</ele><time>2026-04-18T12:10:11.602Z</time></trkpt><trkpt lat="46.1788983" lon="11.8325617"><ele>723.6666666666667</ele><time>2026-04-18T12:10:13.603Z</time></trkpt><trkpt lat="46.178905" lon="11.83268"><ele>723.5</ele><time>2026-04-18T12:10:15.602Z</time></trkpt><trkpt lat="46.1789167" lon="11.8328517"><ele>723.3333333333334</ele><time>2026-04-18T12:10:17.602Z</time></trkpt><trkpt lat="46.1788817" lon="11.8329467"><ele>723.1666666666666</ele><time>2026-04-18T12:10:18.603Z</time></trkpt><trkpt lat="46.178835" lon="11.8330417"><ele>723.0</ele><time>2026-04-18T12:10:19.602Z</time></trkpt><trkpt lat="46.1787983" lon="11.8331533"><ele>723.0</ele><time>2026-04-18T12:10:20.603Z</time></trkpt><trkpt lat="46.17879" lon="11.8332917"><ele>723.0</ele><time>2026-04-18T12:10:21.602Z</time></trkpt><trkpt lat="46.1787933" lon="11.8334317"><ele>723.0</ele><time>2026-04-18T12:10:22.603Z</time></trkpt><trkpt lat="46.17884" lon="11.8335817"><ele>723.0</ele><time>2026-04-18T12:10:23.603Z</time></trkpt><trkpt lat="46.1789033" lon="11.8337267"><ele>723.0</ele><time>2026-04-18T12:10:24.602Z</time></trkpt><trkpt lat="46.178965" lon="11.8338767"><ele>724.0</ele><time>2026-04-18T12:10:25.602Z</time></trkpt><trkpt lat="46.1790317" lon="11.8340283"><ele>725.0</ele><time>2026-04-18T12:10:26.602Z</time></trkpt><trkpt lat="46.1790967" lon="11.834175"><ele>726.0</ele><time>2026-04-18T12:10:27.602Z</time></trkpt><trkpt lat="46.1791667" lon="11.8343167"><ele>727.0</ele><time>2026-04-18T12:10:28.603Z</time></trkpt><trkpt lat="46.17923" lon="11.8344483"><ele>727.0</ele><time>2026-04-18T12:10:29.603Z</time></trkpt><trkpt lat="46.179275" lon="11.8345833"><ele>727.0</ele><time>2026-04-18T12:10:30.602Z</time></trkpt><trkpt lat="46.1793217" lon="11.834695"><ele>727.0</ele><time>2026-04-18T12:10:31.602Z</time></trkpt><trkpt lat="46.1793633" lon="11.8348267"><ele>727.0</ele><time>2026-04-18T12:10:32.602Z</time></trkpt><trkpt lat="46.1793983" lon="11.834965"><ele>727.0</ele><time>2026-04-18T12:10:33.602Z</time></trkpt><trkpt lat="46.17943" lon="11.8351083"><ele>726.2</ele><time>2026-04-18T12:10:34.603Z</time></trkpt><trkpt lat="46.1794617" lon="11.8352533"><ele>725.4000000000001</ele><time>2026-04-18T12:10:35.602Z</time></trkpt><trkpt lat="46.1794967" lon="11.83541"><ele>724.5999999999999</ele><time>2026-04-18T12:10:36.602Z</time></trkpt><trkpt lat="46.1795217" lon="11.8355633"><ele>723.8</ele><time>2026-04-18T12:10:37.602Z</time></trkpt><trkpt lat="46.179555" lon="11.8357117"><ele>723.0</ele><time>2026-04-18T12:10:38.602Z</time></trkpt><trkpt lat="46.17959" lon="11.8358617"><ele>723.5999999999999</ele><time>2026-04-18T12:10:39.602Z</time></trkpt><trkpt lat="46.1796317" lon="11.8360033"><ele>724.1999999999999</ele><time>2026-04-18T12:10:40.603Z</time></trkpt><trkpt lat="46.1796883" lon="11.8361483"><ele>724.8</ele><time>2026-04-18T12:10:41.602Z</time></trkpt><trkpt lat="46.1797367" lon="11.8362967"><ele>725.4</ele><time>2026-04-18T12:10:42.602Z</time></trkpt><trkpt lat="46.1797933" lon="11.836435"><ele>726.0</ele><time>2026-04-18T12:10:43.602Z</time></trkpt><trkpt lat="46.17985" lon="11.8365733"><ele>727.1666666666666</ele><time>2026-04-18T12:10:44.602Z</time></trkpt><trkpt lat="46.179905" lon="11.8366967"><ele>728.3333333333334</ele><time>2026-04-18T12:10:45.602Z</time></trkpt><trkpt lat="46.1799383" lon="11.836815"><ele>729.5</ele><time>2026-04-18T12:10:46.603Z</time></trkpt><trkpt lat="46.1799633" lon="11.836905"><ele>730.6666666666667</ele><time>2026-04-18T12:10:47.603Z</time></trkpt><trkpt lat="46.17999" lon="11.8369917"><ele>731.8333333333334</ele><time>2026-04-18T12:10:49.602Z</time></trkpt><trkpt lat="46.1800517" lon="11.83711"><ele>733.0</ele><time>2026-04-18T12:11:08.602Z</time></trkpt><trkpt lat="46.1800883" lon="11.8372033"><ele>733.0</ele><time>2026-04-18T12:11:09.602Z</time></trkpt><trkpt lat="46.1801233" lon="11.8373083"><ele>733.0</ele><time>2026-04-18T12:11:10.602Z</time></trkpt><trkpt lat="46.1801583" lon="11.83742"><ele>733.0</ele><time>2026-04-18T12:11:11.602Z</time></trkpt><trkpt lat="46.1801983" lon="11.837515"><ele>733.0</ele><time>2026-04-18T12:11:12.602Z</time></trkpt><trkpt lat="46.1802317" lon="11.8376117"><ele>733.0</ele><time>2026-04-18T12:11:13.603Z</time></trkpt><trkpt lat="46.180265" lon="11.8377033"><ele>733.0</ele><time>2026-04-18T12:11:14.602Z</time></trkpt><trkpt lat="46.1803017" lon="11.8377967"><ele>733.2</ele><time>2026-04-18T12:11:15.603Z</time></trkpt><trkpt lat="46.18033" lon="11.837905"><ele>733.4</ele><time>2026-04-18T12:11:16.602Z</time></trkpt><trkpt lat="46.1803617" lon="11.8380283"><ele>733.6</ele><time>2026-04-18T12:11:17.603Z</time></trkpt><trkpt lat="46.1803933" lon="11.83816"><ele>733.8000000000001</ele><time>2026-04-18T12:11:18.602Z</time></trkpt><trkpt lat="46.1804267" lon="11.8383033"><ele>734.0</ele><time>2026-04-18T12:11:19.602Z</time></trkpt><trkpt lat="46.18046" lon="11.8384533"><ele>734.75</ele><time>2026-04-18T12:11:20.602Z</time></trkpt><trkpt lat="46.1804983" lon="11.8386083"><ele>735.5</ele><time>2026-04-18T12:11:21.602Z</time></trkpt><trkpt lat="46.1805383" lon="11.8387717"><ele>736.25</ele><time>2026-04-18T12:11:22.602Z</time></trkpt><trkpt lat="46.1805717" lon="11.8389467"><ele>737.0</ele><time>2026-04-18T12:11:23.602Z</time></trkpt><trkpt lat="46.18061" lon="11.8391167"><ele>737.0</ele><time>2026-04-18T12:11:24.602Z</time></trkpt><trkpt lat="46.180645" lon="11.8392733"><ele>737.0</ele><time>2026-04-18T12:11:25.603Z</time></trkpt><trkpt lat="46.18068" lon="11.83941"><ele>737.0</ele><time>2026-04-18T12:11:26.603Z</time></trkpt><trkpt lat="46.1807117" lon="11.839535"><ele>737.0</ele><time>2026-04-18T12:11:27.602Z</time></trkpt><trkpt lat="46.1807467" lon="11.83967"><ele>737.0</ele><time>2026-04-18T12:11:28.602Z</time></trkpt><trkpt lat="46.180775" lon="11.8398083"><ele>738.25</ele><time>2026-04-18T12:11:29.602Z</time></trkpt><trkpt lat="46.180805" lon="11.8399583"><ele>739.5</ele><time>2026-04-18T12:11:30.603Z</time></trkpt><trkpt lat="46.1808433" lon="11.8401183"><ele>740.75</ele><time>2026-04-18T12:11:31.602Z</time></trkpt><trkpt lat="46.1808783" lon="11.8402983"><ele>742.0</ele><time>2026-04-18T12:11:32.603Z</time></trkpt><trkpt lat="46.1809317" lon="11.8404933"><ele>742.25</ele><time>2026-04-18T12:11:33.602Z</time></trkpt><trkpt lat="46.1809917" lon="11.8406867"><ele>742.5</ele><time>2026-04-18T12:11:34.602Z</time></trkpt><trkpt lat="46.1810567" lon="11.840865"><ele>742.75</ele><time>2026-04-18T12:11:35.602Z</time></trkpt><trkpt lat="46.1811317" lon="11.8410333"><ele>743.0</ele><time>2026-04-18T12:11:36.602Z</time></trkpt><trkpt lat="46.1812167" lon="11.841195"><ele>743.6666666666666</ele><time>2026-04-18T12:11:37.602Z</time></trkpt><trkpt lat="46.1813083" lon="11.8413617"><ele>744.3333333333334</ele><time>2026-04-18T12:11:38.602Z</time></trkpt><trkpt lat="46.1814033" lon="11.8415283"><ele>745.0</ele><time>2026-04-18T12:11:39.603Z</time></trkpt><trkpt lat="46.1815183" lon="11.8417033"><ele>746.0</ele><time>2026-04-18T12:11:40.602Z</time></trkpt><trkpt lat="46.18165" lon="11.8418767"><ele>747.0</ele><time>2026-04-18T12:11:41.603Z</time></trkpt><trkpt lat="46.1817833" lon="11.8420533"><ele>748.0</ele><time>2026-04-18T12:11:42.602Z</time></trkpt><trkpt lat="46.181915" lon="11.8422317"><ele>748.0</ele><time>2026-04-18T12:11:43.602Z</time></trkpt><trkpt lat="46.1820467" lon="11.8424167"><ele>748.0</ele><time>2026-04-18T12:11:44.602Z</time></trkpt><trkpt lat="46.18219" lon="11.8425933"><ele>748.0</ele><time>2026-04-18T12:11:45.603Z</time></trkpt><trkpt lat="46.1823267" lon="11.8427667"><ele>749.3333333333334</ele><time>2026-04-18T12:11:46.603Z</time></trkpt><trkpt lat="46.1824533" lon="11.8429333"><ele>750.6666666666666</ele><time>2026-04-18T12:11:47.602Z</time></trkpt><trkpt lat="46.1825667" lon="11.8430883"><ele>752.0</ele><time>2026-04-18T12:11:48.603Z</time></trkpt><trkpt lat="46.1826833" lon="11.8432283"><ele>752.0</ele><time>2026-04-18T12:11:49.602Z</time></trkpt><trkpt lat="46.1827933" lon="11.8433683"><ele>752.0</ele><time>2026-04-18T12:11:50.603Z</time></trkpt><trkpt lat="46.182925" lon="11.8435067"><ele>752.0</ele><time>2026-04-18T12:11:51.602Z</time></trkpt><trkpt lat="46.1830383" lon="11.8436517"><ele>754.3333333333333</ele><time>2026-04-18T12:11:52.602Z</time></trkpt><trkpt lat="46.1831533" lon="11.8438"><ele>756.6666666666666</ele><time>2026-04-18T12:11:53.602Z</time></trkpt><trkpt lat="46.183275" lon="11.8439533"><ele>759.0</ele><time>2026-04-18T12:11:54.602Z</time></trkpt><trkpt lat="46.1834067" lon="11.8441083"><ele>759.0</ele><time>2026-04-18T12:11:55.603Z</time></trkpt><trkpt lat="46.1835217" lon="11.84426"><ele>759.0</ele><time>2026-04-18T12:11:56.603Z</time></trkpt><trkpt lat="46.18364" lon="11.8444067"><ele>759.0</ele><time>2026-04-18T12:11:57.602Z</time></trkpt><trkpt lat="46.1837633" lon="11.8445467"><ele>760.6666666666666</ele><time>2026-04-18T12:11:58.603Z</time></trkpt><trkpt lat="46.183875" lon="11.84467"><ele>762.3333333333333</ele><time>2026-04-18T12:11:59.602Z</time></trkpt><trkpt lat="46.184015" lon="11.8447933"><ele>764.0</ele><time>2026-04-18T12:12:00.602Z</time></trkpt><trkpt lat="46.18416" lon="11.8449083"><ele>764.0</ele><time>2026-04-18T12:12:01.603Z</time></trkpt><trkpt lat="46.18429" lon="11.845015"><ele>764.0</ele><time>2026-04-18T12:12:02.602Z</time></trkpt><trkpt lat="46.1844133" lon="11.8451233"><ele>764.0</ele><time>2026-04-18T12:12:03.603Z</time></trkpt><trkpt lat="46.1845383" lon="11.845225"><ele>764.0</ele><time>2026-04-18T12:12:04.602Z</time></trkpt><trkpt lat="46.1846467" lon="11.8453267"><ele>764.6</ele><time>2026-04-18T12:12:05.602Z</time></trkpt><trkpt lat="46.1847517" lon="11.84542"><ele>765.2</ele><time>2026-04-18T12:12:06.602Z</time></trkpt><trkpt lat="46.1848467" lon="11.8454967"><ele>765.8000000000001</ele><time>2026-04-18T12:12:07.603Z</time></trkpt><trkpt lat="46.184935" lon="11.84556"><ele>766.4000000000001</ele><time>2026-04-18T12:12:08.602Z</time></trkpt><trkpt lat="46.1850083" lon="11.8456217"><ele>767.0</ele><time>2026-04-18T12:12:09.602Z</time></trkpt><trkpt lat="46.1850683" lon="11.845695"><ele>769.0</ele><time>2026-04-18T12:12:10.602Z</time></trkpt><trkpt lat="46.1851217" lon="11.8457917"><ele>771.0</ele><time>2026-04-18T12:12:11.603Z</time></trkpt><trkpt lat="46.1851617" lon="11.8459183"><ele>773.0</ele><time>2026-04-18T12:12:12.602Z</time></trkpt><trkpt lat="46.1852033" lon="11.846065"><ele>775.0</ele><time>2026-04-18T12:12:13.602Z</time></trkpt><trkpt lat="46.185245" lon="11.846235"><ele>777.0</ele><time>2026-04-18T12:12:14.602Z</time></trkpt><trkpt lat="46.185275" lon="11.8464317"><ele>777.0</ele><time>2026-04-18T12:12:15.602Z</time></trkpt><trkpt lat="46.18529" lon="11.8466733"><ele>777.0</ele><time>2026-04-18T12:12:16.602Z</time></trkpt><trkpt lat="46.1853033" lon="11.84693"><ele>777.0</ele><time>2026-04-18T12:12:17.602Z</time></trkpt><trkpt lat="46.185325" lon="11.8471783"><ele>777.3333333333333</ele><time>2026-04-18T12:12:18.602Z</time></trkpt><trkpt lat="46.1853633" lon="11.8474083"><ele>777.6666666666666</ele><time>2026-04-18T12:12:19.602Z</time></trkpt><trkpt lat="46.1853983" lon="11.8476367"><ele>778.0</ele><time>2026-04-18T12:12:20.602Z</time></trkpt><trkpt lat="46.1854317" lon="11.8478583"><ele>778.3333333333333</ele><time>2026-04-18T12:12:21.602Z</time></trkpt><trkpt lat="46.18546" lon="11.848075"><ele>778.6666666666667</ele><time>2026-04-18T12:12:22.602Z</time></trkpt><trkpt lat="46.1854933" lon="11.8482983"><ele>779.0</ele><time>2026-04-18T12:12:23.602Z</time></trkpt><trkpt lat="46.18553" lon="11.8485117"><ele>783.25</ele><time>2026-04-18T12:12:24.603Z</time></trkpt><trkpt lat="46.1855517" lon="11.8487083"><ele>787.5</ele><time>2026-04-18T12:12:25.602Z</time></trkpt><trkpt lat="46.1855867" lon="11.8488767"><ele>791.75</ele><time>2026-04-18T12:12:26.603Z</time></trkpt><trkpt lat="46.18564" lon="11.8490383"><ele>796.0</ele><time>2026-04-18T12:12:27.602Z</time></trkpt><trkpt lat="46.1857167" lon="11.84919"><ele>795.5</ele><time>2026-04-18T12:12:28.602Z</time></trkpt><trkpt lat="46.1858183" lon="11.84934"><ele>795.0</ele><time>2026-04-18T12:12:29.602Z</time></trkpt><trkpt lat="46.1859283" lon="11.84949"><ele>794.5</ele><time>2026-04-18T12:12:30.602Z</time></trkpt><trkpt lat="46.186035" lon="11.8496367"><ele>794.0</ele><time>2026-04-18T12:12:31.602Z</time></trkpt><trkpt lat="46.1861217" lon="11.8497967"><ele>794.0</ele><time>2026-04-18T12:12:32.602Z</time></trkpt><trkpt lat="46.1862" lon="11.849945"><ele>794.0</ele><time>2026-04-18T12:12:33.602Z</time></trkpt><trkpt lat="46.1862833" lon="11.8500783"><ele>794.0</ele><time>2026-04-18T12:12:34.603Z</time></trkpt><trkpt lat="46.1863617" lon="11.85022"><ele>794.0</ele><time>2026-04-18T12:12:35.602Z</time></trkpt><trkpt lat="46.186445" lon="11.8503567"><ele>796.0</ele><time>2026-04-18T12:12:36.603Z</time></trkpt><trkpt lat="46.1865167" lon="11.8504833"><ele>798.0</ele><time>2026-04-18T12:12:37.603Z</time></trkpt><trkpt lat="46.1865783" lon="11.850595"><ele>800.0</ele><time>2026-04-18T12:12:38.603Z</time></trkpt><trkpt lat="46.186615" lon="11.8507083"><ele>802.0</ele><time>2026-04-18T12:12:39.602Z</time></trkpt><trkpt lat="46.1866433" lon="11.8508517"><ele>804.0</ele><time>2026-04-18T12:12:40.602Z</time></trkpt><trkpt lat="46.1866517" lon="11.851005"><ele>804.0</ele><time>2026-04-18T12:12:41.602Z</time></trkpt><trkpt lat="46.1866467" lon="11.8511517"><ele>804.0</ele><time>2026-04-18T12:12:42.602Z</time></trkpt><trkpt lat="46.1866217" lon="11.8512983"><ele>804.0</ele><time>2026-04-18T12:12:43.602Z</time></trkpt><trkpt lat="46.1865767" lon="11.8514183"><ele>804.0</ele><time>2026-04-18T12:12:44.602Z</time></trkpt><trkpt lat="46.1865167" lon="11.851515"><ele>804.0</ele><time>2026-04-18T12:12:45.603Z</time></trkpt><trkpt lat="46.186465" lon="11.8515783"><ele>808.0</ele><time>2026-04-18T12:12:46.602Z</time></trkpt><trkpt lat="46.186405" lon="11.85162"><ele>812.0</ele><time>2026-04-18T12:12:47.602Z</time></trkpt><trkpt lat="46.1862717" lon="11.8516267"><ele>816.0</ele><time>2026-04-18T12:12:49.602Z</time></trkpt><trkpt lat="46.1861883" lon="11.85156"><ele>820.0</ele><time>2026-04-18T12:12:50.602Z</time></trkpt><trkpt lat="46.1861033" lon="11.851465"><ele>824.0</ele><time>2026-04-18T12:12:51.602Z</time></trkpt><trkpt lat="46.185995" lon="11.8513317"><ele>824.0</ele><time>2026-04-18T12:12:52.602Z</time></trkpt><trkpt lat="46.1858817" lon="11.8511883"><ele>824.0</ele><time>2026-04-18T12:12:53.603Z</time></trkpt><trkpt lat="46.1857767" lon="11.8510633"><ele>824.0</ele><time>2026-04-18T12:12:54.602Z</time></trkpt><trkpt lat="46.1856883" lon="11.8509633"><ele>824.0</ele><time>2026-04-18T12:12:55.602Z</time></trkpt><trkpt lat="46.1856133" lon="11.8508767"><ele>826.8000000000001</ele><time>2026-04-18T12:12:56.602Z</time></trkpt><trkpt lat="46.1855417" lon="11.8508167"><ele>829.6</ele><time>2026-04-18T12:12:57.602Z</time></trkpt><trkpt lat="46.185475" lon="11.8508183"><ele>832.4</ele><time>2026-04-18T12:12:58.602Z</time></trkpt><trkpt lat="46.1854867" lon="11.8510367"><ele>835.2</ele><time>2026-04-18T12:13:00.602Z</time></trkpt><trkpt lat="46.185555" lon="11.8511767"><ele>838.0</ele><time>2026-04-18T12:13:01.602Z</time></trkpt><trkpt lat="46.1856333" lon="11.8513117"><ele>838.0</ele><time>2026-04-18T12:13:02.603Z</time></trkpt><trkpt lat="46.1856983" lon="11.851445"><ele>838.0</ele><time>2026-04-18T12:13:03.603Z</time></trkpt><trkpt lat="46.1857517" lon="11.8515633"><ele>838.0</ele><time>2026-04-18T12:13:04.602Z</time></trkpt><trkpt lat="46.1857933" lon="11.8516867"><ele>838.0</ele><time>2026-04-18T12:13:05.602Z</time></trkpt><trkpt lat="46.1858183" lon="11.8518033"><ele>838.0</ele><time>2026-04-18T12:13:06.602Z</time></trkpt><trkpt lat="46.1858517" lon="11.8519083"><ele>838.0</ele><time>2026-04-18T12:13:07.602Z</time></trkpt><trkpt lat="46.185885" lon="11.8520117"><ele>838.0</ele><time>2026-04-18T12:13:08.602Z</time></trkpt><trkpt lat="46.185915" lon="11.8521183"><ele>838.0</ele><time>2026-04-18T12:13:09.602Z</time></trkpt><trkpt lat="46.185945" lon="11.8522333"><ele>838.0</ele><time>2026-04-18T12:13:10.602Z</time></trkpt><trkpt lat="46.1859883" lon="11.8523733"><ele>838.0</ele><time>2026-04-18T12:13:11.603Z</time></trkpt><trkpt lat="46.18605" lon="11.8525533"><ele>842.5999999999999</ele><time>2026-04-18T12:13:12.603Z</time></trkpt><trkpt lat="46.1861067" lon="11.852735"><ele>847.1999999999999</ele><time>2026-04-18T12:13:13.602Z</time></trkpt><trkpt lat="46.1861283" lon="11.8528733"><ele>851.8</ele><time>2026-04-18T12:13:14.603Z</time></trkpt><trkpt lat="46.18614" lon="11.8529683"><ele>856.4</ele><time>2026-04-18T12:13:15.602Z</time></trkpt><trkpt lat="46.1860367" lon="11.85298"><ele>861.0</ele><time>2026-04-18T12:13:17.602Z</time></trkpt><trkpt lat="46.185965" lon="11.8529333"><ele>861.0</ele><time>2026-04-18T12:13:18.602Z</time></trkpt><trkpt lat="46.185855" lon="11.8528117"><ele>861.0</ele><time>2026-04-18T12:13:19.602Z</time></trkpt><trkpt lat="46.185735" lon="11.852675"><ele>861.0</ele><time>2026-04-18T12:13:20.603Z</time></trkpt><trkpt lat="46.18562" lon="11.8525383"><ele>861.0</ele><time>2026-04-18T12:13:21.603Z</time></trkpt><trkpt lat="46.1855133" lon="11.85241"><ele>862.1999999999999</ele><time>2026-04-18T12:13:22.602Z</time></trkpt><trkpt lat="46.1854233" lon="11.852305"><ele>863.3999999999999</ele><time>2026-04-18T12:13:23.602Z</time></trkpt><trkpt lat="46.1853533" lon="11.8522633"><ele>864.6</ele><time>2026-04-18T12:13:24.602Z</time></trkpt><trkpt lat="46.1852883" lon="11.8522783"><ele>865.8</ele><time>2026-04-18T12:13:25.602Z</time></trkpt><trkpt lat="46.1852467" lon="11.852455"><ele>867.0</ele><time>2026-04-18T12:13:27.603Z</time></trkpt><trkpt lat="46.18527" lon="11.8526"><ele>865.0</ele><time>2026-04-18T12:13:28.603Z</time></trkpt><trkpt lat="46.1853433" lon="11.8527883"><ele>863.0</ele><time>2026-04-18T12:13:29.602Z</time></trkpt><trkpt lat="46.1855367" lon="11.8530517"><ele>861.0</ele><time>2026-04-18T12:13:30.602Z</time></trkpt><trkpt lat="46.1857433" lon="11.85336"><ele>876.5</ele><time>2026-04-18T12:13:31.602Z</time></trkpt><trkpt lat="46.1858983" lon="11.8536167"><ele>892.0</ele><time>2026-04-18T12:13:32.602Z</time></trkpt><trkpt lat="46.1860517" lon="11.85386"><ele>892.0</ele><time>2026-04-18T12:13:33.603Z</time></trkpt><trkpt lat="46.1862167" lon="11.8540833"><ele>892.0</ele><time>2026-04-18T12:13:34.602Z</time></trkpt><trkpt lat="46.186385" lon="11.85429"><ele>892.0</ele><time>2026-04-18T12:13:35.602Z</time></trkpt><trkpt lat="46.1865367" lon="11.8544583"><ele>892.6666666666666</ele><time>2026-04-18T12:13:36.603Z</time></trkpt><trkpt lat="46.1866833" lon="11.8546117"><ele>893.3333333333333</ele><time>2026-04-18T12:13:37.602Z</time></trkpt><trkpt lat="46.1867917" lon="11.85475"><ele>894.0</ele><time>2026-04-18T12:13:38.602Z</time></trkpt><trkpt lat="46.1868933" lon="11.8548917"><ele>894.0</ele><time>2026-04-18T12:13:39.602Z</time></trkpt><trkpt lat="46.186985" lon="11.8550717"><ele>894.0</ele><time>2026-04-18T12:13:40.602Z</time></trkpt><trkpt lat="46.1870533" lon="11.8552733"><ele>894.0</ele><time>2026-04-18T12:13:41.602Z</time></trkpt><trkpt lat="46.1871333" lon="11.85548"><ele>895.0</ele><time>2026-04-18T12:13:42.602Z</time></trkpt><trkpt lat="46.1872067" lon="11.85568"><ele>896.0</ele><time>2026-04-18T12:13:43.602Z</time></trkpt><trkpt lat="46.1872767" lon="11.85587"><ele>897.0</ele><time>2026-04-18T12:13:44.602Z</time></trkpt><trkpt lat="46.1873233" lon="11.8560483"><ele>898.0</ele><time>2026-04-18T12:13:45.603Z</time></trkpt><trkpt lat="46.18737" lon="11.8562133"><ele>898.0</ele><time>2026-04-18T12:13:46.602Z</time></trkpt><trkpt lat="46.1873967" lon="11.8564083"><ele>898.0</ele><time>2026-04-18T12:13:47.603Z</time></trkpt><trkpt lat="46.1874217" lon="11.8566217"><ele>898.0</ele><time>2026-04-18T12:13:48.602Z</time></trkpt><trkpt lat="46.1874267" lon="11.8568517"><ele>898.0</ele><time>2026-04-18T12:13:49.602Z</time></trkpt><trkpt lat="46.187415" lon="11.8571"><ele>901.0</ele><time>2026-04-18T12:13:50.602Z</time></trkpt><trkpt lat="46.1873967" lon="11.857335"><ele>904.0</ele><time>2026-04-18T12:13:51.602Z</time></trkpt><trkpt lat="46.187365" lon="11.8575567"><ele>907.0</ele><time>2026-04-18T12:13:52.602Z</time></trkpt><trkpt lat="46.1873433" lon="11.8577583"><ele>915.75</ele><time>2026-04-18T12:13:53.602Z</time></trkpt><trkpt lat="46.1873333" lon="11.8579467"><ele>924.5</ele><time>2026-04-18T12:13:54.602Z</time></trkpt><trkpt lat="46.18733" lon="11.8581183"><ele>933.25</ele><time>2026-04-18T12:13:55.602Z</time></trkpt><trkpt lat="46.1872933" lon="11.858285"><ele>942.0</ele><time>2026-04-18T12:13:56.602Z</time></trkpt><trkpt lat="46.18724" lon="11.858455"><ele>942.0</ele><time>2026-04-18T12:13:57.602Z</time></trkpt><trkpt lat="46.187165" lon="11.8586267"><ele>942.0</ele><time>2026-04-18T12:13:58.602Z</time></trkpt><trkpt lat="46.1870567" lon="11.858815"><ele>942.0</ele><time>2026-04-18T12:13:59.602Z</time></trkpt><trkpt lat="46.186935" lon="11.858995"><ele>942.0</ele><time>2026-04-18T12:14:00.602Z</time></trkpt><trkpt lat="46.18683" lon="11.8591767"><ele>942.0</ele><time>2026-04-18T12:14:01.602Z</time></trkpt><trkpt lat="46.1867467" lon="11.8593483"><ele>942.0</ele><time>2026-04-18T12:14:02.603Z</time></trkpt><trkpt lat="46.1866683" lon="11.8595"><ele>942.0</ele><time>2026-04-18T12:14:03.603Z</time></trkpt><trkpt lat="46.1866033" lon="11.85963"><ele>941.0</ele><time>2026-04-18T12:14:04.602Z</time></trkpt><trkpt lat="46.1865667" lon="11.8597667"><ele>940.0</ele><time>2026-04-18T12:14:05.603Z</time></trkpt><trkpt lat="46.18655" lon="11.85992"><ele>939.0</ele><time>2026-04-18T12:14:06.603Z</time></trkpt><trkpt lat="46.186555" lon="11.86007"><ele>938.0</ele><time>2026-04-18T12:14:07.602Z</time></trkpt><trkpt lat="46.1865733" lon="11.8602183"><ele>937.0</ele><time>2026-04-18T12:14:08.603Z</time></trkpt><trkpt lat="46.1866217" lon="11.8603567"><ele>939.5</ele><time>2026-04-18T12:14:09.602Z</time></trkpt><trkpt lat="46.1866433" lon="11.8604867"><ele>942.0</ele><time>2026-04-18T12:14:10.603Z</time></trkpt><trkpt lat="46.18676" lon="11.8605917"><ele>944.5</ele><time>2026-04-18T12:14:11.602Z</time></trkpt><trkpt lat="46.1868667" lon="11.8606533"><ele>947.0</ele><time>2026-04-18T12:14:12.602Z</time></trkpt><trkpt lat="46.1869833" lon="11.860685"><ele>947.0</ele><time>2026-04-18T12:14:13.602Z</time></trkpt><trkpt lat="46.1871067" lon="11.8606817"><ele>947.0</ele><time>2026-04-18T12:14:14.602Z</time></trkpt><trkpt lat="46.1872267" lon="11.8606317"><ele>947.0</ele><time>2026-04-18T12:14:15.602Z</time></trkpt><trkpt lat="46.1873317" lon="11.8605717"><ele>947.0</ele><time>2026-04-18T12:14:16.602Z</time></trkpt><trkpt lat="46.1874117" lon="11.8604867"><ele>949.3333333333334</ele><time>2026-04-18T12:14:17.602Z</time></trkpt><trkpt lat="46.1874867" lon="11.8603983"><ele>951.6666666666667</ele><time>2026-04-18T12:14:18.602Z</time></trkpt><trkpt lat="46.1875617" lon="11.86033"><ele>954.0</ele><time>2026-04-18T12:14:19.602Z</time></trkpt><trkpt lat="46.1876367" lon="11.86028"><ele>956.3333333333333</ele><time>2026-04-18T12:14:20.602Z</time></trkpt><trkpt lat="46.1877133" lon="11.86022"><ele>958.6666666666666</ele><time>2026-04-18T12:14:21.603Z</time></trkpt><trkpt lat="46.1877933" lon="11.8601933"><ele>961.0</ele><time>2026-04-18T12:14:22.602Z</time></trkpt><trkpt lat="46.1878717" lon="11.8601583"><ele>960.9999999999999</ele><time>2026-04-18T12:14:23.602Z</time></trkpt><trkpt lat="46.1879483" lon="11.86013"><ele>961.0</ele><time>2026-04-18T12:14:24.602Z</time></trkpt><trkpt lat="46.188015" lon="11.8601067"><ele>961.0</ele><time>2026-04-18T12:14:25.602Z</time></trkpt><trkpt lat="46.1881217" lon="11.860145"><ele>961.0</ele><time>2026-04-18T12:14:27.602Z</time></trkpt><trkpt lat="46.1881733" lon="11.860225"><ele>960.9999999999999</ele><time>2026-04-18T12:14:28.602Z</time></trkpt><trkpt lat="46.18823" lon="11.8603283"><ele>961.0</ele><time>2026-04-18T12:14:29.603Z</time></trkpt><trkpt lat="46.188275" lon="11.8604333"><ele>963.4999999999999</ele><time>2026-04-18T12:14:30.602Z</time></trkpt><trkpt lat="46.188325" lon="11.8605383"><ele>966.0</ele><time>2026-04-18T12:14:31.602Z</time></trkpt><trkpt lat="46.18837" lon="11.8606183"><ele>968.5</ele><time>2026-04-18T12:14:32.602Z</time></trkpt><trkpt lat="46.188425" lon="11.8606817"><ele>971.0</ele><time>2026-04-18T12:14:33.602Z</time></trkpt><trkpt lat="46.1884917" lon="11.8607333"><ele>973.4999999999999</ele><time>2026-04-18T12:14:34.602Z</time></trkpt><trkpt lat="46.1885617" lon="11.860775"><ele>976.0</ele><time>2026-04-18T12:14:35.602Z</time></trkpt><trkpt lat="46.1886267" lon="11.860805"><ele>975.9999999999999</ele><time>2026-04-18T12:14:36.603Z</time></trkpt><trkpt lat="46.18869" lon="11.86083"><ele>976.0</ele><time>2026-04-18T12:14:37.602Z</time></trkpt><trkpt lat="46.1887583" lon="11.8608333"><ele>975.9999999999999</ele><time>2026-04-18T12:14:38.603Z</time></trkpt><trkpt lat="46.1888367" lon="11.8608233"><ele>975.9999999999999</ele><time>2026-04-18T12:14:39.602Z</time></trkpt><trkpt lat="46.1889067" lon="11.860805"><ele>976.0</ele><time>2026-04-18T12:14:40.602Z</time></trkpt><trkpt lat="46.18898" lon="11.8607933"><ele>975.9999999999999</ele><time>2026-04-18T12:14:41.602Z</time></trkpt><trkpt lat="46.1890617" lon="11.860785"><ele>975.9999999999999</ele><time>2026-04-18T12:14:42.603Z</time></trkpt><trkpt lat="46.1891367" lon="11.8608017"><ele>977.5999999999999</ele><time>2026-04-18T12:14:43.602Z</time></trkpt><trkpt lat="46.1892217" lon="11.8608583"><ele>979.1999999999999</ele><time>2026-04-18T12:14:44.603Z</time></trkpt><trkpt lat="46.189305" lon="11.8609283"><ele>980.8000000000001</ele><time>2026-04-18T12:14:45.603Z</time></trkpt><trkpt lat="46.1893917" lon="11.8610033"><ele>982.4000000000001</ele><time>2026-04-18T12:14:46.602Z</time></trkpt><trkpt lat="46.1894817" lon="11.8610867"><ele>984.0</ele><time>2026-04-18T12:14:47.602Z</time></trkpt><trkpt lat="46.1895667" lon="11.8611567"><ele>984.8333333333334</ele><time>2026-04-18T12:14:48.602Z</time></trkpt><trkpt lat="46.189645" lon="11.8612133"><ele>985.6666666666667</ele><time>2026-04-18T12:14:49.602Z</time></trkpt><trkpt lat="46.1897283" lon="11.861255"><ele>986.5</ele><time>2026-04-18T12:14:50.602Z</time></trkpt><trkpt lat="46.1898017" lon="11.8612783"><ele>987.3333333333334</ele><time>2026-04-18T12:14:51.602Z</time></trkpt><trkpt lat="46.189905" lon="11.86134"><ele>988.1666666666667</ele><time>2026-04-18T12:14:53.602Z</time></trkpt><trkpt lat="46.1899167" lon="11.861445"><ele>989.0</ele><time>2026-04-18T12:14:55.602Z</time></trkpt><trkpt lat="46.1898" lon="11.861515"><ele>989.0</ele><time>2026-04-18T12:14:57.602Z</time></trkpt><trkpt lat="46.1897267" lon="11.86153"><ele>989.0000000000001</ele><time>2026-04-18T12:14:58.602Z</time></trkpt><trkpt lat="46.1896133" lon="11.8615083"><ele>989.0000000000001</ele><time>2026-04-18T12:14:59.602Z</time></trkpt><trkpt lat="46.189505" lon="11.8614933"><ele>989.0</ele><time>2026-04-18T12:15:00.602Z</time></trkpt><trkpt lat="46.1893917" lon="11.8615"><ele>989.0</ele><time>2026-04-18T12:15:01.602Z</time></trkpt><trkpt lat="46.189295" lon="11.861535"><ele>989.0</ele><time>2026-04-18T12:15:02.602Z</time></trkpt><trkpt lat="46.1891933" lon="11.8616017"><ele>989.0000000000001</ele><time>2026-04-18T12:15:03.603Z</time></trkpt><trkpt lat="46.1891017" lon="11.861695"><ele>989.0000000000001</ele><time>2026-04-18T12:15:04.603Z</time></trkpt><trkpt lat="46.1890183" lon="11.8617917"><ele>989.0</ele><time>2026-04-18T12:15:05.603Z</time></trkpt><trkpt lat="46.1889517" lon="11.8619267"><ele>989.0</ele><time>2026-04-18T12:15:06.602Z</time></trkpt><trkpt lat="46.1888983" lon="11.8620617"><ele>988.5</ele><time>2026-04-18T12:15:07.603Z</time></trkpt><trkpt lat="46.1888717" lon="11.8622233"><ele>988.0</ele><time>2026-04-18T12:15:08.602Z</time></trkpt><trkpt lat="46.18887" lon="11.862415"><ele>987.5</ele><time>2026-04-18T12:15:09.602Z</time></trkpt><trkpt lat="46.1888833" lon="11.86259"><ele>987.0</ele><time>2026-04-18T12:15:10.602Z</time></trkpt><trkpt lat="46.18891" lon="11.8627433"><ele>990.4000000000001</ele><time>2026-04-18T12:15:11.602Z</time></trkpt><trkpt lat="46.1889317" lon="11.8628917"><ele>993.8000000000001</ele><time>2026-04-18T12:15:12.602Z</time></trkpt><trkpt lat="46.18893" lon="11.8630283"><ele>997.2</ele><time>2026-04-18T12:15:13.603Z</time></trkpt><trkpt lat="46.1889317" lon="11.8631617"><ele>1000.6</ele><time>2026-04-18T12:15:14.603Z</time></trkpt><trkpt lat="46.1889217" lon="11.8632917"><ele>1004.0</ele><time>2026-04-18T12:15:15.602Z</time></trkpt><trkpt lat="46.1889" lon="11.8634117"><ele>1006.8333333333334</ele><time>2026-04-18T12:15:16.602Z</time></trkpt><trkpt lat="46.18885" lon="11.86351"><ele>1009.6666666666667</ele><time>2026-04-18T12:15:17.602Z</time></trkpt><trkpt lat="46.1887917" lon="11.8635783"><ele>1012.5</ele><time>2026-04-18T12:15:18.602Z</time></trkpt><trkpt lat="46.1887417" lon="11.8636467"><ele>1015.3333333333333</ele><time>2026-04-18T12:15:19.602Z</time></trkpt><trkpt lat="46.1886933" lon="11.8637067"><ele>1018.1666666666666</ele><time>2026-04-18T12:15:20.603Z</time></trkpt><trkpt lat="46.1886533" lon="11.8638767"><ele>1021.0</ele><time>2026-04-18T12:15:22.602Z</time></trkpt><trkpt lat="46.1887133" lon="11.8639317"><ele>1020.9999999999999</ele><time>2026-04-18T12:15:23.602Z</time></trkpt><trkpt lat="46.1887733" lon="11.863965"><ele>1021.0</ele><time>2026-04-18T12:15:24.602Z</time></trkpt><trkpt lat="46.1888717" lon="11.8639533"><ele>1021.0</ele><time>2026-04-18T12:15:25.603Z</time></trkpt><trkpt lat="46.1889517" lon="11.8639417"><ele>1021.0</ele><time>2026-04-18T12:15:26.602Z</time></trkpt><trkpt lat="46.1890183" lon="11.8639367"><ele>1020.9999999999999</ele><time>2026-04-18T12:15:27.603Z</time></trkpt><trkpt lat="46.1890817" lon="11.8639367"><ele>1021.0</ele><time>2026-04-18T12:15:28.602Z</time></trkpt><trkpt lat="46.1891883" lon="11.86397"><ele>1022.25</ele><time>2026-04-18T12:15:30.602Z</time></trkpt><trkpt lat="46.1891667" lon="11.8641417"><ele>1023.5</ele><time>2026-04-18T12:15:32.603Z</time></trkpt><trkpt lat="46.1891183" lon="11.86425"><ele>1024.75</ele><time>2026-04-18T12:15:33.603Z</time></trkpt><trkpt lat="46.189015" lon="11.8643417"><ele>1026.0</ele><time>2026-04-18T12:15:34.602Z</time></trkpt><trkpt lat="46.1888733" lon="11.8644383"><ele>1030.6666666666667</ele><time>2026-04-18T12:15:35.602Z</time></trkpt><trkpt lat="46.1886583" lon="11.8645233"><ele>1035.3333333333335</ele><time>2026-04-18T12:15:36.602Z</time></trkpt><trkpt lat="46.1884417" lon="11.86458"><ele>1040.0</ele><time>2026-04-18T12:15:37.603Z</time></trkpt><trkpt lat="46.188245" lon="11.8646"><ele>1038.6666666666667</ele><time>2026-04-18T12:15:38.602Z</time></trkpt><trkpt lat="46.1880583" lon="11.864615"><ele>1037.3333333333333</ele><time>2026-04-18T12:15:39.602Z</time></trkpt><trkpt lat="46.18787" lon="11.8646667"><ele>1036.0</ele><time>2026-04-18T12:15:40.602Z</time></trkpt><trkpt lat="46.1876883" lon="11.864765"><ele>1036.0</ele><time>2026-04-18T12:15:41.602Z</time></trkpt><trkpt lat="46.1875267" lon="11.8649217"><ele>1036.0</ele><time>2026-04-18T12:15:42.603Z</time></trkpt><trkpt lat="46.1873917" lon="11.8650367"><ele>1036.0</ele><time>2026-04-18T12:15:43.603Z</time></trkpt><trkpt lat="46.187285" lon="11.8651083"><ele>1035.8</ele><time>2026-04-18T12:15:44.602Z</time></trkpt><trkpt lat="46.18718" lon="11.8651517"><ele>1035.6</ele><time>2026-04-18T12:15:45.602Z</time></trkpt><trkpt lat="46.1871167" lon="11.8652117"><ele>1035.4</ele><time>2026-04-18T12:15:46.602Z</time></trkpt><trkpt lat="46.1870667" lon="11.8653267"><ele>1035.2</ele><time>2026-04-18T12:15:47.602Z</time></trkpt><trkpt lat="46.1870517" lon="11.8654867"><ele>1035.0</ele><time>2026-04-18T12:15:48.603Z</time></trkpt><trkpt lat="46.18705" lon="11.8656933"><ele>1035.0</ele><time>2026-04-18T12:15:49.602Z</time></trkpt><trkpt lat="46.18704" lon="11.8659367"><ele>1035.0</ele><time>2026-04-18T12:15:50.602Z</time></trkpt><trkpt lat="46.1870117" lon="11.8662167"><ele>1035.0</ele><time>2026-04-18T12:15:51.602Z</time></trkpt><trkpt lat="46.1869617" lon="11.866515"><ele>1045.0</ele><time>2026-04-18T12:15:52.603Z</time></trkpt><trkpt lat="46.1869017" lon="11.866835"><ele>1055.0</ele><time>2026-04-18T12:15:53.602Z</time></trkpt><trkpt lat="46.1868233" lon="11.8671733"><ele>1055.0</ele><time>2026-04-18T12:15:54.603Z</time></trkpt><trkpt lat="46.1867383" lon="11.8675267"><ele>1055.0</ele><time>2026-04-18T12:15:55.602Z</time></trkpt><trkpt lat="46.1866383" lon="11.8678567"><ele>1061.3333333333335</ele><time>2026-04-18T12:15:56.602Z</time></trkpt><trkpt lat="46.1865433" lon="11.8681417"><ele>1067.6666666666667</ele><time>2026-04-18T12:15:57.602Z</time></trkpt><trkpt lat="46.1864467" lon="11.8683883"><ele>1074.0</ele><time>2026-04-18T12:15:58.602Z</time></trkpt><trkpt lat="46.186375" lon="11.868595"><ele>1076.0</ele><time>2026-04-18T12:15:59.602Z</time></trkpt><trkpt lat="46.18634" lon="11.8688"><ele>1078.0</ele><time>2026-04-18T12:16:00.602Z</time></trkpt><trkpt lat="46.1863133" lon="11.8689917"><ele>1080.0</ele><time>2026-04-18T12:16:01.603Z</time></trkpt><trkpt lat="46.1862867" lon="11.8691567"><ele>1082.0</ele><time>2026-04-18T12:16:02.602Z</time></trkpt><trkpt lat="46.1862567" lon="11.8692933"><ele>1082.8</ele><time>2026-04-18T12:16:03.602Z</time></trkpt><trkpt lat="46.1862083" lon="11.86939"><ele>1083.6</ele><time>2026-04-18T12:16:04.602Z</time></trkpt><trkpt lat="46.1861283" lon="11.8694383"><ele>1084.3999999999999</ele><time>2026-04-18T12:16:05.602Z</time></trkpt><trkpt lat="46.186035" lon="11.8694467"><ele>1085.2</ele><time>2026-04-18T12:16:06.602Z</time></trkpt><trkpt lat="46.1859317" lon="11.8694383"><ele>1086.0</ele><time>2026-04-18T12:16:07.602Z</time></trkpt><trkpt lat="46.185835" lon="11.8694467"><ele>1086.0</ele><time>2026-04-18T12:16:08.602Z</time></trkpt><trkpt lat="46.185755" lon="11.869495"><ele>1086.0</ele><time>2026-04-18T12:16:09.603Z</time></trkpt><trkpt lat="46.1857033" lon="11.8695867"><ele>1086.0</ele><time>2026-04-18T12:16:10.603Z</time></trkpt><trkpt lat="46.1856783" lon="11.86968"><ele>1086.0</ele><time>2026-04-18T12:16:11.602Z</time></trkpt><trkpt lat="46.1856883" lon="11.8697817"><ele>1086.0</ele><time>2026-04-18T12:16:12.602Z</time></trkpt><trkpt lat="46.18574" lon="11.869855"><ele>1086.0</ele><time>2026-04-18T12:16:13.603Z</time></trkpt><trkpt lat="46.1859" lon="11.8698467"><ele>1086.0</ele><time>2026-04-18T12:16:14.603Z</time></trkpt><trkpt lat="46.1860583" lon="11.8698367"><ele>1086.0</ele><time>2026-04-18T12:16:15.602Z</time></trkpt><trkpt lat="46.1861817" lon="11.86985"><ele>1086.0</ele><time>2026-04-18T12:16:16.602Z</time></trkpt><trkpt lat="46.18629" lon="11.8699133"><ele>1086.0</ele><time>2026-04-18T12:16:17.602Z</time></trkpt><trkpt lat="46.18634" lon="11.87002"><ele>1087.6</ele><time>2026-04-18T12:16:18.602Z</time></trkpt><trkpt lat="46.18638" lon="11.8701567"><ele>1089.1999999999998</ele><time>2026-04-18T12:16:19.602Z</time></trkpt><trkpt lat="46.1863767" lon="11.8702917"><ele>1090.8000000000002</ele><time>2026-04-18T12:16:20.602Z</time></trkpt><trkpt lat="46.1863233" lon="11.8704333"><ele>1092.4</ele><time>2026-04-18T12:16:21.603Z</time></trkpt><trkpt lat="46.18625" lon="11.87058"><ele>1094.0</ele><time>2026-04-18T12:16:22.602Z</time></trkpt><trkpt lat="46.1861533" lon="11.8707533"><ele>1097.3333333333335</ele><time>2026-04-18T12:16:23.602Z</time></trkpt><trkpt lat="46.1860583" lon="11.8709733"><ele>1100.6666666666667</ele><time>2026-04-18T12:16:24.602Z</time></trkpt><trkpt lat="46.1859783" lon="11.8711733"><ele>1104.0</ele><time>2026-04-18T12:16:25.602Z</time></trkpt><trkpt lat="46.18592" lon="11.8713667"><ele>1104.0</ele><time>2026-04-18T12:16:26.602Z</time></trkpt><trkpt lat="46.1858967" lon="11.8715433"><ele>1104.0</ele><time>2026-04-18T12:16:27.602Z</time></trkpt><trkpt lat="46.18591" lon="11.8717533"><ele>1104.0</ele><time>2026-04-18T12:16:28.603Z</time></trkpt><trkpt lat="46.185955" lon="11.8719917"><ele>1104.0</ele><time>2026-04-18T12:16:29.602Z</time></trkpt><trkpt lat="46.186005" lon="11.87225"><ele>1105.0</ele><time>2026-04-18T12:16:30.603Z</time></trkpt><trkpt lat="46.1860383" lon="11.8725167"><ele>1106.0</ele><time>2026-04-18T12:16:31.602Z</time></trkpt><trkpt lat="46.1860267" lon="11.8727417"><ele>1107.0</ele><time>2026-04-18T12:16:32.602Z</time></trkpt><trkpt lat="46.18599" lon="11.8729567"><ele>1107.0</ele><time>2026-04-18T12:16:33.602Z</time></trkpt><trkpt lat="46.1859183" lon="11.8731633"><ele>1107.0</ele><time>2026-04-18T12:16:34.602Z</time></trkpt><trkpt lat="46.185825" lon="11.873375"><ele>1107.0</ele><time>2026-04-18T12:16:35.602Z</time></trkpt><trkpt lat="46.1856967" lon="11.8735733"><ele>1108.3333333333333</ele><time>2026-04-18T12:16:36.603Z</time></trkpt><trkpt lat="46.185555" lon="11.8737733"><ele>1109.6666666666665</ele><time>2026-04-18T12:16:37.603Z</time></trkpt><trkpt lat="46.1854133" lon="11.873955"><ele>1111.0</ele><time>2026-04-18T12:16:38.602Z</time></trkpt><trkpt lat="46.1852967" lon="11.874115"><ele>1111.0</ele><time>2026-04-18T12:16:39.602Z</time></trkpt><trkpt lat="46.1852" lon="11.874265"><ele>1111.0</ele><time>2026-04-18T12:16:40.603Z</time></trkpt><trkpt lat="46.1851283" lon="11.87443"><ele>1111.0</ele><time>2026-04-18T12:16:41.602Z</time></trkpt><trkpt lat="46.18505" lon="11.8746117"><ele>1111.0</ele><time>2026-04-18T12:16:42.603Z</time></trkpt><trkpt lat="46.1849917" lon="11.87482"><ele>1111.3333333333333</ele><time>2026-04-18T12:16:43.602Z</time></trkpt><trkpt lat="46.1849733" lon="11.8750683"><ele>1111.6666666666667</ele><time>2026-04-18T12:16:44.602Z</time></trkpt><trkpt lat="46.1849917" lon="11.8753367"><ele>1112.0</ele><time>2026-04-18T12:16:45.602Z</time></trkpt><trkpt lat="46.1850417" lon="11.8756417"><ele>1119.0</ele><time>2026-04-18T12:16:46.603Z</time></trkpt><trkpt lat="46.1850933" lon="11.8759433"><ele>1126.0</ele><time>2026-04-18T12:16:47.602Z</time></trkpt><trkpt lat="46.1851417" lon="11.876225"><ele>1133.0</ele><time>2026-04-18T12:16:48.602Z</time></trkpt><trkpt lat="46.18518" lon="11.8764883"><ele>1133.0</ele><time>2026-04-18T12:16:49.602Z</time></trkpt><trkpt lat="46.1852167" lon="11.87675"><ele>1133.0</ele><time>2026-04-18T12:16:50.602Z</time></trkpt><trkpt lat="46.18524" lon="11.8770167"><ele>1133.0</ele><time>2026-04-18T12:16:51.602Z</time></trkpt><trkpt lat="46.1852617" lon="11.8772717"><ele>1134.0</ele><time>2026-04-18T12:16:52.602Z</time></trkpt><trkpt lat="46.1852783" lon="11.8775117"><ele>1135.0</ele><time>2026-04-18T12:16:53.603Z</time></trkpt><trkpt lat="46.18529" lon="11.877755"><ele>1136.0</ele><time>2026-04-18T12:16:54.602Z</time></trkpt><trkpt lat="46.1853183" lon="11.87799"><ele>1139.6666666666667</ele><time>2026-04-18T12:16:55.603Z</time></trkpt><trkpt lat="46.1853583" lon="11.8782117"><ele>1143.3333333333333</ele><time>2026-04-18T12:16:56.602Z</time></trkpt><trkpt lat="46.1853983" lon="11.8784567"><ele>1147.0</ele><time>2026-04-18T12:16:57.602Z</time></trkpt><trkpt lat="46.1854533" lon="11.8787133"><ele>1148.3333333333333</ele><time>2026-04-18T12:16:58.603Z</time></trkpt><trkpt lat="46.1855217" lon="11.8789817"><ele>1149.6666666666667</ele><time>2026-04-18T12:16:59.602Z</time></trkpt><trkpt lat="46.1856133" lon="11.8792567"><ele>1151.0</ele><time>2026-04-18T12:17:00.603Z</time></trkpt><trkpt lat="46.1857167" lon="11.879555"><ele>1151.0</ele><time>2026-04-18T12:17:01.603Z</time></trkpt><trkpt lat="46.1858167" lon="11.8798733"><ele>1151.0</ele><time>2026-04-18T12:17:02.602Z</time></trkpt><trkpt lat="46.1859317" lon="11.8802183"><ele>1311.0</ele><time>2026-04-18T12:17:03.602Z</time></trkpt><trkpt lat="46.1918167" lon="11.8952083"><ele>1311.0</ele><time>2026-04-18T12:18:42.602Z</time></trkpt><trkpt lat="46.1917783" lon="11.895535"><ele>1311.0</ele><time>2026-04-18T12:18:43.602Z</time></trkpt><trkpt lat="46.1917533" lon="11.8958433"><ele>1311.0</ele><time>2026-04-18T12:18:44.602Z</time></trkpt><trkpt lat="46.191725" lon="11.8961133"><ele>1314.3333333333333</ele><time>2026-04-18T12:18:45.603Z</time></trkpt><trkpt lat="46.1917083" lon="11.896355"><ele>1317.6666666666665</ele><time>2026-04-18T12:18:46.603Z</time></trkpt><trkpt lat="46.1916917" lon="11.896575"><ele>1321.0</ele><time>2026-04-18T12:18:47.602Z</time></trkpt><trkpt lat="46.1916633" lon="11.8967717"><ele>1323.1999999999998</ele><time>2026-04-18T12:18:48.603Z</time></trkpt><trkpt lat="46.1916467" lon="11.896935"><ele>1325.3999999999999</ele><time>2026-04-18T12:18:49.602Z</time></trkpt><trkpt lat="46.1916317" lon="11.8970633"><ele>1327.6</ele><time>2026-04-18T12:18:50.602Z</time></trkpt><trkpt lat="46.1917383" lon="11.897175"><ele>1329.8</ele><time>2026-04-18T12:18:53.603Z</time></trkpt><trkpt lat="46.1918117" lon="11.8970667"><ele>1332.0</ele><time>2026-04-18T12:18:54.602Z</time></trkpt><trkpt lat="46.1918883" lon="11.8969017"><ele>1332.0</ele><time>2026-04-18T12:18:55.602Z</time></trkpt><trkpt lat="46.1919517" lon="11.8967517"><ele>1332.0</ele><time>2026-04-18T12:18:56.602Z</time></trkpt><trkpt lat="46.19201" lon="11.8966583"><ele>1332.0</ele><time>2026-04-18T12:18:57.602Z</time></trkpt><trkpt lat="46.19211" lon="11.8966433"><ele>1332.0</ele><time>2026-04-18T12:18:59.603Z</time></trkpt><trkpt lat="46.1921417" lon="11.89684"><ele>1332.0</ele><time>2026-04-18T12:19:01.602Z</time></trkpt><trkpt lat="46.1921367" lon="11.897"><ele>1332.0</ele><time>2026-04-18T12:19:02.602Z</time></trkpt><trkpt lat="46.1921183" lon="11.8972017"><ele>1332.0</ele><time>2026-04-18T12:19:03.602Z</time></trkpt><trkpt lat="46.192105" lon="11.897445"><ele>1332.0</ele><time>2026-04-18T12:19:04.602Z</time></trkpt><trkpt lat="46.1921117" lon="11.8976933"><ele>1334.6666666666667</ele><time>2026-04-18T12:19:05.602Z</time></trkpt><trkpt lat="46.192125" lon="11.8979633"><ele>1337.3333333333335</ele><time>2026-04-18T12:19:06.603Z</time></trkpt><trkpt lat="46.19215" lon="11.8982467"><ele>1340.0</ele><time>2026-04-18T12:19:07.602Z</time></trkpt><trkpt lat="46.19216" lon="11.898545"><ele>1343.6666666666667</ele><time>2026-04-18T12:19:08.602Z</time></trkpt><trkpt lat="46.1921867" lon="11.89881"><ele>1347.3333333333333</ele><time>2026-04-18T12:19:09.601Z</time></trkpt><trkpt lat="46.1922133" lon="11.899065"><ele>1351.0</ele><time>2026-04-18T12:19:10.601Z</time></trkpt><trkpt lat="46.1922333" lon="11.899305"><ele>1355.5</ele><time>2026-04-18T12:19:11.601Z</time></trkpt><trkpt lat="46.192265" lon="11.8997433"><ele>1360.0</ele><time>2026-04-18T12:19:13.601Z</time></trkpt><trkpt lat="46.192295" lon="11.8999483"><ele>1358.3333333333333</ele><time>2026-04-18T12:19:14.601Z</time></trkpt><trkpt lat="46.1923317" lon="11.900175"><ele>1356.6666666666667</ele><time>2026-04-18T12:19:15.602Z</time></trkpt><trkpt lat="46.1923783" lon="11.9003967"><ele>1355.0</ele><time>2026-04-18T12:19:16.601Z</time></trkpt><trkpt lat="46.1924267" lon="11.9006183"><ele>1355.0</ele><time>2026-04-18T12:19:17.601Z</time></trkpt><trkpt lat="46.1924617" lon="11.900855"><ele>1355.0</ele><time>2026-04-18T12:19:18.601Z</time></trkpt><trkpt lat="46.1924967" lon="11.9010717"><ele>1355.0</ele><time>2026-04-18T12:19:19.601Z</time></trkpt><trkpt lat="46.1925317" lon="11.9012733"><ele>1355.25</ele><time>2026-04-18T12:19:20.602Z</time></trkpt><trkpt lat="46.1925483" lon="11.9014917"><ele>1355.5</ele><time>2026-04-18T12:19:21.601Z</time></trkpt><trkpt lat="46.1925567" lon="11.9016983"><ele>1355.75</ele><time>2026-04-18T12:19:22.602Z</time></trkpt><trkpt lat="46.1925783" lon="11.9018883"><ele>1356.0</ele><time>2026-04-18T12:19:23.601Z</time></trkpt><trkpt lat="46.1926033" lon="11.902065"><ele>1357.0</ele><time>2026-04-18T12:19:24.601Z</time></trkpt><trkpt lat="46.1926117" lon="11.9022233"><ele>1358.0</ele><time>2026-04-18T12:19:25.601Z</time></trkpt><trkpt lat="46.19262" lon="11.9023633"><ele>1359.0</ele><time>2026-04-18T12:19:26.601Z</time></trkpt><trkpt lat="46.1926317" lon="11.902495"><ele>1360.0</ele><time>2026-04-18T12:19:27.601Z</time></trkpt><trkpt lat="46.1926383" lon="11.902635"><ele>1361.0</ele><time>2026-04-18T12:19:28.601Z</time></trkpt><trkpt lat="46.1926517" lon="11.90277"><ele>1362.25</ele><time>2026-04-18T12:19:29.601Z</time></trkpt><trkpt lat="46.192675" lon="11.902905"><ele>1363.5</ele><time>2026-04-18T12:19:30.601Z</time></trkpt><trkpt lat="46.1926983" lon="11.9030367"><ele>1364.75</ele><time>2026-04-18T12:19:31.601Z</time></trkpt><trkpt lat="46.1927217" lon="11.90317"><ele>1366.0</ele><time>2026-04-18T12:19:32.601Z</time></trkpt><trkpt lat="46.1927717" lon="11.9034533"><ele>1368.0</ele><time>2026-04-18T12:19:34.602Z</time></trkpt><trkpt lat="46.1927867" lon="11.9035867"><ele>1370.0</ele><time>2026-04-18T12:19:35.601Z</time></trkpt><trkpt lat="46.1928067" lon="11.903725"><ele>1372.0</ele><time>2026-04-18T12:19:36.601Z</time></trkpt><trkpt lat="46.1928267" lon="11.9038517"><ele>1374.0</ele><time>2026-04-18T12:19:37.601Z</time></trkpt><trkpt lat="46.1928517" lon="11.90399"><ele>1376.0</ele><time>2026-04-18T12:19:38.601Z</time></trkpt><trkpt lat="46.1928667" lon="11.90412"><ele>1378.5</ele><time>2026-04-18T12:19:39.601Z</time></trkpt><trkpt lat="46.19288" lon="11.904255"><ele>1381.0</ele><time>2026-04-18T12:19:40.602Z</time></trkpt><trkpt lat="46.192905" lon="11.90439"><ele>1383.5</ele><time>2026-04-18T12:19:41.601Z</time></trkpt><trkpt lat="46.1929217" lon="11.90452"><ele>1386.0</ele><time>2026-04-18T12:19:42.602Z</time></trkpt><trkpt lat="46.1929383" lon="11.90464"><ele>1388.5</ele><time>2026-04-18T12:19:43.602Z</time></trkpt><trkpt lat="46.19295" lon="11.9047533"><ele>1391.0</ele><time>2026-04-18T12:19:44.601Z</time></trkpt><trkpt lat="46.192965" lon="11.904865"><ele>1391.0</ele><time>2026-04-18T12:19:45.601Z</time></trkpt><trkpt lat="46.1929783" lon="11.9049783"><ele>1391.0</ele><time>2026-04-18T12:19:46.601Z</time></trkpt><trkpt lat="46.192995" lon="11.9050867"><ele>1391.0</ele><time>2026-04-18T12:19:47.601Z</time></trkpt><trkpt lat="46.19301" lon="11.9052"><ele>1391.0</ele><time>2026-04-18T12:19:48.601Z</time></trkpt><trkpt lat="46.1930333" lon="11.9053133"><ele>1391.0</ele><time>2026-04-18T12:19:49.601Z</time></trkpt><trkpt lat="46.1930483" lon="11.9054333"><ele>1391.0</ele><time>2026-04-18T12:19:50.601Z</time></trkpt><trkpt lat="46.1930617" lon="11.905555"><ele>1391.6</ele><time>2026-04-18T12:19:51.601Z</time></trkpt><trkpt lat="46.1930783" lon="11.905675"><ele>1392.1999999999998</ele><time>2026-04-18T12:19:52.601Z</time></trkpt><trkpt lat="46.1931017" lon="11.9057967"><ele>1392.8000000000002</ele><time>2026-04-18T12:19:53.601Z</time></trkpt><trkpt lat="46.193155" lon="11.9060317"><ele>1393.4</ele><time>2026-04-18T12:19:55.601Z</time></trkpt><trkpt lat="46.1931817" lon="11.906155"><ele>1394.0</ele><time>2026-04-18T12:19:56.601Z</time></trkpt><trkpt lat="46.193205" lon="11.9062783"><ele>1390.0</ele><time>2026-04-18T12:19:57.601Z</time></trkpt><trkpt lat="46.19322" lon="11.906395"><ele>1386.0</ele><time>2026-04-18T12:19:58.601Z</time></trkpt><trkpt lat="46.1932367" lon="11.9065083"><ele>1382.0</ele><time>2026-04-18T12:19:59.601Z</time></trkpt><trkpt lat="46.19325" lon="11.9066"><ele>1378.0</ele><time>2026-04-18T12:20:00.601Z</time></trkpt><trkpt lat="46.1932717" lon="11.9067517"><ele>1374.0</ele><time>2026-04-18T12:20:02.601Z</time></trkpt><trkpt lat="46.193305" lon="11.9068683"><ele>1370.0</ele><time>2026-04-18T12:20:04.601Z</time></trkpt><trkpt lat="46.1933833" lon="11.906915"><ele>1367.0</ele><time>2026-04-18T12:20:07.602Z</time></trkpt><trkpt lat="46.1933783" lon="11.9068233"><ele>1367.0</ele><time>2026-04-18T12:20:18.601Z</time></trkpt></trkseg><trkseg><trkpt lat="46.193295" lon="11.906825"><ele>1367.0</ele><time>2026-04-18T13:00:19.606Z</time></trkpt><trkpt lat="46.1933183" lon="11.9069967"><ele>1367.0</ele><time>2026-04-18T13:00:21.605Z</time></trkpt><trkpt lat="46.1933367" lon="11.9071133"><ele>1367.0</ele><time>2026-04-18T13:00:22.606Z</time></trkpt><trkpt lat="46.1933517" lon="11.9072417"><ele>1367.0</ele><time>2026-04-18T13:00:23.606Z</time></trkpt><trkpt lat="46.1933717" lon="11.9073883"><ele>1367.0</ele><time>2026-04-18T13:00:24.605Z</time></trkpt><trkpt lat="46.1933817" lon="11.9075533"><ele>1366.0</ele><time>2026-04-18T13:00:25.606Z</time></trkpt><trkpt lat="46.1934033" lon="11.907715"><ele>1365.0</ele><time>2026-04-18T13:00:26.605Z</time></trkpt><trkpt lat="46.1934233" lon="11.9078983"><ele>1364.0</ele><time>2026-04-18T13:00:27.605Z</time></trkpt><trkpt lat="46.1934417" lon="11.9080867"><ele>1363.0</ele><time>2026-04-18T13:00:28.606Z</time></trkpt><trkpt lat="46.1934567" lon="11.908275"><ele>1363.0</ele><time>2026-04-18T13:00:29.605Z</time></trkpt><trkpt lat="46.1934733" lon="11.908455"><ele>1363.0</ele><time>2026-04-18T13:00:30.605Z</time></trkpt><trkpt lat="46.1934917" lon="11.9086467"><ele>1363.0</ele><time>2026-04-18T13:00:31.605Z</time></trkpt><trkpt lat="46.1935033" lon="11.9088567"><ele>1363.0</ele><time>2026-04-18T13:00:32.605Z</time></trkpt><trkpt lat="46.1935167" lon="11.9090667"><ele>1361.0</ele><time>2026-04-18T13:00:33.605Z</time></trkpt><trkpt lat="46.1935233" lon="11.9092817"><ele>1359.0</ele><time>2026-04-18T13:00:34.605Z</time></trkpt><trkpt lat="46.1935283" lon="11.9095"><ele>1357.0</ele><time>2026-04-18T13:00:35.605Z</time></trkpt><trkpt lat="46.1935283" lon="11.90972"><ele>1357.0</ele><time>2026-04-18T13:00:36.605Z</time></trkpt><trkpt lat="46.1935417" lon="11.90994"><ele>1357.0</ele><time>2026-04-18T13:00:37.606Z</time></trkpt><trkpt lat="46.1935383" lon="11.910155"><ele>1357.0</ele><time>2026-04-18T13:00:38.605Z</time></trkpt><trkpt lat="46.1935583" lon="11.910365"><ele>1357.0</ele><time>2026-04-18T13:00:39.605Z</time></trkpt><trkpt lat="46.19357" lon="11.910545"><ele>1355.3333333333333</ele><time>2026-04-18T13:00:40.605Z</time></trkpt><trkpt lat="46.1936167" lon="11.91077"><ele>1353.6666666666667</ele><time>2026-04-18T13:00:41.605Z</time></trkpt><trkpt lat="46.1936733" lon="11.911"><ele>1352.0</ele><time>2026-04-18T13:00:42.605Z</time></trkpt><trkpt lat="46.19373" lon="11.9112417"><ele>1351.0</ele><time>2026-04-18T13:00:43.605Z</time></trkpt><trkpt lat="46.193785" lon="11.9114767"><ele>1350.0</ele><time>2026-04-18T13:00:44.606Z</time></trkpt><trkpt lat="46.1938417" lon="11.91171"><ele>1349.0</ele><time>2026-04-18T13:00:45.605Z</time></trkpt><trkpt lat="46.1938967" lon="11.9119467"><ele>1349.3333333333335</ele><time>2026-04-18T13:00:46.605Z</time></trkpt><trkpt lat="46.1939517" lon="11.912185"><ele>1349.6666666666667</ele><time>2026-04-18T13:00:47.605Z</time></trkpt><trkpt lat="46.1940133" lon="11.912415"><ele>1350.0</ele><time>2026-04-18T13:00:48.605Z</time></trkpt><trkpt lat="46.1940633" lon="11.9126433"><ele>1346.6666666666667</ele><time>2026-04-18T13:00:49.605Z</time></trkpt><trkpt lat="46.1941067" lon="11.9128683"><ele>1343.3333333333335</ele><time>2026-04-18T13:00:50.605Z</time></trkpt><trkpt lat="46.1941467" lon="11.9130933"><ele>1340.0</ele><time>2026-04-18T13:00:51.606Z</time></trkpt><trkpt lat="46.19419" lon="11.9133133"><ele>1337.75</ele><time>2026-04-18T13:00:52.605Z</time></trkpt><trkpt lat="46.1942133" lon="11.9135317"><ele>1335.5</ele><time>2026-04-18T13:00:53.605Z</time></trkpt><trkpt lat="46.1942167" lon="11.913745"><ele>1333.25</ele><time>2026-04-18T13:00:54.605Z</time></trkpt><trkpt lat="46.19422" lon="11.9139333"><ele>1331.0</ele><time>2026-04-18T13:00:55.605Z</time></trkpt><trkpt lat="46.1942317" lon="11.9140933"><ele>1329.6</ele><time>2026-04-18T13:00:56.605Z</time></trkpt><trkpt lat="46.1942433" lon="11.91424"><ele>1328.1999999999998</ele><time>2026-04-18T13:00:57.605Z</time></trkpt><trkpt lat="46.1942667" lon="11.91437"><ele>1326.8000000000002</ele><time>2026-04-18T13:00:58.605Z</time></trkpt><trkpt lat="46.19431" lon="11.9144833"><ele>1325.4</ele><time>2026-04-18T13:00:59.606Z</time></trkpt><trkpt lat="46.194365" lon="11.9145883"><ele>1324.0</ele><time>2026-04-18T13:01:00.605Z</time></trkpt><trkpt lat="46.194465" lon="11.9146567"><ele>1324.0</ele><time>2026-04-18T13:01:01.606Z</time></trkpt><trkpt lat="46.1946" lon="11.9146883"><ele>1324.0</ele><time>2026-04-18T13:01:02.605Z</time></trkpt><trkpt lat="46.1947533" lon="11.9147167"><ele>1324.0</ele><time>2026-04-18T13:01:03.605Z</time></trkpt><trkpt lat="46.1949117" lon="11.91476"><ele>1323.6666666666665</ele><time>2026-04-18T13:01:04.605Z</time></trkpt><trkpt lat="46.1950583" lon="11.914815"><ele>1323.3333333333333</ele><time>2026-04-18T13:01:05.605Z</time></trkpt><trkpt lat="46.1952083" lon="11.914915"><ele>1323.0</ele><time>2026-04-18T13:01:06.606Z</time></trkpt><trkpt lat="46.1953467" lon="11.9150533"><ele>1321.0</ele><time>2026-04-18T13:01:07.605Z</time></trkpt><trkpt lat="46.1954883" lon="11.9152267"><ele>1319.0</ele><time>2026-04-18T13:01:08.605Z</time></trkpt><trkpt lat="46.1956233" lon="11.9154117"><ele>1317.0</ele><time>2026-04-18T13:01:09.605Z</time></trkpt><trkpt lat="46.19575" lon="11.9155983"><ele>1317.0</ele><time>2026-04-18T13:01:10.605Z</time></trkpt><trkpt lat="46.195865" lon="11.91579"><ele>1317.0</ele><time>2026-04-18T13:01:11.605Z</time></trkpt><trkpt lat="46.1959617" lon="11.9159867"><ele>1317.0</ele><time>2026-04-18T13:01:12.605Z</time></trkpt><trkpt lat="46.1960517" lon="11.9161833"><ele>1314.5</ele><time>2026-04-18T13:01:13.605Z</time></trkpt><trkpt lat="46.19614" lon="11.916355"><ele>1312.0</ele><time>2026-04-18T13:01:14.605Z</time></trkpt><trkpt lat="46.1962217" lon="11.9165367"><ele>1309.5</ele><time>2026-04-18T13:01:15.605Z</time></trkpt><trkpt lat="46.196305" lon="11.91671"><ele>1307.0</ele><time>2026-04-18T13:01:16.605Z</time></trkpt><trkpt lat="46.1963983" lon="11.9168717"><ele>1306.0</ele><time>2026-04-18T13:01:17.605Z</time></trkpt><trkpt lat="46.1965017" lon="11.9170267"><ele>1305.0</ele><time>2026-04-18T13:01:18.605Z</time></trkpt><trkpt lat="46.1966167" lon="11.91717"><ele>1304.0</ele><time>2026-04-18T13:01:19.605Z</time></trkpt><trkpt lat="46.1967433" lon="11.91732"><ele>1304.0</ele><time>2026-04-18T13:01:20.605Z</time></trkpt><trkpt lat="46.1968717" lon="11.917475"><ele>1304.0</ele><time>2026-04-18T13:01:21.605Z</time></trkpt><trkpt lat="46.1969933" lon="11.9176267"><ele>1304.0</ele><time>2026-04-18T13:01:22.605Z</time></trkpt><trkpt lat="46.1971117" lon="11.91777"><ele>1304.0</ele><time>2026-04-18T13:01:23.605Z</time></trkpt><trkpt lat="46.1972233" lon="11.91791"><ele>1304.0</ele><time>2026-04-18T13:01:24.605Z</time></trkpt><trkpt lat="46.19733" lon="11.918075"><ele>1304.0</ele><time>2026-04-18T13:01:25.605Z</time></trkpt><trkpt lat="46.197415" lon="11.91826"><ele>1302.3333333333335</ele><time>2026-04-18T13:01:26.606Z</time></trkpt><trkpt lat="46.1974917" lon="11.9184483"><ele>1300.6666666666667</ele><time>2026-04-18T13:01:27.605Z</time></trkpt><trkpt lat="46.1975517" lon="11.91864"><ele>1299.0</ele><time>2026-04-18T13:01:28.606Z</time></trkpt><trkpt lat="46.1975983" lon="11.9188567"><ele>1299.0</ele><time>2026-04-18T13:01:29.605Z</time></trkpt><trkpt lat="46.1976283" lon="11.9190767"><ele>1299.0</ele><time>2026-04-18T13:01:30.606Z</time></trkpt><trkpt lat="46.1976567" lon="11.9192817"><ele>1299.0</ele><time>2026-04-18T13:01:31.605Z</time></trkpt><trkpt lat="46.19768" lon="11.9194917"><ele>1299.0</ele><time>2026-04-18T13:01:32.605Z</time></trkpt><trkpt lat="46.197685" lon="11.9196933"><ele>1297.25</ele><time>2026-04-18T13:01:33.605Z</time></trkpt><trkpt lat="46.1976733" lon="11.9198883"><ele>1295.5</ele><time>2026-04-18T13:01:34.606Z</time></trkpt><trkpt lat="46.1976367" lon="11.92005"><ele>1293.75</ele><time>2026-04-18T13:01:35.605Z</time></trkpt><trkpt lat="46.1975833" lon="11.920205"><ele>1292.0</ele><time>2026-04-18T13:01:36.605Z</time></trkpt><trkpt lat="46.197505" lon="11.9203233"><ele>1292.1666666666667</ele><time>2026-04-18T13:01:37.605Z</time></trkpt><trkpt lat="46.19741" lon="11.9204117"><ele>1292.3333333333335</ele><time>2026-04-18T13:01:38.605Z</time></trkpt><trkpt lat="46.19733" lon="11.9204817"><ele>1292.5</ele><time>2026-04-18T13:01:39.606Z</time></trkpt><trkpt lat="46.1972817" lon="11.9205717"><ele>1292.6666666666667</ele><time>2026-04-18T13:01:40.606Z</time></trkpt><trkpt lat="46.197255" lon="11.920685"><ele>1292.8333333333333</ele><time>2026-04-18T13:01:41.606Z</time></trkpt><trkpt lat="46.19728" lon="11.9207967"><ele>1293.0</ele><time>2026-04-18T13:01:42.605Z</time></trkpt><trkpt lat="46.1973317" lon="11.9208783"><ele>1291.8000000000002</ele><time>2026-04-18T13:01:43.605Z</time></trkpt><trkpt lat="46.1974067" lon="11.920935"><ele>1290.6</ele><time>2026-04-18T13:01:44.605Z</time></trkpt><trkpt lat="46.1974917" lon="11.9209633"><ele>1289.4</ele><time>2026-04-18T13:01:45.605Z</time></trkpt><trkpt lat="46.1976067" lon="11.9209483"><ele>1288.1999999999998</ele><time>2026-04-18T13:01:46.605Z</time></trkpt><trkpt lat="46.19773" lon="11.9209117"><ele>1287.0</ele><time>2026-04-18T13:01:47.606Z</time></trkpt><trkpt lat="46.1978717" lon="11.9208867"><ele>1287.0</ele><time>2026-04-18T13:01:48.605Z</time></trkpt><trkpt lat="46.1980233" lon="11.9208483"><ele>1287.0</ele><time>2026-04-18T13:01:49.605Z</time></trkpt><trkpt lat="46.1981867" lon="11.9208183"><ele>1287.0</ele><time>2026-04-18T13:01:50.606Z</time></trkpt><trkpt lat="46.1983333" lon="11.9207933"><ele>1284.75</ele><time>2026-04-18T13:01:51.605Z</time></trkpt><trkpt lat="46.1984833" lon="11.920785"><ele>1282.5</ele><time>2026-04-18T13:01:52.606Z</time></trkpt><trkpt lat="46.1986317" lon="11.9207983"><ele>1280.25</ele><time>2026-04-18T13:01:53.606Z</time></trkpt><trkpt lat="46.1987667" lon="11.9208583"><ele>1278.0</ele><time>2026-04-18T13:01:54.606Z</time></trkpt><trkpt lat="46.1988917" lon="11.920945"><ele>1276.2</ele><time>2026-04-18T13:01:55.605Z</time></trkpt><trkpt lat="46.1989917" lon="11.9210217"><ele>1274.4</ele><time>2026-04-18T13:01:56.605Z</time></trkpt><trkpt lat="46.1990717" lon="11.9211083"><ele>1272.6000000000001</ele><time>2026-04-18T13:01:57.605Z</time></trkpt><trkpt lat="46.1991383" lon="11.9211883"><ele>1270.8</ele><time>2026-04-18T13:01:58.605Z</time></trkpt><trkpt lat="46.19921" lon="11.92123"><ele>1269.0</ele><time>2026-04-18T13:01:59.605Z</time></trkpt><trkpt lat="46.199295" lon="11.92124"><ele>1265.25</ele><time>2026-04-18T13:02:00.606Z</time></trkpt><trkpt lat="46.1994083" lon="11.9212067"><ele>1261.5</ele><time>2026-04-18T13:02:01.606Z</time></trkpt><trkpt lat="46.1995317" lon="11.9211617"><ele>1257.75</ele><time>2026-04-18T13:02:02.606Z</time></trkpt><trkpt lat="46.1996783" lon="11.921125"><ele>1254.0</ele><time>2026-04-18T13:02:03.606Z</time></trkpt><trkpt lat="46.1998383" lon="11.92109"><ele>1248.0</ele><time>2026-04-18T13:02:04.605Z</time></trkpt><trkpt lat="46.2000083" lon="11.92105"><ele>1242.0</ele><time>2026-04-18T13:02:05.605Z</time></trkpt><trkpt lat="46.200185" lon="11.9210117"><ele>1236.0</ele><time>2026-04-18T13:02:06.605Z</time></trkpt><trkpt lat="46.2003383" lon="11.9209783"><ele>1236.0</ele><time>2026-04-18T13:02:07.605Z</time></trkpt><trkpt lat="46.2004833" lon="11.9209467"><ele>1236.0</ele><time>2026-04-18T13:02:08.605Z</time></trkpt><trkpt lat="46.200615" lon="11.9209217"><ele>1236.0</ele><time>2026-04-18T13:02:09.605Z</time></trkpt><trkpt lat="46.20069" lon="11.920935"><ele>1236.0</ele><time>2026-04-18T13:02:10.605Z</time></trkpt><trkpt lat="46.200805" lon="11.9209417"><ele>1233.8</ele><time>2026-04-18T13:02:11.606Z</time></trkpt><trkpt lat="46.200905" lon="11.9209417"><ele>1231.6</ele><time>2026-04-18T13:02:12.605Z</time></trkpt><trkpt lat="46.2009933" lon="11.920905"><ele>1229.4</ele><time>2026-04-18T13:02:13.605Z</time></trkpt><trkpt lat="46.201085" lon="11.9208417"><ele>1227.2</ele><time>2026-04-18T13:02:14.605Z</time></trkpt><trkpt lat="46.2011617" lon="11.920785"><ele>1225.0</ele><time>2026-04-18T13:02:15.605Z</time></trkpt><trkpt lat="46.2012317" lon="11.920795"><ele>1225.0</ele><time>2026-04-18T13:02:16.606Z</time></trkpt><trkpt lat="46.201315" lon="11.9208417"><ele>1225.0</ele><time>2026-04-18T13:02:17.605Z</time></trkpt><trkpt lat="46.2014267" lon="11.920945"><ele>1225.0</ele><time>2026-04-18T13:02:18.605Z</time></trkpt><trkpt lat="46.2015667" lon="11.92103"><ele>1225.0</ele><time>2026-04-18T13:02:19.605Z</time></trkpt><trkpt lat="46.2017083" lon="11.9210883"><ele>1224.0</ele><time>2026-04-18T13:02:20.606Z</time></trkpt><trkpt lat="46.2018533" lon="11.92115"><ele>1223.0</ele><time>2026-04-18T13:02:21.605Z</time></trkpt><trkpt lat="46.20201" lon="11.921205"><ele>1222.0</ele><time>2026-04-18T13:02:22.606Z</time></trkpt><trkpt lat="46.2021583" lon="11.921235"><ele>1222.0</ele><time>2026-04-18T13:02:23.606Z</time></trkpt><trkpt lat="46.2023067" lon="11.9212567"><ele>1222.0</ele><time>2026-04-18T13:02:24.606Z</time></trkpt><trkpt lat="46.2024467" lon="11.9212717"><ele>1222.0</ele><time>2026-04-18T13:02:25.606Z</time></trkpt><trkpt lat="46.202585" lon="11.921265"><ele>1222.0</ele><time>2026-04-18T13:02:26.605Z</time></trkpt><trkpt lat="46.2027333" lon="11.9212133"><ele>1222.0</ele><time>2026-04-18T13:02:27.606Z</time></trkpt><trkpt lat="46.2029" lon="11.9211383"><ele>1222.0</ele><time>2026-04-18T13:02:28.606Z</time></trkpt><trkpt lat="46.2030533" lon="11.9210267"><ele>1222.0</ele><time>2026-04-18T13:02:29.606Z</time></trkpt><trkpt lat="46.2032083" lon="11.9209283"><ele>1226.0</ele><time>2026-04-18T13:02:30.605Z</time></trkpt><trkpt lat="46.2033467" lon="11.9208617"><ele>1230.0</ele><time>2026-04-18T13:02:31.606Z</time></trkpt><trkpt lat="46.2034767" lon="11.9208067"><ele>1234.0</ele><time>2026-04-18T13:02:32.606Z</time></trkpt><trkpt lat="46.203595" lon="11.920745"><ele>1238.0</ele><time>2026-04-18T13:02:33.605Z</time></trkpt><trkpt lat="46.20371" lon="11.92065"><ele>1238.0</ele><time>2026-04-18T13:02:34.605Z</time></trkpt><trkpt lat="46.203825" lon="11.9205433"><ele>1238.0</ele><time>2026-04-18T13:02:35.605Z</time></trkpt><trkpt lat="46.203935" lon="11.9204217"><ele>1238.0</ele><time>2026-04-18T13:02:36.606Z</time></trkpt><trkpt lat="46.2040333" lon="11.920305"><ele>1238.0</ele><time>2026-04-18T13:02:37.606Z</time></trkpt><trkpt lat="46.2041067" lon="11.9202267"><ele>1238.0</ele><time>2026-04-18T13:02:38.606Z</time></trkpt><trkpt lat="46.2041617" lon="11.9201717"><ele>1238.0</ele><time>2026-04-18T13:02:39.605Z</time></trkpt><trkpt lat="46.2042317" lon="11.9201667"><ele>1238.0</ele><time>2026-04-18T13:02:41.605Z</time></trkpt><trkpt lat="46.2041567" lon="11.9203683"><ele>1238.0</ele><time>2026-04-18T13:02:43.605Z</time></trkpt><trkpt lat="46.2040483" lon="11.9205217"><ele>1238.0</ele><time>2026-04-18T13:02:44.605Z</time></trkpt><trkpt lat="46.2039067" lon="11.9206867"><ele>1238.0</ele><time>2026-04-18T13:02:45.606Z</time></trkpt><trkpt lat="46.203735" lon="11.9208533"><ele>1238.0</ele><time>2026-04-18T13:02:46.606Z</time></trkpt><trkpt lat="46.20358" lon="11.9210017"><ele>1238.0</ele><time>2026-04-18T13:02:47.605Z</time></trkpt><trkpt lat="46.20343" lon="11.9211617"><ele>1232.6666666666667</ele><time>2026-04-18T13:02:48.605Z</time></trkpt><trkpt lat="46.2032833" lon="11.921315"><ele>1227.3333333333333</ele><time>2026-04-18T13:02:49.605Z</time></trkpt><trkpt lat="46.20314" lon="11.9214533"><ele>1222.0</ele><time>2026-04-18T13:02:50.606Z</time></trkpt><trkpt lat="46.2030267" lon="11.92158"><ele>1222.0</ele><time>2026-04-18T13:02:51.606Z</time></trkpt><trkpt lat="46.2029133" lon="11.92168"><ele>1222.0</ele><time>2026-04-18T13:02:52.605Z</time></trkpt><trkpt lat="46.202795" lon="11.9217717"><ele>1222.0</ele><time>2026-04-18T13:02:53.605Z</time></trkpt><trkpt lat="46.2026583" lon="11.9218567"><ele>1222.0</ele><time>2026-04-18T13:02:54.605Z</time></trkpt><trkpt lat="46.2025083" lon="11.9219233"><ele>1214.5</ele><time>2026-04-18T13:02:55.605Z</time></trkpt><trkpt lat="46.202355" lon="11.9219933"><ele>1207.0</ele><time>2026-04-18T13:02:56.605Z</time></trkpt><trkpt lat="46.2022133" lon="11.9220767"><ele>1199.5</ele><time>2026-04-18T13:02:57.605Z</time></trkpt><trkpt lat="46.20209" lon="11.9221483"><ele>1192.0</ele><time>2026-04-18T13:02:58.605Z</time></trkpt><trkpt lat="46.2019667" lon="11.9221917"><ele>1192.0</ele><time>2026-04-18T13:02:59.605Z</time></trkpt><trkpt lat="46.2018533" lon="11.9222317"><ele>1192.0</ele><time>2026-04-18T13:03:00.605Z</time></trkpt><trkpt lat="46.201765" lon="11.9222867"><ele>1192.0</ele><time>2026-04-18T13:03:01.605Z</time></trkpt><trkpt lat="46.2017" lon="11.922335"><ele>1192.0</ele><time>2026-04-18T13:03:02.605Z</time></trkpt><trkpt lat="46.2017217" lon="11.922495"><ele>1192.0</ele><time>2026-04-18T13:03:04.605Z</time></trkpt><trkpt lat="46.2017817" lon="11.9225617"><ele>1187.25</ele><time>2026-04-18T13:03:05.606Z</time></trkpt><trkpt lat="46.2018867" lon="11.9225817"><ele>1182.5</ele><time>2026-04-18T13:03:06.606Z</time></trkpt><trkpt lat="46.2020183" lon="11.9226033"><ele>1177.75</ele><time>2026-04-18T13:03:07.605Z</time></trkpt><trkpt lat="46.202175" lon="11.9226083"><ele>1173.0</ele><time>2026-04-18T13:03:08.606Z</time></trkpt><trkpt lat="46.2023317" lon="11.9226283"><ele>1170.3333333333333</ele><time>2026-04-18T13:03:09.605Z</time></trkpt><trkpt lat="46.2024933" lon="11.9226483"><ele>1167.6666666666665</ele><time>2026-04-18T13:03:10.605Z</time></trkpt><trkpt lat="46.2026617" lon="11.9226683"><ele>1165.0</ele><time>2026-04-18T13:03:11.605Z</time></trkpt><trkpt lat="46.2028183" lon="11.9226783"><ele>1165.0</ele><time>2026-04-18T13:03:12.605Z</time></trkpt><trkpt lat="46.202975" lon="11.9227067"><ele>1165.0</ele><time>2026-04-18T13:03:13.606Z</time></trkpt><trkpt lat="46.2031383" lon="11.92273"><ele>1165.0</ele><time>2026-04-18T13:03:14.605Z</time></trkpt><trkpt lat="46.2032967" lon="11.9227733"><ele>1161.25</ele><time>2026-04-18T13:03:15.605Z</time></trkpt><trkpt lat="46.2034367" lon="11.9227933"><ele>1157.5</ele><time>2026-04-18T13:03:16.605Z</time></trkpt><trkpt lat="46.2035567" lon="11.9227967"><ele>1153.75</ele><time>2026-04-18T13:03:17.606Z</time></trkpt><trkpt lat="46.203665" lon="11.92278"><ele>1150.0</ele><time>2026-04-18T13:03:18.605Z</time></trkpt><trkpt lat="46.20378" lon="11.92268"><ele>1151.0</ele><time>2026-04-18T13:03:19.606Z</time></trkpt><trkpt lat="46.2038683" lon="11.9225133"><ele>1152.0</ele><time>2026-04-18T13:03:20.606Z</time></trkpt><trkpt lat="46.203935" lon="11.9223317"><ele>1153.0</ele><time>2026-04-18T13:03:21.605Z</time></trkpt><trkpt lat="46.2039967" lon="11.9221467"><ele>1154.0</ele><time>2026-04-18T13:03:22.605Z</time></trkpt><trkpt lat="46.204055" lon="11.921995"><ele>1154.0</ele><time>2026-04-18T13:03:23.605Z</time></trkpt><trkpt lat="46.204125" lon="11.9218883"><ele>1154.0</ele><time>2026-04-18T13:03:24.606Z</time></trkpt><trkpt lat="46.2041917" lon="11.9218333"><ele>1154.0</ele><time>2026-04-18T13:03:25.605Z</time></trkpt><trkpt lat="46.20428" lon="11.9218217"><ele>1154.0</ele><time>2026-04-18T13:03:26.605Z</time></trkpt><trkpt lat="46.2043817" lon="11.9219017"><ele>1154.0</ele><time>2026-04-18T13:03:27.605Z</time></trkpt><trkpt lat="46.204485" lon="11.922015"><ele>1154.0</ele><time>2026-04-18T13:03:28.606Z</time></trkpt><trkpt lat="46.2045983" lon="11.9221367"><ele>1154.0</ele><time>2026-04-18T13:03:29.605Z</time></trkpt><trkpt lat="46.20472" lon="11.922255"><ele>1154.0</ele><time>2026-04-18T13:03:30.605Z</time></trkpt><trkpt lat="46.2048383" lon="11.9224033"><ele>1154.0</ele><time>2026-04-18T13:03:31.605Z</time></trkpt><trkpt lat="46.20493" lon="11.9225533"><ele>1150.5</ele><time>2026-04-18T13:03:32.605Z</time></trkpt><trkpt lat="46.20501" lon="11.9226883"><ele>1147.0</ele><time>2026-04-18T13:03:33.605Z</time></trkpt><trkpt lat="46.2050667" lon="11.9228283"><ele>1143.5</ele><time>2026-04-18T13:03:34.606Z</time></trkpt><trkpt lat="46.2051017" lon="11.9229733"><ele>1140.0</ele><time>2026-04-18T13:03:35.605Z</time></trkpt><trkpt lat="46.2051083" lon="11.923135"><ele>1140.0</ele><time>2026-04-18T13:03:36.606Z</time></trkpt><trkpt lat="46.2051083" lon="11.923295"><ele>1140.0</ele><time>2026-04-18T13:03:37.605Z</time></trkpt><trkpt lat="46.2051433" lon="11.92342"><ele>1140.0</ele><time>2026-04-18T13:03:38.606Z</time></trkpt><trkpt lat="46.2052" lon="11.92352"><ele>1140.0</ele><time>2026-04-18T13:03:39.605Z</time></trkpt><trkpt lat="46.20529" lon="11.9235883"><ele>1140.0</ele><time>2026-04-18T13:03:40.605Z</time></trkpt><trkpt lat="46.2054033" lon="11.9236333"><ele>1137.8333333333333</ele><time>2026-04-18T13:03:41.606Z</time></trkpt><trkpt lat="46.2055083" lon="11.9236683"><ele>1135.6666666666667</ele><time>2026-04-18T13:03:42.605Z</time></trkpt><trkpt lat="46.2055867" lon="11.9237283"><ele>1133.5</ele><time>2026-04-18T13:03:43.605Z</time></trkpt><trkpt lat="46.205635" lon="11.9238"><ele>1131.3333333333335</ele><time>2026-04-18T13:03:44.606Z</time></trkpt><trkpt lat="46.2056567" lon="11.9239"><ele>1129.1666666666667</ele><time>2026-04-18T13:03:45.606Z</time></trkpt><trkpt lat="46.205635" lon="11.9240067"><ele>1127.0</ele><time>2026-04-18T13:03:46.605Z</time></trkpt><trkpt lat="46.2055767" lon="11.924105"><ele>1127.0</ele><time>2026-04-18T13:03:47.605Z</time></trkpt><trkpt lat="46.2054717" lon="11.9241933"><ele>1127.0</ele><time>2026-04-18T13:03:48.606Z</time></trkpt><trkpt lat="46.2053467" lon="11.9242783"><ele>1127.0</ele><time>2026-04-18T13:03:49.606Z</time></trkpt><trkpt lat="46.2052017" lon="11.9243017"><ele>1127.0</ele><time>2026-04-18T13:03:50.605Z</time></trkpt><trkpt lat="46.2050767" lon="11.9243233"><ele>1126.25</ele><time>2026-04-18T13:03:51.605Z</time></trkpt><trkpt lat="46.204965" lon="11.9243667"><ele>1125.5</ele><time>2026-04-18T13:03:52.605Z</time></trkpt><trkpt lat="46.20488" lon="11.924465"><ele>1124.75</ele><time>2026-04-18T13:03:53.605Z</time></trkpt><trkpt lat="46.20482" lon="11.924615"><ele>1124.0</ele><time>2026-04-18T13:03:54.605Z</time></trkpt><trkpt lat="46.2047833" lon="11.92478"><ele>1121.25</ele><time>2026-04-18T13:03:55.605Z</time></trkpt><trkpt lat="46.204775" lon="11.9249433"><ele>1118.5</ele><time>2026-04-18T13:03:56.605Z</time></trkpt><trkpt lat="46.20477" lon="11.9251083"><ele>1115.75</ele><time>2026-04-18T13:03:57.605Z</time></trkpt><trkpt lat="46.2047917" lon="11.9252667"><ele>1113.0</ele><time>2026-04-18T13:03:58.605Z</time></trkpt><trkpt lat="46.2048533" lon="11.9254433"><ele>1113.0</ele><time>2026-04-18T13:03:59.605Z</time></trkpt><trkpt lat="46.2049433" lon="11.9256133"><ele>1113.0</ele><time>2026-04-18T13:04:00.605Z</time></trkpt><trkpt lat="46.205055" lon="11.9257833"><ele>1113.0</ele><time>2026-04-18T13:04:01.606Z</time></trkpt><trkpt lat="46.205145" lon="11.9259617"><ele>1112.5</ele><time>2026-04-18T13:04:02.605Z</time></trkpt><trkpt lat="46.20522" lon="11.9261633"><ele>1112.0</ele><time>2026-04-18T13:04:03.605Z</time></trkpt><trkpt lat="46.2052883" lon="11.9263467"><ele>1111.5</ele><time>2026-04-18T13:04:04.605Z</time></trkpt><trkpt lat="46.2053617" lon="11.9265183"><ele>1111.0</ele><time>2026-04-18T13:04:05.606Z</time></trkpt><trkpt lat="46.20543" lon="11.9266733"><ele>1110.2</ele><time>2026-04-18T13:04:06.606Z</time></trkpt><trkpt lat="46.2054917" lon="11.926825"><ele>1109.3999999999999</ele><time>2026-04-18T13:04:07.605Z</time></trkpt><trkpt lat="46.205545" lon="11.9269617"><ele>1108.6</ele><time>2026-04-18T13:04:08.605Z</time></trkpt><trkpt lat="46.2055967" lon="11.927085"><ele>1107.8</ele><time>2026-04-18T13:04:09.605Z</time></trkpt><trkpt lat="46.205655" lon="11.9271933"><ele>1107.0</ele><time>2026-04-18T13:04:10.605Z</time></trkpt><trkpt lat="46.20571" lon="11.9272967"><ele>1109.2</ele><time>2026-04-18T13:04:11.605Z</time></trkpt><trkpt lat="46.2057767" lon="11.9273817"><ele>1111.4</ele><time>2026-04-18T13:04:12.606Z</time></trkpt><trkpt lat="46.20587" lon="11.9274467"><ele>1113.6</ele><time>2026-04-18T13:04:13.605Z</time></trkpt><trkpt lat="46.20598" lon="11.92749"><ele>1115.8</ele><time>2026-04-18T13:04:14.605Z</time></trkpt><trkpt lat="46.2061" lon="11.9275267"><ele>1118.0</ele><time>2026-04-18T13:04:15.606Z</time></trkpt><trkpt lat="46.206215" lon="11.9275317"><ele>1118.0</ele><time>2026-04-18T13:04:16.605Z</time></trkpt><trkpt lat="46.206325" lon="11.92754"><ele>1118.0</ele><time>2026-04-18T13:04:17.606Z</time></trkpt><trkpt lat="46.20643" lon="11.927525"><ele>1118.0</ele><time>2026-04-18T13:04:18.606Z</time></trkpt><trkpt lat="46.206555" lon="11.9274733"><ele>1118.0</ele><time>2026-04-18T13:04:19.605Z</time></trkpt><trkpt lat="46.2066933" lon="11.927415"><ele>1119.0</ele><time>2026-04-18T13:04:20.605Z</time></trkpt><trkpt lat="46.2068333" lon="11.9273633"><ele>1120.0</ele><time>2026-04-18T13:04:21.605Z</time></trkpt><trkpt lat="46.20696" lon="11.9273333"><ele>1121.0</ele><time>2026-04-18T13:04:22.605Z</time></trkpt><trkpt lat="46.20707" lon="11.9272967"><ele>1122.0</ele><time>2026-04-18T13:04:23.605Z</time></trkpt><trkpt lat="46.2071683" lon="11.927295"><ele>1122.0</ele><time>2026-04-18T13:04:24.605Z</time></trkpt><trkpt lat="46.2072533" lon="11.9273217"><ele>1122.0</ele><time>2026-04-18T13:04:25.605Z</time></trkpt><trkpt lat="46.207325" lon="11.9273833"><ele>1122.0</ele><time>2026-04-18T13:04:26.605Z</time></trkpt><trkpt lat="46.2073733" lon="11.9274933"><ele>1122.0</ele><time>2026-04-18T13:04:27.605Z</time></trkpt><trkpt lat="46.20741" lon="11.9276367"><ele>1122.0</ele><time>2026-04-18T13:04:28.605Z</time></trkpt><trkpt lat="46.2074433" lon="11.9277667"><ele>1120.6</ele><time>2026-04-18T13:04:29.606Z</time></trkpt><trkpt lat="46.2074783" lon="11.9278733"><ele>1119.2</ele><time>2026-04-18T13:04:30.606Z</time></trkpt><trkpt lat="46.20752" lon="11.9279633"><ele>1117.8</ele><time>2026-04-18T13:04:31.605Z</time></trkpt><trkpt lat="46.2075583" lon="11.9280567"><ele>1116.4</ele><time>2026-04-18T13:04:32.605Z</time></trkpt><trkpt lat="46.207645" lon="11.928085"><ele>1115.0</ele><time>2026-04-18T13:04:34.605Z</time></trkpt><trkpt lat="46.20775" lon="11.927935"><ele>1115.0</ele><time>2026-04-18T13:04:36.605Z</time></trkpt><trkpt lat="46.20782" lon="11.92782"><ele>1115.0</ele><time>2026-04-18T13:04:37.605Z</time></trkpt><trkpt lat="46.20792" lon="11.927705"><ele>1115.0</ele><time>2026-04-18T13:04:38.606Z</time></trkpt><trkpt lat="46.2080183" lon="11.9276133"><ele>1115.0</ele><time>2026-04-18T13:04:39.605Z</time></trkpt><trkpt lat="46.2081467" lon="11.927545"><ele>1117.75</ele><time>2026-04-18T13:04:40.605Z</time></trkpt><trkpt lat="46.20829" lon="11.927515"><ele>1120.5</ele><time>2026-04-18T13:04:41.605Z</time></trkpt><trkpt lat="46.20843" lon="11.9275083"><ele>1123.25</ele><time>2026-04-18T13:04:42.606Z</time></trkpt><trkpt lat="46.20857" lon="11.927525"><ele>1126.0</ele><time>2026-04-18T13:04:43.605Z</time></trkpt><trkpt lat="46.208695" lon="11.9275433"><ele>1124.75</ele><time>2026-04-18T13:04:44.605Z</time></trkpt><trkpt lat="46.2088233" lon="11.9276017"><ele>1123.5</ele><time>2026-04-18T13:04:45.606Z</time></trkpt><trkpt lat="46.20893" lon="11.92768"><ele>1122.25</ele><time>2026-04-18T13:04:46.605Z</time></trkpt><trkpt lat="46.2090267" lon="11.9277883"><ele>1121.0</ele><time>2026-04-18T13:04:47.605Z</time></trkpt><trkpt lat="46.2091167" lon="11.9279383"><ele>1121.0</ele><time>2026-04-18T13:04:48.605Z</time></trkpt><trkpt lat="46.2091917" lon="11.928115"><ele>1121.0</ele><time>2026-04-18T13:04:49.605Z</time></trkpt><trkpt lat="46.2092517" lon="11.92831"><ele>1121.0</ele><time>2026-04-18T13:04:50.606Z</time></trkpt><trkpt lat="46.20931" lon="11.9284883"><ele>1121.0</ele><time>2026-04-18T13:04:51.605Z</time></trkpt><trkpt lat="46.2093583" lon="11.928665"><ele>1121.75</ele><time>2026-04-18T13:04:52.606Z</time></trkpt><trkpt lat="46.2093933" lon="11.9288533"><ele>1122.5</ele><time>2026-04-18T13:04:53.605Z</time></trkpt><trkpt lat="46.2093817" lon="11.92904"><ele>1123.25</ele><time>2026-04-18T13:04:54.606Z</time></trkpt><trkpt lat="46.2093433" lon="11.9292283"><ele>1124.0</ele><time>2026-04-18T13:04:55.605Z</time></trkpt><trkpt lat="46.2092733" lon="11.9294333"><ele>1127.0</ele><time>2026-04-18T13:04:56.605Z</time></trkpt><trkpt lat="46.2092" lon="11.92965"><ele>1130.0</ele><time>2026-04-18T13:04:57.605Z</time></trkpt><trkpt lat="46.20912" lon="11.929875"><ele>1133.0</ele><time>2026-04-18T13:04:58.605Z</time></trkpt><trkpt lat="46.209045" lon="11.9300933"><ele>1128.6666666666667</ele><time>2026-04-18T13:04:59.605Z</time></trkpt><trkpt lat="46.20897" lon="11.9303033"><ele>1124.3333333333333</ele><time>2026-04-18T13:05:00.605Z</time></trkpt><trkpt lat="46.20889" lon="11.9305067"><ele>1120.0</ele><time>2026-04-18T13:05:01.606Z</time></trkpt><trkpt lat="46.2088233" lon="11.93071"><ele>1122.6666666666665</ele><time>2026-04-18T13:05:02.606Z</time></trkpt><trkpt lat="46.2087633" lon="11.9309217"><ele>1125.3333333333333</ele><time>2026-04-18T13:05:03.605Z</time></trkpt><trkpt lat="46.208705" lon="11.93113"><ele>1128.0</ele><time>2026-04-18T13:05:04.605Z</time></trkpt><trkpt lat="46.20866" lon="11.9313633"><ele>1128.0</ele><time>2026-04-18T13:05:05.605Z</time></trkpt><trkpt lat="46.2086233" lon="11.931595"><ele>1128.0</ele><time>2026-04-18T13:05:06.606Z</time></trkpt><trkpt lat="46.2085817" lon="11.9318267"><ele>1128.0</ele><time>2026-04-18T13:05:07.605Z</time></trkpt><trkpt lat="46.2085533" lon="11.9320567"><ele>1131.0</ele><time>2026-04-18T13:05:08.605Z</time></trkpt><trkpt lat="46.2085267" lon="11.9322917"><ele>1134.0</ele><time>2026-04-18T13:05:09.605Z</time></trkpt><trkpt lat="46.2085" lon="11.9325283"><ele>1137.0</ele><time>2026-04-18T13:05:10.605Z</time></trkpt><trkpt lat="46.2084567" lon="11.932785"><ele>1141.0</ele><time>2026-04-18T13:05:11.605Z</time></trkpt><trkpt lat="46.2084083" lon="11.93303"><ele>1145.0</ele><time>2026-04-18T13:05:12.605Z</time></trkpt><trkpt lat="46.208375" lon="11.9332833"><ele>1149.0</ele><time>2026-04-18T13:05:13.605Z</time></trkpt><trkpt lat="46.20834" lon="11.9335267"><ele>1152.3333333333333</ele><time>2026-04-18T13:05:14.606Z</time></trkpt><trkpt lat="46.20831" lon="11.9337667"><ele>1155.6666666666665</ele><time>2026-04-18T13:05:15.605Z</time></trkpt><trkpt lat="46.2082767" lon="11.934"><ele>1159.0</ele><time>2026-04-18T13:05:16.605Z</time></trkpt><trkpt lat="46.20824" lon="11.93423"><ele>1163.3333333333333</ele><time>2026-04-18T13:05:17.605Z</time></trkpt><trkpt lat="46.208205" lon="11.9344583"><ele>1167.6666666666667</ele><time>2026-04-18T13:05:18.605Z</time></trkpt><trkpt lat="46.2081683" lon="11.9346783"><ele>1172.0</ele><time>2026-04-18T13:05:19.605Z</time></trkpt><trkpt lat="46.208135" lon="11.934905"><ele>1164.0</ele><time>2026-04-18T13:05:20.605Z</time></trkpt><trkpt lat="46.2080967" lon="11.9351517"><ele>1156.0</ele><time>2026-04-18T13:05:21.605Z</time></trkpt><trkpt lat="46.2080617" lon="11.9353833"><ele>1148.0</ele><time>2026-04-18T13:05:22.606Z</time></trkpt><trkpt lat="46.2080283" lon="11.9356"><ele>1148.0</ele><time>2026-04-18T13:05:23.605Z</time></trkpt><trkpt lat="46.2079917" lon="11.9358217"><ele>1148.0</ele><time>2026-04-18T13:05:24.605Z</time></trkpt><trkpt lat="46.2079567" lon="11.9360167"><ele>1148.0</ele><time>2026-04-18T13:05:25.606Z</time></trkpt><trkpt lat="46.2079217" lon="11.9362"><ele>1148.0</ele><time>2026-04-18T13:05:26.606Z</time></trkpt><trkpt lat="46.2078533" lon="11.9363917"><ele>1150.25</ele><time>2026-04-18T13:05:27.605Z</time></trkpt><trkpt lat="46.2077733" lon="11.9365717"><ele>1152.5</ele><time>2026-04-18T13:05:28.605Z</time></trkpt><trkpt lat="46.2076867" lon="11.9367283"><ele>1154.75</ele><time>2026-04-18T13:05:29.605Z</time></trkpt><trkpt lat="46.2076033" lon="11.9368683"><ele>1157.0</ele><time>2026-04-18T13:05:30.605Z</time></trkpt><trkpt lat="46.2075217" lon="11.9369983"><ele>1159.75</ele><time>2026-04-18T13:05:31.605Z</time></trkpt><trkpt lat="46.2074417" lon="11.9371333"><ele>1162.5</ele><time>2026-04-18T13:05:32.605Z</time></trkpt><trkpt lat="46.20736" lon="11.9372667"><ele>1165.25</ele><time>2026-04-18T13:05:33.605Z</time></trkpt><trkpt lat="46.2072767" lon="11.9374117"><ele>1168.0</ele><time>2026-04-18T13:05:34.605Z</time></trkpt><trkpt lat="46.207195" lon="11.9375517"><ele>1164.25</ele><time>2026-04-18T13:05:35.605Z</time></trkpt><trkpt lat="46.2071167" lon="11.9376967"><ele>1160.5</ele><time>2026-04-18T13:05:36.605Z</time></trkpt><trkpt lat="46.2070467" lon="11.93786"><ele>1156.75</ele><time>2026-04-18T13:05:37.605Z</time></trkpt><trkpt lat="46.2069783" lon="11.9380333"><ele>1153.0</ele><time>2026-04-18T13:05:38.605Z</time></trkpt><trkpt lat="46.2069083" lon="11.938215"><ele>1155.75</ele><time>2026-04-18T13:05:39.605Z</time></trkpt><trkpt lat="46.2068333" lon="11.938395"><ele>1158.5</ele><time>2026-04-18T13:05:40.605Z</time></trkpt><trkpt lat="46.2067633" lon="11.9385617"><ele>1161.25</ele><time>2026-04-18T13:05:41.605Z</time></trkpt><trkpt lat="46.2067017" lon="11.9387133"><ele>1164.0</ele><time>2026-04-18T13:05:42.605Z</time></trkpt><trkpt lat="46.2066483" lon="11.9388617"><ele>1164.0</ele><time>2026-04-18T13:05:43.606Z</time></trkpt><trkpt lat="46.206585" lon="11.939"><ele>1164.0</ele><time>2026-04-18T13:05:44.605Z</time></trkpt><trkpt lat="46.2065333" lon="11.9391517"><ele>1164.0</ele><time>2026-04-18T13:05:45.605Z</time></trkpt><trkpt lat="46.2064933" lon="11.93933"><ele>1164.0</ele><time>2026-04-18T13:05:46.605Z</time></trkpt><trkpt lat="46.2064633" lon="11.9395383"><ele>1157.3333333333333</ele><time>2026-04-18T13:05:47.605Z</time></trkpt><trkpt lat="46.20643" lon="11.9397617"><ele>1150.6666666666665</ele><time>2026-04-18T13:05:48.606Z</time></trkpt><trkpt lat="46.206415" lon="11.9399783"><ele>1144.0</ele><time>2026-04-18T13:05:49.605Z</time></trkpt><trkpt lat="46.2064067" lon="11.940195"><ele>1144.0</ele><time>2026-04-18T13:05:50.605Z</time></trkpt><trkpt lat="46.206385" lon="11.9404067"><ele>1144.0</ele><time>2026-04-18T13:05:51.605Z</time></trkpt><trkpt lat="46.206365" lon="11.9406133"><ele>1144.0</ele><time>2026-04-18T13:05:52.605Z</time></trkpt><trkpt lat="46.20633" lon="11.940815"><ele>1144.0</ele><time>2026-04-18T13:05:53.605Z</time></trkpt><trkpt lat="46.2062933" lon="11.9410267"><ele>1144.0</ele><time>2026-04-18T13:05:54.605Z</time></trkpt><trkpt lat="46.20626" lon="11.9412467"><ele>1144.0</ele><time>2026-04-18T13:05:55.606Z</time></trkpt><trkpt lat="46.20625" lon="11.941455"><ele>1144.0</ele><time>2026-04-18T13:05:56.606Z</time></trkpt><trkpt lat="46.2062383" lon="11.9416367"><ele>1144.0</ele><time>2026-04-18T13:05:57.605Z</time></trkpt><trkpt lat="46.20626" lon="11.941825"><ele>1144.0</ele><time>2026-04-18T13:05:58.606Z</time></trkpt><trkpt lat="46.2063017" lon="11.9420133"><ele>1144.0</ele><time>2026-04-18T13:05:59.605Z</time></trkpt><trkpt lat="46.206385" lon="11.9422167"><ele>1144.0</ele><time>2026-04-18T13:06:00.605Z</time></trkpt><trkpt lat="46.2064567" lon="11.942415"><ele>1152.75</ele><time>2026-04-18T13:06:01.606Z</time></trkpt><trkpt lat="46.2065133" lon="11.9426"><ele>1161.5</ele><time>2026-04-18T13:06:02.605Z</time></trkpt><trkpt lat="46.2065567" lon="11.9427717"><ele>1170.25</ele><time>2026-04-18T13:06:03.606Z</time></trkpt><trkpt lat="46.2065683" lon="11.942955"><ele>1179.0</ele><time>2026-04-18T13:06:04.605Z</time></trkpt><trkpt lat="46.2065383" lon="11.943155"><ele>1179.0</ele><time>2026-04-18T13:06:05.605Z</time></trkpt><trkpt lat="46.2065183" lon="11.9433617"><ele>1179.0</ele><time>2026-04-18T13:06:06.605Z</time></trkpt><trkpt lat="46.2065233" lon="11.94358"><ele>1179.0</ele><time>2026-04-18T13:06:07.605Z</time></trkpt><trkpt lat="46.20656" lon="11.9438133"><ele>1179.0</ele><time>2026-04-18T13:06:08.605Z</time></trkpt><trkpt lat="46.2065883" lon="11.9440583"><ele>1179.0</ele><time>2026-04-18T13:06:09.606Z</time></trkpt><trkpt lat="46.2065867" lon="11.9443117"><ele>1179.0</ele><time>2026-04-18T13:06:10.605Z</time></trkpt><trkpt lat="46.206555" lon="11.944545"><ele>1179.0</ele><time>2026-04-18T13:06:11.606Z</time></trkpt><trkpt lat="46.2065183" lon="11.94477"><ele>1179.0</ele><time>2026-04-18T13:06:12.605Z</time></trkpt><trkpt lat="46.2064933" lon="11.9449817"><ele>1179.0</ele><time>2026-04-18T13:06:13.605Z</time></trkpt><trkpt lat="46.2064867" lon="11.9451917"><ele>1179.25</ele><time>2026-04-18T13:06:14.605Z</time></trkpt><trkpt lat="46.20649" lon="11.9454083"><ele>1179.5</ele><time>2026-04-18T13:06:15.605Z</time></trkpt><trkpt lat="46.20649" lon="11.94561"><ele>1179.75</ele><time>2026-04-18T13:06:16.605Z</time></trkpt><trkpt lat="46.2065167" lon="11.945815"><ele>1180.0</ele><time>2026-04-18T13:06:17.605Z</time></trkpt><trkpt lat="46.206575" lon="11.9460317"><ele>1180.0</ele><time>2026-04-18T13:06:18.605Z</time></trkpt><trkpt lat="46.20665" lon="11.9462317"><ele>1180.0</ele><time>2026-04-18T13:06:19.605Z</time></trkpt><trkpt lat="46.2067133" lon="11.946445"><ele>1180.0</ele><time>2026-04-18T13:06:20.605Z</time></trkpt><trkpt lat="46.2067383" lon="11.9466967"><ele>1182.0</ele><time>2026-04-18T13:06:21.605Z</time></trkpt><trkpt lat="46.2067417" lon="11.94697"><ele>1184.0</ele><time>2026-04-18T13:06:22.605Z</time></trkpt><trkpt lat="46.2067417" lon="11.947255"><ele>1186.0</ele><time>2026-04-18T13:06:23.605Z</time></trkpt><trkpt lat="46.2067567" lon="11.947515"><ele>1188.6666666666665</ele><time>2026-04-18T13:06:24.606Z</time></trkpt><trkpt lat="46.2067517" lon="11.9477533"><ele>1191.3333333333333</ele><time>2026-04-18T13:06:25.605Z</time></trkpt><trkpt lat="46.206725" lon="11.947965"><ele>1194.0</ele><time>2026-04-18T13:06:26.605Z</time></trkpt><trkpt lat="46.20669" lon="11.9481633"><ele>1194.0</ele><time>2026-04-18T13:06:27.606Z</time></trkpt><trkpt lat="46.2066683" lon="11.9483367"><ele>1194.0</ele><time>2026-04-18T13:06:28.605Z</time></trkpt><trkpt lat="46.206665" lon="11.9485217"><ele>1194.0</ele><time>2026-04-18T13:06:29.605Z</time></trkpt><trkpt lat="46.2066867" lon="11.9486983"><ele>1194.0</ele><time>2026-04-18T13:06:30.606Z</time></trkpt><trkpt lat="46.20672" lon="11.9488967"><ele>1192.6666666666667</ele><time>2026-04-18T13:06:31.605Z</time></trkpt><trkpt lat="46.206775" lon="11.94911"><ele>1191.3333333333335</ele><time>2026-04-18T13:06:32.606Z</time></trkpt><trkpt lat="46.2068333" lon="11.9493233"><ele>1190.0</ele><time>2026-04-18T13:06:33.605Z</time></trkpt><trkpt lat="46.2069133" lon="11.949535"><ele>1186.5</ele><time>2026-04-18T13:06:34.605Z</time></trkpt><trkpt lat="46.2069883" lon="11.94972"><ele>1183.0</ele><time>2026-04-18T13:06:35.605Z</time></trkpt><trkpt lat="46.2070583" lon="11.949885"><ele>1179.5</ele><time>2026-04-18T13:06:36.605Z</time></trkpt><trkpt lat="46.207125" lon="11.9500467"><ele>1176.0</ele><time>2026-04-18T13:06:37.605Z</time></trkpt><trkpt lat="46.207195" lon="11.9501917"><ele>1172.0</ele><time>2026-04-18T13:06:38.605Z</time></trkpt><trkpt lat="46.2072733" lon="11.9503267"><ele>1168.0</ele><time>2026-04-18T13:06:39.605Z</time></trkpt><trkpt lat="46.2073817" lon="11.95045"><ele>1164.0</ele><time>2026-04-18T13:06:40.606Z</time></trkpt><trkpt lat="46.2074883" lon="11.9505983"><ele>1160.0</ele><time>2026-04-18T13:06:41.606Z</time></trkpt><trkpt lat="46.207595" lon="11.95075"><ele>1167.3333333333335</ele><time>2026-04-18T13:06:42.606Z</time></trkpt><trkpt lat="46.2076967" lon="11.9509583"><ele>1174.6666666666667</ele><time>2026-04-18T13:06:43.605Z</time></trkpt><trkpt lat="46.2077733" lon="11.9511967"><ele>1182.0</ele><time>2026-04-18T13:06:44.605Z</time></trkpt><trkpt lat="46.2078233" lon="11.951425"><ele>1182.0</ele><time>2026-04-18T13:06:45.605Z</time></trkpt><trkpt lat="46.2078767" lon="11.9516317"><ele>1182.0</ele><time>2026-04-18T13:06:46.605Z</time></trkpt><trkpt lat="46.2079233" lon="11.9518533"><ele>1182.0</ele><time>2026-04-18T13:06:47.605Z</time></trkpt><trkpt lat="46.2079517" lon="11.9520867"><ele>1182.0</ele><time>2026-04-18T13:06:48.605Z</time></trkpt><trkpt lat="46.2079617" lon="11.9523267"><ele>1182.0</ele><time>2026-04-18T13:06:49.605Z</time></trkpt><trkpt lat="46.2079667" lon="11.9525567"><ele>1182.0</ele><time>2026-04-18T13:06:50.606Z</time></trkpt><trkpt lat="46.2079783" lon="11.9527733"><ele>1182.25</ele><time>2026-04-18T13:06:51.605Z</time></trkpt><trkpt lat="46.2080083" lon="11.95298"><ele>1182.5</ele><time>2026-04-18T13:06:52.605Z</time></trkpt><trkpt lat="46.2080283" lon="11.9531917"><ele>1182.75</ele><time>2026-04-18T13:06:53.605Z</time></trkpt><trkpt lat="46.2080333" lon="11.9533933"><ele>1183.0</ele><time>2026-04-18T13:06:54.605Z</time></trkpt><trkpt lat="46.20802" lon="11.9535933"><ele>1185.0</ele><time>2026-04-18T13:06:55.605Z</time></trkpt><trkpt lat="46.208" lon="11.9537467"><ele>1187.0</ele><time>2026-04-18T13:06:56.605Z</time></trkpt><trkpt lat="46.207945" lon="11.95389"><ele>1189.0</ele><time>2026-04-18T13:06:57.605Z</time></trkpt><trkpt lat="46.2078883" lon="11.9540633"><ele>1191.0</ele><time>2026-04-18T13:06:58.606Z</time></trkpt><trkpt lat="46.20785" lon="11.9542417"><ele>1191.0</ele><time>2026-04-18T13:06:59.606Z</time></trkpt><trkpt lat="46.2078333" lon="11.954405"><ele>1191.0</ele><time>2026-04-18T13:07:00.605Z</time></trkpt><trkpt lat="46.2078733" lon="11.9545467"><ele>1191.0</ele><time>2026-04-18T13:07:01.605Z</time></trkpt><trkpt lat="46.2079583" lon="11.9546667"><ele>1191.0</ele><time>2026-04-18T13:07:02.605Z</time></trkpt><trkpt lat="46.208065" lon="11.9547617"><ele>1189.5</ele><time>2026-04-18T13:07:03.605Z</time></trkpt><trkpt lat="46.2081883" lon="11.9548583"><ele>1188.0</ele><time>2026-04-18T13:07:04.605Z</time></trkpt><trkpt lat="46.20833" lon="11.954945"><ele>1186.5</ele><time>2026-04-18T13:07:05.606Z</time></trkpt><trkpt lat="46.2084733" lon="11.9550067"><ele>1185.0</ele><time>2026-04-18T13:07:06.606Z</time></trkpt><trkpt lat="46.20864" lon="11.9550733"><ele>1185.0</ele><time>2026-04-18T13:07:07.605Z</time></trkpt><trkpt lat="46.2088067" lon="11.95511"><ele>1185.0</ele><time>2026-04-18T13:07:08.606Z</time></trkpt><trkpt lat="46.2089667" lon="11.9551533"><ele>1185.0</ele><time>2026-04-18T13:07:09.605Z</time></trkpt><trkpt lat="46.2091233" lon="11.9552117"><ele>1188.25</ele><time>2026-04-18T13:07:10.606Z</time></trkpt><trkpt lat="46.2092717" lon="11.9553033"><ele>1191.5</ele><time>2026-04-18T13:07:11.606Z</time></trkpt><trkpt lat="46.2093967" lon="11.9553917"><ele>1194.75</ele><time>2026-04-18T13:07:12.605Z</time></trkpt><trkpt lat="46.2095" lon="11.955485"><ele>1198.0</ele><time>2026-04-18T13:07:13.605Z</time></trkpt><trkpt lat="46.2095867" lon="11.9555567"><ele>1198.0</ele><time>2026-04-18T13:07:14.606Z</time></trkpt><trkpt lat="46.2096767" lon="11.9556117"><ele>1198.0</ele><time>2026-04-18T13:07:15.605Z</time></trkpt><trkpt lat="46.2097667" lon="11.9556383"><ele>1198.0</ele><time>2026-04-18T13:07:16.606Z</time></trkpt><trkpt lat="46.2098567" lon="11.9556533"><ele>1198.0</ele><time>2026-04-18T13:07:17.605Z</time></trkpt><trkpt lat="46.2099483" lon="11.9556367"><ele>1198.0</ele><time>2026-04-18T13:07:18.606Z</time></trkpt><trkpt lat="46.2100467" lon="11.9555883"><ele>1198.75</ele><time>2026-04-18T13:07:19.605Z</time></trkpt><trkpt lat="46.210155" lon="11.9555117"><ele>1199.5</ele><time>2026-04-18T13:07:20.605Z</time></trkpt><trkpt lat="46.21027" lon="11.95539"><ele>1200.25</ele><time>2026-04-18T13:07:21.606Z</time></trkpt><trkpt lat="46.2104117" lon="11.9552933"><ele>1201.0</ele><time>2026-04-18T13:07:22.605Z</time></trkpt><trkpt lat="46.2105467" lon="11.9552017"><ele>1200.25</ele><time>2026-04-18T13:07:23.605Z</time></trkpt><trkpt lat="46.210685" lon="11.95512"><ele>1199.5</ele><time>2026-04-18T13:07:24.605Z</time></trkpt><trkpt lat="46.210815" lon="11.9550433"><ele>1198.75</ele><time>2026-04-18T13:07:25.606Z</time></trkpt><trkpt lat="46.2109267" lon="11.954985"><ele>1198.0</ele><time>2026-04-18T13:07:26.606Z</time></trkpt><trkpt lat="46.211025" lon="11.954925"><ele>1198.0</ele><time>2026-04-18T13:07:27.605Z</time></trkpt><trkpt lat="46.2111117" lon="11.95484"><ele>1198.0</ele><time>2026-04-18T13:07:28.606Z</time></trkpt><trkpt lat="46.211195" lon="11.9547283"><ele>1198.0</ele><time>2026-04-18T13:07:29.605Z</time></trkpt><trkpt lat="46.211275" lon="11.954595"><ele>1198.0</ele><time>2026-04-18T13:07:30.605Z</time></trkpt><trkpt lat="46.21138" lon="11.95445"><ele>1193.25</ele><time>2026-04-18T13:07:31.605Z</time></trkpt><trkpt lat="46.2115033" lon="11.954335"><ele>1188.5</ele><time>2026-04-18T13:07:32.606Z</time></trkpt><trkpt lat="46.2116167" lon="11.9542667"><ele>1183.75</ele><time>2026-04-18T13:07:33.605Z</time></trkpt><trkpt lat="46.211725" lon="11.9542233"><ele>1179.0</ele><time>2026-04-18T13:07:34.605Z</time></trkpt><trkpt lat="46.2118267" lon="11.9542133"><ele>1182.2</ele><time>2026-04-18T13:07:35.605Z</time></trkpt><trkpt lat="46.211915" lon="11.954195"><ele>1185.4</ele><time>2026-04-18T13:07:36.605Z</time></trkpt><trkpt lat="46.211995" lon="11.9541367"><ele>1188.6</ele><time>2026-04-18T13:07:37.605Z</time></trkpt><trkpt lat="46.21207" lon="11.9540333"><ele>1191.8</ele><time>2026-04-18T13:07:38.605Z</time></trkpt><trkpt lat="46.212125" lon="11.9539017"><ele>1195.0</ele><time>2026-04-18T13:07:39.605Z</time></trkpt><trkpt lat="46.2121883" lon="11.953755"><ele>1195.0</ele><time>2026-04-18T13:07:40.606Z</time></trkpt><trkpt lat="46.2122583" lon="11.953615"><ele>1195.0</ele><time>2026-04-18T13:07:41.605Z</time></trkpt><trkpt lat="46.2123633" lon="11.9534917"><ele>1195.0</ele><time>2026-04-18T13:07:42.605Z</time></trkpt><trkpt lat="46.2124767" lon="11.9533917"><ele>1195.0</ele><time>2026-04-18T13:07:43.605Z</time></trkpt><trkpt lat="46.2126317" lon="11.9533133"><ele>1195.0</ele><time>2026-04-18T13:07:44.605Z</time></trkpt><trkpt lat="46.2127667" lon="11.9532267"><ele>1195.0</ele><time>2026-04-18T13:07:45.606Z</time></trkpt><trkpt lat="46.212895" lon="11.95314"><ele>1195.0</ele><time>2026-04-18T13:07:46.606Z</time></trkpt><trkpt lat="46.2129917" lon="11.95306"><ele>1195.0</ele><time>2026-04-18T13:07:47.605Z</time></trkpt><trkpt lat="46.2131117" lon="11.9530033"><ele>1193.0</ele><time>2026-04-18T13:07:48.605Z</time></trkpt><trkpt lat="46.213245" lon="11.9529983"><ele>1191.0</ele><time>2026-04-18T13:07:49.605Z</time></trkpt><trkpt lat="46.2133733" lon="11.9530017"><ele>1189.0</ele><time>2026-04-18T13:07:50.605Z</time></trkpt><trkpt lat="46.21347" lon="11.9530417"><ele>1187.0</ele><time>2026-04-18T13:07:51.606Z</time></trkpt><trkpt lat="46.2135633" lon="11.9530417"><ele>1187.0</ele><time>2026-04-18T13:07:52.605Z</time></trkpt><trkpt lat="46.2136517" lon="11.9530167"><ele>1187.0</ele><time>2026-04-18T13:07:53.605Z</time></trkpt><trkpt lat="46.2137233" lon="11.9529467"><ele>1187.0</ele><time>2026-04-18T13:07:54.606Z</time></trkpt><trkpt lat="46.2137867" lon="11.9528267"><ele>1187.0</ele><time>2026-04-18T13:07:55.605Z</time></trkpt><trkpt lat="46.2138333" lon="11.952665"><ele>1187.0</ele><time>2026-04-18T13:07:56.605Z</time></trkpt><trkpt lat="46.2138833" lon="11.9525033"><ele>1188.4</ele><time>2026-04-18T13:07:57.605Z</time></trkpt><trkpt lat="46.2139483" lon="11.9523717"><ele>1189.8000000000002</ele><time>2026-04-18T13:07:58.605Z</time></trkpt><trkpt lat="46.2140483" lon="11.9522717"><ele>1191.2</ele><time>2026-04-18T13:07:59.605Z</time></trkpt><trkpt lat="46.2141417" lon="11.9521933"><ele>1192.6000000000001</ele><time>2026-04-18T13:08:00.605Z</time></trkpt><trkpt lat="46.2142383" lon="11.9521267"><ele>1194.0</ele><time>2026-04-18T13:08:01.605Z</time></trkpt><trkpt lat="46.2143733" lon="11.9520933"><ele>1194.0</ele><time>2026-04-18T13:08:02.605Z</time></trkpt><trkpt lat="46.2145133" lon="11.9520767"><ele>1194.0</ele><time>2026-04-18T13:08:03.605Z</time></trkpt><trkpt lat="46.2146633" lon="11.9520817"><ele>1194.0</ele><time>2026-04-18T13:08:04.605Z</time></trkpt><trkpt lat="46.214785" lon="11.9520917"><ele>1194.0</ele><time>2026-04-18T13:08:05.605Z</time></trkpt><trkpt lat="46.214875" lon="11.95213"><ele>1191.4</ele><time>2026-04-18T13:08:06.606Z</time></trkpt><trkpt lat="46.2149567" lon="11.9521617"><ele>1188.8000000000002</ele><time>2026-04-18T13:08:07.605Z</time></trkpt><trkpt lat="46.2150383" lon="11.9522383"><ele>1186.1999999999998</ele><time>2026-04-18T13:08:09.605Z</time></trkpt><trkpt lat="46.2150983" lon="11.9523117"><ele>1183.6</ele><time>2026-04-18T13:08:54.605Z</time></trkpt><trkpt lat="46.215185" lon="11.95237"><ele>1181.0</ele><time>2026-04-18T13:08:55.605Z</time></trkpt><trkpt lat="46.21528" lon="11.95243"><ele>1181.0</ele><time>2026-04-18T13:08:56.605Z</time></trkpt><trkpt lat="46.21537" lon="11.952495"><ele>1181.0</ele><time>2026-04-18T13:08:57.606Z</time></trkpt><trkpt lat="46.2154667" lon="11.9525433"><ele>1181.0</ele><time>2026-04-18T13:08:58.605Z</time></trkpt><trkpt lat="46.2155767" lon="11.9525867"><ele>1181.0</ele><time>2026-04-18T13:08:59.605Z</time></trkpt><trkpt lat="46.2156967" lon="11.95262"><ele>1181.0</ele><time>2026-04-18T13:09:00.605Z</time></trkpt><trkpt lat="46.2158183" lon="11.95262"><ele>1174.5</ele><time>2026-04-18T13:09:01.606Z</time></trkpt><trkpt lat="46.2159367" lon="11.9526467"><ele>1168.0</ele><time>2026-04-18T13:09:02.605Z</time></trkpt><trkpt lat="46.216055" lon="11.9526833"><ele>1161.5</ele><time>2026-04-18T13:09:03.605Z</time></trkpt><trkpt lat="46.2161767" lon="11.9527233"><ele>1155.0</ele><time>2026-04-18T13:09:04.605Z</time></trkpt><trkpt lat="46.2162967" lon="11.9527683"><ele>1155.0</ele><time>2026-04-18T13:09:05.605Z</time></trkpt><trkpt lat="46.2164017" lon="11.9528167"><ele>1155.0</ele><time>2026-04-18T13:09:06.605Z</time></trkpt><trkpt lat="46.2165067" lon="11.9528783"><ele>1155.0</ele><time>2026-04-18T13:09:07.606Z</time></trkpt><trkpt lat="46.2165967" lon="11.95294"><ele>1155.0</ele><time>2026-04-18T13:09:08.605Z</time></trkpt><trkpt lat="46.2166883" lon="11.952995"><ele>1155.0</ele><time>2026-04-18T13:09:09.605Z</time></trkpt><trkpt lat="46.2167767" lon="11.9530517"><ele>1154.4</ele><time>2026-04-18T13:09:10.605Z</time></trkpt><trkpt lat="46.2168733" lon="11.9530883"><ele>1153.8</ele><time>2026-04-18T13:09:11.605Z</time></trkpt><trkpt lat="46.21697" lon="11.9531033"><ele>1153.2</ele><time>2026-04-18T13:09:12.605Z</time></trkpt><trkpt lat="46.2170817" lon="11.953115"><ele>1152.6</ele><time>2026-04-18T13:09:13.605Z</time></trkpt><trkpt lat="46.2171933" lon="11.9531133"><ele>1152.0</ele><time>2026-04-18T13:09:14.605Z</time></trkpt><trkpt lat="46.2173117" lon="11.9530867"><ele>1148.75</ele><time>2026-04-18T13:09:15.605Z</time></trkpt><trkpt lat="46.2174267" lon="11.95305"><ele>1145.5</ele><time>2026-04-18T13:09:16.605Z</time></trkpt><trkpt lat="46.21755" lon="11.9529817"><ele>1142.25</ele><time>2026-04-18T13:09:17.605Z</time></trkpt><trkpt lat="46.2176817" lon="11.952905"><ele>1139.0</ele><time>2026-04-18T13:09:18.605Z</time></trkpt><trkpt lat="46.2178367" lon="11.9528833"><ele>1139.0</ele><time>2026-04-18T13:09:19.606Z</time></trkpt><trkpt lat="46.2179967" lon="11.9528833"><ele>1139.0</ele><time>2026-04-18T13:09:20.605Z</time></trkpt><trkpt lat="46.21815" lon="11.9529"><ele>1139.0</ele><time>2026-04-18T13:09:21.605Z</time></trkpt><trkpt lat="46.2182933" lon="11.952935"><ele>1137.25</ele><time>2026-04-18T13:09:22.605Z</time></trkpt><trkpt lat="46.2184167" lon="11.9530217"><ele>1135.5</ele><time>2026-04-18T13:09:23.605Z</time></trkpt><trkpt lat="46.2185133" lon="11.95311"><ele>1133.75</ele><time>2026-04-18T13:09:24.605Z</time></trkpt><trkpt lat="46.218615" lon="11.953175"><ele>1132.0</ele><time>2026-04-18T13:09:25.605Z</time></trkpt><trkpt lat="46.2187367" lon="11.953225"><ele>1132.0</ele><time>2026-04-18T13:09:26.605Z</time></trkpt><trkpt lat="46.218885" lon="11.9532733"><ele>1132.0</ele><time>2026-04-18T13:09:27.606Z</time></trkpt><trkpt lat="46.2190483" lon="11.9533217"><ele>1132.0</ele><time>2026-04-18T13:09:28.606Z</time></trkpt><trkpt lat="46.21921" lon="11.9533817"><ele>1129.75</ele><time>2026-04-18T13:09:29.605Z</time></trkpt><trkpt lat="46.2193583" lon="11.9534417"><ele>1127.5</ele><time>2026-04-18T13:09:30.605Z</time></trkpt><trkpt lat="46.2195033" lon="11.9535"><ele>1125.25</ele><time>2026-04-18T13:09:31.605Z</time></trkpt><trkpt lat="46.21963" lon="11.9535517"><ele>1123.0</ele><time>2026-04-18T13:09:32.605Z</time></trkpt><trkpt lat="46.21975" lon="11.953595"><ele>1125.25</ele><time>2026-04-18T13:09:33.606Z</time></trkpt><trkpt lat="46.2198567" lon="11.9536083"><ele>1127.5</ele><time>2026-04-18T13:09:34.606Z</time></trkpt><trkpt lat="46.2199767" lon="11.9535733"><ele>1129.75</ele><time>2026-04-18T13:09:35.605Z</time></trkpt><trkpt lat="46.2201233" lon="11.9534583"><ele>1132.0</ele><time>2026-04-18T13:09:36.605Z</time></trkpt><trkpt lat="46.2202717" lon="11.9533233"><ele>1134.75</ele><time>2026-04-18T13:09:37.605Z</time></trkpt><trkpt lat="46.2203933" lon="11.9532133"><ele>1137.5</ele><time>2026-04-18T13:09:38.605Z</time></trkpt><trkpt lat="46.2205133" lon="11.953165"><ele>1140.25</ele><time>2026-04-18T13:09:39.605Z</time></trkpt><trkpt lat="46.2206233" lon="11.9531767"><ele>1143.0</ele><time>2026-04-18T13:09:40.606Z</time></trkpt><trkpt lat="46.2207483" lon="11.953225"><ele>1143.0</ele><time>2026-04-18T13:09:41.606Z</time></trkpt><trkpt lat="46.2208667" lon="11.9533183"><ele>1143.0</ele><time>2026-04-18T13:09:42.605Z</time></trkpt><trkpt lat="46.22096" lon="11.9534633"><ele>1143.0</ele><time>2026-04-18T13:09:43.606Z</time></trkpt><trkpt lat="46.2210317" lon="11.953635"><ele>1143.0</ele><time>2026-04-18T13:09:44.605Z</time></trkpt><trkpt lat="46.221095" lon="11.9537917"><ele>1142.4</ele><time>2026-04-18T13:09:45.605Z</time></trkpt><trkpt lat="46.2211433" lon="11.9539283"><ele>1141.8</ele><time>2026-04-18T13:09:46.605Z</time></trkpt><trkpt lat="46.2211833" lon="11.9540517"><ele>1141.2</ele><time>2026-04-18T13:09:47.605Z</time></trkpt><trkpt lat="46.2212217" lon="11.9542067"><ele>1140.6</ele><time>2026-04-18T13:09:48.605Z</time></trkpt><trkpt lat="46.22126" lon="11.9543617"><ele>1140.0</ele><time>2026-04-18T13:09:49.606Z</time></trkpt><trkpt lat="46.2213083" lon="11.9545117"><ele>1139.5</ele><time>2026-04-18T13:09:50.606Z</time></trkpt><trkpt lat="46.2213633" lon="11.9546433"><ele>1139.0</ele><time>2026-04-18T13:09:51.605Z</time></trkpt><trkpt lat="46.22142" lon="11.954785"><ele>1138.5</ele><time>2026-04-18T13:09:52.605Z</time></trkpt><trkpt lat="46.2214483" lon="11.9549567"><ele>1138.0</ele><time>2026-04-18T13:09:53.606Z</time></trkpt><trkpt lat="46.22146" lon="11.9551567"><ele>1138.75</ele><time>2026-04-18T13:09:54.605Z</time></trkpt><trkpt lat="46.22147" lon="11.955365"><ele>1139.5</ele><time>2026-04-18T13:09:55.605Z</time></trkpt><trkpt lat="46.22148" lon="11.955565"><ele>1140.25</ele><time>2026-04-18T13:09:56.606Z</time></trkpt><trkpt lat="46.221485" lon="11.955755"><ele>1141.0</ele><time>2026-04-18T13:09:57.605Z</time></trkpt><trkpt lat="46.2214933" lon="11.955935"><ele>1141.0</ele><time>2026-04-18T13:09:58.605Z</time></trkpt><trkpt lat="46.22151" lon="11.95612"><ele>1141.0</ele><time>2026-04-18T13:09:59.605Z</time></trkpt><trkpt lat="46.22154" lon="11.9563067"><ele>1141.0</ele><time>2026-04-18T13:10:00.605Z</time></trkpt><trkpt lat="46.2215883" lon="11.9564933"><ele>1141.0</ele><time>2026-04-18T13:10:01.606Z</time></trkpt><trkpt lat="46.2216217" lon="11.9567"><ele>1139.0</ele><time>2026-04-18T13:10:02.606Z</time></trkpt><trkpt lat="46.2216717" lon="11.9569233"><ele>1137.0</ele><time>2026-04-18T13:10:03.605Z</time></trkpt><trkpt lat="46.2217167" lon="11.9571533"><ele>1135.0</ele><time>2026-04-18T13:10:04.605Z</time></trkpt><trkpt lat="46.2217567" lon="11.957375"><ele>1135.3333333333333</ele><time>2026-04-18T13:10:05.605Z</time></trkpt><trkpt lat="46.2218067" lon="11.9575883"><ele>1135.6666666666667</ele><time>2026-04-18T13:10:06.605Z</time></trkpt><trkpt lat="46.22182" lon="11.95781"><ele>1136.0</ele><time>2026-04-18T13:10:07.605Z</time></trkpt><trkpt lat="46.2218167" lon="11.9580433"><ele>1136.0</ele><time>2026-04-18T13:10:08.605Z</time></trkpt><trkpt lat="46.22181" lon="11.9582967"><ele>1136.0</ele><time>2026-04-18T13:10:09.606Z</time></trkpt><trkpt lat="46.2218017" lon="11.9585283"><ele>1136.0</ele><time>2026-04-18T13:10:10.605Z</time></trkpt><trkpt lat="46.2217933" lon="11.9587383"><ele>1135.5</ele><time>2026-04-18T13:10:11.605Z</time></trkpt><trkpt lat="46.221775" lon="11.9589333"><ele>1135.0</ele><time>2026-04-18T13:10:12.605Z</time></trkpt><trkpt lat="46.2217683" lon="11.9591017"><ele>1134.5</ele><time>2026-04-18T13:10:13.605Z</time></trkpt><trkpt lat="46.2217667" lon="11.9592533"><ele>1134.0</ele><time>2026-04-18T13:10:14.605Z</time></trkpt><trkpt lat="46.22176" lon="11.9593917"><ele>1132.3333333333333</ele><time>2026-04-18T13:10:15.605Z</time></trkpt><trkpt lat="46.22176" lon="11.9595017"><ele>1130.6666666666667</ele><time>2026-04-18T13:10:16.605Z</time></trkpt><trkpt lat="46.2218033" lon="11.95962"><ele>1129.0</ele><time>2026-04-18T13:10:17.605Z</time></trkpt><trkpt lat="46.2218517" lon="11.9597117"><ele>1127.3333333333335</ele><time>2026-04-18T13:10:18.606Z</time></trkpt><trkpt lat="46.221925" lon="11.959785"><ele>1125.6666666666667</ele><time>2026-04-18T13:10:19.605Z</time></trkpt><trkpt lat="46.2220267" lon="11.95984"><ele>1124.0</ele><time>2026-04-18T13:10:20.605Z</time></trkpt><trkpt lat="46.2221733" lon="11.95987"><ele>1127.0</ele><time>2026-04-18T13:10:21.605Z</time></trkpt><trkpt lat="46.22237" lon="11.9598867"><ele>1130.0</ele><time>2026-04-18T13:10:22.605Z</time></trkpt><trkpt lat="46.2225383" lon="11.9599167"><ele>1133.0</ele><time>2026-04-18T13:10:23.605Z</time></trkpt><trkpt lat="46.2226867" lon="11.9599683"><ele>1131.3333333333335</ele><time>2026-04-18T13:10:24.605Z</time></trkpt><trkpt lat="46.2228317" lon="11.9600567"><ele>1129.6666666666667</ele><time>2026-04-18T13:10:25.605Z</time></trkpt><trkpt lat="46.2229633" lon="11.9601717"><ele>1128.0</ele><time>2026-04-18T13:10:26.605Z</time></trkpt><trkpt lat="46.223075" lon="11.9603033"><ele>1130.0</ele><time>2026-04-18T13:10:27.605Z</time></trkpt><trkpt lat="46.2231717" lon="11.9604367"><ele>1132.0</ele><time>2026-04-18T13:10:28.605Z</time></trkpt><trkpt lat="46.2232617" lon="11.9605733"><ele>1134.0</ele><time>2026-04-18T13:10:29.605Z</time></trkpt><trkpt lat="46.2233267" lon="11.9607183"><ele>1136.0</ele><time>2026-04-18T13:10:30.606Z</time></trkpt><trkpt lat="46.22337" lon="11.960865"><ele>1139.3999999999999</ele><time>2026-04-18T13:10:31.606Z</time></trkpt><trkpt lat="46.2233817" lon="11.960995"><ele>1142.8</ele><time>2026-04-18T13:10:32.606Z</time></trkpt><trkpt lat="46.2233383" lon="11.9611083"><ele>1146.1999999999998</ele><time>2026-04-18T13:10:33.605Z</time></trkpt><trkpt lat="46.2232467" lon="11.9611833"><ele>1149.6</ele><time>2026-04-18T13:10:34.605Z</time></trkpt><trkpt lat="46.2231133" lon="11.9612367"><ele>1153.0</ele><time>2026-04-18T13:10:35.605Z</time></trkpt><trkpt lat="46.2229817" lon="11.9612583"><ele>1153.0</ele><time>2026-04-18T13:10:36.605Z</time></trkpt><trkpt lat="46.2227667" lon="11.9612417"><ele>1153.0</ele><time>2026-04-18T13:10:37.605Z</time></trkpt><trkpt lat="46.22244" lon="11.96117"><ele>1149.3333333333333</ele><time>2026-04-18T13:10:38.605Z</time></trkpt><trkpt lat="46.2222183" lon="11.9611033"><ele>1145.6666666666667</ele><time>2026-04-18T13:10:39.605Z</time></trkpt><trkpt lat="46.2220333" lon="11.961095"><ele>1142.0</ele><time>2026-04-18T13:10:40.606Z</time></trkpt><trkpt lat="46.2218717" lon="11.9611167"><ele>1142.0</ele><time>2026-04-18T13:10:41.606Z</time></trkpt><trkpt lat="46.22171" lon="11.9611233"><ele>1142.0</ele><time>2026-04-18T13:10:42.606Z</time></trkpt><trkpt lat="46.22157" lon="11.9611583"><ele>1142.0</ele><time>2026-04-18T13:10:43.605Z</time></trkpt><trkpt lat="46.2214117" lon="11.9612317"><ele>1137.0</ele><time>2026-04-18T13:10:44.605Z</time></trkpt><trkpt lat="46.2212583" lon="11.961335"><ele>1132.0</ele><time>2026-04-18T13:10:45.605Z</time></trkpt><trkpt lat="46.22111" lon="11.9614583"><ele>1127.0</ele><time>2026-04-18T13:10:46.605Z</time></trkpt><trkpt lat="46.2209867" lon="11.9616017"><ele>1129.2</ele><time>2026-04-18T13:10:47.605Z</time></trkpt><trkpt lat="46.2208833" lon="11.9617217"><ele>1131.4</ele><time>2026-04-18T13:10:48.605Z</time></trkpt><trkpt lat="46.22079" lon="11.9618233"><ele>1133.6</ele><time>2026-04-18T13:10:49.606Z</time></trkpt><trkpt lat="46.2207367" lon="11.9619517"><ele>1135.8</ele><time>2026-04-18T13:10:50.606Z</time></trkpt><trkpt lat="46.2207117" lon="11.9620833"><ele>1138.0</ele><time>2026-04-18T13:10:51.605Z</time></trkpt><trkpt lat="46.22072" lon="11.9622533"><ele>1138.0</ele><time>2026-04-18T13:10:52.605Z</time></trkpt><trkpt lat="46.220735" lon="11.9624383"><ele>1138.0</ele><time>2026-04-18T13:10:53.605Z</time></trkpt><trkpt lat="46.2207333" lon="11.9626233"><ele>1138.0</ele><time>2026-04-18T13:10:54.606Z</time></trkpt><trkpt lat="46.22071" lon="11.962785"><ele>1138.0</ele><time>2026-04-18T13:10:55.605Z</time></trkpt><trkpt lat="46.2206583" lon="11.962935"><ele>1135.2</ele><time>2026-04-18T13:10:56.605Z</time></trkpt><trkpt lat="46.2205967" lon="11.963065"><ele>1132.4</ele><time>2026-04-18T13:10:57.605Z</time></trkpt><trkpt lat="46.2205433" lon="11.9632083"><ele>1129.6000000000001</ele><time>2026-04-18T13:10:58.606Z</time></trkpt><trkpt lat="46.2205067" lon="11.9633683"><ele>1126.8</ele><time>2026-04-18T13:10:59.605Z</time></trkpt><trkpt lat="46.22048" lon="11.9635217"><ele>1124.0</ele><time>2026-04-18T13:11:00.605Z</time></trkpt><trkpt lat="46.2204533" lon="11.9636733"><ele>1124.0</ele><time>2026-04-18T13:11:01.605Z</time></trkpt><trkpt lat="46.2204067" lon="11.9638117"><ele>1124.0</ele><time>2026-04-18T13:11:02.605Z</time></trkpt><trkpt lat="46.2203433" lon="11.9639783"><ele>1124.0</ele><time>2026-04-18T13:11:03.605Z</time></trkpt><trkpt lat="46.22028" lon="11.9641533"><ele>1124.0</ele><time>2026-04-18T13:11:04.605Z</time></trkpt><trkpt lat="46.220225" lon="11.9643183"><ele>1124.25</ele><time>2026-04-18T13:11:05.605Z</time></trkpt><trkpt lat="46.2202033" lon="11.9644867"><ele>1124.5</ele><time>2026-04-18T13:11:06.605Z</time></trkpt><trkpt lat="46.2201783" lon="11.9646633"><ele>1124.75</ele><time>2026-04-18T13:11:07.605Z</time></trkpt><trkpt lat="46.2201683" lon="11.964845"><ele>1125.0</ele><time>2026-04-18T13:11:08.605Z</time></trkpt><trkpt lat="46.2201783" lon="11.965045"><ele>1123.3333333333333</ele><time>2026-04-18T13:11:09.605Z</time></trkpt><trkpt lat="46.2202117" lon="11.9652733"><ele>1121.6666666666665</ele><time>2026-04-18T13:11:10.605Z</time></trkpt><trkpt lat="46.2202467" lon="11.9654833"><ele>1120.0</ele><time>2026-04-18T13:11:11.605Z</time></trkpt><trkpt lat="46.220285" lon="11.9656783"><ele>1115.6666666666665</ele><time>2026-04-18T13:11:12.605Z</time></trkpt><trkpt lat="46.2203567" lon="11.9658967"><ele>1111.3333333333333</ele><time>2026-04-18T13:11:13.605Z</time></trkpt><trkpt lat="46.220435" lon="11.9660917"><ele>1107.0</ele><time>2026-04-18T13:11:14.606Z</time></trkpt><trkpt lat="46.2205233" lon="11.9663017"><ele>1107.0</ele><time>2026-04-18T13:11:15.605Z</time></trkpt><trkpt lat="46.2206167" lon="11.9665233"><ele>1107.0</ele><time>2026-04-18T13:11:16.605Z</time></trkpt><trkpt lat="46.2206983" lon="11.9667267"><ele>1107.0</ele><time>2026-04-18T13:11:17.605Z</time></trkpt><trkpt lat="46.2207933" lon="11.9669283"><ele>1118.6666666666667</ele><time>2026-04-18T13:11:18.606Z</time></trkpt><trkpt lat="46.2208783" lon="11.9671183"><ele>1130.3333333333335</ele><time>2026-04-18T13:11:19.605Z</time></trkpt><trkpt lat="46.2209767" lon="11.967315"><ele>1142.0</ele><time>2026-04-18T13:11:20.605Z</time></trkpt><trkpt lat="46.2210567" lon="11.9675017"><ele>1138.6666666666667</ele><time>2026-04-18T13:11:21.605Z</time></trkpt><trkpt lat="46.2211117" lon="11.9676933"><ele>1135.3333333333333</ele><time>2026-04-18T13:11:22.605Z</time></trkpt><trkpt lat="46.2211533" lon="11.96793"><ele>1132.0</ele><time>2026-04-18T13:11:23.605Z</time></trkpt><trkpt lat="46.221175" lon="11.968195"><ele>1132.6666666666665</ele><time>2026-04-18T13:11:24.605Z</time></trkpt><trkpt lat="46.22119" lon="11.968485"><ele>1133.3333333333333</ele><time>2026-04-18T13:11:25.606Z</time></trkpt><trkpt lat="46.2211883" lon="11.968755"><ele>1134.0</ele><time>2026-04-18T13:11:26.606Z</time></trkpt><trkpt lat="46.2211867" lon="11.969025"><ele>1137.6666666666667</ele><time>2026-04-18T13:11:27.605Z</time></trkpt><trkpt lat="46.221185" lon="11.969265"><ele>1141.3333333333335</ele><time>2026-04-18T13:11:28.605Z</time></trkpt><trkpt lat="46.2211817" lon="11.969485"><ele>1145.0</ele><time>2026-04-18T13:11:29.605Z</time></trkpt><trkpt lat="46.22118" lon="11.9696817"><ele>1145.0</ele><time>2026-04-18T13:11:30.605Z</time></trkpt><trkpt lat="46.2211733" lon="11.96986"><ele>1145.0</ele><time>2026-04-18T13:11:31.605Z</time></trkpt><trkpt lat="46.22116" lon="11.9699933"><ele>1145.0</ele><time>2026-04-18T13:11:32.605Z</time></trkpt><trkpt lat="46.2210983" lon="11.9701167"><ele>1145.0</ele><time>2026-04-18T13:11:33.605Z</time></trkpt><trkpt lat="46.2210167" lon="11.9702417"><ele>1145.0</ele><time>2026-04-18T13:11:34.605Z</time></trkpt><trkpt lat="46.220905" lon="11.9703867"><ele>1144.75</ele><time>2026-04-18T13:11:35.605Z</time></trkpt><trkpt lat="46.22079" lon="11.9705433"><ele>1144.5</ele><time>2026-04-18T13:11:36.605Z</time></trkpt><trkpt lat="46.2207" lon="11.9707"><ele>1144.25</ele><time>2026-04-18T13:11:37.606Z</time></trkpt><trkpt lat="46.2206283" lon="11.9708683"><ele>1144.0</ele><time>2026-04-18T13:11:38.605Z</time></trkpt><trkpt lat="46.2205817" lon="11.97108"><ele>1144.0</ele><time>2026-04-18T13:11:39.605Z</time></trkpt><trkpt lat="46.22052" lon="11.9713067"><ele>1144.0</ele><time>2026-04-18T13:11:40.605Z</time></trkpt><trkpt lat="46.2204617" lon="11.9715167"><ele>1144.0</ele><time>2026-04-18T13:11:41.605Z</time></trkpt><trkpt lat="46.2204017" lon="11.971705"><ele>1151.0</ele><time>2026-04-18T13:11:42.605Z</time></trkpt><trkpt lat="46.2203217" lon="11.9718583"><ele>1158.0</ele><time>2026-04-18T13:11:43.605Z</time></trkpt><trkpt lat="46.2202217" lon="11.9719883"><ele>1165.0</ele><time>2026-04-18T13:11:44.606Z</time></trkpt><trkpt lat="46.2201217" lon="11.9721017"><ele>1172.0</ele><time>2026-04-18T13:11:45.605Z</time></trkpt><trkpt lat="46.2199983" lon="11.97214"><ele>1172.0</ele><time>2026-04-18T13:11:46.605Z</time></trkpt><trkpt lat="46.21986" lon="11.972155"><ele>1172.0</ele><time>2026-04-18T13:11:47.605Z</time></trkpt><trkpt lat="46.2197" lon="11.9721567"><ele>1172.0</ele><time>2026-04-18T13:11:48.606Z</time></trkpt><trkpt lat="46.21953" lon="11.97215"><ele>1169.3333333333335</ele><time>2026-04-18T13:11:49.605Z</time></trkpt><trkpt lat="46.2193517" lon="11.97212"><ele>1166.6666666666667</ele><time>2026-04-18T13:11:50.605Z</time></trkpt><trkpt lat="46.2191883" lon="11.9720983"><ele>1164.0</ele><time>2026-04-18T13:11:51.606Z</time></trkpt><trkpt lat="46.2190483" lon="11.9720833"><ele>1161.0</ele><time>2026-04-18T13:11:52.605Z</time></trkpt><trkpt lat="46.2189067" lon="11.972085"><ele>1158.0</ele><time>2026-04-18T13:11:53.605Z</time></trkpt><trkpt lat="46.218775" lon="11.9721383"><ele>1155.0</ele><time>2026-04-18T13:11:54.605Z</time></trkpt><trkpt lat="46.2186417" lon="11.972225"><ele>1152.0</ele><time>2026-04-18T13:11:55.605Z</time></trkpt><trkpt lat="46.2185067" lon="11.9723417"><ele>1152.0</ele><time>2026-04-18T13:11:56.605Z</time></trkpt><trkpt lat="46.2183733" lon="11.972445"><ele>1152.0</ele><time>2026-04-18T13:11:57.606Z</time></trkpt><trkpt lat="46.2182683" lon="11.972565"><ele>1152.0</ele><time>2026-04-18T13:11:58.605Z</time></trkpt><trkpt lat="46.21818" lon="11.9726783"><ele>1152.0</ele><time>2026-04-18T13:11:59.605Z</time></trkpt><trkpt lat="46.2180933" lon="11.9728133"><ele>1148.5</ele><time>2026-04-18T13:12:00.605Z</time></trkpt><trkpt lat="46.2179833" lon="11.97297"><ele>1145.0</ele><time>2026-04-18T13:12:01.605Z</time></trkpt><trkpt lat="46.21787" lon="11.9731183"><ele>1141.5</ele><time>2026-04-18T13:12:02.605Z</time></trkpt><trkpt lat="46.21776" lon="11.9732417"><ele>1138.0</ele><time>2026-04-18T13:12:03.606Z</time></trkpt><trkpt lat="46.2176567" lon="11.973325"><ele>1142.75</ele><time>2026-04-18T13:12:04.605Z</time></trkpt><trkpt lat="46.2175767" lon="11.9734317"><ele>1147.5</ele><time>2026-04-18T13:12:05.605Z</time></trkpt><trkpt lat="46.2175133" lon="11.973555"><ele>1152.25</ele><time>2026-04-18T13:12:06.605Z</time></trkpt><trkpt lat="46.2174933" lon="11.9737233"><ele>1157.0</ele><time>2026-04-18T13:12:07.605Z</time></trkpt><trkpt lat="46.21747" lon="11.9739083"><ele>1157.0</ele><time>2026-04-18T13:12:08.605Z</time></trkpt><trkpt lat="46.2174783" lon="11.9741067"><ele>1157.0</ele><time>2026-04-18T13:12:09.606Z</time></trkpt><trkpt lat="46.2175067" lon="11.9742833"><ele>1157.0</ele><time>2026-04-18T13:12:10.605Z</time></trkpt><trkpt lat="46.2175067" lon="11.974455"><ele>1157.0</ele><time>2026-04-18T13:12:11.605Z</time></trkpt><trkpt lat="46.217475" lon="11.9746133"><ele>1159.25</ele><time>2026-04-18T13:12:12.605Z</time></trkpt><trkpt lat="46.217405" lon="11.9747733"><ele>1161.5</ele><time>2026-04-18T13:12:13.605Z</time></trkpt><trkpt lat="46.217345" lon="11.97493"><ele>1163.75</ele><time>2026-04-18T13:12:14.605Z</time></trkpt><trkpt lat="46.2173167" lon="11.9750883"><ele>1166.0</ele><time>2026-04-18T13:12:15.605Z</time></trkpt><trkpt lat="46.217295" lon="11.9752333"><ele>1166.25</ele><time>2026-04-18T13:12:16.605Z</time></trkpt><trkpt lat="46.2172883" lon="11.9753733"><ele>1166.5</ele><time>2026-04-18T13:12:17.605Z</time></trkpt><trkpt lat="46.2173217" lon="11.975535"><ele>1166.75</ele><time>2026-04-18T13:12:18.606Z</time></trkpt><trkpt lat="46.2173917" lon="11.9757167"><ele>1167.0</ele><time>2026-04-18T13:12:19.606Z</time></trkpt><trkpt lat="46.2174767" lon="11.9759167"><ele>1158.0</ele><time>2026-04-18T13:12:20.605Z</time></trkpt><trkpt lat="46.21757" lon="11.9761233"><ele>1149.0</ele><time>2026-04-18T13:12:21.605Z</time></trkpt><trkpt lat="46.2176367" lon="11.976305"><ele>1140.0</ele><time>2026-04-18T13:12:22.605Z</time></trkpt><trkpt lat="46.2176683" lon="11.976475"><ele>1131.0</ele><time>2026-04-18T13:12:23.605Z</time></trkpt><trkpt lat="46.2177167" lon="11.9766383"><ele>1124.3999999999999</ele><time>2026-04-18T13:12:24.605Z</time></trkpt><trkpt lat="46.2177483" lon="11.9767617"><ele>1117.8</ele><time>2026-04-18T13:12:25.605Z</time></trkpt><trkpt lat="46.2178033" lon="11.976865"><ele>1111.1999999999998</ele><time>2026-04-18T13:12:26.605Z</time></trkpt><trkpt lat="46.2178733" lon="11.9769317"><ele>1104.6</ele><time>2026-04-18T13:12:27.605Z</time></trkpt><trkpt lat="46.2179617" lon="11.976965"><ele>1098.0</ele><time>2026-04-18T13:12:28.605Z</time></trkpt><trkpt lat="46.2180917" lon="11.9769667"><ele>1109.25</ele><time>2026-04-18T13:12:29.605Z</time></trkpt><trkpt lat="46.2182317" lon="11.9769983"><ele>1120.5</ele><time>2026-04-18T13:12:30.606Z</time></trkpt><trkpt lat="46.2183533" lon="11.977075"><ele>1131.75</ele><time>2026-04-18T13:12:31.605Z</time></trkpt><trkpt lat="46.2184433" lon="11.9771867"><ele>1143.0</ele><time>2026-04-18T13:12:32.605Z</time></trkpt><trkpt lat="46.218515" lon="11.9773233"><ele>1143.0</ele><time>2026-04-18T13:12:33.606Z</time></trkpt><trkpt lat="46.2185633" lon="11.97747"><ele>1143.0</ele><time>2026-04-18T13:12:34.605Z</time></trkpt><trkpt lat="46.21862" lon="11.977615"><ele>1143.0</ele><time>2026-04-18T13:12:35.605Z</time></trkpt><trkpt lat="46.2186933" lon="11.97774"><ele>1143.0</ele><time>2026-04-18T13:12:36.605Z</time></trkpt><trkpt lat="46.2187867" lon="11.977825"><ele>1139.25</ele><time>2026-04-18T13:12:37.606Z</time></trkpt><trkpt lat="46.2188883" lon="11.977875"><ele>1135.5</ele><time>2026-04-18T13:12:38.606Z</time></trkpt><trkpt lat="46.2190083" lon="11.977875"><ele>1131.75</ele><time>2026-04-18T13:12:39.605Z</time></trkpt><trkpt lat="46.2191367" lon="11.9778383"><ele>1128.0</ele><time>2026-04-18T13:12:40.605Z</time></trkpt><trkpt lat="46.21928" lon="11.9777917"><ele>1128.0</ele><time>2026-04-18T13:12:41.605Z</time></trkpt><trkpt lat="46.2194133" lon="11.977755"><ele>1128.0</ele><time>2026-04-18T13:12:42.605Z</time></trkpt><trkpt lat="46.219535" lon="11.9777067"><ele>1128.0</ele><time>2026-04-18T13:12:43.606Z</time></trkpt><trkpt lat="46.2196433" lon="11.97764"><ele>1128.0</ele><time>2026-04-18T13:12:44.606Z</time></trkpt><trkpt lat="46.219745" lon="11.9775567"><ele>1134.2</ele><time>2026-04-18T13:12:45.605Z</time></trkpt><trkpt lat="46.219825" lon="11.97747"><ele>1140.4</ele><time>2026-04-18T13:12:46.605Z</time></trkpt><trkpt lat="46.219895" lon="11.9773967"><ele>1146.6000000000001</ele><time>2026-04-18T13:12:47.605Z</time></trkpt><trkpt lat="46.2199717" lon="11.9773383"><ele>1152.8</ele><time>2026-04-18T13:12:48.606Z</time></trkpt><trkpt lat="46.2200533" lon="11.9773133"><ele>1159.0</ele><time>2026-04-18T13:12:49.605Z</time></trkpt><trkpt lat="46.220145" lon="11.97734"><ele>1159.0</ele><time>2026-04-18T13:12:50.605Z</time></trkpt><trkpt lat="46.2202217" lon="11.9773867"><ele>1159.0</ele><time>2026-04-18T13:12:51.605Z</time></trkpt><trkpt lat="46.2202917" lon="11.977475"><ele>1159.0</ele><time>2026-04-18T13:12:52.605Z</time></trkpt><trkpt lat="46.220355" lon="11.977615"><ele>1159.0</ele><time>2026-04-18T13:12:53.605Z</time></trkpt><trkpt lat="46.2204133" lon="11.9777817"><ele>1159.0</ele><time>2026-04-18T13:12:54.605Z</time></trkpt><trkpt lat="46.2204567" lon="11.9780133"><ele>1148.3333333333333</ele><time>2026-04-18T13:12:55.606Z</time></trkpt><trkpt lat="46.2204967" lon="11.9782383"><ele>1137.6666666666667</ele><time>2026-04-18T13:12:56.605Z</time></trkpt><trkpt lat="46.22054" lon="11.978485"><ele>1127.0</ele><time>2026-04-18T13:12:57.605Z</time></trkpt><trkpt lat="46.220635" lon="11.9787183"><ele>1131.0</ele><time>2026-04-18T13:12:58.605Z</time></trkpt><trkpt lat="46.220765" lon="11.97895"><ele>1135.0</ele><time>2026-04-18T13:12:59.605Z</time></trkpt><trkpt lat="46.22092" lon="11.9791567"><ele>1139.0</ele><time>2026-04-18T13:13:00.605Z</time></trkpt><trkpt lat="46.2210867" lon="11.9793617"><ele>1140.0</ele><time>2026-04-18T13:13:01.605Z</time></trkpt><trkpt lat="46.2212317" lon="11.97955"><ele>1141.0</ele><time>2026-04-18T13:13:02.605Z</time></trkpt><trkpt lat="46.2213667" lon="11.9797333"><ele>1142.0</ele><time>2026-04-18T13:13:03.605Z</time></trkpt><trkpt lat="46.2215067" lon="11.9799067"><ele>1133.0</ele><time>2026-04-18T13:13:04.605Z</time></trkpt><trkpt lat="46.2216433" lon="11.98006"><ele>1124.0</ele><time>2026-04-18T13:13:05.605Z</time></trkpt><trkpt lat="46.2217483" lon="11.98023"><ele>1115.0</ele><time>2026-04-18T13:13:06.605Z</time></trkpt><trkpt lat="46.2218517" lon="11.9803667"><ele>1115.0</ele><time>2026-04-18T13:13:07.605Z</time></trkpt><trkpt lat="46.22196" lon="11.9805"><ele>1115.0</ele><time>2026-04-18T13:13:08.605Z</time></trkpt><trkpt lat="46.2220583" lon="11.9806083"><ele>1115.0</ele><time>2026-04-18T13:13:09.606Z</time></trkpt><trkpt lat="46.2221433" lon="11.9806967"><ele>1115.0</ele><time>2026-04-18T13:13:10.605Z</time></trkpt><trkpt lat="46.222225" lon="11.9807383"><ele>1119.25</ele><time>2026-04-18T13:13:11.605Z</time></trkpt><trkpt lat="46.2223233" lon="11.9807383"><ele>1123.5</ele><time>2026-04-18T13:13:12.605Z</time></trkpt><trkpt lat="46.222435" lon="11.98069"><ele>1127.75</ele><time>2026-04-18T13:13:13.606Z</time></trkpt><trkpt lat="46.22255" lon="11.9805783"><ele>1132.0</ele><time>2026-04-18T13:13:14.606Z</time></trkpt><trkpt lat="46.2226733" lon="11.9804317"><ele>1132.0</ele><time>2026-04-18T13:13:15.606Z</time></trkpt><trkpt lat="46.222775" lon="11.9802917"><ele>1132.0</ele><time>2026-04-18T13:13:16.605Z</time></trkpt><trkpt lat="46.2228617" lon="11.980185"><ele>1132.0</ele><time>2026-04-18T13:13:17.604Z</time></trkpt><trkpt lat="46.2229533" lon="11.98015"><ele>1132.0</ele><time>2026-04-18T13:13:18.604Z</time></trkpt><trkpt lat="46.2230767" lon="11.980155"><ele>1129.4</ele><time>2026-04-18T13:13:19.604Z</time></trkpt><trkpt lat="46.223195" lon="11.980185"><ele>1126.8000000000002</ele><time>2026-04-18T13:13:20.605Z</time></trkpt><trkpt lat="46.2233083" lon="11.98023"><ele>1124.2</ele><time>2026-04-18T13:13:21.604Z</time></trkpt><trkpt lat="46.2234067" lon="11.980265"><ele>1121.6000000000001</ele><time>2026-04-18T13:13:22.605Z</time></trkpt><trkpt lat="46.223515" lon="11.98027"><ele>1119.0</ele><time>2026-04-18T13:13:23.605Z</time></trkpt><trkpt lat="46.2236233" lon="11.980225"><ele>1119.0</ele><time>2026-04-18T13:13:24.605Z</time></trkpt><trkpt lat="46.2237417" lon="11.980165"><ele>1119.0</ele><time>2026-04-18T13:13:25.604Z</time></trkpt><trkpt lat="46.223845" lon="11.9801467"><ele>1119.0</ele><time>2026-04-18T13:13:26.604Z</time></trkpt><trkpt lat="46.2239467" lon="11.9801417"><ele>1119.0</ele><time>2026-04-18T13:13:27.604Z</time></trkpt><trkpt lat="46.2240333" lon="11.9801667"><ele>1119.0</ele><time>2026-04-18T13:13:28.604Z</time></trkpt><trkpt lat="46.2241267" lon="11.980245"><ele>1120.75</ele><time>2026-04-18T13:13:29.604Z</time></trkpt><trkpt lat="46.2242133" lon="11.9803867"><ele>1122.5</ele><time>2026-04-18T13:13:30.604Z</time></trkpt><trkpt lat="46.22428" lon="11.980565"><ele>1124.25</ele><time>2026-04-18T13:13:31.605Z</time></trkpt><trkpt lat="46.22433" lon="11.9807867"><ele>1126.0</ele><time>2026-04-18T13:13:32.605Z</time></trkpt><trkpt lat="46.2243583" lon="11.9810367"><ele>1117.3333333333333</ele><time>2026-04-18T13:13:33.604Z</time></trkpt><trkpt lat="46.2243767" lon="11.9812783"><ele>1108.6666666666667</ele><time>2026-04-18T13:13:34.604Z</time></trkpt><trkpt lat="46.22439" lon="11.981515"><ele>1100.0</ele><time>2026-04-18T13:13:35.604Z</time></trkpt><trkpt lat="46.2244167" lon="11.9817033"><ele>1100.5</ele><time>2026-04-18T13:13:36.604Z</time></trkpt><trkpt lat="46.2244767" lon="11.9818483"><ele>1101.0</ele><time>2026-04-18T13:13:37.604Z</time></trkpt><trkpt lat="46.2245733" lon="11.9819617"><ele>1101.5</ele><time>2026-04-18T13:13:38.604Z</time></trkpt><trkpt lat="46.2247067" lon="11.9820483"><ele>1102.0</ele><time>2026-04-18T13:13:39.605Z</time></trkpt><trkpt lat="46.2248567" lon="11.98213"><ele>1102.0</ele><time>2026-04-18T13:13:40.604Z</time></trkpt><trkpt lat="46.225005" lon="11.9821933"><ele>1102.0</ele><time>2026-04-18T13:13:41.604Z</time></trkpt><trkpt lat="46.22513" lon="11.9822283"><ele>1102.0</ele><time>2026-04-18T13:13:42.604Z</time></trkpt><trkpt lat="46.2252567" lon="11.98222"><ele>1102.0</ele><time>2026-04-18T13:13:43.604Z</time></trkpt><trkpt lat="46.2253933" lon="11.9821917"><ele>1102.0</ele><time>2026-04-18T13:13:44.605Z</time></trkpt><trkpt lat="46.22554" lon="11.9821683"><ele>1102.0</ele><time>2026-04-18T13:13:45.604Z</time></trkpt><trkpt lat="46.2256717" lon="11.982175"><ele>1102.0</ele><time>2026-04-18T13:13:46.604Z</time></trkpt><trkpt lat="46.2257983" lon="11.982215"><ele>1102.0</ele><time>2026-04-18T13:13:47.605Z</time></trkpt><trkpt lat="46.2259133" lon="11.98224"><ele>1101.0</ele><time>2026-04-18T13:13:48.605Z</time></trkpt><trkpt lat="46.2260233" lon="11.9822283"><ele>1100.0</ele><time>2026-04-18T13:13:49.605Z</time></trkpt><trkpt lat="46.2261417" lon="11.98217"><ele>1099.0</ele><time>2026-04-18T13:13:50.604Z</time></trkpt><trkpt lat="46.2262667" lon="11.9821283"><ele>1098.0</ele><time>2026-04-18T13:13:51.605Z</time></trkpt><trkpt lat="46.2263983" lon="11.982125"><ele>1094.3333333333333</ele><time>2026-04-18T13:13:52.604Z</time></trkpt><trkpt lat="46.22654" lon="11.982135"><ele>1090.6666666666665</ele><time>2026-04-18T13:13:53.604Z</time></trkpt><trkpt lat="46.2266983" lon="11.9821333"><ele>1087.0</ele><time>2026-04-18T13:13:54.605Z</time></trkpt><trkpt lat="46.2268567" lon="11.9821267"><ele>1087.0</ele><time>2026-04-18T13:13:55.604Z</time></trkpt><trkpt lat="46.227005" lon="11.9821333"><ele>1087.0</ele><time>2026-04-18T13:13:56.605Z</time></trkpt><trkpt lat="46.227135" lon="11.982155"><ele>1087.0</ele><time>2026-04-18T13:13:57.604Z</time></trkpt><trkpt lat="46.22725" lon="11.9821933"><ele>1087.0</ele><time>2026-04-18T13:13:58.604Z</time></trkpt><trkpt lat="46.22737" lon="11.982245"><ele>1089.4</ele><time>2026-04-18T13:13:59.604Z</time></trkpt><trkpt lat="46.22748" lon="11.9823183"><ele>1091.8000000000002</ele><time>2026-04-18T13:14:00.604Z</time></trkpt><trkpt lat="46.22757" lon="11.9824017"><ele>1094.2</ele><time>2026-04-18T13:14:01.604Z</time></trkpt><trkpt lat="46.2276483" lon="11.982515"><ele>1096.6000000000001</ele><time>2026-04-18T13:14:02.604Z</time></trkpt><trkpt lat="46.227705" lon="11.9826383"><ele>1099.0</ele><time>2026-04-18T13:14:03.605Z</time></trkpt><trkpt lat="46.22773" lon="11.98276"><ele>1099.0</ele><time>2026-04-18T13:14:04.605Z</time></trkpt><trkpt lat="46.2276983" lon="11.9828833"><ele>1099.0</ele><time>2026-04-18T13:14:05.605Z</time></trkpt><trkpt lat="46.2276483" lon="11.9830033"><ele>1099.0</ele><time>2026-04-18T13:14:06.604Z</time></trkpt><trkpt lat="46.2275767" lon="11.9831167"><ele>1099.0</ele><time>2026-04-18T13:14:07.604Z</time></trkpt><trkpt lat="46.2275233" lon="11.9832133"><ele>1099.0</ele><time>2026-04-18T13:14:08.604Z</time></trkpt><trkpt lat="46.2274683" lon="11.9833033"><ele>1095.4</ele><time>2026-04-18T13:14:09.604Z</time></trkpt><trkpt lat="46.227425" lon="11.983385"><ele>1091.8000000000002</ele><time>2026-04-18T13:14:10.604Z</time></trkpt><trkpt lat="46.22741" lon="11.983485"><ele>1088.1999999999998</ele><time>2026-04-18T13:14:11.605Z</time></trkpt><trkpt lat="46.2274383" lon="11.9836117"><ele>1084.6</ele><time>2026-04-18T13:14:12.604Z</time></trkpt><trkpt lat="46.2275367" lon="11.9837883"><ele>1081.0</ele><time>2026-04-18T13:14:13.605Z</time></trkpt><trkpt lat="46.2276517" lon="11.98401"><ele>1076.6666666666665</ele><time>2026-04-18T13:14:14.605Z</time></trkpt><trkpt lat="46.227775" lon="11.9842583"><ele>1072.3333333333333</ele><time>2026-04-18T13:14:15.604Z</time></trkpt><trkpt lat="46.2278833" lon="11.9844833"><ele>1068.0</ele><time>2026-04-18T13:14:16.604Z</time></trkpt><trkpt lat="46.22798" lon="11.9847033"><ele>1068.0</ele><time>2026-04-18T13:14:17.604Z</time></trkpt><trkpt lat="46.228055" lon="11.9849017"><ele>1068.0</ele><time>2026-04-18T13:14:18.604Z</time></trkpt><trkpt lat="46.2281233" lon="11.9850917"><ele>1068.0</ele><time>2026-04-18T13:14:19.605Z</time></trkpt><trkpt lat="46.2281433" lon="11.9852883"><ele>1068.0</ele><time>2026-04-18T13:14:20.604Z</time></trkpt><trkpt lat="46.2281233" lon="11.9855017"><ele>1066.0</ele><time>2026-04-18T13:14:21.604Z</time></trkpt><trkpt lat="46.2280933" lon="11.985715"><ele>1064.0</ele><time>2026-04-18T13:14:22.604Z</time></trkpt><trkpt lat="46.2280433" lon="11.9859217"><ele>1062.0</ele><time>2026-04-18T13:14:23.604Z</time></trkpt><trkpt lat="46.22801" lon="11.986105"><ele>1060.0</ele><time>2026-04-18T13:14:24.604Z</time></trkpt><trkpt lat="46.227995" lon="11.9862667"><ele>1059.6</ele><time>2026-04-18T13:14:25.605Z</time></trkpt><trkpt lat="46.2279867" lon="11.986405"><ele>1059.2</ele><time>2026-04-18T13:14:26.604Z</time></trkpt><trkpt lat="46.227995" lon="11.98652"><ele>1058.8</ele><time>2026-04-18T13:14:27.605Z</time></trkpt><trkpt lat="46.228045" lon="11.9866083"><ele>1058.4</ele><time>2026-04-18T13:14:28.604Z</time></trkpt><trkpt lat="46.2281317" lon="11.9866683"><ele>1058.0</ele><time>2026-04-18T13:14:29.605Z</time></trkpt><trkpt lat="46.228255" lon="11.9867033"><ele>1060.8</ele><time>2026-04-18T13:14:30.604Z</time></trkpt><trkpt lat="46.22839" lon="11.9867267"><ele>1063.6</ele><time>2026-04-18T13:14:31.605Z</time></trkpt><trkpt lat="46.228505" lon="11.9867383"><ele>1066.4</ele><time>2026-04-18T13:14:32.605Z</time></trkpt><trkpt lat="46.2286017" lon="11.98677"><ele>1069.2</ele><time>2026-04-18T13:14:33.604Z</time></trkpt><trkpt lat="46.2286867" lon="11.9868217"><ele>1072.0</ele><time>2026-04-18T13:14:34.604Z</time></trkpt><trkpt lat="46.22874" lon="11.9869267"><ele>1072.0</ele><time>2026-04-18T13:14:35.604Z</time></trkpt><trkpt lat="46.22876" lon="11.98703"><ele>1072.0</ele><time>2026-04-18T13:14:36.604Z</time></trkpt><trkpt lat="46.228705" lon="11.9871367"><ele>1072.0</ele><time>2026-04-18T13:14:37.605Z</time></trkpt><trkpt lat="46.2286267" lon="11.98727"><ele>1072.0</ele><time>2026-04-18T13:14:38.604Z</time></trkpt><trkpt lat="46.22858" lon="11.9874017"><ele>1072.0</ele><time>2026-04-18T13:14:39.604Z</time></trkpt><trkpt lat="46.22852" lon="11.98755"><ele>1071.0</ele><time>2026-04-18T13:14:40.605Z</time></trkpt><trkpt lat="46.2284867" lon="11.9877033"><ele>1070.0</ele><time>2026-04-18T13:14:41.604Z</time></trkpt><trkpt lat="46.2285033" lon="11.9878467"><ele>1069.0</ele><time>2026-04-18T13:14:42.604Z</time></trkpt><trkpt lat="46.2285467" lon="11.987975"><ele>1068.0</ele><time>2026-04-18T13:14:43.604Z</time></trkpt><trkpt lat="46.2286117" lon="11.9880967"><ele>1067.0</ele><time>2026-04-18T13:14:44.604Z</time></trkpt><trkpt lat="46.2286867" lon="11.9882217"><ele>1066.0</ele><time>2026-04-18T13:14:45.604Z</time></trkpt><trkpt lat="46.2287467" lon="11.9883467"><ele>1065.0</ele><time>2026-04-18T13:14:46.605Z</time></trkpt><trkpt lat="46.228775" lon="11.9884667"><ele>1064.0</ele><time>2026-04-18T13:14:47.604Z</time></trkpt><trkpt lat="46.2287883" lon="11.9885967"><ele>1063.0</ele><time>2026-04-18T13:14:48.604Z</time></trkpt><trkpt lat="46.2287433" lon="11.9887467"><ele>1062.0</ele><time>2026-04-18T13:14:49.604Z</time></trkpt><trkpt lat="46.2286833" lon="11.9888833"><ele>1062.0</ele><time>2026-04-18T13:14:50.605Z</time></trkpt><trkpt lat="46.2286367" lon="11.98907"><ele>1062.0</ele><time>2026-04-18T13:14:51.605Z</time></trkpt><trkpt lat="46.2286283" lon="11.9892983"><ele>1062.0</ele><time>2026-04-18T13:14:52.604Z</time></trkpt><trkpt lat="46.2286283" lon="11.9895483"><ele>1059.75</ele><time>2026-04-18T13:14:53.604Z</time></trkpt><trkpt lat="46.2286417" lon="11.9897833"><ele>1057.5</ele><time>2026-04-18T13:14:54.604Z</time></trkpt><trkpt lat="46.2286517" lon="11.9899767"><ele>1055.25</ele><time>2026-04-18T13:14:55.605Z</time></trkpt><trkpt lat="46.2286383" lon="11.99016"><ele>1053.0</ele><time>2026-04-18T13:14:56.604Z</time></trkpt><trkpt lat="46.228615" lon="11.9903133"><ele>1051.4</ele><time>2026-04-18T13:14:57.604Z</time></trkpt><trkpt lat="46.2286033" lon="11.99044"><ele>1049.8</ele><time>2026-04-18T13:14:58.604Z</time></trkpt><trkpt lat="46.2286033" lon="11.9905383"><ele>1048.2</ele><time>2026-04-18T13:14:59.604Z</time></trkpt><trkpt lat="46.22864" lon="11.9906167"><ele>1046.6</ele><time>2026-04-18T13:15:00.605Z</time></trkpt><trkpt lat="46.2287083" lon="11.99068"><ele>1045.0</ele><time>2026-04-18T13:15:01.604Z</time></trkpt><trkpt lat="46.2288533" lon="11.9907367"><ele>1047.75</ele><time>2026-04-18T13:15:02.605Z</time></trkpt><trkpt lat="46.2289917" lon="11.990825"><ele>1050.5</ele><time>2026-04-18T13:15:03.604Z</time></trkpt><trkpt lat="46.2291017" lon="11.9909467"><ele>1053.25</ele><time>2026-04-18T13:15:04.604Z</time></trkpt><trkpt lat="46.2291917" lon="11.9911033"><ele>1056.0</ele><time>2026-04-18T13:15:05.605Z</time></trkpt><trkpt lat="46.2292317" lon="11.9912817"><ele>1056.0</ele><time>2026-04-18T13:15:06.604Z</time></trkpt><trkpt lat="46.22925" lon="11.9914817"><ele>1056.0</ele><time>2026-04-18T13:15:07.604Z</time></trkpt><trkpt lat="46.2292533" lon="11.991695"><ele>1056.0</ele><time>2026-04-18T13:15:08.604Z</time></trkpt><trkpt lat="46.2292683" lon="11.9918967"><ele>1056.0</ele><time>2026-04-18T13:15:09.604Z</time></trkpt><trkpt lat="46.229305" lon="11.9921"><ele>1051.6666666666667</ele><time>2026-04-18T13:15:10.604Z</time></trkpt><trkpt lat="46.2293533" lon="11.99232"><ele>1047.3333333333335</ele><time>2026-04-18T13:15:11.605Z</time></trkpt><trkpt lat="46.2294167" lon="11.99254"><ele>1043.0</ele><time>2026-04-18T13:15:12.604Z</time></trkpt><trkpt lat="46.2294867" lon="11.992745"><ele>1041.25</ele><time>2026-04-18T13:15:13.604Z</time></trkpt><trkpt lat="46.22954" lon="11.9929267"><ele>1039.5</ele><time>2026-04-18T13:15:14.604Z</time></trkpt><trkpt lat="46.2295733" lon="11.993125"><ele>1037.75</ele><time>2026-04-18T13:15:15.605Z</time></trkpt><trkpt lat="46.2296117" lon="11.9933217"><ele>1036.0</ele><time>2026-04-18T13:15:16.605Z</time></trkpt><trkpt lat="46.229625" lon="11.9935233"><ele>1036.0</ele><time>2026-04-18T13:15:17.604Z</time></trkpt><trkpt lat="46.2296167" lon="11.99372"><ele>1036.0</ele><time>2026-04-18T13:15:18.604Z</time></trkpt><trkpt lat="46.2296017" lon="11.9938967"><ele>1036.0</ele><time>2026-04-18T13:15:19.604Z</time></trkpt><trkpt lat="46.2295633" lon="11.994065"><ele>1036.0</ele><time>2026-04-18T13:15:20.605Z</time></trkpt><trkpt lat="46.2294883" lon="11.9942083"><ele>1037.2</ele><time>2026-04-18T13:15:21.605Z</time></trkpt><trkpt lat="46.229405" lon="11.994305"><ele>1038.3999999999999</ele><time>2026-04-18T13:15:22.605Z</time></trkpt><trkpt lat="46.2293133" lon="11.9943983"><ele>1039.6</ele><time>2026-04-18T13:15:23.604Z</time></trkpt><trkpt lat="46.2292067" lon="11.9944567"><ele>1040.8</ele><time>2026-04-18T13:15:24.604Z</time></trkpt><trkpt lat="46.2291433" lon="11.9945533"><ele>1042.0</ele><time>2026-04-18T13:15:25.605Z</time></trkpt><trkpt lat="46.2291017" lon="11.9946617"><ele>1042.0</ele><time>2026-04-18T13:15:26.604Z</time></trkpt><trkpt lat="46.229085" lon="11.994805"><ele>1042.0</ele><time>2026-04-18T13:15:27.604Z</time></trkpt><trkpt lat="46.2291" lon="11.9949533"><ele>1042.0</ele><time>2026-04-18T13:15:28.604Z</time></trkpt><trkpt lat="46.2291617" lon="11.9951183"><ele>1042.0</ele><time>2026-04-18T13:15:29.604Z</time></trkpt><trkpt lat="46.229215" lon="11.9952717"><ele>1040.25</ele><time>2026-04-18T13:15:30.604Z</time></trkpt><trkpt lat="46.229255" lon="11.9954133"><ele>1038.5</ele><time>2026-04-18T13:15:31.605Z</time></trkpt><trkpt lat="46.22927" lon="11.9955833"><ele>1036.75</ele><time>2026-04-18T13:15:32.604Z</time></trkpt><trkpt lat="46.2292417" lon="11.9958017"><ele>1035.0</ele><time>2026-04-18T13:15:33.605Z</time></trkpt><trkpt lat="46.2292233" lon="11.9960233"><ele>1034.5</ele><time>2026-04-18T13:15:34.604Z</time></trkpt><trkpt lat="46.2292033" lon="11.9962133"><ele>1034.0</ele><time>2026-04-18T13:15:35.604Z</time></trkpt><trkpt lat="46.22917" lon="11.9963883"><ele>1033.5</ele><time>2026-04-18T13:15:36.604Z</time></trkpt><trkpt lat="46.2291283" lon="11.9965733"><ele>1033.0</ele><time>2026-04-18T13:15:37.604Z</time></trkpt><trkpt lat="46.2290733" lon="11.9967767"><ele>1035.6666666666665</ele><time>2026-04-18T13:15:38.604Z</time></trkpt><trkpt lat="46.2290033" lon="11.997005"><ele>1038.3333333333333</ele><time>2026-04-18T13:15:39.604Z</time></trkpt><trkpt lat="46.22892" lon="11.9972017"><ele>1041.0</ele><time>2026-04-18T13:15:40.604Z</time></trkpt><trkpt lat="46.2288217" lon="11.9973617"><ele>1038.25</ele><time>2026-04-18T13:15:41.605Z</time></trkpt><trkpt lat="46.22871" lon="11.99748"><ele>1035.5</ele><time>2026-04-18T13:15:42.604Z</time></trkpt><trkpt lat="46.2285783" lon="11.9975383"><ele>1032.75</ele><time>2026-04-18T13:15:43.604Z</time></trkpt><trkpt lat="46.2284633" lon="11.997565"><ele>1030.0</ele><time>2026-04-18T13:15:44.604Z</time></trkpt><trkpt lat="46.2283567" lon="11.9975917"><ele>1030.0</ele><time>2026-04-18T13:15:45.604Z</time></trkpt><trkpt lat="46.22827" lon="11.997655"><ele>1030.0</ele><time>2026-04-18T13:15:46.604Z</time></trkpt><trkpt lat="46.22819" lon="11.9977767"><ele>1030.0</ele><time>2026-04-18T13:15:47.604Z</time></trkpt><trkpt lat="46.2281267" lon="11.9979583"><ele>1030.0</ele><time>2026-04-18T13:15:48.604Z</time></trkpt><trkpt lat="46.22806" lon="11.99816"><ele>1017.5</ele><time>2026-04-18T13:15:49.604Z</time></trkpt><trkpt lat="46.22801" lon="11.9983467"><ele>1005.0</ele><time>2026-04-18T13:15:50.604Z</time></trkpt><trkpt lat="46.22797" lon="11.998515"><ele>992.5</ele><time>2026-04-18T13:15:51.604Z</time></trkpt><trkpt lat="46.2279483" lon="11.9986867"><ele>980.0</ele><time>2026-04-18T13:15:52.604Z</time></trkpt><trkpt lat="46.2279717" lon="11.998865"><ele>980.0</ele><time>2026-04-18T13:15:53.604Z</time></trkpt><trkpt lat="46.2280283" lon="11.999065"><ele>980.0</ele><time>2026-04-18T13:15:54.604Z</time></trkpt><trkpt lat="46.2281217" lon="11.9992917"><ele>980.0</ele><time>2026-04-18T13:15:55.604Z</time></trkpt><trkpt lat="46.2282267" lon="11.9995267"><ele>990.3333333333334</ele><time>2026-04-18T13:15:56.605Z</time></trkpt><trkpt lat="46.2282867" lon="11.9997667"><ele>1000.6666666666667</ele><time>2026-04-18T13:15:57.605Z</time></trkpt><trkpt lat="46.228315" lon="12.0000067"><ele>1011.0</ele><time>2026-04-18T13:15:58.604Z</time></trkpt><trkpt lat="46.2283433" lon="12.000235"><ele>1011.0</ele><time>2026-04-18T13:15:59.604Z</time></trkpt><trkpt lat="46.2283617" lon="12.0004217"><ele>1011.0</ele><time>2026-04-18T13:16:00.604Z</time></trkpt><trkpt lat="46.2284" lon="12.0006183"><ele>1011.0</ele><time>2026-04-18T13:16:01.605Z</time></trkpt><trkpt lat="46.228475" lon="12.0008133"><ele>1011.0</ele><time>2026-04-18T13:16:02.605Z</time></trkpt><trkpt lat="46.228555" lon="12.0010333"><ele>1008.6666666666667</ele><time>2026-04-18T13:16:03.604Z</time></trkpt><trkpt lat="46.2286433" lon="12.001275"><ele>1006.3333333333334</ele><time>2026-04-18T13:16:04.604Z</time></trkpt><trkpt lat="46.22873" lon="12.0015167"><ele>1004.0</ele><time>2026-04-18T13:16:05.604Z</time></trkpt><trkpt lat="46.22879" lon="12.00177"><ele>999.0</ele><time>2026-04-18T13:16:06.604Z</time></trkpt><trkpt lat="46.2288633" lon="12.0019833"><ele>994.0</ele><time>2026-04-18T13:16:07.604Z</time></trkpt><trkpt lat="46.2289383" lon="12.0021967"><ele>989.0</ele><time>2026-04-18T13:16:08.604Z</time></trkpt><trkpt lat="46.2290317" lon="12.00239"><ele>994.3333333333334</ele><time>2026-04-18T13:16:09.605Z</time></trkpt><trkpt lat="46.22913" lon="12.002585"><ele>999.6666666666667</ele><time>2026-04-18T13:16:10.605Z</time></trkpt><trkpt lat="46.22921" lon="12.00277"><ele>1005.0</ele><time>2026-04-18T13:16:11.605Z</time></trkpt><trkpt lat="46.2292667" lon="12.0029983"><ele>1005.0</ele><time>2026-04-18T13:16:12.604Z</time></trkpt><trkpt lat="46.2293033" lon="12.0032683"><ele>1005.0</ele><time>2026-04-18T13:16:13.604Z</time></trkpt><trkpt lat="46.2293267" lon="12.0035483"><ele>1005.0</ele><time>2026-04-18T13:16:14.604Z</time></trkpt><trkpt lat="46.229345" lon="12.0038033"><ele>1003.5</ele><time>2026-04-18T13:16:15.604Z</time></trkpt><trkpt lat="46.22936" lon="12.0040267"><ele>1002.0</ele><time>2026-04-18T13:16:16.604Z</time></trkpt><trkpt lat="46.2293817" lon="12.0042133"><ele>1000.5</ele><time>2026-04-18T13:16:17.604Z</time></trkpt><trkpt lat="46.2294017" lon="12.004395"><ele>999.0</ele><time>2026-04-18T13:16:18.604Z</time></trkpt><trkpt lat="46.2294517" lon="12.00457"><ele>996.0</ele><time>2026-04-18T13:16:19.604Z</time></trkpt><trkpt lat="46.2295317" lon="12.004735"><ele>993.0</ele><time>2026-04-18T13:16:20.605Z</time></trkpt><trkpt lat="46.229645" lon="12.0048983"><ele>990.0</ele><time>2026-04-18T13:16:21.605Z</time></trkpt><trkpt lat="46.2297733" lon="12.0050683"><ele>997.0</ele><time>2026-04-18T13:16:22.604Z</time></trkpt><trkpt lat="46.2298767" lon="12.005245"><ele>1004.0</ele><time>2026-04-18T13:16:23.604Z</time></trkpt><trkpt lat="46.2299633" lon="12.0054183"><ele>1011.0</ele><time>2026-04-18T13:16:24.605Z</time></trkpt><trkpt lat="46.2300283" lon="12.0056183"><ele>1011.0</ele><time>2026-04-18T13:16:25.604Z</time></trkpt><trkpt lat="46.2300767" lon="12.0058233"><ele>1011.0</ele><time>2026-04-18T13:16:26.605Z</time></trkpt><trkpt lat="46.2301167" lon="12.0060433"><ele>1011.0</ele><time>2026-04-18T13:16:27.604Z</time></trkpt><trkpt lat="46.2301433" lon="12.0062817"><ele>1009.25</ele><time>2026-04-18T13:16:28.604Z</time></trkpt><trkpt lat="46.2301833" lon="12.00649"><ele>1007.5</ele><time>2026-04-18T13:16:29.605Z</time></trkpt><trkpt lat="46.230205" lon="12.0066717"><ele>1005.75</ele><time>2026-04-18T13:16:30.605Z</time></trkpt><trkpt lat="46.2302167" lon="12.006865"><ele>1004.0</ele><time>2026-04-18T13:16:31.605Z</time></trkpt><trkpt lat="46.230215" lon="12.0070683"><ele>1002.6666666666667</ele><time>2026-04-18T13:16:32.605Z</time></trkpt><trkpt lat="46.2301783" lon="12.0072683"><ele>1001.3333333333333</ele><time>2026-04-18T13:16:33.604Z</time></trkpt><trkpt lat="46.230105" lon="12.007495"><ele>1000.0</ele><time>2026-04-18T13:16:34.604Z</time></trkpt><trkpt lat="46.2300483" lon="12.0077333"><ele>1000.0</ele><time>2026-04-18T13:16:35.604Z</time></trkpt><trkpt lat="46.230025" lon="12.0079733"><ele>1000.0</ele><time>2026-04-18T13:16:36.604Z</time></trkpt><trkpt lat="46.23001" lon="12.0082233"><ele>1000.0</ele><time>2026-04-18T13:16:37.604Z</time></trkpt><trkpt lat="46.2299983" lon="12.0084583"><ele>1000.0</ele><time>2026-04-18T13:16:38.604Z</time></trkpt><trkpt lat="46.2299983" lon="12.0086717"><ele>1000.0</ele><time>2026-04-18T13:16:39.604Z</time></trkpt><trkpt lat="46.2300217" lon="12.00887"><ele>1000.0</ele><time>2026-04-18T13:16:40.605Z</time></trkpt><trkpt lat="46.2300567" lon="12.009045"><ele>1000.0</ele><time>2026-04-18T13:16:41.604Z</time></trkpt><trkpt lat="46.230115" lon="12.0092017"><ele>998.25</ele><time>2026-04-18T13:16:42.604Z</time></trkpt><trkpt lat="46.2301817" lon="12.0093633"><ele>996.5</ele><time>2026-04-18T13:16:43.604Z</time></trkpt><trkpt lat="46.2302467" lon="12.0095183"><ele>994.75</ele><time>2026-04-18T13:16:44.604Z</time></trkpt><trkpt lat="46.2303233" lon="12.00966"><ele>993.0</ele><time>2026-04-18T13:16:45.605Z</time></trkpt><trkpt lat="46.2304233" lon="12.0097667"><ele>993.0</ele><time>2026-04-18T13:16:46.604Z</time></trkpt><trkpt lat="46.23052" lon="12.0098317"><ele>993.0</ele><time>2026-04-18T13:16:47.604Z</time></trkpt><trkpt lat="46.2306133" lon="12.0098867"><ele>993.0</ele><time>2026-04-18T13:16:48.604Z</time></trkpt><trkpt lat="46.2306883" lon="12.0099333"><ele>993.0</ele><time>2026-04-18T13:16:49.604Z</time></trkpt><trkpt lat="46.2307467" lon="12.0099733"><ele>993.0</ele><time>2026-04-18T13:16:50.604Z</time></trkpt><trkpt lat="46.23069" lon="12.0100367"><ele>993.0</ele><time>2026-04-18T13:16:52.604Z</time></trkpt><trkpt lat="46.2306233" lon="12.0100383"><ele>993.0</ele><time>2026-04-18T13:16:53.604Z</time></trkpt><trkpt lat="46.230515" lon="12.01"><ele>993.0</ele><time>2026-04-18T13:16:54.604Z</time></trkpt><trkpt lat="46.2303967" lon="12.0099617"><ele>993.0</ele><time>2026-04-18T13:16:55.604Z</time></trkpt><trkpt lat="46.2302817" lon="12.0099333"><ele>993.0</ele><time>2026-04-18T13:16:56.604Z</time></trkpt><trkpt lat="46.23017" lon="12.0098833"><ele>993.0</ele><time>2026-04-18T13:16:57.605Z</time></trkpt><trkpt lat="46.2300567" lon="12.0098317"><ele>993.0</ele><time>2026-04-18T13:16:58.604Z</time></trkpt><trkpt lat="46.2299667" lon="12.0097633"><ele>993.0</ele><time>2026-04-18T13:16:59.604Z</time></trkpt><trkpt lat="46.2298717" lon="12.0096483"><ele>993.0</ele><time>2026-04-18T13:17:00.604Z</time></trkpt><trkpt lat="46.2297767" lon="12.0094867"><ele>985.0</ele><time>2026-04-18T13:17:01.605Z</time></trkpt><trkpt lat="46.2296817" lon="12.0093017"><ele>977.0</ele><time>2026-04-18T13:17:02.604Z</time></trkpt><trkpt lat="46.2296017" lon="12.0091083"><ele>969.0</ele><time>2026-04-18T13:17:03.605Z</time></trkpt><trkpt lat="46.2295267" lon="12.00891"><ele>969.0</ele><time>2026-04-18T13:17:04.604Z</time></trkpt><trkpt lat="46.2294517" lon="12.0087233"><ele>969.0</ele><time>2026-04-18T13:17:05.604Z</time></trkpt><trkpt lat="46.22939" lon="12.0085083"><ele>969.0</ele><time>2026-04-18T13:17:06.604Z</time></trkpt><trkpt lat="46.22934" lon="12.008285"><ele>968.0</ele><time>2026-04-18T13:17:07.604Z</time></trkpt><trkpt lat="46.229295" lon="12.0080817"><ele>967.0</ele><time>2026-04-18T13:17:08.604Z</time></trkpt><trkpt lat="46.2292717" lon="12.0078783"><ele>966.0</ele><time>2026-04-18T13:17:09.604Z</time></trkpt><trkpt lat="46.2292633" lon="12.007665"><ele>965.0</ele><time>2026-04-18T13:17:10.605Z</time></trkpt><trkpt lat="46.22927" lon="12.007455"><ele>964.8</ele><time>2026-04-18T13:17:11.604Z</time></trkpt><trkpt lat="46.2292917" lon="12.0072617"><ele>964.6</ele><time>2026-04-18T13:17:12.605Z</time></trkpt><trkpt lat="46.2292983" lon="12.0070967"><ele>964.4000000000001</ele><time>2026-04-18T13:17:13.604Z</time></trkpt><trkpt lat="46.2292867" lon="12.0069483"><ele>964.2</ele><time>2026-04-18T13:17:14.604Z</time></trkpt><trkpt lat="46.2292717" lon="12.0068117"><ele>964.0</ele><time>2026-04-18T13:17:15.604Z</time></trkpt><trkpt lat="46.2291733" lon="12.0067283"><ele>965.3333333333333</ele><time>2026-04-18T13:17:16.605Z</time></trkpt><trkpt lat="46.229035" lon="12.0066333"><ele>966.6666666666667</ele><time>2026-04-18T13:17:17.605Z</time></trkpt><trkpt lat="46.228875" lon="12.00652"><ele>968.0</ele><time>2026-04-18T13:17:18.605Z</time></trkpt><trkpt lat="46.2287317" lon="12.0064067"><ele>962.5</ele><time>2026-04-18T13:17:19.605Z</time></trkpt><trkpt lat="46.228595" lon="12.0063067"><ele>957.0</ele><time>2026-04-18T13:17:20.604Z</time></trkpt><trkpt lat="46.22847" lon="12.0062267"><ele>951.5</ele><time>2026-04-18T13:17:21.604Z</time></trkpt><trkpt lat="46.2283633" lon="12.0061617"><ele>946.0</ele><time>2026-04-18T13:17:22.605Z</time></trkpt><trkpt lat="46.228275" lon="12.0061267"><ele>945.9999999999999</ele><time>2026-04-18T13:17:23.604Z</time></trkpt><trkpt lat="46.2282083" lon="12.0060833"><ele>946.0</ele><time>2026-04-18T13:17:24.604Z</time></trkpt><trkpt lat="46.2281617" lon="12.005995"><ele>946.0</ele><time>2026-04-18T13:17:25.604Z</time></trkpt><trkpt lat="46.2281267" lon="12.005885"><ele>946.0</ele><time>2026-04-18T13:17:26.604Z</time></trkpt><trkpt lat="46.2281067" lon="12.00575"><ele>945.9999999999999</ele><time>2026-04-18T13:17:27.604Z</time></trkpt><trkpt lat="46.22811" lon="12.0055817"><ele>946.0</ele><time>2026-04-18T13:17:28.604Z</time></trkpt><trkpt lat="46.2281117" lon="12.00539"><ele>940.6666666666666</ele><time>2026-04-18T13:17:29.604Z</time></trkpt><trkpt lat="46.2281367" lon="12.0051567"><ele>935.3333333333333</ele><time>2026-04-18T13:17:30.604Z</time></trkpt><trkpt lat="46.228125" lon="12.0049317"><ele>930.0</ele><time>2026-04-18T13:17:31.604Z</time></trkpt><trkpt lat="46.2281067" lon="12.0047417"><ele>930.0</ele><time>2026-04-18T13:17:32.604Z</time></trkpt><trkpt lat="46.2281033" lon="12.0045733"><ele>930.0</ele><time>2026-04-18T13:17:33.604Z</time></trkpt><trkpt lat="46.2280983" lon="12.0044383"><ele>930.0</ele><time>2026-04-18T13:17:34.604Z</time></trkpt><trkpt lat="46.22806" lon="12.0043117"><ele>930.0</ele><time>2026-04-18T13:17:35.604Z</time></trkpt><trkpt lat="46.227995" lon="12.0042183"><ele>930.0</ele><time>2026-04-18T13:17:36.604Z</time></trkpt><trkpt lat="46.227925" lon="12.0041483"><ele>930.8333333333334</ele><time>2026-04-18T13:17:37.604Z</time></trkpt><trkpt lat="46.227855" lon="12.0040917"><ele>931.6666666666667</ele><time>2026-04-18T13:17:38.604Z</time></trkpt><trkpt lat="46.2277917" lon="12.0040467"><ele>932.5</ele><time>2026-04-18T13:17:39.605Z</time></trkpt><trkpt lat="46.22773" lon="12.004"><ele>933.3333333333334</ele><time>2026-04-18T13:17:40.605Z</time></trkpt><trkpt lat="46.2276567" lon="12.0039383"><ele>934.1666666666667</ele><time>2026-04-18T13:17:42.605Z</time></trkpt><trkpt lat="46.2276067" lon="12.00386"><ele>935.0</ele><time>2026-04-18T13:17:44.604Z</time></trkpt><trkpt lat="46.22757" lon="12.00377"><ele>935.0</ele><time>2026-04-18T13:17:45.605Z</time></trkpt><trkpt lat="46.2275333" lon="12.0036517"><ele>935.0</ele><time>2026-04-18T13:17:46.604Z</time></trkpt><trkpt lat="46.2274833" lon="12.0034983"><ele>935.0</ele><time>2026-04-18T13:17:47.604Z</time></trkpt><trkpt lat="46.2274467" lon="12.00331"><ele>935.0</ele><time>2026-04-18T13:17:48.604Z</time></trkpt><trkpt lat="46.22738" lon="12.0031167"><ele>928.0</ele><time>2026-04-18T13:17:49.605Z</time></trkpt><trkpt lat="46.227295" lon="12.00292"><ele>921.0</ele><time>2026-04-18T13:17:50.604Z</time></trkpt><trkpt lat="46.22721" lon="12.0027083"><ele>914.0</ele><time>2026-04-18T13:17:51.604Z</time></trkpt><trkpt lat="46.2271433" lon="12.0025"><ele>917.0</ele><time>2026-04-18T13:17:52.604Z</time></trkpt><trkpt lat="46.2270867" lon="12.0022917"><ele>920.0</ele><time>2026-04-18T13:17:53.604Z</time></trkpt><trkpt lat="46.2270417" lon="12.0021"><ele>923.0</ele><time>2026-04-18T13:17:54.604Z</time></trkpt><trkpt lat="46.2269817" lon="12.0019183"><ele>926.0</ele><time>2026-04-18T13:17:55.604Z</time></trkpt><trkpt lat="46.226915" lon="12.0017433"><ele>926.75</ele><time>2026-04-18T13:17:56.604Z</time></trkpt><trkpt lat="46.2268417" lon="12.0015783"><ele>927.5</ele><time>2026-04-18T13:17:57.604Z</time></trkpt><trkpt lat="46.226765" lon="12.00143"><ele>928.25</ele><time>2026-04-18T13:17:58.604Z</time></trkpt><trkpt lat="46.2267033" lon="12.0013083"><ele>929.0</ele><time>2026-04-18T13:17:59.604Z</time></trkpt><trkpt lat="46.2266517" lon="12.0011917"><ele>929.0</ele><time>2026-04-18T13:18:00.604Z</time></trkpt><trkpt lat="46.2266033" lon="12.0010517"><ele>929.0</ele><time>2026-04-18T13:18:01.604Z</time></trkpt><trkpt lat="46.2265733" lon="12.000895"><ele>929.0</ele><time>2026-04-18T13:18:02.604Z</time></trkpt><trkpt lat="46.2265567" lon="12.000715"><ele>929.0</ele><time>2026-04-18T13:18:03.605Z</time></trkpt><trkpt lat="46.2265483" lon="12.0005467"><ele>930.25</ele><time>2026-04-18T13:18:04.604Z</time></trkpt><trkpt lat="46.2265233" lon="12.0003933"><ele>931.5</ele><time>2026-04-18T13:18:05.604Z</time></trkpt><trkpt lat="46.2264867" lon="12.0002367"><ele>932.75</ele><time>2026-04-18T13:18:06.604Z</time></trkpt><trkpt lat="46.2264267" lon="12.0000717"><ele>934.0</ele><time>2026-04-18T13:18:07.604Z</time></trkpt><trkpt lat="46.2263483" lon="11.9999083"><ele>925.0</ele><time>2026-04-18T13:18:08.604Z</time></trkpt><trkpt lat="46.2262567" lon="11.9997433"><ele>916.0</ele><time>2026-04-18T13:18:09.604Z</time></trkpt><trkpt lat="46.2261817" lon="11.9996067"><ele>907.0</ele><time>2026-04-18T13:18:10.605Z</time></trkpt><trkpt lat="46.22611" lon="11.9994633"><ele>898.0</ele><time>2026-04-18T13:18:11.605Z</time></trkpt><trkpt lat="46.2260533" lon="11.9993"><ele>899.5</ele><time>2026-04-18T13:18:12.605Z</time></trkpt><trkpt lat="46.2260133" lon="11.9991083"><ele>901.0</ele><time>2026-04-18T13:18:13.604Z</time></trkpt><trkpt lat="46.2259817" lon="11.9989133"><ele>902.5</ele><time>2026-04-18T13:18:14.604Z</time></trkpt><trkpt lat="46.2259333" lon="11.998705"><ele>904.0</ele><time>2026-04-18T13:18:15.604Z</time></trkpt><trkpt lat="46.2259083" lon="11.9985283"><ele>904.0</ele><time>2026-04-18T13:18:16.604Z</time></trkpt><trkpt lat="46.2258617" lon="11.9983683"><ele>904.0000000000001</ele><time>2026-04-18T13:18:17.605Z</time></trkpt><trkpt lat="46.2258183" lon="11.9982167"><ele>904.0000000000001</ele><time>2026-04-18T13:18:18.605Z</time></trkpt><trkpt lat="46.2257783" lon="11.998075"><ele>904.0</ele><time>2026-04-18T13:18:19.605Z</time></trkpt><trkpt lat="46.2257633" lon="11.9979383"><ele>904.0</ele><time>2026-04-18T13:18:20.604Z</time></trkpt><trkpt lat="46.2257483" lon="11.9978017"><ele>905.0</ele><time>2026-04-18T13:18:21.605Z</time></trkpt><trkpt lat="46.22573" lon="11.9976767"><ele>906.0000000000001</ele><time>2026-04-18T13:18:22.605Z</time></trkpt><trkpt lat="46.225705" lon="11.997555"><ele>907.0000000000001</ele><time>2026-04-18T13:18:23.605Z</time></trkpt><trkpt lat="46.2256517" lon="11.9974433"><ele>908.0</ele><time>2026-04-18T13:18:24.605Z</time></trkpt><trkpt lat="46.225585" lon="11.9973433"><ele>909.0</ele><time>2026-04-18T13:18:25.604Z</time></trkpt><trkpt lat="46.2255" lon="11.997255"><ele>902.8000000000001</ele><time>2026-04-18T13:18:26.605Z</time></trkpt><trkpt lat="46.2254167" lon="11.9971633"><ele>896.6000000000001</ele><time>2026-04-18T13:18:27.604Z</time></trkpt><trkpt lat="46.2253383" lon="11.9970767"><ele>890.4</ele><time>2026-04-18T13:18:28.605Z</time></trkpt><trkpt lat="46.2252767" lon="11.99701"><ele>884.2</ele><time>2026-04-18T13:18:29.604Z</time></trkpt><trkpt lat="46.225235" lon="11.9969317"><ele>878.0</ele><time>2026-04-18T13:18:30.605Z</time></trkpt><trkpt lat="46.2252133" lon="11.9967583"><ele>878.0</ele><time>2026-04-18T13:18:32.604Z</time></trkpt><trkpt lat="46.2253267" lon="11.9966733"><ele>878.0</ele><time>2026-04-18T13:18:34.604Z</time></trkpt><trkpt lat="46.225415" lon="11.99665"><ele>878.0</ele><time>2026-04-18T13:18:35.604Z</time></trkpt><trkpt lat="46.2255167" lon="11.9966633"><ele>878.0</ele><time>2026-04-18T13:18:36.604Z</time></trkpt><trkpt lat="46.225595" lon="11.9966617"><ele>878.0</ele><time>2026-04-18T13:18:37.604Z</time></trkpt><trkpt lat="46.2256967" lon="11.9966167"><ele>878.1666666666667</ele><time>2026-04-18T13:18:39.604Z</time></trkpt><trkpt lat="46.2256733" lon="11.996525"><ele>878.3333333333334</ele><time>2026-04-18T13:18:42.604Z</time></trkpt><trkpt lat="46.225605" lon="11.9965333"><ele>878.5</ele><time>2026-04-18T13:18:43.605Z</time></trkpt><trkpt lat="46.2255117" lon="11.9965617"><ele>878.6666666666667</ele><time>2026-04-18T13:18:44.605Z</time></trkpt><trkpt lat="46.2254" lon="11.99659"><ele>878.8333333333334</ele><time>2026-04-18T13:18:45.604Z</time></trkpt><trkpt lat="46.2252967" lon="11.9966033"><ele>879.0</ele><time>2026-04-18T13:18:46.604Z</time></trkpt><trkpt lat="46.225205" lon="11.9966133"><ele>879.0</ele><time>2026-04-18T13:18:47.604Z</time></trkpt><trkpt lat="46.22513" lon="11.9966117"><ele>879.0000000000001</ele><time>2026-04-18T13:18:48.604Z</time></trkpt><trkpt lat="46.2250583" lon="11.9966217"><ele>879.0000000000001</ele><time>2026-04-18T13:18:49.604Z</time></trkpt><trkpt lat="46.2249733" lon="11.9967"><ele>879.0</ele><time>2026-04-18T13:18:51.605Z</time></trkpt><trkpt lat="46.2249917" lon="11.9969317"><ele>879.0</ele><time>2026-04-18T13:19:06.604Z</time></trkpt><trkpt lat="46.2250117" lon="11.9970667"><ele>878.8000000000001</ele><time>2026-04-18T13:19:08.604Z</time></trkpt><trkpt lat="46.2250217" lon="11.9971733"><ele>878.6000000000001</ele><time>2026-04-18T13:19:09.604Z</time></trkpt><trkpt lat="46.22505" lon="11.99733"><ele>878.4</ele><time>2026-04-18T13:19:10.604Z</time></trkpt><trkpt lat="46.225065" lon="11.997505"><ele>878.2</ele><time>2026-04-18T13:19:11.604Z</time></trkpt><trkpt lat="46.2250517" lon="11.9976833"><ele>878.0</ele><time>2026-04-18T13:19:12.604Z</time></trkpt><trkpt lat="46.2250183" lon="11.9978483"><ele>876.5</ele><time>2026-04-18T13:19:13.605Z</time></trkpt><trkpt lat="46.224995" lon="11.9979967"><ele>875.0</ele><time>2026-04-18T13:19:14.604Z</time></trkpt><trkpt lat="46.2250033" lon="11.9981667"><ele>873.5</ele><time>2026-04-18T13:19:15.604Z</time></trkpt><trkpt lat="46.2250333" lon="11.9983783"><ele>872.0</ele><time>2026-04-18T13:19:16.604Z</time></trkpt><trkpt lat="46.2250667" lon="11.9986183"><ele>870.75</ele><time>2026-04-18T13:19:17.605Z</time></trkpt><trkpt lat="46.2250933" lon="11.9988467"><ele>869.5</ele><time>2026-04-18T13:19:18.605Z</time></trkpt><trkpt lat="46.2251017" lon="11.9990567"><ele>868.25</ele><time>2026-04-18T13:19:19.604Z</time></trkpt><trkpt lat="46.2251" lon="11.9992367"><ele>867.0</ele><time>2026-04-18T13:19:20.605Z</time></trkpt><trkpt lat="46.2250917" lon="11.9993883"><ele>866.0</ele><time>2026-04-18T13:19:21.604Z</time></trkpt><trkpt lat="46.2251" lon="11.9995367"><ele>865.0</ele><time>2026-04-18T13:19:22.604Z</time></trkpt><trkpt lat="46.2251183" lon="11.9997283"><ele>864.0</ele><time>2026-04-18T13:19:23.604Z</time></trkpt><trkpt lat="46.22515" lon="11.9999217"><ele>863.0</ele><time>2026-04-18T13:19:24.604Z</time></trkpt><trkpt lat="46.2251467" lon="12.0001117"><ele>863.0</ele><time>2026-04-18T13:19:25.605Z</time></trkpt><trkpt lat="46.2251367" lon="12.000305"><ele>863.0</ele><time>2026-04-18T13:19:26.604Z</time></trkpt><trkpt lat="46.2251117" lon="12.00049"><ele>863.0</ele><time>2026-04-18T13:19:27.605Z</time></trkpt><trkpt lat="46.22509" lon="12.0006733"><ele>863.0</ele><time>2026-04-18T13:19:28.604Z</time></trkpt><trkpt lat="46.225065" lon="12.0008417"><ele>863.2</ele><time>2026-04-18T13:19:29.604Z</time></trkpt><trkpt lat="46.22505" lon="12.000985"><ele>863.4</ele><time>2026-04-18T13:19:30.604Z</time></trkpt><trkpt lat="46.2250717" lon="12.00115"><ele>863.6000000000001</ele><time>2026-04-18T13:19:31.605Z</time></trkpt><trkpt lat="46.2250833" lon="12.001265"><ele>863.8000000000001</ele><time>2026-04-18T13:19:32.605Z</time></trkpt><trkpt lat="46.2251267" lon="12.001405"><ele>864.0</ele><time>2026-04-18T13:19:33.604Z</time></trkpt><trkpt lat="46.2252067" lon="12.0015533"><ele>862.75</ele><time>2026-04-18T13:19:34.604Z</time></trkpt><trkpt lat="46.2252967" lon="12.0017117"><ele>861.5</ele><time>2026-04-18T13:19:35.605Z</time></trkpt><trkpt lat="46.2253883" lon="12.00186"><ele>860.25</ele><time>2026-04-18T13:19:36.604Z</time></trkpt><trkpt lat="46.2254733" lon="12.002"><ele>859.0</ele><time>2026-04-18T13:19:37.604Z</time></trkpt><trkpt lat="46.2255483" lon="12.002125"><ele>859.0</ele><time>2026-04-18T13:19:38.604Z</time></trkpt><trkpt lat="46.2256" lon="12.00223"><ele>859.0000000000001</ele><time>2026-04-18T13:19:39.604Z</time></trkpt><trkpt lat="46.22555" lon="12.0023483"><ele>859.0000000000001</ele><time>2026-04-18T13:19:41.604Z</time></trkpt><trkpt lat="46.2254567" lon="12.0023167"><ele>859.0</ele><time>2026-04-18T13:19:43.605Z</time></trkpt><trkpt lat="46.2253967" lon="12.0022117"><ele>859.0</ele><time>2026-04-18T13:19:44.604Z</time></trkpt><trkpt lat="46.2253" lon="12.0020117"><ele>859.0</ele><time>2026-04-18T13:19:45.604Z</time></trkpt><trkpt lat="46.2251917" lon="12.0018433"><ele>859.0</ele><time>2026-04-18T13:19:46.605Z</time></trkpt><trkpt lat="46.2250867" lon="12.0017033"><ele>859.0</ele><time>2026-04-18T13:19:47.604Z</time></trkpt><trkpt lat="46.2249933" lon="12.0015633"><ele>859.0</ele><time>2026-04-18T13:19:48.604Z</time></trkpt><trkpt lat="46.2249183" lon="12.0014117"><ele>860.25</ele><time>2026-04-18T13:19:49.604Z</time></trkpt><trkpt lat="46.2248533" lon="12.001235"><ele>861.5</ele><time>2026-04-18T13:19:50.604Z</time></trkpt><trkpt lat="46.2248117" lon="12.001035"><ele>862.75</ele><time>2026-04-18T13:19:51.604Z</time></trkpt><trkpt lat="46.2247833" lon="12.0008067"><ele>864.0</ele><time>2026-04-18T13:19:52.604Z</time></trkpt><trkpt lat="46.2247517" lon="12.000555"><ele>851.3333333333333</ele><time>2026-04-18T13:19:53.604Z</time></trkpt><trkpt lat="46.22472" lon="12.0002917"><ele>838.6666666666666</ele><time>2026-04-18T13:19:54.604Z</time></trkpt><trkpt lat="46.2246683" lon="12.0000267"><ele>826.0</ele><time>2026-04-18T13:19:55.604Z</time></trkpt><trkpt lat="46.2246133" lon="11.999765"><ele>826.0</ele><time>2026-04-18T13:19:56.604Z</time></trkpt><trkpt lat="46.224555" lon="11.9995017"><ele>826.0</ele><time>2026-04-18T13:19:57.605Z</time></trkpt><trkpt lat="46.2244867" lon="11.9992483"><ele>826.0</ele><time>2026-04-18T13:19:58.604Z</time></trkpt><trkpt lat="46.2244267" lon="11.999015"><ele>828.3333333333333</ele><time>2026-04-18T13:19:59.604Z</time></trkpt><trkpt lat="46.2243767" lon="11.9987733"><ele>830.6666666666667</ele><time>2026-04-18T13:20:00.605Z</time></trkpt><trkpt lat="46.2243333" lon="11.9985067"><ele>833.0</ele><time>2026-04-18T13:20:01.604Z</time></trkpt><trkpt lat="46.2243067" lon="11.99825"><ele>833.0</ele><time>2026-04-18T13:20:02.604Z</time></trkpt><trkpt lat="46.2242967" lon="11.9979833"><ele>833.0</ele><time>2026-04-18T13:20:03.604Z</time></trkpt><trkpt lat="46.224295" lon="11.9976883"><ele>833.0</ele><time>2026-04-18T13:20:04.604Z</time></trkpt><trkpt lat="46.2242867" lon="11.997395"><ele>833.0</ele><time>2026-04-18T13:20:05.604Z</time></trkpt><trkpt lat="46.2242633" lon="11.9971217"><ele>833.0</ele><time>2026-04-18T13:20:06.604Z</time></trkpt><trkpt lat="46.2242333" lon="11.9968667"><ele>833.0</ele><time>2026-04-18T13:20:07.604Z</time></trkpt><trkpt lat="46.2241967" lon="11.9966133"><ele>834.25</ele><time>2026-04-18T13:20:08.604Z</time></trkpt><trkpt lat="46.2241483" lon="11.9963933"><ele>835.5</ele><time>2026-04-18T13:20:09.605Z</time></trkpt><trkpt lat="46.2241133" lon="11.9962167"><ele>836.75</ele><time>2026-04-18T13:20:10.604Z</time></trkpt><trkpt lat="46.2240917" lon="11.99605"><ele>838.0</ele><time>2026-04-18T13:20:11.604Z</time></trkpt><trkpt lat="46.2241033" lon="11.9958783"><ele>836.25</ele><time>2026-04-18T13:20:12.604Z</time></trkpt><trkpt lat="46.224155" lon="11.995715"><ele>834.5</ele><time>2026-04-18T13:20:13.604Z</time></trkpt><trkpt lat="46.2242083" lon="11.995535"><ele>832.75</ele><time>2026-04-18T13:20:14.604Z</time></trkpt><trkpt lat="46.22429" lon="11.9953583"><ele>831.0</ele><time>2026-04-18T13:20:15.604Z</time></trkpt><trkpt lat="46.2243833" lon="11.9952033"><ele>831.0</ele><time>2026-04-18T13:20:16.604Z</time></trkpt><trkpt lat="46.2244767" lon="11.9950933"><ele>831.0</ele><time>2026-04-18T13:20:17.605Z</time></trkpt><trkpt lat="46.2245867" lon="11.99503"><ele>831.0</ele><time>2026-04-18T13:20:18.604Z</time></trkpt><trkpt lat="46.2247033" lon="11.9949917"><ele>831.0</ele><time>2026-04-18T13:20:19.604Z</time></trkpt><trkpt lat="46.2248267" lon="11.9950183"><ele>831.0</ele><time>2026-04-18T13:20:20.605Z</time></trkpt><trkpt lat="46.2249317" lon="11.995065"><ele>831.0</ele><time>2026-04-18T13:20:21.604Z</time></trkpt><trkpt lat="46.2250083" lon="11.9950967"><ele>831.0</ele><time>2026-04-18T13:20:22.604Z</time></trkpt><trkpt lat="46.22507" lon="11.9950417"><ele>831.0</ele><time>2026-04-18T13:20:24.604Z</time></trkpt><trkpt lat="46.2249883" lon="11.994945"><ele>831.0</ele><time>2026-04-18T13:20:26.605Z</time></trkpt><trkpt lat="46.2249067" lon="11.99493"><ele>825.0</ele><time>2026-04-18T13:20:27.605Z</time></trkpt><trkpt lat="46.2248033" lon="11.9949133"><ele>819.0</ele><time>2026-04-18T13:20:28.604Z</time></trkpt><trkpt lat="46.2246833" lon="11.9949133"><ele>813.0</ele><time>2026-04-18T13:20:29.604Z</time></trkpt><trkpt lat="46.2245633" lon="11.9949133"><ele>807.0</ele><time>2026-04-18T13:20:30.604Z</time></trkpt><trkpt lat="46.22444" lon="11.9949233"><ele>807.0</ele><time>2026-04-18T13:20:31.605Z</time></trkpt><trkpt lat="46.224325" lon="11.9949633"><ele>807.0</ele><time>2026-04-18T13:20:32.605Z</time></trkpt><trkpt lat="46.224205" lon="11.9950633"><ele>807.0</ele><time>2026-04-18T13:20:33.604Z</time></trkpt><trkpt lat="46.224075" lon="11.99518"><ele>807.0</ele><time>2026-04-18T13:20:34.604Z</time></trkpt><trkpt lat="46.223925" lon="11.9952767"><ele>803.75</ele><time>2026-04-18T13:20:35.605Z</time></trkpt><trkpt lat="46.2237833" lon="11.99534"><ele>800.5</ele><time>2026-04-18T13:20:36.605Z</time></trkpt><trkpt lat="46.2236517" lon="11.995375"><ele>797.25</ele><time>2026-04-18T13:20:37.604Z</time></trkpt><trkpt lat="46.2235633" lon="11.9954333"><ele>794.0</ele><time>2026-04-18T13:20:38.604Z</time></trkpt><trkpt lat="46.2234983" lon="11.9955433"><ele>794.0</ele><time>2026-04-18T13:20:39.604Z</time></trkpt><trkpt lat="46.223455" lon="11.9957067"><ele>794.0</ele><time>2026-04-18T13:20:40.605Z</time></trkpt><trkpt lat="46.223415" lon="11.995905"><ele>794.0</ele><time>2026-04-18T13:20:41.604Z</time></trkpt><trkpt lat="46.2233833" lon="11.9961417"><ele>794.0</ele><time>2026-04-18T13:20:42.604Z</time></trkpt><trkpt lat="46.2233567" lon="11.9963683"><ele>795.6666666666667</ele><time>2026-04-18T13:20:43.605Z</time></trkpt><trkpt lat="46.22335" lon="11.9966367"><ele>797.3333333333333</ele><time>2026-04-18T13:20:44.604Z</time></trkpt><trkpt lat="46.2233467" lon="11.99691"><ele>799.0</ele><time>2026-04-18T13:20:45.605Z</time></trkpt><trkpt lat="46.2233517" lon="11.997195"><ele>799.0</ele><time>2026-04-18T13:20:46.604Z</time></trkpt><trkpt lat="46.223335" lon="11.9974383"><ele>799.0</ele><time>2026-04-18T13:20:47.604Z</time></trkpt><trkpt lat="46.2233033" lon="11.9976767"><ele>799.0</ele><time>2026-04-18T13:20:48.604Z</time></trkpt><trkpt lat="46.2232717" lon="11.997885"><ele>798.6666666666666</ele><time>2026-04-18T13:20:49.604Z</time></trkpt><trkpt lat="46.2232183" lon="11.998095"><ele>798.3333333333333</ele><time>2026-04-18T13:20:50.604Z</time></trkpt><trkpt lat="46.2231767" lon="11.9983083"><ele>798.0</ele><time>2026-04-18T13:20:51.604Z</time></trkpt><trkpt lat="46.2231567" lon="11.998525"><ele>796.3333333333333</ele><time>2026-04-18T13:20:52.604Z</time></trkpt><trkpt lat="46.2231617" lon="11.998775"><ele>794.6666666666666</ele><time>2026-04-18T13:20:53.605Z</time></trkpt><trkpt lat="46.22316" lon="11.999055"><ele>793.0</ele><time>2026-04-18T13:20:54.605Z</time></trkpt><trkpt lat="46.2231383" lon="11.9993433"><ele>780.6666666666666</ele><time>2026-04-18T13:20:55.604Z</time></trkpt><trkpt lat="46.22312" lon="11.9996067"><ele>768.3333333333333</ele><time>2026-04-18T13:20:56.604Z</time></trkpt><trkpt lat="46.2231" lon="11.99986"><ele>756.0</ele><time>2026-04-18T13:20:57.604Z</time></trkpt><trkpt lat="46.2231017" lon="12.000085"><ele>756.0</ele><time>2026-04-18T13:20:58.604Z</time></trkpt><trkpt lat="46.2231133" lon="12.0003367"><ele>756.0</ele><time>2026-04-18T13:20:59.604Z</time></trkpt><trkpt lat="46.2231117" lon="12.0006033"><ele>756.0</ele><time>2026-04-18T13:21:00.604Z</time></trkpt><trkpt lat="46.2231317" lon="12.00085"><ele>757.5</ele><time>2026-04-18T13:21:01.604Z</time></trkpt><trkpt lat="46.22316" lon="12.0010717"><ele>759.0</ele><time>2026-04-18T13:21:02.605Z</time></trkpt><trkpt lat="46.2231917" lon="12.0012533"><ele>760.5</ele><time>2026-04-18T13:21:03.605Z</time></trkpt><trkpt lat="46.2231933" lon="12.0014267"><ele>762.0</ele><time>2026-04-18T13:21:04.604Z</time></trkpt><trkpt lat="46.2231133" lon="12.0014767"><ele>762.0</ele><time>2026-04-18T13:21:06.605Z</time></trkpt><trkpt lat="46.2230283" lon="12.0014083"><ele>762.0</ele><time>2026-04-18T13:21:07.604Z</time></trkpt><trkpt lat="46.2229717" lon="12.0012883"><ele>762.0</ele><time>2026-04-18T13:21:08.604Z</time></trkpt><trkpt lat="46.2229283" lon="12.0011233"><ele>762.0</ele><time>2026-04-18T13:21:09.604Z</time></trkpt><trkpt lat="46.2228983" lon="12.0009317"><ele>760.0</ele><time>2026-04-18T13:21:10.605Z</time></trkpt><trkpt lat="46.2228717" lon="12.0006967"><ele>758.0</ele><time>2026-04-18T13:21:11.604Z</time></trkpt><trkpt lat="46.22284" lon="12.0004167"><ele>756.0</ele><time>2026-04-18T13:21:12.604Z</time></trkpt><trkpt lat="46.2228067" lon="12.00017"><ele>756.0</ele><time>2026-04-18T13:21:13.605Z</time></trkpt><trkpt lat="46.222805" lon="11.99996"><ele>756.0</ele><time>2026-04-18T13:21:14.605Z</time></trkpt><trkpt lat="46.2227967" lon="11.999785"><ele>756.0</ele><time>2026-04-18T13:21:15.604Z</time></trkpt><trkpt lat="46.22275" lon="11.9995833"><ele>756.0</ele><time>2026-04-18T13:21:16.604Z</time></trkpt><trkpt lat="46.22268" lon="11.9993733"><ele>756.3333333333334</ele><time>2026-04-18T13:21:17.604Z</time></trkpt><trkpt lat="46.2225867" lon="11.99916"><ele>756.6666666666667</ele><time>2026-04-18T13:21:18.604Z</time></trkpt><trkpt lat="46.2224817" lon="11.998915"><ele>757.0</ele><time>2026-04-18T13:21:19.605Z</time></trkpt><trkpt lat="46.2223517" lon="11.9987083"><ele>754.3333333333334</ele><time>2026-04-18T13:21:20.604Z</time></trkpt><trkpt lat="46.2222483" lon="11.9984867"><ele>751.6666666666666</ele><time>2026-04-18T13:21:21.604Z</time></trkpt><trkpt lat="46.22215" lon="11.9982267"><ele>749.0</ele><time>2026-04-18T13:21:22.604Z</time></trkpt><trkpt lat="46.2220717" lon="11.99797"><ele>745.0</ele><time>2026-04-18T13:21:23.605Z</time></trkpt><trkpt lat="46.221995" lon="11.9977317"><ele>741.0</ele><time>2026-04-18T13:21:24.604Z</time></trkpt><trkpt lat="46.2219117" lon="11.997505"><ele>737.0</ele><time>2026-04-18T13:21:25.604Z</time></trkpt><trkpt lat="46.2218383" lon="11.9973283"><ele>737.0</ele><time>2026-04-18T13:21:26.605Z</time></trkpt><trkpt lat="46.2217867" lon="11.9971667"><ele>737.0</ele><time>2026-04-18T13:21:27.604Z</time></trkpt><trkpt lat="46.2217517" lon="11.9969917"><ele>737.0</ele><time>2026-04-18T13:21:28.604Z</time></trkpt><trkpt lat="46.221725" lon="11.9968067"><ele>737.0</ele><time>2026-04-18T13:21:29.604Z</time></trkpt><trkpt lat="46.2217083" lon="11.9965867"><ele>735.0</ele><time>2026-04-18T13:21:30.605Z</time></trkpt><trkpt lat="46.2217217" lon="11.9963567"><ele>733.0</ele><time>2026-04-18T13:21:31.604Z</time></trkpt><trkpt lat="46.2217533" lon="11.9961383"><ele>731.0</ele><time>2026-04-18T13:21:32.604Z</time></trkpt><trkpt lat="46.22176" lon="11.9959567"><ele>729.0</ele><time>2026-04-18T13:21:33.604Z</time></trkpt><trkpt lat="46.2217617" lon="11.9958"><ele>728.2</ele><time>2026-04-18T13:21:34.604Z</time></trkpt><trkpt lat="46.2217683" lon="11.995665"><ele>727.4000000000001</ele><time>2026-04-18T13:21:35.604Z</time></trkpt><trkpt lat="46.221725" lon="11.99555"><ele>726.6</ele><time>2026-04-18T13:21:36.604Z</time></trkpt><trkpt lat="46.2216367" lon="11.9954667"><ele>725.8</ele><time>2026-04-18T13:21:37.604Z</time></trkpt><trkpt lat="46.2215167" lon="11.9954283"><ele>725.0</ele><time>2026-04-18T13:21:38.604Z</time></trkpt><trkpt lat="46.2213883" lon="11.9953967"><ele>721.5</ele><time>2026-04-18T13:21:39.604Z</time></trkpt><trkpt lat="46.2212533" lon="11.995375"><ele>718.0</ele><time>2026-04-18T13:21:40.604Z</time></trkpt><trkpt lat="46.2211367" lon="11.99533"><ele>714.5</ele><time>2026-04-18T13:21:41.604Z</time></trkpt><trkpt lat="46.221045" lon="11.995265"><ele>711.0</ele><time>2026-04-18T13:21:42.604Z</time></trkpt><trkpt lat="46.2209833" lon="11.9951367"><ele>712.0</ele><time>2026-04-18T13:21:43.604Z</time></trkpt><trkpt lat="46.2209467" lon="11.9949733"><ele>713.0</ele><time>2026-04-18T13:21:44.604Z</time></trkpt><trkpt lat="46.2209333" lon="11.99477"><ele>714.0</ele><time>2026-04-18T13:21:45.604Z</time></trkpt><trkpt lat="46.2209167" lon="11.994605"><ele>715.0</ele><time>2026-04-18T13:21:46.604Z</time></trkpt><trkpt lat="46.22089" lon="11.9944517"><ele>715.0</ele><time>2026-04-18T13:21:47.605Z</time></trkpt><trkpt lat="46.220845" lon="11.994325"><ele>715.0</ele><time>2026-04-18T13:21:48.604Z</time></trkpt><trkpt lat="46.2207683" lon="11.99426"><ele>715.0</ele><time>2026-04-18T13:21:49.605Z</time></trkpt><trkpt lat="46.2206717" lon="11.9942767"><ele>715.0</ele><time>2026-04-18T13:21:50.604Z</time></trkpt><trkpt lat="46.2205833" lon="11.9943533"><ele>715.0</ele><time>2026-04-18T13:21:51.604Z</time></trkpt><trkpt lat="46.2205" lon="11.99448"><ele>709.6666666666667</ele><time>2026-04-18T13:21:52.605Z</time></trkpt><trkpt lat="46.22042" lon="11.9946633"><ele>704.3333333333334</ele><time>2026-04-18T13:21:53.604Z</time></trkpt><trkpt lat="46.220315" lon="11.9948567"><ele>699.0</ele><time>2026-04-18T13:21:54.603Z</time></trkpt><trkpt lat="46.220215" lon="11.9950633"><ele>698.3333333333334</ele><time>2026-04-18T13:21:55.604Z</time></trkpt><trkpt lat="46.2201167" lon="11.9952667"><ele>697.6666666666667</ele><time>2026-04-18T13:21:56.604Z</time></trkpt><trkpt lat="46.2200433" lon="11.99546"><ele>697.0</ele><time>2026-04-18T13:21:57.605Z</time></trkpt><trkpt lat="46.219965" lon="11.9956183"><ele>697.0</ele><time>2026-04-18T13:21:58.604Z</time></trkpt><trkpt lat="46.2198817" lon="11.9957283"><ele>697.0</ele><time>2026-04-18T13:21:59.604Z</time></trkpt><trkpt lat="46.2197783" lon="11.9957933"><ele>697.0</ele><time>2026-04-18T13:22:00.604Z</time></trkpt><trkpt lat="46.2196517" lon="11.9958083"><ele>697.0</ele><time>2026-04-18T13:22:01.605Z</time></trkpt><trkpt lat="46.21953" lon="11.9957383"><ele>696.6666666666667</ele><time>2026-04-18T13:22:02.605Z</time></trkpt><trkpt lat="46.219415" lon="11.9955933"><ele>696.3333333333334</ele><time>2026-04-18T13:22:03.604Z</time></trkpt><trkpt lat="46.2192867" lon="11.9954117"><ele>696.0</ele><time>2026-04-18T13:22:04.604Z</time></trkpt><trkpt lat="46.2191467" lon="11.9952"><ele>694.3333333333334</ele><time>2026-04-18T13:22:05.605Z</time></trkpt><trkpt lat="46.2190033" lon="11.9950017"><ele>692.6666666666667</ele><time>2026-04-18T13:22:06.605Z</time></trkpt><trkpt lat="46.2188817" lon="11.9948467"><ele>691.0</ele><time>2026-04-18T13:22:07.604Z</time></trkpt><trkpt lat="46.2188033" lon="11.99467"><ele>690.0</ele><time>2026-04-18T13:22:08.604Z</time></trkpt><trkpt lat="46.2187217" lon="11.9944617"><ele>689.0</ele><time>2026-04-18T13:22:09.604Z</time></trkpt><trkpt lat="46.2186617" lon="11.9942283"><ele>688.0</ele><time>2026-04-18T13:22:10.605Z</time></trkpt><trkpt lat="46.2186117" lon="11.99398"><ele>686.2</ele><time>2026-04-18T13:22:11.604Z</time></trkpt><trkpt lat="46.2185667" lon="11.9937767"><ele>684.4</ele><time>2026-04-18T13:22:12.604Z</time></trkpt><trkpt lat="46.2185267" lon="11.993615"><ele>682.6</ele><time>2026-04-18T13:22:13.604Z</time></trkpt><trkpt lat="46.2185" lon="11.9935067"><ele>680.8000000000001</ele><time>2026-04-18T13:22:14.604Z</time></trkpt><trkpt lat="46.2184567" lon="11.993435"><ele>679.0</ele><time>2026-04-18T13:22:15.604Z</time></trkpt><trkpt lat="46.2183383" lon="11.993495"><ele>679.0</ele><time>2026-04-18T13:22:17.605Z</time></trkpt><trkpt lat="46.218265" lon="11.9936067"><ele>679.0</ele><time>2026-04-18T13:22:18.604Z</time></trkpt><trkpt lat="46.218165" lon="11.99377"><ele>679.0</ele><time>2026-04-18T13:22:19.604Z</time></trkpt><trkpt lat="46.21806" lon="11.99395"><ele>679.0</ele><time>2026-04-18T13:22:20.604Z</time></trkpt><trkpt lat="46.2179567" lon="11.9941033"><ele>684.75</ele><time>2026-04-18T13:22:21.604Z</time></trkpt><trkpt lat="46.2178483" lon="11.994235"><ele>690.5</ele><time>2026-04-18T13:22:22.604Z</time></trkpt><trkpt lat="46.21774" lon="11.9943117"><ele>696.25</ele><time>2026-04-18T13:22:23.604Z</time></trkpt><trkpt lat="46.217625" lon="11.9943217"><ele>702.0</ele><time>2026-04-18T13:22:24.604Z</time></trkpt><trkpt lat="46.2174817" lon="11.9942717"><ele>695.3333333333334</ele><time>2026-04-18T13:22:25.605Z</time></trkpt><trkpt lat="46.2173183" lon="11.994165"><ele>688.6666666666667</ele><time>2026-04-18T13:22:26.605Z</time></trkpt><trkpt lat="46.2171567" lon="11.9940167"><ele>682.0</ele><time>2026-04-18T13:22:27.605Z</time></trkpt><trkpt lat="46.2170167" lon="11.993855"><ele>682.0</ele><time>2026-04-18T13:22:28.604Z</time></trkpt><trkpt lat="46.21689" lon="11.9937"><ele>682.0</ele><time>2026-04-18T13:22:29.604Z</time></trkpt><trkpt lat="46.2167567" lon="11.9935667"><ele>682.0</ele><time>2026-04-18T13:22:30.604Z</time></trkpt><trkpt lat="46.216585" lon="11.9934667"><ele>676.3333333333334</ele><time>2026-04-18T13:22:31.604Z</time></trkpt><trkpt lat="46.21637" lon="11.99337"><ele>670.6666666666666</ele><time>2026-04-18T13:22:32.605Z</time></trkpt><trkpt lat="46.216165" lon="11.9932617"><ele>665.0</ele><time>2026-04-18T13:22:33.604Z</time></trkpt><trkpt lat="46.2159733" lon="11.9931667"><ele>665.0</ele><time>2026-04-18T13:22:34.604Z</time></trkpt><trkpt lat="46.2157917" lon="11.9930733"><ele>665.0</ele><time>2026-04-18T13:22:35.604Z</time></trkpt><trkpt lat="46.215625" lon="11.992985"><ele>665.0</ele><time>2026-04-18T13:22:36.604Z</time></trkpt><trkpt lat="46.2154617" lon="11.9928933"><ele>669.6666666666666</ele><time>2026-04-18T13:22:37.604Z</time></trkpt><trkpt lat="46.215285" lon="11.9927717"><ele>674.3333333333334</ele><time>2026-04-18T13:22:38.604Z</time></trkpt><trkpt lat="46.21511" lon="11.9926117"><ele>679.0</ele><time>2026-04-18T13:22:39.605Z</time></trkpt><trkpt lat="46.2149433" lon="11.9923883"><ele>672.3333333333334</ele><time>2026-04-18T13:22:40.605Z</time></trkpt><trkpt lat="46.2147933" lon="11.992155"><ele>665.6666666666666</ele><time>2026-04-18T13:22:41.604Z</time></trkpt><trkpt lat="46.2146433" lon="11.9919067"><ele>659.0</ele><time>2026-04-18T13:22:42.604Z</time></trkpt><trkpt lat="46.2144967" lon="11.9916733"><ele>652.3333333333333</ele><time>2026-04-18T13:22:43.605Z</time></trkpt><trkpt lat="46.2143733" lon="11.9914683"><ele>645.6666666666666</ele><time>2026-04-18T13:22:44.604Z</time></trkpt><trkpt lat="46.214255" lon="11.9912733"><ele>639.0</ele><time>2026-04-18T13:22:45.604Z</time></trkpt><trkpt lat="46.2141567" lon="11.9910833"><ele>639.0</ele><time>2026-04-18T13:22:46.604Z</time></trkpt><trkpt lat="46.214055" lon="11.9908967"><ele>639.0</ele><time>2026-04-18T13:22:47.605Z</time></trkpt><trkpt lat="46.213965" lon="11.9907333"><ele>639.0</ele><time>2026-04-18T13:22:48.604Z</time></trkpt><trkpt lat="46.2138533" lon="11.9905833"><ele>638.0</ele><time>2026-04-18T13:22:49.604Z</time></trkpt><trkpt lat="46.2137367" lon="11.9904433"><ele>637.0</ele><time>2026-04-18T13:22:50.605Z</time></trkpt><trkpt lat="46.2136117" lon="11.9902867"><ele>636.0</ele><time>2026-04-18T13:22:51.604Z</time></trkpt><trkpt lat="46.213485" lon="11.99013"><ele>635.3333333333334</ele><time>2026-04-18T13:22:52.604Z</time></trkpt><trkpt lat="46.2133567" lon="11.9899933"><ele>634.6666666666667</ele><time>2026-04-18T13:22:53.604Z</time></trkpt><trkpt lat="46.2132317" lon="11.9898617"><ele>634.0</ele><time>2026-04-18T13:22:54.604Z</time></trkpt><trkpt lat="46.21312" lon="11.989735"><ele>634.0</ele><time>2026-04-18T13:22:55.604Z</time></trkpt><trkpt lat="46.2130117" lon="11.989615"><ele>634.0</ele><time>2026-04-18T13:22:56.604Z</time></trkpt><trkpt lat="46.2129" lon="11.989495"><ele>634.0</ele><time>2026-04-18T13:22:57.604Z</time></trkpt><trkpt lat="46.2127867" lon="11.9893817"><ele>634.0</ele><time>2026-04-18T13:22:58.604Z</time></trkpt><trkpt lat="46.212675" lon="11.9892717"><ele>626.3333333333334</ele><time>2026-04-18T13:22:59.604Z</time></trkpt><trkpt lat="46.2125567" lon="11.9891517"><ele>618.6666666666666</ele><time>2026-04-18T13:23:00.604Z</time></trkpt><trkpt lat="46.212415" lon="11.9890483"><ele>611.0</ele><time>2026-04-18T13:23:01.604Z</time></trkpt><trkpt lat="46.212275" lon="11.9889667"><ele>610.5</ele><time>2026-04-18T13:23:02.604Z</time></trkpt><trkpt lat="46.212135" lon="11.9889167"><ele>610.0</ele><time>2026-04-18T13:23:03.605Z</time></trkpt><trkpt lat="46.2119983" lon="11.9889183"><ele>609.5</ele><time>2026-04-18T13:23:04.605Z</time></trkpt><trkpt lat="46.211875" lon="11.988935"><ele>609.0</ele><time>2026-04-18T13:23:05.604Z</time></trkpt><trkpt lat="46.21174" lon="11.9889933"><ele>609.0</ele><time>2026-04-18T13:23:06.604Z</time></trkpt><trkpt lat="46.2116033" lon="11.9890633"><ele>609.0</ele><time>2026-04-18T13:23:07.604Z</time></trkpt><trkpt lat="46.2114833" lon="11.9891283"><ele>609.0</ele><time>2026-04-18T13:23:08.604Z</time></trkpt><trkpt lat="46.2113817" lon="11.989165"><ele>609.0</ele><time>2026-04-18T13:23:09.604Z</time></trkpt><trkpt lat="46.211275" lon="11.9891867"><ele>612.8</ele><time>2026-04-18T13:23:10.604Z</time></trkpt><trkpt lat="46.21116" lon="11.9892"><ele>616.5999999999999</ele><time>2026-04-18T13:23:11.604Z</time></trkpt><trkpt lat="46.2110467" lon="11.98921"><ele>620.4</ele><time>2026-04-18T13:23:12.605Z</time></trkpt><trkpt lat="46.210945" lon="11.989215"><ele>624.1999999999999</ele><time>2026-04-18T13:23:13.604Z</time></trkpt><trkpt lat="46.2108467" lon="11.989235"><ele>628.0</ele><time>2026-04-18T13:23:14.604Z</time></trkpt><trkpt lat="46.2107517" lon="11.9892767"><ele>620.5</ele><time>2026-04-18T13:23:15.604Z</time></trkpt><trkpt lat="46.2106517" lon="11.9893317"><ele>613.0</ele><time>2026-04-18T13:23:16.604Z</time></trkpt><trkpt lat="46.2105433" lon="11.98941"><ele>605.5</ele><time>2026-04-18T13:23:17.604Z</time></trkpt><trkpt lat="46.2104467" lon="11.9895367"><ele>598.0</ele><time>2026-04-18T13:23:18.605Z</time></trkpt><trkpt lat="46.2103583" lon="11.9897033"><ele>598.0</ele><time>2026-04-18T13:23:19.604Z</time></trkpt><trkpt lat="46.2102667" lon="11.9898683"><ele>598.0</ele><time>2026-04-18T13:23:20.604Z</time></trkpt><trkpt lat="46.2101567" lon="11.9900217"><ele>598.0</ele><time>2026-04-18T13:23:21.604Z</time></trkpt><trkpt lat="46.21003" lon="11.9901567"><ele>600.0</ele><time>2026-04-18T13:23:22.604Z</time></trkpt><trkpt lat="46.2098833" lon="11.9902567"><ele>602.0</ele><time>2026-04-18T13:23:23.605Z</time></trkpt><trkpt lat="46.2097133" lon="11.9903283"><ele>604.0</ele><time>2026-04-18T13:23:24.604Z</time></trkpt><trkpt lat="46.2095283" lon="11.990385"><ele>604.0</ele><time>2026-04-18T13:23:25.604Z</time></trkpt><trkpt lat="46.2093517" lon="11.99042"><ele>604.0</ele><time>2026-04-18T13:23:26.604Z</time></trkpt><trkpt lat="46.2092017" lon="11.9904417"><ele>604.0</ele><time>2026-04-18T13:23:27.604Z</time></trkpt><trkpt lat="46.209075" lon="11.9904783"><ele>600.5</ele><time>2026-04-18T13:23:28.604Z</time></trkpt><trkpt lat="46.20895" lon="11.9905567"><ele>597.0</ele><time>2026-04-18T13:23:29.604Z</time></trkpt><trkpt lat="46.2088183" lon="11.990665"><ele>593.5</ele><time>2026-04-18T13:23:30.604Z</time></trkpt><trkpt lat="46.2086933" lon="11.9908067"><ele>590.0</ele><time>2026-04-18T13:23:31.604Z</time></trkpt><trkpt lat="46.2085767" lon="11.9909583"><ele>590.0</ele><time>2026-04-18T13:23:32.604Z</time></trkpt><trkpt lat="46.20846" lon="11.9910933"><ele>590.0</ele><time>2026-04-18T13:23:33.604Z</time></trkpt><trkpt lat="46.2083683" lon="11.9912483"><ele>590.0</ele><time>2026-04-18T13:23:34.605Z</time></trkpt><trkpt lat="46.2082583" lon="11.9913733"><ele>590.0</ele><time>2026-04-18T13:23:35.604Z</time></trkpt><trkpt lat="46.2081583" lon="11.991485"><ele>589.4</ele><time>2026-04-18T13:23:36.605Z</time></trkpt><trkpt lat="46.2080783" lon="11.9915833"><ele>588.8</ele><time>2026-04-18T13:23:37.605Z</time></trkpt><trkpt lat="46.2080033" lon="11.9916733"><ele>588.2</ele><time>2026-04-18T13:23:38.605Z</time></trkpt><trkpt lat="46.20794" lon="11.991755"><ele>587.6</ele><time>2026-04-18T13:23:39.604Z</time></trkpt><trkpt lat="46.2078733" lon="11.9918333"><ele>587.0</ele><time>2026-04-18T13:23:40.605Z</time></trkpt><trkpt lat="46.2078" lon="11.9919133"><ele>588.8000000000001</ele><time>2026-04-18T13:23:41.604Z</time></trkpt><trkpt lat="46.20773" lon="11.991995"><ele>590.6</ele><time>2026-04-18T13:23:42.604Z</time></trkpt><trkpt lat="46.20766" lon="11.992075"><ele>592.4000000000001</ele><time>2026-04-18T13:23:43.604Z</time></trkpt><trkpt lat="46.20759" lon="11.9921567"><ele>594.2</ele><time>2026-04-18T13:23:44.604Z</time></trkpt><trkpt lat="46.2075067" lon="11.99231"><ele>596.0</ele><time>2026-04-18T13:23:46.604Z</time></trkpt><trkpt lat="46.2074517" lon="11.9923867"><ele>596.0</ele><time>2026-04-18T13:23:47.605Z</time></trkpt><trkpt lat="46.2073967" lon="11.992465"><ele>596.0</ele><time>2026-04-18T13:23:48.604Z</time></trkpt><trkpt lat="46.2073433" lon="11.9925383"><ele>596.0</ele><time>2026-04-18T13:23:49.605Z</time></trkpt><trkpt lat="46.2072883" lon="11.9926117"><ele>596.0</ele><time>2026-04-18T13:23:50.605Z</time></trkpt><trkpt lat="46.2072333" lon="11.9926833"><ele>596.0</ele><time>2026-04-18T13:23:51.604Z</time></trkpt><trkpt lat="46.20708" lon="11.99288"><ele>595.0</ele><time>2026-04-18T13:23:54.608Z</time></trkpt><trkpt lat="46.2069" lon="11.992645"><ele>594.0</ele><time>2026-04-18T13:23:56.608Z</time></trkpt><trkpt lat="46.2066883" lon="11.9925067"><ele>594.0</ele><time>2026-04-18T13:23:57.608Z</time></trkpt><trkpt lat="46.2065383" lon="11.992485"><ele>594.0</ele><time>2026-04-18T13:23:58.608Z</time></trkpt><trkpt lat="46.20663" lon="11.9926717"><ele>594.0</ele><time>2026-04-18T13:23:59.608Z</time></trkpt><trkpt lat="46.206675" lon="11.992885"><ele>594.0</ele><time>2026-04-18T13:24:00.608Z</time></trkpt><trkpt lat="46.2066867" lon="11.9931033"><ele>594.0</ele><time>2026-04-18T13:24:01.608Z</time></trkpt><trkpt lat="46.2067183" lon="11.99336"><ele>594.0</ele><time>2026-04-18T13:24:02.608Z</time></trkpt><trkpt lat="46.2067267" lon="11.9935617"><ele>593.0</ele><time>2026-04-18T13:24:03.609Z</time></trkpt><trkpt lat="46.2066817" lon="11.9936983"><ele>592.0</ele><time>2026-04-18T13:24:04.609Z</time></trkpt><trkpt lat="46.2066433" lon="11.993825"><ele>591.0</ele><time>2026-04-18T13:24:05.609Z</time></trkpt><trkpt lat="46.2066317" lon="11.9939733"><ele>590.0</ele><time>2026-04-18T13:24:06.608Z</time></trkpt><trkpt lat="46.2066367" lon="11.9941417"><ele>589.0</ele><time>2026-04-18T13:24:07.608Z</time></trkpt><trkpt lat="46.2066417" lon="11.9943467"><ele>589.0</ele><time>2026-04-18T13:24:08.608Z</time></trkpt><trkpt lat="46.2066333" lon="11.9945767"><ele>589.0</ele><time>2026-04-18T13:24:09.608Z</time></trkpt><trkpt lat="46.2066117" lon="11.9948083"><ele>589.0</ele><time>2026-04-18T13:24:10.608Z</time></trkpt><trkpt lat="46.2065767" lon="11.9950067"><ele>589.2</ele><time>2026-04-18T13:24:11.608Z</time></trkpt><trkpt lat="46.2065383" lon="11.9951967"><ele>589.4</ele><time>2026-04-18T13:24:12.608Z</time></trkpt><trkpt lat="46.2065067" lon="11.9953583"><ele>589.6</ele><time>2026-04-18T13:24:13.609Z</time></trkpt><trkpt lat="46.20647" lon="11.995495"><ele>589.8</ele><time>2026-04-18T13:24:14.608Z</time></trkpt><trkpt lat="46.20643" lon="11.9956167"><ele>590.0</ele><time>2026-04-18T13:24:15.608Z</time></trkpt><trkpt lat="46.2064233" lon="11.9957333"><ele>588.5</ele><time>2026-04-18T13:24:16.608Z</time></trkpt><trkpt lat="46.2064333" lon="11.9958383"><ele>587.0</ele><time>2026-04-18T13:24:17.608Z</time></trkpt><trkpt lat="46.2064533" lon="11.995945"><ele>585.5</ele><time>2026-04-18T13:24:18.608Z</time></trkpt><trkpt lat="46.2064983" lon="11.996045"><ele>584.0</ele><time>2026-04-18T13:24:19.609Z</time></trkpt><trkpt lat="46.206535" lon="11.9961533"><ele>582.5</ele><time>2026-04-18T13:24:20.609Z</time></trkpt><trkpt lat="46.2065833" lon="11.996245"><ele>581.0</ele><time>2026-04-18T13:24:21.609Z</time></trkpt><trkpt lat="46.2066217" lon="11.9963267"><ele>581.0</ele><time>2026-04-18T13:24:22.608Z</time></trkpt><trkpt lat="46.2066633" lon="11.9964083"><ele>581.0</ele><time>2026-04-18T13:24:23.608Z</time></trkpt><trkpt lat="46.2067133" lon="11.9964867"><ele>581.0</ele><time>2026-04-18T13:24:24.608Z</time></trkpt><trkpt lat="46.2067533" lon="11.996565"><ele>581.0</ele><time>2026-04-18T13:24:25.608Z</time></trkpt><trkpt lat="46.2068067" lon="11.9966383"><ele>581.0</ele><time>2026-04-18T13:24:26.608Z</time></trkpt><trkpt lat="46.206965" lon="11.9966233"><ele>581.0</ele><time>2026-04-18T13:24:27.609Z</time></trkpt><trkpt lat="46.2071883" lon="11.9967267"><ele>581.0</ele><time>2026-04-18T13:24:28.608Z</time></trkpt><trkpt lat="46.2073417" lon="11.9968633"><ele>581.0</ele><time>2026-04-18T13:24:29.608Z</time></trkpt><trkpt lat="46.2074683" lon="11.9970233"><ele>581.0</ele><time>2026-04-18T13:24:30.608Z</time></trkpt><trkpt lat="46.2075633" lon="11.9972083"><ele>581.0</ele><time>2026-04-18T13:24:31.608Z</time></trkpt><trkpt lat="46.2076567" lon="11.997425"><ele>581.0</ele><time>2026-04-18T13:24:32.608Z</time></trkpt><trkpt lat="46.2076983" lon="11.9977383"><ele>581.0</ele><time>2026-04-18T13:24:33.608Z</time></trkpt><trkpt lat="46.2077467" lon="11.9980067"><ele>574.6666666666666</ele><time>2026-04-18T13:24:34.608Z</time></trkpt><trkpt lat="46.20776" lon="11.998325"><ele>568.3333333333334</ele><time>2026-04-18T13:24:35.609Z</time></trkpt><trkpt lat="46.2077517" lon="11.9986033"><ele>562.0</ele><time>2026-04-18T13:24:36.608Z</time></trkpt><trkpt lat="46.2076833" lon="11.9987883"><ele>562.0</ele><time>2026-04-18T13:24:37.608Z</time></trkpt><trkpt lat="46.2075883" lon="11.9989733"><ele>562.0</ele><time>2026-04-18T13:24:38.608Z</time></trkpt><trkpt lat="46.2074717" lon="11.999155"><ele>562.0</ele><time>2026-04-18T13:24:39.608Z</time></trkpt><trkpt lat="46.2072983" lon="11.99928"><ele>555.6666666666667</ele><time>2026-04-18T13:24:40.608Z</time></trkpt><trkpt lat="46.207135" lon="11.9993983"><ele>549.3333333333334</ele><time>2026-04-18T13:24:41.608Z</time></trkpt><trkpt lat="46.2069917" lon="11.9995117"><ele>543.0</ele><time>2026-04-18T13:24:42.609Z</time></trkpt><trkpt lat="46.2068783" lon="11.99961"><ele>543.0</ele><time>2026-04-18T13:24:43.608Z</time></trkpt><trkpt lat="46.20678" lon="11.99972"><ele>543.0</ele><time>2026-04-18T13:24:44.608Z</time></trkpt><trkpt lat="46.2066883" lon="11.9998433"><ele>543.0</ele><time>2026-04-18T13:24:45.608Z</time></trkpt><trkpt lat="46.20665" lon="12.0000367"><ele>543.0</ele><time>2026-04-18T13:24:46.608Z</time></trkpt><trkpt lat="46.20667" lon="12.00028"><ele>543.0</ele><time>2026-04-18T13:24:47.609Z</time></trkpt><trkpt lat="46.2067" lon="12.00051"><ele>543.0</ele><time>2026-04-18T13:24:48.608Z</time></trkpt><trkpt lat="46.2067067" lon="12.00071"><ele>543.0</ele><time>2026-04-18T13:24:49.608Z</time></trkpt><trkpt lat="46.206695" lon="12.0008933"><ele>543.0</ele><time>2026-04-18T13:24:50.608Z</time></trkpt><trkpt lat="46.206655" lon="12.0010717"><ele>544.0</ele><time>2026-04-18T13:24:51.608Z</time></trkpt><trkpt lat="46.206585" lon="12.001215"><ele>545.0</ele><time>2026-04-18T13:24:52.609Z</time></trkpt><trkpt lat="46.206495" lon="12.001305"><ele>546.0</ele><time>2026-04-18T13:24:53.608Z</time></trkpt><trkpt lat="46.206395" lon="12.0013633"><ele>547.0</ele><time>2026-04-18T13:24:54.608Z</time></trkpt><trkpt lat="46.2062817" lon="12.00137"><ele>544.8333333333334</ele><time>2026-04-18T13:24:55.608Z</time></trkpt><trkpt lat="46.2061817" lon="12.00135"><ele>542.6666666666667</ele><time>2026-04-18T13:24:56.608Z</time></trkpt><trkpt lat="46.2061" lon="12.0013467"><ele>540.5</ele><time>2026-04-18T13:24:57.608Z</time></trkpt><trkpt lat="46.2060283" lon="12.00139"><ele>538.3333333333334</ele><time>2026-04-18T13:24:58.608Z</time></trkpt><trkpt lat="46.2059733" lon="12.0014767"><ele>536.1666666666666</ele><time>2026-04-18T13:24:59.608Z</time></trkpt><trkpt lat="46.20598" lon="12.0016317"><ele>534.0</ele><time>2026-04-18T13:25:00.609Z</time></trkpt><trkpt lat="46.2060017" lon="12.00183"><ele>534.0</ele><time>2026-04-18T13:25:01.608Z</time></trkpt><trkpt lat="46.206045" lon="12.002095"><ele>534.0</ele><time>2026-04-18T13:25:02.608Z</time></trkpt><trkpt lat="46.2060733" lon="12.0024233"><ele>534.0</ele><time>2026-04-18T13:25:03.609Z</time></trkpt><trkpt lat="46.20607" lon="12.002755"><ele>532.0</ele><time>2026-04-18T13:25:04.608Z</time></trkpt><trkpt lat="46.206065" lon="12.003115"><ele>530.0</ele><time>2026-04-18T13:25:05.608Z</time></trkpt><trkpt lat="46.20604" lon="12.0034883"><ele>527.5</ele><time>2026-04-18T13:25:06.609Z</time></trkpt><trkpt lat="46.2060233" lon="12.0038583"><ele>525.0</ele><time>2026-04-18T13:25:07.608Z</time></trkpt><trkpt lat="46.2060083" lon="12.0041917"><ele>525.0</ele><time>2026-04-18T13:25:08.608Z</time></trkpt><trkpt lat="46.20597" lon="12.0045317"><ele>525.0</ele><time>2026-04-18T13:25:09.608Z</time></trkpt><trkpt lat="46.2059367" lon="12.00484"><ele>521.6666666666666</ele><time>2026-04-18T13:25:10.609Z</time></trkpt><trkpt lat="46.205885" lon="12.00511"><ele>518.3333333333333</ele><time>2026-04-18T13:25:11.608Z</time></trkpt><trkpt lat="46.2058117" lon="12.0054017"><ele>515.0</ele><time>2026-04-18T13:25:12.609Z</time></trkpt><trkpt lat="46.205725" lon="12.0057117"><ele>515.0</ele><time>2026-04-18T13:25:13.608Z</time></trkpt><trkpt lat="46.2056283" lon="12.0060317"><ele>515.0</ele><time>2026-04-18T13:25:14.609Z</time></trkpt><trkpt lat="46.2055367" lon="12.0063583"><ele>515.0</ele><time>2026-04-18T13:25:15.608Z</time></trkpt><trkpt lat="46.20545" lon="12.0066633"><ele>515.0</ele><time>2026-04-18T13:25:16.609Z</time></trkpt><trkpt lat="46.20536" lon="12.00696"><ele>515.0</ele><time>2026-04-18T13:25:17.608Z</time></trkpt><trkpt lat="46.20528" lon="12.0072367"><ele>515.0</ele><time>2026-04-18T13:25:18.609Z</time></trkpt><trkpt lat="46.205205" lon="12.0074917"><ele>515.0</ele><time>2026-04-18T13:25:19.609Z</time></trkpt><trkpt lat="46.2051233" lon="12.0077217"><ele>515.0</ele><time>2026-04-18T13:25:20.608Z</time></trkpt><trkpt lat="46.2050533" lon="12.007945"><ele>515.0</ele><time>2026-04-18T13:25:21.608Z</time></trkpt><trkpt lat="46.2049783" lon="12.0081617"><ele>515.0</ele><time>2026-04-18T13:25:22.608Z</time></trkpt><trkpt lat="46.204905" lon="12.0083717"><ele>515.0</ele><time>2026-04-18T13:25:23.608Z</time></trkpt><trkpt lat="46.20485" lon="12.00858"><ele>515.0</ele><time>2026-04-18T13:25:24.609Z</time></trkpt><trkpt lat="46.2048117" lon="12.0087883"><ele>515.0</ele><time>2026-04-18T13:25:25.608Z</time></trkpt><trkpt lat="46.2047967" lon="12.00899"><ele>515.0</ele><time>2026-04-18T13:25:26.608Z</time></trkpt><trkpt lat="46.2048" lon="12.0091967"><ele>515.0</ele><time>2026-04-18T13:25:27.608Z</time></trkpt><trkpt lat="46.2048267" lon="12.009415"><ele>515.0</ele><time>2026-04-18T13:25:28.608Z</time></trkpt><trkpt lat="46.2049017" lon="12.009635"><ele>515.0</ele><time>2026-04-18T13:25:29.608Z</time></trkpt><trkpt lat="46.2049883" lon="12.009835"><ele>515.0</ele><time>2026-04-18T13:25:30.608Z</time></trkpt><trkpt lat="46.2050717" lon="12.0100217"><ele>515.0</ele><time>2026-04-18T13:25:31.609Z</time></trkpt><trkpt lat="46.20513" lon="12.01021"><ele>515.0</ele><time>2026-04-18T13:25:32.608Z</time></trkpt><trkpt lat="46.205165" lon="12.0104067"><ele>515.0</ele><time>2026-04-18T13:25:33.608Z</time></trkpt><trkpt lat="46.20519" lon="12.0106183"><ele>515.0</ele><time>2026-04-18T13:25:34.609Z</time></trkpt><trkpt lat="46.2051833" lon="12.0108417"><ele>515.0</ele><time>2026-04-18T13:25:35.609Z</time></trkpt><trkpt lat="46.205115" lon="12.0111067"><ele>515.0</ele><time>2026-04-18T13:25:36.608Z</time></trkpt><trkpt lat="46.20498" lon="12.0113617"><ele>515.0</ele><time>2026-04-18T13:25:37.608Z</time></trkpt><trkpt lat="46.20489" lon="12.0115917"><ele>515.0</ele><time>2026-04-18T13:25:38.608Z</time></trkpt><trkpt lat="46.2048067" lon="12.0118233"><ele>515.0</ele><time>2026-04-18T13:25:39.608Z</time></trkpt><trkpt lat="46.2047617" lon="12.01209"><ele>515.0</ele><time>2026-04-18T13:25:40.608Z</time></trkpt><trkpt lat="46.204725" lon="12.0123633"><ele>515.0</ele><time>2026-04-18T13:25:41.608Z</time></trkpt><trkpt lat="46.20471" lon="12.0126667"><ele>515.0</ele><time>2026-04-18T13:25:42.609Z</time></trkpt><trkpt lat="46.2047033" lon="12.013"><ele>515.0</ele><time>2026-04-18T13:25:43.608Z</time></trkpt><trkpt lat="46.2046883" lon="12.0133183"><ele>515.0</ele><time>2026-04-18T13:25:44.608Z</time></trkpt><trkpt lat="46.2046717" lon="12.013625"><ele>515.0</ele><time>2026-04-18T13:25:45.608Z</time></trkpt><trkpt lat="46.2046583" lon="12.0139117"><ele>515.0</ele><time>2026-04-18T13:25:46.608Z</time></trkpt><trkpt lat="46.204665" lon="12.0141867"><ele>515.0</ele><time>2026-04-18T13:25:47.608Z</time></trkpt><trkpt lat="46.2046733" lon="12.0144533"><ele>515.0</ele><time>2026-04-18T13:25:48.608Z</time></trkpt><trkpt lat="46.2046867" lon="12.0146983"><ele>515.0</ele><time>2026-04-18T13:25:49.608Z</time></trkpt><trkpt lat="46.2046917" lon="12.0149233"><ele>515.0</ele><time>2026-04-18T13:25:50.608Z</time></trkpt><trkpt lat="46.2046783" lon="12.0151533"><ele>515.0</ele><time>2026-04-18T13:25:51.608Z</time></trkpt><trkpt lat="46.2046333" lon="12.01537"><ele>515.0</ele><time>2026-04-18T13:25:52.608Z</time></trkpt><trkpt lat="46.20456" lon="12.0155833"><ele>515.0</ele><time>2026-04-18T13:25:53.608Z</time></trkpt><trkpt lat="46.2044417" lon="12.0158117"><ele>515.0</ele><time>2026-04-18T13:25:54.608Z</time></trkpt><trkpt lat="46.20431" lon="12.01605"><ele>515.0</ele><time>2026-04-18T13:25:55.609Z</time></trkpt><trkpt lat="46.2042017" lon="12.0162917"><ele>515.0</ele><time>2026-04-18T13:25:56.608Z</time></trkpt><trkpt lat="46.2041067" lon="12.0165217"><ele>515.0</ele><time>2026-04-18T13:25:57.608Z</time></trkpt><trkpt lat="46.2040233" lon="12.01672"><ele>515.0</ele><time>2026-04-18T13:25:58.609Z</time></trkpt><trkpt lat="46.2039617" lon="12.0169"><ele>515.0</ele><time>2026-04-18T13:25:59.608Z</time></trkpt><trkpt lat="46.2039183" lon="12.0170683"><ele>515.0</ele><time>2026-04-18T13:26:00.608Z</time></trkpt><trkpt lat="46.2038967" lon="12.0172333"><ele>515.0</ele><time>2026-04-18T13:26:01.608Z</time></trkpt><trkpt lat="46.2039133" lon="12.0173983"><ele>515.0</ele><time>2026-04-18T13:26:02.608Z</time></trkpt><trkpt lat="46.2039583" lon="12.0175617"><ele>515.0</ele><time>2026-04-18T13:26:03.608Z</time></trkpt><trkpt lat="46.2039967" lon="12.0177333"><ele>515.0</ele><time>2026-04-18T13:26:04.608Z</time></trkpt><trkpt lat="46.2040417" lon="12.0179333"><ele>515.0</ele><time>2026-04-18T13:26:05.608Z</time></trkpt><trkpt lat="46.2040617" lon="12.01815"><ele>515.0</ele><time>2026-04-18T13:26:06.609Z</time></trkpt><trkpt lat="46.204065" lon="12.0183967"><ele>515.0</ele><time>2026-04-18T13:26:07.608Z</time></trkpt><trkpt lat="46.20404" lon="12.0186533"><ele>515.0</ele><time>2026-04-18T13:26:08.608Z</time></trkpt><trkpt lat="46.203995" lon="12.01894"><ele>515.0</ele><time>2026-04-18T13:26:09.609Z</time></trkpt><trkpt lat="46.20396" lon="12.019215"><ele>515.0</ele><time>2026-04-18T13:26:10.608Z</time></trkpt><trkpt lat="46.203915" lon="12.01946"><ele>515.0</ele><time>2026-04-18T13:26:11.608Z</time></trkpt><trkpt lat="46.2038683" lon="12.019665"><ele>515.0</ele><time>2026-04-18T13:26:12.608Z</time></trkpt><trkpt lat="46.2038" lon="12.01983"><ele>515.0</ele><time>2026-04-18T13:26:13.608Z</time></trkpt><trkpt lat="46.2037117" lon="12.01999"><ele>515.0</ele><time>2026-04-18T13:26:14.609Z</time></trkpt><trkpt lat="46.20361" lon="12.0201267"><ele>515.0</ele><time>2026-04-18T13:26:15.609Z</time></trkpt><trkpt lat="46.2035133" lon="12.0202267"><ele>515.0</ele><time>2026-04-18T13:26:16.609Z</time></trkpt><trkpt lat="46.20343" lon="12.0203167"><ele>515.0</ele><time>2026-04-18T13:26:17.608Z</time></trkpt><trkpt lat="46.20336" lon="12.02043"><ele>515.0</ele><time>2026-04-18T13:26:18.608Z</time></trkpt><trkpt lat="46.203325" lon="12.0205333"><ele>515.0</ele><time>2026-04-18T13:26:19.608Z</time></trkpt><trkpt lat="46.2032833" lon="12.0206367"><ele>515.0</ele><time>2026-04-18T13:26:20.608Z</time></trkpt><trkpt lat="46.2032417" lon="12.0207417"><ele>515.0</ele><time>2026-04-18T13:26:21.608Z</time></trkpt><trkpt lat="46.2032" lon="12.02085"><ele>515.0</ele><time>2026-04-18T13:26:22.608Z</time></trkpt><trkpt lat="46.2031533" lon="12.02095"><ele>515.0</ele><time>2026-04-18T13:26:23.608Z</time></trkpt><trkpt lat="46.20311" lon="12.0210467"><ele>515.0</ele><time>2026-04-18T13:26:24.608Z</time></trkpt><trkpt lat="46.2030983" lon="12.0212233"><ele>515.0</ele><time>2026-04-18T13:26:26.608Z</time></trkpt><trkpt lat="46.2031583" lon="12.0214917"><ele>515.0</ele><time>2026-04-18T13:26:27.608Z</time></trkpt><trkpt lat="46.203115" lon="12.02164"><ele>515.0</ele><time>2026-04-18T13:26:28.609Z</time></trkpt><trkpt lat="46.2030983" lon="12.0218533"><ele>515.0</ele><time>2026-04-18T13:26:29.609Z</time></trkpt><trkpt lat="46.203055" lon="12.0219783"><ele>515.0</ele><time>2026-04-18T13:26:30.609Z</time></trkpt><trkpt lat="46.20301" lon="12.0220717"><ele>515.0</ele><time>2026-04-18T13:26:31.608Z</time></trkpt><trkpt lat="46.202955" lon="12.0221667"><ele>515.0</ele><time>2026-04-18T13:26:32.608Z</time></trkpt><trkpt lat="46.2028867" lon="12.0222367"><ele>515.0</ele><time>2026-04-18T13:26:33.609Z</time></trkpt><trkpt lat="46.2029617" lon="12.0225533"><ele>515.0</ele><time>2026-04-18T13:26:34.609Z</time></trkpt><trkpt lat="46.2030083" lon="12.0229017"><ele>547.0</ele><time>2026-04-18T13:26:35.609Z</time></trkpt><trkpt lat="46.203135" lon="12.0234467"><ele>579.0</ele><time>2026-04-18T13:26:36.608Z</time></trkpt><trkpt lat="46.2031167" lon="12.0237367"><ele>579.0</ele><time>2026-04-18T13:26:37.609Z</time></trkpt><trkpt lat="46.2030917" lon="12.0239917"><ele>579.0</ele><time>2026-04-18T13:26:38.608Z</time></trkpt><trkpt lat="46.20304" lon="12.0242467"><ele>579.0</ele><time>2026-04-18T13:26:39.608Z</time></trkpt><trkpt lat="46.202975" lon="12.0245333"><ele>557.3333333333334</ele><time>2026-04-18T13:26:40.608Z</time></trkpt><trkpt lat="46.202875" lon="12.02481"><ele>535.6666666666667</ele><time>2026-04-18T13:26:41.608Z</time></trkpt><trkpt lat="46.202795" lon="12.0250667"><ele>514.0</ele><time>2026-04-18T13:26:42.608Z</time></trkpt><trkpt lat="46.2027183" lon="12.0253083"><ele>505.0</ele><time>2026-04-18T13:26:43.608Z</time></trkpt><trkpt lat="46.2026533" lon="12.0255133"><ele>496.0</ele><time>2026-04-18T13:26:44.608Z</time></trkpt><trkpt lat="46.2026067" lon="12.0257067"><ele>487.0</ele><time>2026-04-18T13:26:45.608Z</time></trkpt><trkpt lat="46.20258" lon="12.0258883"><ele>478.0</ele><time>2026-04-18T13:26:46.608Z</time></trkpt><trkpt lat="46.2025633" lon="12.0260817"><ele>477.25</ele><time>2026-04-18T13:26:47.608Z</time></trkpt><trkpt lat="46.2025483" lon="12.0262583"><ele>476.5</ele><time>2026-04-18T13:26:48.609Z</time></trkpt><trkpt lat="46.2025333" lon="12.026425"><ele>475.75</ele><time>2026-04-18T13:26:49.608Z</time></trkpt><trkpt lat="46.2024883" lon="12.026595"><ele>475.0</ele><time>2026-04-18T13:26:50.608Z</time></trkpt><trkpt lat="46.2024233" lon="12.0267817"><ele>478.33333333333337</ele><time>2026-04-18T13:26:51.609Z</time></trkpt><trkpt lat="46.2022917" lon="12.0269533"><ele>481.66666666666663</ele><time>2026-04-18T13:26:52.608Z</time></trkpt><trkpt lat="46.2021467" lon="12.0271533"><ele>485.0</ele><time>2026-04-18T13:26:53.608Z</time></trkpt><trkpt lat="46.201965" lon="12.02736"><ele>483.66666666666663</ele><time>2026-04-18T13:26:54.608Z</time></trkpt><trkpt lat="46.2017967" lon="12.0275683"><ele>482.33333333333337</ele><time>2026-04-18T13:26:55.609Z</time></trkpt><trkpt lat="46.201625" lon="12.0277617"><ele>481.0</ele><time>2026-04-18T13:26:56.608Z</time></trkpt><trkpt lat="46.2014767" lon="12.0279667"><ele>478.33333333333337</ele><time>2026-04-18T13:26:57.608Z</time></trkpt><trkpt lat="46.2013167" lon="12.0281633"><ele>475.66666666666663</ele><time>2026-04-18T13:26:58.608Z</time></trkpt><trkpt lat="46.2011617" lon="12.02834"><ele>473.0</ele><time>2026-04-18T13:26:59.609Z</time></trkpt><trkpt lat="46.2010183" lon="12.0285"><ele>473.0</ele><time>2026-04-18T13:27:00.608Z</time></trkpt><trkpt lat="46.20091" lon="12.0286433"><ele>473.0</ele><time>2026-04-18T13:27:01.608Z</time></trkpt><trkpt lat="46.20082" lon="12.0287383"><ele>473.0</ele><time>2026-04-18T13:27:02.608Z</time></trkpt><trkpt lat="46.2007517" lon="12.0288583"><ele>473.0</ele><time>2026-04-18T13:27:03.608Z</time></trkpt><trkpt lat="46.2006967" lon="12.0290017"><ele>474.0</ele><time>2026-04-18T13:27:04.608Z</time></trkpt><trkpt lat="46.2007483" lon="12.0292317"><ele>475.0</ele><time>2026-04-18T13:27:05.608Z</time></trkpt><trkpt lat="46.2007933" lon="12.0294917"><ele>476.0</ele><time>2026-04-18T13:27:06.608Z</time></trkpt><trkpt lat="46.2008233" lon="12.0297417"><ele>476.5</ele><time>2026-04-18T13:27:07.608Z</time></trkpt><trkpt lat="46.2008567" lon="12.0299917"><ele>477.0</ele><time>2026-04-18T13:27:08.608Z</time></trkpt><trkpt lat="46.20086" lon="12.03016"><ele>477.5</ele><time>2026-04-18T13:27:09.608Z</time></trkpt><trkpt lat="46.2008483" lon="12.0303633"><ele>478.0</ele><time>2026-04-18T13:27:10.608Z</time></trkpt><trkpt lat="46.200815" lon="12.03057"><ele>478.0</ele><time>2026-04-18T13:27:11.608Z</time></trkpt><trkpt lat="46.20075" lon="12.0307817"><ele>478.0</ele><time>2026-04-18T13:27:12.608Z</time></trkpt><trkpt lat="46.2005967" lon="12.0310017"><ele>478.0</ele><time>2026-04-18T13:27:13.609Z</time></trkpt><trkpt lat="46.2003917" lon="12.03121"><ele>475.6666666666667</ele><time>2026-04-18T13:27:14.608Z</time></trkpt><trkpt lat="46.2002033" lon="12.03141"><ele>473.33333333333337</ele><time>2026-04-18T13:27:15.608Z</time></trkpt><trkpt lat="46.2000367" lon="12.03159"><ele>471.0</ele><time>2026-04-18T13:27:16.608Z</time></trkpt><trkpt lat="46.1998867" lon="12.0317583"><ele>471.33333333333337</ele><time>2026-04-18T13:27:17.608Z</time></trkpt><trkpt lat="46.1997317" lon="12.03189"><ele>471.6666666666667</ele><time>2026-04-18T13:27:18.608Z</time></trkpt><trkpt lat="46.1995733" lon="12.031975"><ele>472.0</ele><time>2026-04-18T13:27:19.608Z</time></trkpt><trkpt lat="46.19942" lon="12.03205"><ele>472.0</ele><time>2026-04-18T13:27:20.608Z</time></trkpt><trkpt lat="46.1992933" lon="12.03211"><ele>472.0</ele><time>2026-04-18T13:27:21.608Z</time></trkpt><trkpt lat="46.199185" lon="12.0321917"><ele>472.0</ele><time>2026-04-18T13:27:22.608Z</time></trkpt><trkpt lat="46.1990933" lon="12.0323"><ele>472.0</ele><time>2026-04-18T13:27:23.608Z</time></trkpt><trkpt lat="46.199035" lon="12.0324717"><ele>475.33333333333337</ele><time>2026-04-18T13:27:24.608Z</time></trkpt><trkpt lat="46.198995" lon="12.032705"><ele>478.66666666666663</ele><time>2026-04-18T13:27:25.608Z</time></trkpt><trkpt lat="46.19898" lon="12.0329717"><ele>482.0</ele><time>2026-04-18T13:27:26.608Z</time></trkpt><trkpt lat="46.1989883" lon="12.0332517"><ele>475.66666666666663</ele><time>2026-04-18T13:27:27.608Z</time></trkpt><trkpt lat="46.1989833" lon="12.0335383"><ele>469.33333333333337</ele><time>2026-04-18T13:27:28.608Z</time></trkpt><trkpt lat="46.1989617" lon="12.0338083"><ele>463.0</ele><time>2026-04-18T13:27:29.608Z</time></trkpt><trkpt lat="46.1989267" lon="12.0340533"><ele>460.33333333333337</ele><time>2026-04-18T13:27:30.608Z</time></trkpt><trkpt lat="46.1988533" lon="12.0342767"><ele>457.66666666666663</ele><time>2026-04-18T13:27:31.609Z</time></trkpt><trkpt lat="46.1987433" lon="12.0344583"><ele>455.0</ele><time>2026-04-18T13:27:32.608Z</time></trkpt><trkpt lat="46.1985667" lon="12.0346283"><ele>455.0</ele><time>2026-04-18T13:27:33.609Z</time></trkpt><trkpt lat="46.1983917" lon="12.0348183"><ele>455.0</ele><time>2026-04-18T13:27:34.608Z</time></trkpt><trkpt lat="46.1982133" lon="12.0350117"><ele>455.0</ele><time>2026-04-18T13:27:35.608Z</time></trkpt><trkpt lat="46.19804" lon="12.035205"><ele>456.3333333333333</ele><time>2026-04-18T13:27:36.609Z</time></trkpt><trkpt lat="46.1978933" lon="12.035395"><ele>457.66666666666663</ele><time>2026-04-18T13:27:37.608Z</time></trkpt><trkpt lat="46.1977517" lon="12.0355717"><ele>459.0</ele><time>2026-04-18T13:27:38.608Z</time></trkpt><trkpt lat="46.197615" lon="12.0357617"><ele>461.0</ele><time>2026-04-18T13:27:39.608Z</time></trkpt><trkpt lat="46.19746" lon="12.0359783"><ele>463.0</ele><time>2026-04-18T13:27:40.608Z</time></trkpt><trkpt lat="46.1973183" lon="12.0361967"><ele>465.0</ele><time>2026-04-18T13:27:41.608Z</time></trkpt><trkpt lat="46.19717" lon="12.03638"><ele>465.33333333333337</ele><time>2026-04-18T13:27:42.609Z</time></trkpt><trkpt lat="46.19705" lon="12.0365733"><ele>465.6666666666667</ele><time>2026-04-18T13:27:43.608Z</time></trkpt><trkpt lat="46.196895" lon="12.03671"><ele>466.0</ele><time>2026-04-18T13:27:44.608Z</time></trkpt><trkpt lat="46.196705" lon="12.0367483"><ele>467.33333333333337</ele><time>2026-04-18T13:27:45.608Z</time></trkpt><trkpt lat="46.19653" lon="12.0368183"><ele>468.66666666666663</ele><time>2026-04-18T13:27:46.608Z</time></trkpt><trkpt lat="46.1963483" lon="12.03685"><ele>470.0</ele><time>2026-04-18T13:27:47.609Z</time></trkpt><trkpt lat="46.1961933" lon="12.0368967"><ele>467.0</ele><time>2026-04-18T13:27:48.608Z</time></trkpt><trkpt lat="46.1960267" lon="12.0369467"><ele>464.0</ele><time>2026-04-18T13:27:49.609Z</time></trkpt><trkpt lat="46.1958617" lon="12.0370067"><ele>461.0</ele><time>2026-04-18T13:27:50.608Z</time></trkpt><trkpt lat="46.1957067" lon="12.0370467"><ele>462.66666666666663</ele><time>2026-04-18T13:27:51.608Z</time></trkpt><trkpt lat="46.1955483" lon="12.0370533"><ele>464.33333333333337</ele><time>2026-04-18T13:27:52.608Z</time></trkpt><trkpt lat="46.195405" lon="12.037055"><ele>466.0</ele><time>2026-04-18T13:27:53.608Z</time></trkpt><trkpt lat="46.1952583" lon="12.0370217"><ele>466.0</ele><time>2026-04-18T13:27:54.608Z</time></trkpt><trkpt lat="46.19512" lon="12.0369717"><ele>466.0</ele><time>2026-04-18T13:27:55.608Z</time></trkpt><trkpt lat="46.1949917" lon="12.0368883"><ele>466.0</ele><time>2026-04-18T13:27:56.608Z</time></trkpt><trkpt lat="46.19488" lon="12.0367767"><ele>466.0</ele><time>2026-04-18T13:27:57.608Z</time></trkpt><trkpt lat="46.194755" lon="12.036665"><ele>462.6666666666667</ele><time>2026-04-18T13:27:58.608Z</time></trkpt><trkpt lat="46.19462" lon="12.0365783"><ele>459.33333333333337</ele><time>2026-04-18T13:27:59.608Z</time></trkpt><trkpt lat="46.1944833" lon="12.0365917"><ele>456.0</ele><time>2026-04-18T13:28:00.609Z</time></trkpt><trkpt lat="46.2039583" lon="12.0175617"><ele>456.0</ele><time>2026-04-18T13:26:03.608Z</time></trkpt><trkpt lat="46.2039967" lon="12.0177333"><ele>456.0</ele><time>2026-04-18T13:26:04.608Z</time></trkpt><trkpt lat="46.2040417" lon="12.0179333"><ele>456.0</ele><time>2026-04-18T13:26:05.608Z</time></trkpt><trkpt lat="46.2040617" lon="12.01815"><ele>456.0</ele><time>2026-04-18T13:26:06.609Z</time></trkpt><trkpt lat="46.204065" lon="12.0183967"><ele>456.0</ele><time>2026-04-18T13:26:07.608Z</time></trkpt><trkpt lat="46.20404" lon="12.0186533"><ele>456.0</ele><time>2026-04-18T13:26:08.608Z</time></trkpt><trkpt lat="46.203995" lon="12.01894"><ele>456.0</ele><time>2026-04-18T13:26:09.609Z</time></trkpt><trkpt lat="46.20396" lon="12.019215"><ele>456.0</ele><time>2026-04-18T13:26:10.608Z</time></trkpt><trkpt lat="46.203915" lon="12.01946"><ele>456.0</ele><time>2026-04-18T13:26:11.608Z</time></trkpt><trkpt lat="46.2038683" lon="12.019665"><ele>456.0</ele><time>2026-04-18T13:26:12.608Z</time></trkpt><trkpt lat="46.2038" lon="12.01983"><ele>456.0</ele><time>2026-04-18T13:26:13.608Z</time></trkpt><trkpt lat="46.2037117" lon="12.01999"><ele>456.0</ele><time>2026-04-18T13:26:14.609Z</time></trkpt><trkpt lat="46.20361" lon="12.0201267"><ele>456.0</ele><time>2026-04-18T13:26:15.609Z</time></trkpt><trkpt lat="46.2035133" lon="12.0202267"><ele>456.0</ele><time>2026-04-18T13:26:16.609Z</time></trkpt><trkpt lat="46.20343" lon="12.0203167"><ele>456.0</ele><time>2026-04-18T13:26:17.608Z</time></trkpt><trkpt lat="46.20336" lon="12.02043"><ele>456.0</ele><time>2026-04-18T13:26:18.608Z</time></trkpt><trkpt lat="46.203325" lon="12.0205333"><ele>456.0</ele><time>2026-04-18T13:26:19.608Z</time></trkpt><trkpt lat="46.2032833" lon="12.0206367"><ele>456.0</ele><time>2026-04-18T13:26:20.608Z</time></trkpt><trkpt lat="46.2032417" lon="12.0207417"><ele>456.0</ele><time>2026-04-18T13:26:21.608Z</time></trkpt><trkpt lat="46.2032" lon="12.02085"><ele>456.0</ele><time>2026-04-18T13:26:22.608Z</time></trkpt><trkpt lat="46.2031533" lon="12.02095"><ele>456.0</ele><time>2026-04-18T13:26:23.608Z</time></trkpt><trkpt lat="46.20311" lon="12.0210467"><ele>456.0</ele><time>2026-04-18T13:26:24.608Z</time></trkpt><trkpt lat="46.2030983" lon="12.0212233"><ele>456.0</ele><time>2026-04-18T13:26:26.608Z</time></trkpt><trkpt lat="46.2031583" lon="12.0214917"><ele>456.0</ele><time>2026-04-18T13:26:27.608Z</time></trkpt><trkpt lat="46.203115" lon="12.02164"><ele>456.0</ele><time>2026-04-18T13:26:28.609Z</time></trkpt><trkpt lat="46.2030983" lon="12.0218533"><ele>456.0</ele><time>2026-04-18T13:26:29.609Z</time></trkpt><trkpt lat="46.203055" lon="12.0219783"><ele>456.0</ele><time>2026-04-18T13:26:30.609Z</time></trkpt><trkpt lat="46.20301" lon="12.0220717"><ele>456.0</ele><time>2026-04-18T13:26:31.608Z</time></trkpt><trkpt lat="46.202955" lon="12.0221667"><ele>456.0</ele><time>2026-04-18T13:26:32.608Z</time></trkpt><trkpt lat="46.2028867" lon="12.0222367"><ele>456.0</ele><time>2026-04-18T13:26:33.609Z</time></trkpt><trkpt lat="46.2029617" lon="12.0225533"><ele>456.0</ele><time>2026-04-18T13:26:34.609Z</time></trkpt><trkpt lat="46.2030083" lon="12.0229017"><ele>517.5</ele><time>2026-04-18T13:26:35.609Z</time></trkpt><trkpt lat="46.203135" lon="12.0234467"><ele>579.0</ele><time>2026-04-18T13:26:36.608Z</time></trkpt><trkpt lat="46.2031167" lon="12.0237367"><ele>579.0</ele><time>2026-04-18T13:26:37.609Z</time></trkpt><trkpt lat="46.2030917" lon="12.0239917"><ele>579.0</ele><time>2026-04-18T13:26:38.608Z</time></trkpt><trkpt lat="46.20304" lon="12.0242467"><ele>579.0</ele><time>2026-04-18T13:26:39.608Z</time></trkpt><trkpt lat="46.202975" lon="12.0245333"><ele>557.3333333333334</ele><time>2026-04-18T13:26:40.608Z</time></trkpt><trkpt lat="46.202875" lon="12.02481"><ele>535.6666666666667</ele><time>2026-04-18T13:26:41.608Z</time></trkpt><trkpt lat="46.202795" lon="12.0250667"><ele>514.0</ele><time>2026-04-18T13:26:42.608Z</time></trkpt><trkpt lat="46.2027183" lon="12.0253083"><ele>505.0</ele><time>2026-04-18T13:26:43.608Z</time></trkpt><trkpt lat="46.2026533" lon="12.0255133"><ele>496.0</ele><time>2026-04-18T13:26:44.608Z</time></trkpt><trkpt lat="46.2026067" lon="12.0257067"><ele>487.0</ele><time>2026-04-18T13:26:45.608Z</time></trkpt><trkpt lat="46.20258" lon="12.0258883"><ele>478.0</ele><time>2026-04-18T13:26:46.608Z</time></trkpt><trkpt lat="46.2025633" lon="12.0260817"><ele>477.25</ele><time>2026-04-18T13:26:47.608Z</time></trkpt><trkpt lat="46.2025483" lon="12.0262583"><ele>476.5</ele><time>2026-04-18T13:26:48.609Z</time></trkpt><trkpt lat="46.2025333" lon="12.026425"><ele>475.75</ele><time>2026-04-18T13:26:49.608Z</time></trkpt><trkpt lat="46.2024883" lon="12.026595"><ele>475.0</ele><time>2026-04-18T13:26:50.608Z</time></trkpt><trkpt lat="46.2024233" lon="12.0267817"><ele>478.33333333333337</ele><time>2026-04-18T13:26:51.609Z</time></trkpt><trkpt lat="46.2022917" lon="12.0269533"><ele>481.66666666666663</ele><time>2026-04-18T13:26:52.608Z</time></trkpt><trkpt lat="46.2021467" lon="12.0271533"><ele>485.0</ele><time>2026-04-18T13:26:53.608Z</time></trkpt><trkpt lat="46.201965" lon="12.02736"><ele>483.66666666666663</ele><time>2026-04-18T13:26:54.608Z</time></trkpt><trkpt lat="46.2017967" lon="12.0275683"><ele>482.33333333333337</ele><time>2026-04-18T13:26:55.609Z</time></trkpt><trkpt lat="46.201625" lon="12.0277617"><ele>481.0</ele><time>2026-04-18T13:26:56.608Z</time></trkpt><trkpt lat="46.2014767" lon="12.0279667"><ele>478.33333333333337</ele><time>2026-04-18T13:26:57.608Z</time></trkpt><trkpt lat="46.2013167" lon="12.0281633"><ele>475.66666666666663</ele><time>2026-04-18T13:26:58.608Z</time></trkpt><trkpt lat="46.2011617" lon="12.02834"><ele>473.0</ele><time>2026-04-18T13:26:59.609Z</time></trkpt><trkpt lat="46.2010183" lon="12.0285"><ele>473.0</ele><time>2026-04-18T13:27:00.608Z</time></trkpt><trkpt lat="46.20091" lon="12.0286433"><ele>473.0</ele><time>2026-04-18T13:27:01.608Z</time></trkpt><trkpt lat="46.20082" lon="12.0287383"><ele>473.0</ele><time>2026-04-18T13:27:02.608Z</time></trkpt><trkpt lat="46.2007517" lon="12.0288583"><ele>473.0</ele><time>2026-04-18T13:27:03.608Z</time></trkpt><trkpt lat="46.2006967" lon="12.0290017"><ele>474.0</ele><time>2026-04-18T13:27:04.608Z</time></trkpt><trkpt lat="46.2007483" lon="12.0292317"><ele>475.0</ele><time>2026-04-18T13:27:05.608Z</time></trkpt><trkpt lat="46.2007933" lon="12.0294917"><ele>476.0</ele><time>2026-04-18T13:27:06.608Z</time></trkpt><trkpt lat="46.2008233" lon="12.0297417"><ele>476.5</ele><time>2026-04-18T13:27:07.608Z</time></trkpt><trkpt lat="46.2008567" lon="12.0299917"><ele>477.0</ele><time>2026-04-18T13:27:08.608Z</time></trkpt><trkpt lat="46.20086" lon="12.03016"><ele>477.5</ele><time>2026-04-18T13:27:09.608Z</time></trkpt><trkpt lat="46.2008483" lon="12.0303633"><ele>478.0</ele><time>2026-04-18T13:27:10.608Z</time></trkpt><trkpt lat="46.200815" lon="12.03057"><ele>478.0</ele><time>2026-04-18T13:27:11.608Z</time></trkpt><trkpt lat="46.20075" lon="12.0307817"><ele>478.0</ele><time>2026-04-18T13:27:12.608Z</time></trkpt><trkpt lat="46.2005967" lon="12.0310017"><ele>478.0</ele><time>2026-04-18T13:27:13.609Z</time></trkpt><trkpt lat="46.2003917" lon="12.03121"><ele>475.6666666666667</ele><time>2026-04-18T13:27:14.608Z</time></trkpt><trkpt lat="46.2002033" lon="12.03141"><ele>473.33333333333337</ele><time>2026-04-18T13:27:15.608Z</time></trkpt><trkpt lat="46.2000367" lon="12.03159"><ele>471.0</ele><time>2026-04-18T13:27:16.608Z</time></trkpt><trkpt lat="46.1998867" lon="12.0317583"><ele>471.33333333333337</ele><time>2026-04-18T13:27:17.608Z</time></trkpt><trkpt lat="46.1997317" lon="12.03189"><ele>471.6666666666667</ele><time>2026-04-18T13:27:18.608Z</time></trkpt><trkpt lat="46.1995733" lon="12.031975"><ele>472.0</ele><time>2026-04-18T13:27:19.608Z</time></trkpt><trkpt lat="46.19942" lon="12.03205"><ele>472.0</ele><time>2026-04-18T13:27:20.608Z</time></trkpt><trkpt lat="46.1992933" lon="12.03211"><ele>472.0</ele><time>2026-04-18T13:27:21.608Z</time></trkpt><trkpt lat="46.199185" lon="12.0321917"><ele>472.0</ele><time>2026-04-18T13:27:22.608Z</time></trkpt><trkpt lat="46.1990933" lon="12.0323"><ele>472.0</ele><time>2026-04-18T13:27:23.608Z</time></trkpt><trkpt lat="46.199035" lon="12.0324717"><ele>475.33333333333337</ele><time>2026-04-18T13:27:24.608Z</time></trkpt><trkpt lat="46.198995" lon="12.032705"><ele>478.66666666666663</ele><time>2026-04-18T13:27:25.608Z</time></trkpt><trkpt lat="46.19898" lon="12.0329717"><ele>482.0</ele><time>2026-04-18T13:27:26.608Z</time></trkpt><trkpt lat="46.1989883" lon="12.0332517"><ele>475.66666666666663</ele><time>2026-04-18T13:27:27.608Z</time></trkpt><trkpt lat="46.1989833" lon="12.0335383"><ele>469.33333333333337</ele><time>2026-04-18T13:27:28.608Z</time></trkpt><trkpt lat="46.1989617" lon="12.0338083"><ele>463.0</ele><time>2026-04-18T13:27:29.608Z</time></trkpt><trkpt lat="46.1989267" lon="12.0340533"><ele>460.33333333333337</ele><time>2026-04-18T13:27:30.608Z</time></trkpt><trkpt lat="46.1988533" lon="12.0342767"><ele>457.66666666666663</ele><time>2026-04-18T13:27:31.609Z</time></trkpt><trkpt lat="46.1987433" lon="12.0344583"><ele>455.0</ele><time>2026-04-18T13:27:32.608Z</time></trkpt><trkpt lat="46.1985667" lon="12.0346283"><ele>455.0</ele><time>2026-04-18T13:27:33.609Z</time></trkpt><trkpt lat="46.1983917" lon="12.0348183"><ele>455.0</ele><time>2026-04-18T13:27:34.608Z</time></trkpt><trkpt lat="46.1982133" lon="12.0350117"><ele>455.0</ele><time>2026-04-18T13:27:35.608Z</time></trkpt><trkpt lat="46.19804" lon="12.035205"><ele>456.3333333333333</ele><time>2026-04-18T13:27:36.609Z</time></trkpt><trkpt lat="46.1978933" lon="12.035395"><ele>457.66666666666663</ele><time>2026-04-18T13:27:37.608Z</time></trkpt><trkpt lat="46.1977517" lon="12.0355717"><ele>459.0</ele><time>2026-04-18T13:27:38.608Z</time></trkpt><trkpt lat="46.197615" lon="12.0357617"><ele>461.0</ele><time>2026-04-18T13:27:39.608Z</time></trkpt><trkpt lat="46.19746" lon="12.0359783"><ele>463.0</ele><time>2026-04-18T13:27:40.608Z</time></trkpt><trkpt lat="46.1973183" lon="12.0361967"><ele>465.0</ele><time>2026-04-18T13:27:41.608Z</time></trkpt><trkpt lat="46.19717" lon="12.03638"><ele>465.33333333333337</ele><time>2026-04-18T13:27:42.609Z</time></trkpt><trkpt lat="46.19705" lon="12.0365733"><ele>465.6666666666667</ele><time>2026-04-18T13:27:43.608Z</time></trkpt><trkpt lat="46.196895" lon="12.03671"><ele>466.0</ele><time>2026-04-18T13:27:44.608Z</time></trkpt><trkpt lat="46.196705" lon="12.0367483"><ele>467.33333333333337</ele><time>2026-04-18T13:27:45.608Z</time></trkpt><trkpt lat="46.19653" lon="12.0368183"><ele>468.66666666666663</ele><time>2026-04-18T13:27:46.608Z</time></trkpt><trkpt lat="46.1963483" lon="12.03685"><ele>470.0</ele><time>2026-04-18T13:27:47.609Z</time></trkpt><trkpt lat="46.1961933" lon="12.0368967"><ele>467.0</ele><time>2026-04-18T13:27:48.608Z</time></trkpt><trkpt lat="46.1960267" lon="12.0369467"><ele>464.0</ele><time>2026-04-18T13:27:49.609Z</time></trkpt><trkpt lat="46.1958617" lon="12.0370067"><ele>461.0</ele><time>2026-04-18T13:27:50.608Z</time></trkpt><trkpt lat="46.1957067" lon="12.0370467"><ele>462.66666666666663</ele><time>2026-04-18T13:27:51.608Z</time></trkpt><trkpt lat="46.1955483" lon="12.0370533"><ele>464.33333333333337</ele><time>2026-04-18T13:27:52.608Z</time></trkpt><trkpt lat="46.195405" lon="12.037055"><ele>466.0</ele><time>2026-04-18T13:27:53.608Z</time></trkpt><trkpt lat="46.1952583" lon="12.0370217"><ele>466.0</ele><time>2026-04-18T13:27:54.608Z</time></trkpt><trkpt lat="46.19512" lon="12.0369717"><ele>466.0</ele><time>2026-04-18T13:27:55.608Z</time></trkpt><trkpt lat="46.1949917" lon="12.0368883"><ele>466.0</ele><time>2026-04-18T13:27:56.608Z</time></trkpt><trkpt lat="46.19488" lon="12.0367767"><ele>466.0</ele><time>2026-04-18T13:27:57.608Z</time></trkpt><trkpt lat="46.194755" lon="12.036665"><ele>466.0</ele><time>2026-04-18T13:27:58.608Z</time></trkpt><trkpt lat="46.19462" lon="12.0365783"><ele>466.0</ele><time>2026-04-18T13:27:59.608Z</time></trkpt><trkpt lat="46.1944833" lon="12.0365917"><ele>466.0</ele><time>2026-04-18T13:28:00.609Z</time></trkpt><trkpt lat="46.19435" lon="12.03665"><ele>466.0</ele><time>2026-04-18T13:28:01.608Z</time></trkpt><trkpt lat="46.1942117" lon="12.036735"><ele>466.0</ele><time>2026-04-18T13:28:02.608Z</time></trkpt><trkpt lat="46.1940717" lon="12.0368083"><ele>466.0</ele><time>2026-04-18T13:28:03.608Z</time></trkpt><trkpt lat="46.1939517" lon="12.0368367"><ele>466.0</ele><time>2026-04-18T13:28:04.608Z</time></trkpt><trkpt lat="46.1938333" lon="12.03682"><ele>466.0</ele><time>2026-04-18T13:28:05.608Z</time></trkpt><trkpt lat="46.1937167" lon="12.0367183"><ele>463.75</ele><time>2026-04-18T13:28:06.609Z</time></trkpt><trkpt lat="46.1936" lon="12.0366"><ele>461.5</ele><time>2026-04-18T13:28:07.609Z</time></trkpt><trkpt lat="46.19347" lon="12.0364983"><ele>459.25</ele><time>2026-04-18T13:28:08.608Z</time></trkpt><trkpt lat="46.19335" lon="12.036425"><ele>457.0</ele><time>2026-04-18T13:28:09.608Z</time></trkpt><trkpt lat="46.1932183" lon="12.0363583"><ele>454.6666666666667</ele><time>2026-04-18T13:28:10.608Z</time></trkpt><trkpt lat="46.1930583" lon="12.0363"><ele>452.33333333333337</ele><time>2026-04-18T13:28:11.608Z</time></trkpt><trkpt lat="46.192905" lon="12.0362717"><ele>450.0</ele><time>2026-04-18T13:28:12.608Z</time></trkpt><trkpt lat="46.1927517" lon="12.0362583"><ele>450.0</ele><time>2026-04-18T13:28:13.608Z</time></trkpt><trkpt lat="46.1925967" lon="12.0363033"><ele>450.0</ele><time>2026-04-18T13:28:14.608Z</time></trkpt><trkpt lat="46.19245" lon="12.03639"><ele>450.0</ele><time>2026-04-18T13:28:15.607Z</time></trkpt><trkpt lat="46.1923017" lon="12.036485"><ele>450.0</ele><time>2026-04-18T13:28:16.607Z</time></trkpt><trkpt lat="46.1921417" lon="12.0365467"><ele>450.0</ele><time>2026-04-18T13:28:17.607Z</time></trkpt><trkpt lat="46.191985" lon="12.0365667"><ele>450.0</ele><time>2026-04-18T13:28:18.607Z</time></trkpt><trkpt lat="46.19182" lon="12.0365617"><ele>450.0</ele><time>2026-04-18T13:28:19.607Z</time></trkpt><trkpt lat="46.1916683" lon="12.0365367"><ele>450.0</ele><time>2026-04-18T13:28:20.607Z</time></trkpt><trkpt lat="46.1914967" lon="12.0365233"><ele>450.0</ele><time>2026-04-18T13:28:21.607Z</time></trkpt><trkpt lat="46.191305" lon="12.036525"><ele>450.0</ele><time>2026-04-18T13:28:22.607Z</time></trkpt><trkpt lat="46.1911067" lon="12.0365533"><ele>450.0</ele><time>2026-04-18T13:28:23.607Z</time></trkpt><trkpt lat="46.1909033" lon="12.0365867"><ele>450.0</ele><time>2026-04-18T13:28:24.607Z</time></trkpt><trkpt lat="46.1907417" lon="12.0366167"><ele>449.5</ele><time>2026-04-18T13:28:25.607Z</time></trkpt><trkpt lat="46.1905933" lon="12.03666"><ele>449.0</ele><time>2026-04-18T13:28:26.607Z</time></trkpt><trkpt lat="46.1904517" lon="12.0367317"><ele>448.5</ele><time>2026-04-18T13:28:27.607Z</time></trkpt><trkpt lat="46.19033" lon="12.036845"><ele>448.0</ele><time>2026-04-18T13:28:28.607Z</time></trkpt><trkpt lat="46.1902117" lon="12.0369817"><ele>448.0</ele><time>2026-04-18T13:28:29.607Z</time></trkpt><trkpt lat="46.19009" lon="12.037165"><ele>448.0</ele><time>2026-04-18T13:28:30.607Z</time></trkpt><trkpt lat="46.18996" lon="12.0373617"><ele>448.0</ele><time>2026-04-18T13:28:31.607Z</time></trkpt><trkpt lat="46.1898283" lon="12.0375717"><ele>444.33333333333337</ele><time>2026-04-18T13:28:32.607Z</time></trkpt><trkpt lat="46.18971" lon="12.0377767"><ele>440.66666666666663</ele><time>2026-04-18T13:28:33.608Z</time></trkpt><trkpt lat="46.1896083" lon="12.0379967"><ele>437.0</ele><time>2026-04-18T13:28:34.607Z</time></trkpt><trkpt lat="46.1895067" lon="12.038225"><ele>436.66666666666663</ele><time>2026-04-18T13:28:35.607Z</time></trkpt><trkpt lat="46.1894267" lon="12.038495"><ele>436.33333333333337</ele><time>2026-04-18T13:28:36.607Z</time></trkpt><trkpt lat="46.1893433" lon="12.0387667"><ele>436.0</ele><time>2026-04-18T13:28:37.607Z</time></trkpt><trkpt lat="46.18927" lon="12.0390217"><ele>436.0</ele><time>2026-04-18T13:28:38.607Z</time></trkpt><trkpt lat="46.1891517" lon="12.0392733"><ele>436.0</ele><time>2026-04-18T13:28:39.607Z</time></trkpt><trkpt lat="46.1890167" lon="12.0394733"><ele>436.0</ele><time>2026-04-18T13:28:40.607Z</time></trkpt><trkpt lat="46.18889" lon="12.039655"><ele>436.0</ele><time>2026-04-18T13:28:41.608Z</time></trkpt><trkpt lat="46.1887767" lon="12.0398267"><ele>436.0</ele><time>2026-04-18T13:28:42.607Z</time></trkpt><trkpt lat="46.1886833" lon="12.04001"><ele>436.0</ele><time>2026-04-18T13:28:43.607Z</time></trkpt><trkpt lat="46.188585" lon="12.0402"><ele>439.33333333333337</ele><time>2026-04-18T13:28:44.607Z</time></trkpt><trkpt lat="46.1885183" lon="12.0404183"><ele>442.66666666666663</ele><time>2026-04-18T13:28:45.607Z</time></trkpt><trkpt lat="46.18845" lon="12.04064"><ele>446.0</ele><time>2026-04-18T13:28:46.607Z</time></trkpt><trkpt lat="46.1883683" lon="12.0408417"><ele>444.25</ele><time>2026-04-18T13:28:47.608Z</time></trkpt><trkpt lat="46.1882767" lon="12.0410217"><ele>442.5</ele><time>2026-04-18T13:28:48.608Z</time></trkpt><trkpt lat="46.1881817" lon="12.041175"><ele>440.75</ele><time>2026-04-18T13:28:49.607Z</time></trkpt><trkpt lat="46.18811" lon="12.0413"><ele>439.0</ele><time>2026-04-18T13:28:50.607Z</time></trkpt><trkpt lat="46.1880467" lon="12.0414033"><ele>439.00000000000006</ele><time>2026-04-18T13:28:51.607Z</time></trkpt><trkpt lat="46.1879833" lon="12.04147"><ele>439.0</ele><time>2026-04-18T13:28:52.607Z</time></trkpt><trkpt lat="46.18791" lon="12.041465"><ele>439.0</ele><time>2026-04-18T13:28:53.607Z</time></trkpt><trkpt lat="46.1878217" lon="12.0414317"><ele>439.0</ele><time>2026-04-18T13:28:54.607Z</time></trkpt><trkpt lat="46.1877483" lon="12.0413983"><ele>439.00000000000006</ele><time>2026-04-18T13:28:55.607Z</time></trkpt><trkpt lat="46.1876683" lon="12.04136"><ele>439.0</ele><time>2026-04-18T13:28:56.607Z</time></trkpt><trkpt lat="46.1875917" lon="12.0413217"><ele>439.00000000000006</ele><time>2026-04-18T13:28:57.607Z</time></trkpt><trkpt lat="46.187515" lon="12.0412817"><ele>439.0</ele><time>2026-04-18T13:28:58.608Z</time></trkpt><trkpt lat="46.1874333" lon="12.0412433"><ele>439.0</ele><time>2026-04-18T13:28:59.607Z</time></trkpt><trkpt lat="46.187345" lon="12.0412067"><ele>439.0</ele><time>2026-04-18T13:29:00.608Z</time></trkpt><trkpt lat="46.18726" lon="12.0411817"><ele>439.00000000000006</ele><time>2026-04-18T13:29:01.607Z</time></trkpt><trkpt lat="46.1871783" lon="12.04121"><ele>439.0</ele><time>2026-04-18T13:29:02.608Z</time></trkpt><trkpt lat="46.18709" lon="12.0412733"><ele>444.75</ele><time>2026-04-18T13:29:03.607Z</time></trkpt><trkpt lat="46.1869967" lon="12.0413767"><ele>450.5</ele><time>2026-04-18T13:29:04.607Z</time></trkpt><trkpt lat="46.1869133" lon="12.0414983"><ele>456.25</ele><time>2026-04-18T13:29:05.607Z</time></trkpt><trkpt lat="46.186835" lon="12.04165"><ele>462.0</ele><time>2026-04-18T13:29:06.607Z</time></trkpt><trkpt lat="46.1867583" lon="12.0418083"><ele>462.0</ele><time>2026-04-18T13:29:07.607Z</time></trkpt><trkpt lat="46.18668" lon="12.04195"><ele>462.0</ele><time>2026-04-18T13:29:08.608Z</time></trkpt><trkpt lat="46.1866083" lon="12.0420733"><ele>462.0</ele><time>2026-04-18T13:29:09.607Z</time></trkpt><trkpt lat="46.186545" lon="12.0421883"><ele>462.0</ele><time>2026-04-18T13:29:10.608Z</time></trkpt><trkpt lat="46.186475" lon="12.042325"><ele>474.66666666666663</ele><time>2026-04-18T13:29:11.608Z</time></trkpt><trkpt lat="46.1864033" lon="12.0425033"><ele>487.3333333333333</ele><time>2026-04-18T13:29:12.608Z</time></trkpt><trkpt lat="46.1863183" lon="12.042705"><ele>500.0</ele><time>2026-04-18T13:29:13.607Z</time></trkpt><trkpt lat="46.186215" lon="12.042935"><ele>500.0</ele><time>2026-04-18T13:29:14.607Z</time></trkpt><trkpt lat="46.18611" lon="12.0431717"><ele>500.0</ele><time>2026-04-18T13:29:15.608Z</time></trkpt><trkpt lat="46.186005" lon="12.043405"><ele>500.0</ele><time>2026-04-18T13:29:16.608Z</time></trkpt><trkpt lat="46.1858717" lon="12.04363"><ele>504.0</ele><time>2026-04-18T13:29:17.607Z</time></trkpt><trkpt lat="46.1857383" lon="12.0438483"><ele>508.0</ele><time>2026-04-18T13:29:18.608Z</time></trkpt><trkpt lat="46.1856133" lon="12.0440567"><ele>512.0</ele><time>2026-04-18T13:29:19.608Z</time></trkpt><trkpt lat="46.1854933" lon="12.0442433"><ele>503.5</ele><time>2026-04-18T13:29:20.607Z</time></trkpt><trkpt lat="46.1853833" lon="12.044395"><ele>495.0</ele><time>2026-04-18T13:29:21.608Z</time></trkpt><trkpt lat="46.1852733" lon="12.0445367"><ele>486.5</ele><time>2026-04-18T13:29:22.607Z</time></trkpt><trkpt lat="46.1851783" lon="12.04468"><ele>478.0</ele><time>2026-04-18T13:29:23.607Z</time></trkpt><trkpt lat="46.1850867" lon="12.0448467"><ele>477.6666666666667</ele><time>2026-04-18T13:29:24.607Z</time></trkpt><trkpt lat="46.18499" lon="12.0450217"><ele>477.33333333333337</ele><time>2026-04-18T13:29:25.607Z</time></trkpt><trkpt lat="46.1848933" lon="12.0452417"><ele>477.0</ele><time>2026-04-18T13:29:26.607Z</time></trkpt><trkpt lat="46.1848017" lon="12.0454317"><ele>477.0</ele><time>2026-04-18T13:29:27.607Z</time></trkpt><trkpt lat="46.1847067" lon="12.045595"><ele>477.0</ele><time>2026-04-18T13:29:28.607Z</time></trkpt><trkpt lat="46.1846133" lon="12.0457217"><ele>477.0</ele><time>2026-04-18T13:29:29.607Z</time></trkpt><trkpt lat="46.18451" lon="12.0458183"><ele>477.0</ele><time>2026-04-18T13:29:30.607Z</time></trkpt><trkpt lat="46.18437" lon="12.0458833"><ele>474.66666666666663</ele><time>2026-04-18T13:29:31.607Z</time></trkpt><trkpt lat="46.184205" lon="12.0459317"><ele>472.3333333333333</ele><time>2026-04-18T13:29:32.607Z</time></trkpt><trkpt lat="46.184045" lon="12.0459733"><ele>470.0</ele><time>2026-04-18T13:29:33.607Z</time></trkpt><trkpt lat="46.1838983" lon="12.0460333"><ele>470.0</ele><time>2026-04-18T13:29:34.608Z</time></trkpt><trkpt lat="46.18376" lon="12.04611"><ele>470.0</ele><time>2026-04-18T13:29:35.607Z</time></trkpt><trkpt lat="46.1836233" lon="12.0462217"><ele>470.0</ele><time>2026-04-18T13:29:36.607Z</time></trkpt><trkpt lat="46.1834733" lon="12.0463683"><ele>470.0</ele><time>2026-04-18T13:29:37.607Z</time></trkpt><trkpt lat="46.18333" lon="12.0465183"><ele>470.0</ele><time>2026-04-18T13:29:38.607Z</time></trkpt><trkpt lat="46.183185" lon="12.0466483"><ele>470.0</ele><time>2026-04-18T13:29:39.608Z</time></trkpt><trkpt lat="46.1830383" lon="12.0467433"><ele>469.0</ele><time>2026-04-18T13:29:40.607Z</time></trkpt><trkpt lat="46.1828817" lon="12.0468433"><ele>468.0</ele><time>2026-04-18T13:29:41.607Z</time></trkpt><trkpt lat="46.18272" lon="12.046955"><ele>467.0</ele><time>2026-04-18T13:29:42.607Z</time></trkpt><trkpt lat="46.1825633" lon="12.0470883"><ele>467.0</ele><time>2026-04-18T13:29:43.607Z</time></trkpt><trkpt lat="46.182425" lon="12.0472033"><ele>467.0</ele><time>2026-04-18T13:29:44.608Z</time></trkpt><trkpt lat="46.1822883" lon="12.0472867"><ele>467.0</ele><time>2026-04-18T13:29:45.607Z</time></trkpt><trkpt lat="46.182155" lon="12.0473433"><ele>467.0</ele><time>2026-04-18T13:29:46.608Z</time></trkpt><trkpt lat="46.1820217" lon="12.047375"><ele>473.5</ele><time>2026-04-18T13:29:47.607Z</time></trkpt><trkpt lat="46.1818983" lon="12.047425"><ele>480.0</ele><time>2026-04-18T13:29:48.607Z</time></trkpt><trkpt lat="46.1817767" lon="12.04747"><ele>486.5</ele><time>2026-04-18T13:29:49.607Z</time></trkpt><trkpt lat="46.1816517" lon="12.0475"><ele>493.0</ele><time>2026-04-18T13:29:50.607Z</time></trkpt><trkpt lat="46.18152" lon="12.04753"><ele>508.0</ele><time>2026-04-18T13:29:51.607Z</time></trkpt><trkpt lat="46.1814017" lon="12.04754"><ele>523.0</ele><time>2026-04-18T13:29:52.607Z</time></trkpt><trkpt lat="46.181305" lon="12.0475283"><ele>538.0</ele><time>2026-04-18T13:29:53.607Z</time></trkpt><trkpt lat="46.1810617" lon="12.0474867"><ele>538.0</ele><time>2026-04-18T13:29:54.607Z</time></trkpt><trkpt lat="46.180835" lon="12.0477917"><ele>538.0</ele><time>2026-04-18T13:29:55.607Z</time></trkpt><trkpt lat="46.1807133" lon="12.0481033"><ele>535.3333333333334</ele><time>2026-04-18T13:29:56.607Z</time></trkpt><trkpt lat="46.1806383" lon="12.04839"><ele>532.6666666666666</ele><time>2026-04-18T13:29:57.607Z</time></trkpt><trkpt lat="46.1805533" lon="12.0486167"><ele>530.0</ele><time>2026-04-18T13:29:58.608Z</time></trkpt><trkpt lat="46.1804333" lon="12.048765"><ele>530.0</ele><time>2026-04-18T13:29:59.607Z</time></trkpt><trkpt lat="46.1802933" lon="12.0488467"><ele>530.0</ele><time>2026-04-18T13:30:00.607Z</time></trkpt><trkpt lat="46.18015" lon="12.0488767"><ele>530.0</ele><time>2026-04-18T13:30:01.607Z</time></trkpt><trkpt lat="46.1800067" lon="12.048895"><ele>530.0</ele><time>2026-04-18T13:30:02.608Z</time></trkpt><trkpt lat="46.1798583" lon="12.048895"><ele>545.3333333333333</ele><time>2026-04-18T13:30:03.607Z</time></trkpt><trkpt lat="46.17957" lon="12.0488833"><ele>560.6666666666666</ele><time>2026-04-18T13:30:05.607Z</time></trkpt><trkpt lat="46.1794183" lon="12.0488983"><ele>576.0</ele><time>2026-04-18T13:30:06.607Z</time></trkpt><trkpt lat="46.1792467" lon="12.0489333"><ele>519.0</ele><time>2026-04-18T13:30:07.607Z</time></trkpt><trkpt lat="46.1792033" lon="12.049685"><ele>520.5</ele><time>2026-04-18T13:30:08.607Z</time></trkpt><trkpt lat="46.1790567" lon="12.04999"><ele>522.0</ele><time>2026-04-18T13:30:09.608Z</time></trkpt><trkpt lat="46.1789067" lon="12.0502433"><ele>522.0</ele><time>2026-04-18T13:30:10.607Z</time></trkpt><trkpt lat="46.17879" lon="12.0505067"><ele>522.0</ele><time>2026-04-18T13:30:11.607Z</time></trkpt><trkpt lat="46.178705" lon="12.0507067"><ele>522.0</ele><time>2026-04-18T13:30:12.607Z</time></trkpt><trkpt lat="46.1786117" lon="12.05089"><ele>519.75</ele><time>2026-04-18T13:30:13.607Z</time></trkpt><trkpt lat="46.1785183" lon="12.0510417"><ele>517.5</ele><time>2026-04-18T13:30:14.607Z</time></trkpt><trkpt lat="46.1784133" lon="12.0511383"><ele>515.25</ele><time>2026-04-18T13:30:15.607Z</time></trkpt><trkpt lat="46.17828" lon="12.0512183"><ele>513.0</ele><time>2026-04-18T13:30:16.608Z</time></trkpt><trkpt lat="46.1781317" lon="12.05129"><ele>513.0</ele><time>2026-04-18T13:30:17.607Z</time></trkpt><trkpt lat="46.1779717" lon="12.0513833"><ele>513.0</ele><time>2026-04-18T13:30:18.607Z</time></trkpt><trkpt lat="46.1777783" lon="12.0515117"><ele>513.0</ele><time>2026-04-18T13:30:19.608Z</time></trkpt><trkpt lat="46.17758" lon="12.05165"><ele>503.33333333333337</ele><time>2026-04-18T13:30:20.608Z</time></trkpt><trkpt lat="46.177395" lon="12.0517883"><ele>493.6666666666667</ele><time>2026-04-18T13:30:21.608Z</time></trkpt><trkpt lat="46.177225" lon="12.0519283"><ele>484.0</ele><time>2026-04-18T13:30:22.607Z</time></trkpt><trkpt lat="46.177055" lon="12.0520767"><ele>484.0</ele><time>2026-04-18T13:30:23.607Z</time></trkpt><trkpt lat="46.1768883" lon="12.05225"><ele>484.0</ele><time>2026-04-18T13:30:24.608Z</time></trkpt><trkpt lat="46.1767233" lon="12.0524183"><ele>484.0</ele><time>2026-04-18T13:30:25.607Z</time></trkpt><trkpt lat="46.1765833" lon="12.0525917"><ele>479.75</ele><time>2026-04-18T13:30:26.607Z</time></trkpt><trkpt lat="46.17648" lon="12.0527317"><ele>475.5</ele><time>2026-04-18T13:30:27.607Z</time></trkpt><trkpt lat="46.1763933" lon="12.0528633"><ele>471.25</ele><time>2026-04-18T13:30:28.607Z</time></trkpt><trkpt lat="46.1763017" lon="12.05299"><ele>467.0</ele><time>2026-04-18T13:30:29.607Z</time></trkpt><trkpt lat="46.1762" lon="12.0531"><ele>467.0</ele><time>2026-04-18T13:30:30.607Z</time></trkpt><trkpt lat="46.176085" lon="12.053185"><ele>467.0</ele><time>2026-04-18T13:30:31.607Z</time></trkpt><trkpt lat="46.1759483" lon="12.053245"><ele>467.0</ele><time>2026-04-18T13:30:32.608Z</time></trkpt><trkpt lat="46.17579" lon="12.053275"><ele>467.0</ele><time>2026-04-18T13:30:33.608Z</time></trkpt><trkpt lat="46.1756183" lon="12.0532917"><ele>469.0</ele><time>2026-04-18T13:30:34.607Z</time></trkpt><trkpt lat="46.1754583" lon="12.053315"><ele>471.0</ele><time>2026-04-18T13:30:35.607Z</time></trkpt><trkpt lat="46.1753067" lon="12.0532967"><ele>473.0</ele><time>2026-04-18T13:30:36.608Z</time></trkpt><trkpt lat="46.1751583" lon="12.0532783"><ele>473.0</ele><time>2026-04-18T13:30:37.607Z</time></trkpt><trkpt lat="46.1750083" lon="12.053265"><ele>473.0</ele><time>2026-04-18T13:30:38.607Z</time></trkpt><trkpt lat="46.1748333" lon="12.0532883"><ele>473.0</ele><time>2026-04-18T13:30:39.607Z</time></trkpt><trkpt lat="46.17465" lon="12.053365"><ele>464.3333333333333</ele><time>2026-04-18T13:30:40.607Z</time></trkpt><trkpt lat="46.1744783" lon="12.0534483"><ele>455.66666666666663</ele><time>2026-04-18T13:30:41.608Z</time></trkpt><trkpt lat="46.174305" lon="12.0535317"><ele>447.0</ele><time>2026-04-18T13:30:42.607Z</time></trkpt><trkpt lat="46.1741367" lon="12.0535883"><ele>449.33333333333337</ele><time>2026-04-18T13:30:43.607Z</time></trkpt><trkpt lat="46.1739567" lon="12.0536517"><ele>451.6666666666667</ele><time>2026-04-18T13:30:44.607Z</time></trkpt><trkpt lat="46.1737917" lon="12.053705"><ele>454.0</ele><time>2026-04-18T13:30:45.608Z</time></trkpt><trkpt lat="46.1736417" lon="12.0537717"><ele>454.0</ele><time>2026-04-18T13:30:46.607Z</time></trkpt><trkpt lat="46.1734967" lon="12.0538333"><ele>454.0</ele><time>2026-04-18T13:30:47.607Z</time></trkpt><trkpt lat="46.1733433" lon="12.0538567"><ele>454.0</ele><time>2026-04-18T13:30:48.607Z</time></trkpt><trkpt lat="46.1731833" lon="12.053855"><ele>458.75</ele><time>2026-04-18T13:30:49.607Z</time></trkpt><trkpt lat="46.1730333" lon="12.0538467"><ele>463.5</ele><time>2026-04-18T13:30:50.607Z</time></trkpt><trkpt lat="46.172895" lon="12.0538483"><ele>468.25</ele><time>2026-04-18T13:30:51.607Z</time></trkpt><trkpt lat="46.17276" lon="12.0538683"><ele>473.0</ele><time>2026-04-18T13:30:52.608Z</time></trkpt><trkpt lat="46.1726383" lon="12.0539217"><ele>473.0</ele><time>2026-04-18T13:30:53.607Z</time></trkpt><trkpt lat="46.1725233" lon="12.054065"><ele>473.0</ele><time>2026-04-18T13:30:54.608Z</time></trkpt><trkpt lat="46.1723917" lon="12.0542033"><ele>473.0</ele><time>2026-04-18T13:30:55.608Z</time></trkpt><trkpt lat="46.1722667" lon="12.0543233"><ele>473.66666666666663</ele><time>2026-04-18T13:30:56.608Z</time></trkpt><trkpt lat="46.1721483" lon="12.0544333"><ele>474.33333333333337</ele><time>2026-04-18T13:30:57.607Z</time></trkpt><trkpt lat="46.172035" lon="12.054585"><ele>475.0</ele><time>2026-04-18T13:30:58.607Z</time></trkpt><trkpt lat="46.17193" lon="12.0547983"><ele>464.6666666666667</ele><time>2026-04-18T13:30:59.608Z</time></trkpt><trkpt lat="46.171835" lon="12.0550167"><ele>454.33333333333337</ele><time>2026-04-18T13:31:00.608Z</time></trkpt><trkpt lat="46.1717383" lon="12.055215"><ele>444.0</ele><time>2026-04-18T13:31:01.607Z</time></trkpt><trkpt lat="46.17167" lon="12.0553717"><ele>444.0</ele><time>2026-04-18T13:31:02.608Z</time></trkpt><trkpt lat="46.1716017" lon="12.05549"><ele>444.0</ele><time>2026-04-18T13:31:03.607Z</time></trkpt><trkpt lat="46.1715217" lon="12.055585"><ele>444.0</ele><time>2026-04-18T13:31:04.607Z</time></trkpt><trkpt lat="46.1714317" lon="12.0556683"><ele>444.0</ele><time>2026-04-18T13:31:05.607Z</time></trkpt><trkpt lat="46.171305" lon="12.05568"><ele>444.0</ele><time>2026-04-18T13:31:06.607Z</time></trkpt><trkpt lat="46.1711783" lon="12.0556767"><ele>449.0</ele><time>2026-04-18T13:31:07.607Z</time></trkpt><trkpt lat="46.1710567" lon="12.0556783"><ele>454.0</ele><time>2026-04-18T13:31:08.607Z</time></trkpt><trkpt lat="46.1709283" lon="12.0557"><ele>459.0</ele><time>2026-04-18T13:31:09.608Z</time></trkpt><trkpt lat="46.1707983" lon="12.05576"><ele>464.0</ele><time>2026-04-18T13:31:10.607Z</time></trkpt><trkpt lat="46.17066" lon="12.0558467"><ele>466.25</ele><time>2026-04-18T13:31:11.608Z</time></trkpt><trkpt lat="46.17053" lon="12.0559317"><ele>468.5</ele><time>2026-04-18T13:31:12.608Z</time></trkpt><trkpt lat="46.1704067" lon="12.0560217"><ele>470.75</ele><time>2026-04-18T13:31:13.607Z</time></trkpt><trkpt lat="46.1702917" lon="12.0561117"><ele>473.0</ele><time>2026-04-18T13:31:14.608Z</time></trkpt><trkpt lat="46.1701817" lon="12.0561833"><ele>473.0</ele><time>2026-04-18T13:31:15.607Z</time></trkpt><trkpt lat="46.1700533" lon="12.0562367"><ele>473.0</ele><time>2026-04-18T13:31:16.608Z</time></trkpt><trkpt lat="46.1699283" lon="12.05631"><ele>473.0</ele><time>2026-04-18T13:31:17.607Z</time></trkpt><trkpt lat="46.16968" lon="12.0564033"><ele>466.3333333333333</ele><time>2026-04-18T13:31:18.607Z</time></trkpt><trkpt lat="46.169585" lon="12.0566067"><ele>459.66666666666663</ele><time>2026-04-18T13:31:19.608Z</time></trkpt><trkpt lat="46.1695033" lon="12.0567767"><ele>453.0</ele><time>2026-04-18T13:31:20.607Z</time></trkpt><trkpt lat="46.1694" lon="12.05691"><ele>453.0</ele><time>2026-04-18T13:31:21.607Z</time></trkpt><trkpt lat="46.1692733" lon="12.0569667"><ele>453.0</ele><time>2026-04-18T13:31:22.607Z</time></trkpt><trkpt lat="46.16915" lon="12.0569517"><ele>453.0</ele><time>2026-04-18T13:31:23.607Z</time></trkpt><trkpt lat="46.1690183" lon="12.056925"><ele>453.0</ele><time>2026-04-18T13:31:24.607Z</time></trkpt><trkpt lat="46.1688883" lon="12.0569083"><ele>461.5</ele><time>2026-04-18T13:31:25.607Z</time></trkpt><trkpt lat="46.1687567" lon="12.056885"><ele>470.0</ele><time>2026-04-18T13:31:26.607Z</time></trkpt><trkpt lat="46.16862" lon="12.0568467"><ele>478.5</ele><time>2026-04-18T13:31:27.608Z</time></trkpt><trkpt lat="46.1684467" lon="12.0568333"><ele>487.0</ele><time>2026-04-18T13:31:28.607Z</time></trkpt><trkpt lat="46.1683" lon="12.0568667"><ele>489.75</ele><time>2026-04-18T13:31:29.607Z</time></trkpt><trkpt lat="46.1681733" lon="12.0569017"><ele>492.5</ele><time>2026-04-18T13:31:30.607Z</time></trkpt><trkpt lat="46.1680317" lon="12.0569967"><ele>495.25</ele><time>2026-04-18T13:31:31.608Z</time></trkpt><trkpt lat="46.1679083" lon="12.0571367"><ele>498.0</ele><time>2026-04-18T13:31:32.608Z</time></trkpt><trkpt lat="46.1678133" lon="12.057275"><ele>498.0</ele><time>2026-04-18T13:31:33.607Z</time></trkpt><trkpt lat="46.1677167" lon="12.057385"><ele>498.0</ele><time>2026-04-18T13:31:34.608Z</time></trkpt><trkpt lat="46.16759" lon="12.0574767"><ele>498.0</ele><time>2026-04-18T13:31:35.608Z</time></trkpt><trkpt lat="46.16744" lon="12.05757"><ele>498.0</ele><time>2026-04-18T13:31:36.607Z</time></trkpt><trkpt lat="46.1672633" lon="12.0576617"><ele>479.0</ele><time>2026-04-18T13:31:37.607Z</time></trkpt><trkpt lat="46.16703" lon="12.05778"><ele>460.0</ele><time>2026-04-18T13:31:38.607Z</time></trkpt><trkpt lat="46.1668333" lon="12.0578933"><ele>460.0</ele><time>2026-04-18T13:31:39.608Z</time></trkpt><trkpt lat="46.1666467" lon="12.0579883"><ele>460.0</ele><time>2026-04-18T13:31:40.608Z</time></trkpt><trkpt lat="46.1664783" lon="12.0580283"><ele>460.0</ele><time>2026-04-18T13:31:41.607Z</time></trkpt><trkpt lat="46.1663317" lon="12.0580383"><ele>462.0</ele><time>2026-04-18T13:31:42.608Z</time></trkpt><trkpt lat="46.16619" lon="12.0580567"><ele>464.0</ele><time>2026-04-18T13:31:43.607Z</time></trkpt><trkpt lat="46.1660567" lon="12.058115"><ele>466.0</ele><time>2026-04-18T13:31:44.608Z</time></trkpt><trkpt lat="46.1659283" lon="12.0582233"><ele>468.0</ele><time>2026-04-18T13:31:45.607Z</time></trkpt><trkpt lat="46.1658033" lon="12.05839"><ele>462.0</ele><time>2026-04-18T13:31:46.607Z</time></trkpt><trkpt lat="46.1656817" lon="12.0586033"><ele>456.0</ele><time>2026-04-18T13:31:47.607Z</time></trkpt><trkpt lat="46.1655633" lon="12.0587833"><ele>450.0</ele><time>2026-04-18T13:31:48.607Z</time></trkpt><trkpt lat="46.1654667" lon="12.0589267"><ele>450.0</ele><time>2026-04-18T13:31:49.607Z</time></trkpt><trkpt lat="46.16538" lon="12.0590617"><ele>450.0</ele><time>2026-04-18T13:31:50.607Z</time></trkpt><trkpt lat="46.165305" lon="12.0592033"><ele>450.0</ele><time>2026-04-18T13:31:51.607Z</time></trkpt><trkpt lat="46.1652283" lon="12.0593417"><ele>450.0</ele><time>2026-04-18T13:31:52.608Z</time></trkpt><trkpt lat="46.1651533" lon="12.0594683"><ele>449.0</ele><time>2026-04-18T13:31:53.608Z</time></trkpt><trkpt lat="46.1650833" lon="12.0595783"><ele>448.0</ele><time>2026-04-18T13:31:54.607Z</time></trkpt><trkpt lat="46.1650183" lon="12.0596867"><ele>447.0</ele><time>2026-04-18T13:31:55.607Z</time></trkpt><trkpt lat="46.1649567" lon="12.05977"><ele>446.0</ele><time>2026-04-18T13:31:56.607Z</time></trkpt><trkpt lat="46.164895" lon="12.0598333"><ele>445.0</ele><time>2026-04-18T13:31:57.607Z</time></trkpt><trkpt lat="46.1648133" lon="12.05991"><ele>440.5</ele><time>2026-04-18T13:31:58.608Z</time></trkpt><trkpt lat="46.1647133" lon="12.0599933"><ele>436.0</ele><time>2026-04-18T13:31:59.608Z</time></trkpt><trkpt lat="46.164595" lon="12.06009"><ele>431.5</ele><time>2026-04-18T13:32:00.607Z</time></trkpt><trkpt lat="46.16446" lon="12.0602117"><ele>427.0</ele><time>2026-04-18T13:32:01.607Z</time></trkpt><trkpt lat="46.1642783" lon="12.0603433"><ele>427.0</ele><time>2026-04-18T13:32:02.607Z</time></trkpt><trkpt lat="46.1640983" lon="12.0605"><ele>427.0</ele><time>2026-04-18T13:32:03.607Z</time></trkpt><trkpt lat="46.1639417" lon="12.0606083"><ele>427.0</ele><time>2026-04-18T13:32:04.607Z</time></trkpt><trkpt lat="46.1637883" lon="12.0607017"><ele>432.25</ele><time>2026-04-18T13:32:05.607Z</time></trkpt><trkpt lat="46.163645" lon="12.06079"><ele>437.5</ele><time>2026-04-18T13:32:06.607Z</time></trkpt><trkpt lat="46.1635183" lon="12.0608767"><ele>442.75</ele><time>2026-04-18T13:32:07.607Z</time></trkpt><trkpt lat="46.16341" lon="12.0609467"><ele>448.0</ele><time>2026-04-18T13:32:08.607Z</time></trkpt><trkpt lat="46.1633083" lon="12.06102"><ele>448.0</ele><time>2026-04-18T13:32:09.607Z</time></trkpt><trkpt lat="46.163205" lon="12.061095"><ele>448.0</ele><time>2026-04-18T13:32:10.608Z</time></trkpt><trkpt lat="46.1631033" lon="12.06117"><ele>448.0</ele><time>2026-04-18T13:32:11.608Z</time></trkpt><trkpt lat="46.1630033" lon="12.0612383"><ele>448.0</ele><time>2026-04-18T13:32:12.607Z</time></trkpt><trkpt lat="46.1628983" lon="12.0613067"><ele>463.0</ele><time>2026-04-18T13:32:13.607Z</time></trkpt><trkpt lat="46.1627867" lon="12.0613767"><ele>478.0</ele><time>2026-04-18T13:32:14.607Z</time></trkpt><trkpt lat="46.162675" lon="12.061435"><ele>493.0</ele><time>2026-04-18T13:32:15.607Z</time></trkpt><trkpt lat="46.1625683" lon="12.0614967"><ele>508.0</ele><time>2026-04-18T13:32:16.608Z</time></trkpt><trkpt lat="46.1624567" lon="12.0615567"><ele>517.0</ele><time>2026-04-18T13:32:17.607Z</time></trkpt><trkpt lat="46.1627417" lon="12.0623617"><ele>524.0</ele><time>2026-04-18T13:32:20.607Z</time></trkpt><trkpt lat="46.16286" lon="12.0626583"><ele>531.0</ele><time>2026-04-18T13:32:21.607Z</time></trkpt><trkpt lat="46.1630633" lon="12.0630017"><ele>531.0</ele><time>2026-04-18T13:32:22.607Z</time></trkpt><trkpt lat="46.1631133" lon="12.0632333"><ele>531.0</ele><time>2026-04-18T13:32:23.607Z</time></trkpt><trkpt lat="46.1631583" lon="12.0634383"><ele>531.0</ele><time>2026-04-18T13:32:24.607Z</time></trkpt><trkpt lat="46.1631683" lon="12.0636233"><ele>531.0</ele><time>2026-04-18T13:32:25.607Z</time></trkpt><trkpt lat="46.1631783" lon="12.06381"><ele>536.0</ele><time>2026-04-18T13:32:26.607Z</time></trkpt><trkpt lat="46.1631883" lon="12.063995"><ele>541.0</ele><time>2026-04-18T13:32:27.607Z</time></trkpt><trkpt lat="46.1631983" lon="12.06418"><ele>546.0</ele><time>2026-04-18T13:32:28.607Z</time></trkpt><trkpt lat="46.162785" lon="12.0665317"><ele>529.5</ele><time>2026-04-18T13:32:38.607Z</time></trkpt><trkpt lat="46.1627167" lon="12.0666883"><ele>513.0</ele><time>2026-04-18T13:32:39.607Z</time></trkpt><trkpt lat="46.1626333" lon="12.0668683"><ele>496.5</ele><time>2026-04-18T13:32:40.607Z</time></trkpt><trkpt lat="46.16255" lon="12.0670433"><ele>480.0</ele><time>2026-04-18T13:32:41.607Z</time></trkpt><trkpt lat="46.1624683" lon="12.0671917"><ele>480.0</ele><time>2026-04-18T13:32:42.607Z</time></trkpt><trkpt lat="46.1623967" lon="12.0673267"><ele>480.0</ele><time>2026-04-18T13:32:43.607Z</time></trkpt><trkpt lat="46.162325" lon="12.06746"><ele>480.0</ele><time>2026-04-18T13:32:44.607Z</time></trkpt><trkpt lat="46.16226" lon="12.0676"><ele>480.0</ele><time>2026-04-18T13:32:45.607Z</time></trkpt><trkpt lat="46.1621617" lon="12.0677433"><ele>504.33333333333337</ele><time>2026-04-18T13:32:46.608Z</time></trkpt><trkpt lat="46.1620883" lon="12.0679483"><ele>528.6666666666667</ele><time>2026-04-18T13:32:47.607Z</time></trkpt><trkpt lat="46.1620267" lon="12.068185"><ele>553.0</ele><time>2026-04-18T13:32:48.607Z</time></trkpt><trkpt lat="46.16201" lon="12.0685133"><ele>553.0</ele><time>2026-04-18T13:32:49.608Z</time></trkpt><trkpt lat="46.162015" lon="12.06888"><ele>553.0</ele><time>2026-04-18T13:32:50.607Z</time></trkpt><trkpt lat="46.16212" lon="12.0692583"><ele>539.6666666666667</ele><time>2026-04-18T13:32:51.608Z</time></trkpt><trkpt lat="46.16214" lon="12.0695483"><ele>526.3333333333334</ele><time>2026-04-18T13:32:52.607Z</time></trkpt><trkpt lat="46.1621167" lon="12.0698067"><ele>513.0</ele><time>2026-04-18T13:32:53.607Z</time></trkpt><trkpt lat="46.1620867" lon="12.0700617"><ele>500.0</ele><time>2026-04-18T13:32:54.607Z</time></trkpt><trkpt lat="46.162055" lon="12.07032"><ele>487.0</ele><time>2026-04-18T13:32:55.607Z</time></trkpt><trkpt lat="46.1620267" lon="12.0705833"><ele>474.0</ele><time>2026-04-18T13:32:56.607Z</time></trkpt><trkpt lat="46.1620033" lon="12.0708533"><ele>470.75</ele><time>2026-04-18T13:32:57.607Z</time></trkpt><trkpt lat="46.1620267" lon="12.0711117"><ele>467.5</ele><time>2026-04-18T13:32:58.607Z</time></trkpt><trkpt lat="46.1619783" lon="12.0712283"><ele>464.25</ele><time>2026-04-18T13:32:59.607Z</time></trkpt><trkpt lat="46.1619117" lon="12.071385"><ele>461.0</ele><time>2026-04-18T13:33:00.607Z</time></trkpt><trkpt lat="46.161785" lon="12.07159"><ele>455.0</ele><time>2026-04-18T13:33:01.607Z</time></trkpt><trkpt lat="46.1616683" lon="12.0718067"><ele>449.0</ele><time>2026-04-18T13:33:02.607Z</time></trkpt><trkpt lat="46.1615517" lon="12.07207"><ele>443.0</ele><time>2026-04-18T13:33:03.607Z</time></trkpt><trkpt lat="46.161455" lon="12.0723567"><ele>470.0</ele><time>2026-04-18T13:33:04.607Z</time></trkpt><trkpt lat="46.1613767" lon="12.0726633"><ele>497.0</ele><time>2026-04-18T13:33:05.607Z</time></trkpt><trkpt lat="46.1613033" lon="12.072945"><ele>524.0</ele><time>2026-04-18T13:33:06.608Z</time></trkpt><trkpt lat="46.1612433" lon="12.0731883"><ele>518.3333333333333</ele><time>2026-04-18T13:33:07.607Z</time></trkpt><trkpt lat="46.1611817" lon="12.07343"><ele>512.6666666666666</ele><time>2026-04-18T13:33:08.607Z</time></trkpt><trkpt lat="46.161145" lon="12.0737383"><ele>507.0</ele><time>2026-04-18T13:33:09.607Z</time></trkpt><trkpt lat="46.1611167" lon="12.0740633"><ele>497.33333333333337</ele><time>2026-04-18T13:33:10.607Z</time></trkpt><trkpt lat="46.16109" lon="12.0743867"><ele>487.6666666666667</ele><time>2026-04-18T13:33:11.607Z</time></trkpt><trkpt lat="46.16105" lon="12.0746867"><ele>478.0</ele><time>2026-04-18T13:33:12.607Z</time></trkpt><trkpt lat="46.1610133" lon="12.0749733"><ele>471.6666666666667</ele><time>2026-04-18T13:33:13.607Z</time></trkpt><trkpt lat="46.1609667" lon="12.0752533"><ele>465.33333333333337</ele><time>2026-04-18T13:33:14.607Z</time></trkpt><trkpt lat="46.1609083" lon="12.0755283"><ele>459.0</ele><time>2026-04-18T13:33:15.607Z</time></trkpt><trkpt lat="46.160855" lon="12.0757967"><ele>453.66666666666663</ele><time>2026-04-18T13:33:16.608Z</time></trkpt><trkpt lat="46.1608183" lon="12.0760317"><ele>448.3333333333333</ele><time>2026-04-18T13:33:17.607Z</time></trkpt><trkpt lat="46.1607917" lon="12.0762767"><ele>443.0</ele><time>2026-04-18T13:33:18.607Z</time></trkpt><trkpt lat="46.16079" lon="12.0765183"><ele>440.3333333333333</ele><time>2026-04-18T13:33:19.607Z</time></trkpt><trkpt lat="46.160795" lon="12.07675"><ele>437.66666666666663</ele><time>2026-04-18T13:33:20.608Z</time></trkpt><trkpt lat="46.1607717" lon="12.0769617"><ele>435.0</ele><time>2026-04-18T13:33:21.607Z</time></trkpt><trkpt lat="46.1607217" lon="12.0771733"><ele>454.25</ele><time>2026-04-18T13:33:22.607Z</time></trkpt><trkpt lat="46.160665" lon="12.0773683"><ele>473.5</ele><time>2026-04-18T13:33:23.607Z</time></trkpt><trkpt lat="46.1606217" lon="12.0775517"><ele>492.75</ele><time>2026-04-18T13:33:24.608Z</time></trkpt><trkpt lat="46.1606017" lon="12.077755"><ele>512.0</ele><time>2026-04-18T13:33:25.607Z</time></trkpt><trkpt lat="46.1606083" lon="12.0779817"><ele>512.0</ele><time>2026-04-18T13:33:26.607Z</time></trkpt><trkpt lat="46.1606" lon="12.0782083"><ele>512.0</ele><time>2026-04-18T13:33:27.607Z</time></trkpt><trkpt lat="46.1605983" lon="12.0784433"><ele>512.0</ele><time>2026-04-18T13:33:28.607Z</time></trkpt><trkpt lat="46.1605483" lon="12.078695"><ele>506.3333333333333</ele><time>2026-04-18T13:33:29.608Z</time></trkpt><trkpt lat="46.1604867" lon="12.0789533"><ele>500.66666666666663</ele><time>2026-04-18T13:33:30.607Z</time></trkpt><trkpt lat="46.1604183" lon="12.0792117"><ele>495.0</ele><time>2026-04-18T13:33:31.608Z</time></trkpt><trkpt lat="46.160335" lon="12.0794667"><ele>486.33333333333337</ele><time>2026-04-18T13:33:32.607Z</time></trkpt><trkpt lat="46.1602867" lon="12.0797367"><ele>477.6666666666667</ele><time>2026-04-18T13:33:33.607Z</time></trkpt><trkpt lat="46.1602733" lon="12.080025"><ele>469.0</ele><time>2026-04-18T13:33:34.607Z</time></trkpt><trkpt lat="46.1602833" lon="12.0803033"><ele>464.6666666666667</ele><time>2026-04-18T13:33:35.607Z</time></trkpt><trkpt lat="46.1602967" lon="12.0805567"><ele>460.33333333333337</ele><time>2026-04-18T13:33:36.607Z</time></trkpt><trkpt lat="46.1603017" lon="12.0807983"><ele>456.0</ele><time>2026-04-18T13:33:37.607Z</time></trkpt><trkpt lat="46.1602933" lon="12.0810167"><ele>453.66666666666663</ele><time>2026-04-18T13:33:38.607Z</time></trkpt><trkpt lat="46.1602883" lon="12.08125"><ele>451.3333333333333</ele><time>2026-04-18T13:33:39.607Z</time></trkpt><trkpt lat="46.1602833" lon="12.0814783"><ele>449.0</ele><time>2026-04-18T13:33:40.607Z</time></trkpt><trkpt lat="46.1602767" lon="12.0817117"><ele>446.0</ele><time>2026-04-18T13:33:41.607Z</time></trkpt><trkpt lat="46.15952" lon="12.0840283"><ele>443.25</ele><time>2026-04-18T13:33:50.608Z</time></trkpt><trkpt lat="46.15945" lon="12.084275"><ele>440.5</ele><time>2026-04-18T13:33:52.608Z</time></trkpt><trkpt lat="46.1594067" lon="12.0844333"><ele>437.75</ele><time>2026-04-18T13:33:53.608Z</time></trkpt><trkpt lat="46.1593367" lon="12.08457"><ele>435.0</ele><time>2026-04-18T13:33:54.608Z</time></trkpt><trkpt lat="46.1592117" lon="12.0846583"><ele>435.0</ele><time>2026-04-18T13:33:55.608Z</time></trkpt><trkpt lat="46.1590717" lon="12.0847283"><ele>435.0</ele><time>2026-04-18T13:33:56.608Z</time></trkpt><trkpt lat="46.1589117" lon="12.08477"><ele>435.0</ele><time>2026-04-18T13:33:57.608Z</time></trkpt><trkpt lat="46.158725" lon="12.08479"><ele>435.0</ele><time>2026-04-18T13:33:58.609Z</time></trkpt><trkpt lat="46.158535" lon="12.08479"><ele>435.0</ele><time>2026-04-18T13:33:59.608Z</time></trkpt><trkpt lat="46.15834" lon="12.0847783"><ele>435.0</ele><time>2026-04-18T13:34:00.609Z</time></trkpt><trkpt lat="46.1581583" lon="12.084775"><ele>433.0</ele><time>2026-04-18T13:34:01.608Z</time></trkpt><trkpt lat="46.15798" lon="12.0847767"><ele>431.0</ele><time>2026-04-18T13:34:02.608Z</time></trkpt><trkpt lat="46.157795" lon="12.0847617"><ele>429.0</ele><time>2026-04-18T13:34:03.608Z</time></trkpt><trkpt lat="46.1576267" lon="12.08474"><ele>429.0</ele><time>2026-04-18T13:34:04.608Z</time></trkpt><trkpt lat="46.1574517" lon="12.0847483"><ele>429.0</ele><time>2026-04-18T13:34:05.608Z</time></trkpt><trkpt lat="46.1572983" lon="12.084755"><ele>429.0</ele><time>2026-04-18T13:34:06.608Z</time></trkpt><trkpt lat="46.157145" lon="12.0847483"><ele>426.33333333333337</ele><time>2026-04-18T13:34:07.608Z</time></trkpt><trkpt lat="46.1570017" lon="12.084705"><ele>423.6666666666667</ele><time>2026-04-18T13:34:08.608Z</time></trkpt><trkpt lat="46.15685" lon="12.084615"><ele>421.0</ele><time>2026-04-18T13:34:09.609Z</time></trkpt><trkpt lat="46.1567017" lon="12.08449"><ele>421.0</ele><time>2026-04-18T13:34:10.608Z</time></trkpt><trkpt lat="46.1565567" lon="12.0843733"><ele>421.0</ele><time>2026-04-18T13:34:11.608Z</time></trkpt><trkpt lat="46.15642" lon="12.0842467"><ele>421.0</ele><time>2026-04-18T13:34:12.608Z</time></trkpt><trkpt lat="46.1562933" lon="12.0841033"><ele>419.0</ele><time>2026-04-18T13:34:13.609Z</time></trkpt><trkpt lat="46.1561783" lon="12.0839667"><ele>417.0</ele><time>2026-04-18T13:34:14.609Z</time></trkpt><trkpt lat="46.1560767" lon="12.083815"><ele>415.0</ele><time>2026-04-18T13:34:15.608Z</time></trkpt><trkpt lat="46.1559717" lon="12.0836433"><ele>415.0</ele><time>2026-04-18T13:34:16.608Z</time></trkpt><trkpt lat="46.15588" lon="12.0834633"><ele>415.0</ele><time>2026-04-18T13:34:17.608Z</time></trkpt><trkpt lat="46.15582" lon="12.0832583"><ele>415.0</ele><time>2026-04-18T13:34:18.608Z</time></trkpt><trkpt lat="46.1557517" lon="12.08306"><ele>411.33333333333337</ele><time>2026-04-18T13:34:19.608Z</time></trkpt><trkpt lat="46.1556483" lon="12.0828817"><ele>407.66666666666663</ele><time>2026-04-18T13:34:20.608Z</time></trkpt><trkpt lat="46.1555133" lon="12.0827117"><ele>404.0</ele><time>2026-04-18T13:34:21.608Z</time></trkpt><trkpt lat="46.15535" lon="12.0825517"><ele>413.3333333333333</ele><time>2026-04-18T13:34:22.608Z</time></trkpt><trkpt lat="46.1551917" lon="12.0824083"><ele>422.66666666666663</ele><time>2026-04-18T13:34:23.608Z</time></trkpt><trkpt lat="46.1550333" lon="12.08227"><ele>432.0</ele><time>2026-04-18T13:34:24.608Z</time></trkpt><trkpt lat="46.1548917" lon="12.08214"><ele>424.66666666666663</ele><time>2026-04-18T13:34:25.608Z</time></trkpt><trkpt lat="46.1547617" lon="12.0820233"><ele>417.3333333333333</ele><time>2026-04-18T13:34:26.609Z</time></trkpt><trkpt lat="46.1546217" lon="12.0819417"><ele>410.0</ele><time>2026-04-18T13:34:27.608Z</time></trkpt><trkpt lat="46.1544717" lon="12.081865"><ele>410.0</ele><time>2026-04-18T13:34:28.609Z</time></trkpt><trkpt lat="46.1542983" lon="12.081815"><ele>410.0</ele><time>2026-04-18T13:34:29.608Z</time></trkpt><trkpt lat="46.1541283" lon="12.0817683"><ele>410.0</ele><time>2026-04-18T13:34:30.608Z</time></trkpt><trkpt lat="46.1539683" lon="12.08172"><ele>409.0</ele><time>2026-04-18T13:34:31.608Z</time></trkpt><trkpt lat="46.1538417" lon="12.08166"><ele>408.0</ele><time>2026-04-18T13:34:32.609Z</time></trkpt><trkpt lat="46.1537383" lon="12.08157"><ele>407.0</ele><time>2026-04-18T13:34:33.608Z</time></trkpt><trkpt lat="46.1536333" lon="12.0814483"><ele>406.0</ele><time>2026-04-18T13:34:34.609Z</time></trkpt><trkpt lat="46.1535333" lon="12.0812967"><ele>406.0</ele><time>2026-04-18T13:34:35.608Z</time></trkpt><trkpt lat="46.1534783" lon="12.0811217"><ele>406.0</ele><time>2026-04-18T13:34:36.608Z</time></trkpt><trkpt lat="46.1534233" lon="12.080965"><ele>406.0</ele><time>2026-04-18T13:34:37.608Z</time></trkpt><trkpt lat="46.1534" lon="12.0808483"><ele>406.0</ele><time>2026-04-18T13:34:38.608Z</time></trkpt><trkpt lat="46.15339" lon="12.0807517"><ele>406.0</ele><time>2026-04-18T13:34:39.609Z</time></trkpt><trkpt lat="46.1533417" lon="12.0806167"><ele>406.00000000000006</ele><time>2026-04-18T13:34:41.608Z</time></trkpt><trkpt lat="46.1532917" lon="12.0805433"><ele>406.0</ele><time>2026-04-18T13:34:42.609Z</time></trkpt><trkpt lat="46.15324" lon="12.0804483"><ele>406.0</ele><time>2026-04-18T13:34:43.608Z</time></trkpt><trkpt lat="46.1531883" lon="12.0803317"><ele>406.0</ele><time>2026-04-18T13:34:44.608Z</time></trkpt><trkpt lat="46.1531433" lon="12.0802183"><ele>406.00000000000006</ele><time>2026-04-18T13:34:45.609Z</time></trkpt><trkpt lat="46.1530733" lon="12.0801267"><ele>406.0</ele><time>2026-04-18T13:34:46.608Z</time></trkpt><trkpt lat="46.1529783" lon="12.0800733"><ele>406.0</ele><time>2026-04-18T13:34:47.608Z</time></trkpt><trkpt lat="46.152875" lon="12.0800783"><ele>406.0</ele><time>2026-04-18T13:34:48.608Z</time></trkpt><trkpt lat="46.15277" lon="12.080135"><ele>406.0</ele><time>2026-04-18T13:34:49.608Z</time></trkpt><trkpt lat="46.152675" lon="12.0802233"><ele>406.0</ele><time>2026-04-18T13:34:50.608Z</time></trkpt><trkpt lat="46.15261" lon="12.080365"><ele>406.0</ele><time>2026-04-18T13:34:51.608Z</time></trkpt><trkpt lat="46.152575" lon="12.08053"><ele>406.0</ele><time>2026-04-18T13:34:52.608Z</time></trkpt><trkpt lat="46.1525783" lon="12.0806933"><ele>406.0</ele><time>2026-04-18T13:34:53.609Z</time></trkpt><trkpt lat="46.152625" lon="12.080845"><ele>406.0</ele><time>2026-04-18T13:34:54.609Z</time></trkpt><trkpt lat="46.1527133" lon="12.0809833"><ele>406.0</ele><time>2026-04-18T13:34:55.608Z</time></trkpt><trkpt lat="46.15283" lon="12.0811267"><ele>404.0</ele><time>2026-04-18T13:34:56.609Z</time></trkpt><trkpt lat="46.1529417" lon="12.0812483"><ele>402.0</ele><time>2026-04-18T13:34:57.608Z</time></trkpt><trkpt lat="46.153035" lon="12.081395"><ele>400.0</ele><time>2026-04-18T13:34:58.608Z</time></trkpt><trkpt lat="46.1531433" lon="12.0815417"><ele>398.0</ele><time>2026-04-18T13:34:59.608Z</time></trkpt><trkpt lat="46.153245" lon="12.0816867"><ele>398.0</ele><time>2026-04-18T13:35:00.609Z</time></trkpt><trkpt lat="46.1533517" lon="12.0818183"><ele>398.0</ele><time>2026-04-18T13:35:01.608Z</time></trkpt><trkpt lat="46.1534667" lon="12.081935"><ele>398.0</ele><time>2026-04-18T13:35:02.608Z</time></trkpt><trkpt lat="46.1536083" lon="12.0820283"><ele>398.0</ele><time>2026-04-18T13:35:03.608Z</time></trkpt><trkpt lat="46.1537583" lon="12.082125"><ele>398.0</ele><time>2026-04-18T13:35:04.608Z</time></trkpt><trkpt lat="46.1538883" lon="12.0822467"><ele>398.0</ele><time>2026-04-18T13:35:05.608Z</time></trkpt><trkpt lat="46.1539967" lon="12.0823683"><ele>398.0</ele><time>2026-04-18T13:35:06.608Z</time></trkpt><trkpt lat="46.1540833" lon="12.08248"><ele>398.0</ele><time>2026-04-18T13:35:07.609Z</time></trkpt><trkpt lat="46.15418" lon="12.08256"><ele>396.25</ele><time>2026-04-18T13:35:08.608Z</time></trkpt><trkpt lat="46.154285" lon="12.0825933"><ele>394.5</ele><time>2026-04-18T13:35:09.608Z</time></trkpt><trkpt lat="46.1544167" lon="12.08259"><ele>392.75</ele><time>2026-04-18T13:35:10.608Z</time></trkpt><trkpt lat="46.1545417" lon="12.0826217"><ele>391.0</ele><time>2026-04-18T13:35:11.608Z</time></trkpt><trkpt lat="46.1546617" lon="12.0827"><ele>391.0</ele><time>2026-04-18T13:35:12.608Z</time></trkpt><trkpt lat="46.154765" lon="12.0828517"><ele>391.0</ele><time>2026-04-18T13:35:13.608Z</time></trkpt><trkpt lat="46.1548617" lon="12.08302"><ele>391.0</ele><time>2026-04-18T13:35:14.608Z</time></trkpt><trkpt lat="46.1549483" lon="12.0831917"><ele>391.0</ele><time>2026-04-18T13:35:15.608Z</time></trkpt><trkpt lat="46.1550317" lon="12.08338"><ele>389.6666666666667</ele><time>2026-04-18T13:35:16.609Z</time></trkpt><trkpt lat="46.15511" lon="12.0835733"><ele>388.33333333333337</ele><time>2026-04-18T13:35:17.608Z</time></trkpt><trkpt lat="46.1551733" lon="12.0837933"><ele>387.0</ele><time>2026-04-18T13:35:18.608Z</time></trkpt><trkpt lat="46.1552333" lon="12.0840283"><ele>384.5</ele><time>2026-04-18T13:35:19.608Z</time></trkpt><trkpt lat="46.15527" lon="12.0842483"><ele>382.0</ele><time>2026-04-18T13:35:20.608Z</time></trkpt><trkpt lat="46.1553067" lon="12.0844533"><ele>379.5</ele><time>2026-04-18T13:35:21.608Z</time></trkpt><trkpt lat="46.1553383" lon="12.084645"><ele>377.0</ele><time>2026-04-18T13:35:22.609Z</time></trkpt><trkpt lat="46.1553717" lon="12.0848183"><ele>375.75</ele><time>2026-04-18T13:35:23.609Z</time></trkpt><trkpt lat="46.1553983" lon="12.0849917"><ele>374.5</ele><time>2026-04-18T13:35:24.608Z</time></trkpt><trkpt lat="46.155425" lon="12.085165"><ele>373.25</ele><time>2026-04-18T13:35:25.608Z</time></trkpt><trkpt lat="46.15544" lon="12.0853233"><ele>372.0</ele><time>2026-04-18T13:35:26.608Z</time></trkpt><trkpt lat="46.1554517" lon="12.0854983"><ele>372.0</ele><time>2026-04-18T13:35:27.608Z</time></trkpt><trkpt lat="46.155435" lon="12.0856967"><ele>372.0</ele><time>2026-04-18T13:35:28.608Z</time></trkpt><trkpt lat="46.1554083" lon="12.0859"><ele>372.0</ele><time>2026-04-18T13:35:29.608Z</time></trkpt><trkpt lat="46.155375" lon="12.0860733"><ele>372.0</ele><time>2026-04-18T13:35:30.608Z</time></trkpt><trkpt lat="46.1553433" lon="12.0862183"><ele>371.1666666666667</ele><time>2026-04-18T13:35:31.608Z</time></trkpt><trkpt lat="46.155325" lon="12.0863567"><ele>370.3333333333333</ele><time>2026-04-18T13:35:32.608Z</time></trkpt><trkpt lat="46.1553283" lon="12.0864783"><ele>369.5</ele><time>2026-04-18T13:35:33.608Z</time></trkpt><trkpt lat="46.155355" lon="12.0865867"><ele>368.66666666666663</ele><time>2026-04-18T13:35:34.608Z</time></trkpt><trkpt lat="46.1554" lon="12.0866967"><ele>367.8333333333333</ele><time>2026-04-18T13:35:35.608Z</time></trkpt><trkpt lat="46.15545" lon="12.0868117"><ele>367.0</ele><time>2026-04-18T13:35:36.608Z</time></trkpt><trkpt lat="46.1555083" lon="12.0869367"><ele>366.6</ele><time>2026-04-18T13:35:37.608Z</time></trkpt><trkpt lat="46.1555717" lon="12.087065"><ele>366.20000000000005</ele><time>2026-04-18T13:35:38.608Z</time></trkpt><trkpt lat="46.1556383" lon="12.0872"><ele>365.8</ele><time>2026-04-18T13:35:39.609Z</time></trkpt><trkpt lat="46.1557133" lon="12.0873183"><ele>365.4</ele><time>2026-04-18T13:35:40.608Z</time></trkpt><trkpt lat="46.1557833" lon="12.0874183"><ele>365.0</ele><time>2026-04-18T13:35:41.608Z</time></trkpt><trkpt lat="46.1558467" lon="12.0875017"><ele>364.6666666666667</ele><time>2026-04-18T13:35:42.608Z</time></trkpt><trkpt lat="46.15591" lon="12.0875933"><ele>364.33333333333337</ele><time>2026-04-18T13:35:43.608Z</time></trkpt><trkpt lat="46.1559717" lon="12.0876817"><ele>364.0</ele><time>2026-04-18T13:35:44.608Z</time></trkpt><trkpt lat="46.1560383" lon="12.08776"><ele>363.6666666666667</ele><time>2026-04-18T13:35:45.609Z</time></trkpt><trkpt lat="46.1561" lon="12.08784"><ele>363.3333333333333</ele><time>2026-04-18T13:35:46.608Z</time></trkpt><trkpt lat="46.1561483" lon="12.0878983"><ele>363.0</ele><time>2026-04-18T13:35:47.609Z</time></trkpt><trkpt lat="46.1562117" lon="12.088025"><ele>362.99999999999994</ele><time>2026-04-18T13:35:49.608Z</time></trkpt><trkpt lat="46.1562217" lon="12.0881233"><ele>363.0</ele><time>2026-04-18T13:35:50.608Z</time></trkpt><trkpt lat="46.1562333" lon="12.0882317"><ele>363.0</ele><time>2026-04-18T13:35:51.609Z</time></trkpt><trkpt lat="46.1562417" lon="12.0883433"><ele>363.0</ele><time>2026-04-18T13:35:52.608Z</time></trkpt><trkpt lat="46.156245" lon="12.0884483"><ele>363.0</ele><time>2026-04-18T13:35:53.608Z</time></trkpt><trkpt lat="46.15625" lon="12.088555"><ele>362.99999999999994</ele><time>2026-04-18T13:35:54.608Z</time></trkpt><trkpt lat="46.1562533" lon="12.0886617"><ele>363.0</ele><time>2026-04-18T13:35:55.609Z</time></trkpt><trkpt lat="46.1562633" lon="12.08877"><ele>362.2</ele><time>2026-04-18T13:35:56.608Z</time></trkpt><trkpt lat="46.1562717" lon="12.0888983"><ele>361.4</ele><time>2026-04-18T13:35:57.608Z</time></trkpt><trkpt lat="46.15627" lon="12.089055"><ele>360.59999999999997</ele><time>2026-04-18T13:35:58.608Z</time></trkpt><trkpt lat="46.156275" lon="12.089225"><ele>359.79999999999995</ele><time>2026-04-18T13:35:59.608Z</time></trkpt><trkpt lat="46.1562733" lon="12.0893867"><ele>359.0</ele><time>2026-04-18T13:36:00.608Z</time></trkpt><trkpt lat="46.156275" lon="12.0895433"><ele>359.0</ele><time>2026-04-18T13:36:01.608Z</time></trkpt><trkpt lat="46.1562833" lon="12.0897167"><ele>359.0</ele><time>2026-04-18T13:36:02.608Z</time></trkpt><trkpt lat="46.1562967" lon="12.08989"><ele>359.0</ele><time>2026-04-18T13:36:03.608Z</time></trkpt><trkpt lat="46.1563117" lon="12.09008"><ele>359.0</ele><time>2026-04-18T13:36:04.609Z</time></trkpt><trkpt lat="46.1563283" lon="12.0902683"><ele>359.75</ele><time>2026-04-18T13:36:05.608Z</time></trkpt><trkpt lat="46.1563417" lon="12.0904433"><ele>360.5</ele><time>2026-04-18T13:36:06.608Z</time></trkpt><trkpt lat="46.1563617" lon="12.090615"><ele>361.25</ele><time>2026-04-18T13:36:07.609Z</time></trkpt><trkpt lat="46.1563767" lon="12.090775"><ele>362.0</ele><time>2026-04-18T13:36:08.608Z</time></trkpt><trkpt lat="46.1563883" lon="12.0909333"><ele>362.6</ele><time>2026-04-18T13:36:09.608Z</time></trkpt><trkpt lat="46.1564067" lon="12.091085"><ele>363.20000000000005</ele><time>2026-04-18T13:36:10.608Z</time></trkpt><trkpt lat="46.1564267" lon="12.0912333"><ele>363.8</ele><time>2026-04-18T13:36:11.608Z</time></trkpt><trkpt lat="46.156465" lon="12.0913817"><ele>364.4</ele><time>2026-04-18T13:36:12.609Z</time></trkpt><trkpt lat="46.1565033" lon="12.0915317"><ele>365.0</ele><time>2026-04-18T13:36:13.608Z</time></trkpt><trkpt lat="46.1565683" lon="12.0916733"><ele>368.33333333333337</ele><time>2026-04-18T13:36:14.608Z</time></trkpt><trkpt lat="46.1566417" lon="12.0918333"><ele>371.6666666666667</ele><time>2026-04-18T13:36:15.609Z</time></trkpt><trkpt lat="46.15675" lon="12.0920167"><ele>375.0</ele><time>2026-04-18T13:36:16.608Z</time></trkpt><trkpt lat="46.1568667" lon="12.0922233"><ele>374.6666666666667</ele><time>2026-04-18T13:36:17.609Z</time></trkpt><trkpt lat="46.1569783" lon="12.0924367"><ele>374.33333333333337</ele><time>2026-04-18T13:36:18.608Z</time></trkpt><trkpt lat="46.1570683" lon="12.0926433"><ele>374.0</ele><time>2026-04-18T13:36:19.609Z</time></trkpt><trkpt lat="46.157145" lon="12.0928367"><ele>374.0</ele><time>2026-04-18T13:36:20.608Z</time></trkpt><trkpt lat="46.1572033" lon="12.093055"><ele>374.0</ele><time>2026-04-18T13:36:21.609Z</time></trkpt><trkpt lat="46.1572767" lon="12.0933067"><ele>374.0</ele><time>2026-04-18T13:36:22.609Z</time></trkpt><trkpt lat="46.1573483" lon="12.0935533"><ele>377.33333333333337</ele><time>2026-04-18T13:36:23.609Z</time></trkpt><trkpt lat="46.1574067" lon="12.0937767"><ele>380.6666666666667</ele><time>2026-04-18T13:36:24.608Z</time></trkpt><trkpt lat="46.157455" lon="12.0939983"><ele>384.0</ele><time>2026-04-18T13:36:25.609Z</time></trkpt><trkpt lat="46.1574967" lon="12.09422"><ele>384.0</ele><time>2026-04-18T13:36:26.608Z</time></trkpt><trkpt lat="46.157545" lon="12.0944417"><ele>384.0</ele><time>2026-04-18T13:36:27.608Z</time></trkpt><trkpt lat="46.157605" lon="12.0946717"><ele>384.0</ele><time>2026-04-18T13:36:28.608Z</time></trkpt><trkpt lat="46.1576583" lon="12.09491"><ele>384.33333333333337</ele><time>2026-04-18T13:36:29.608Z</time></trkpt><trkpt lat="46.1577017" lon="12.09517"><ele>384.6666666666667</ele><time>2026-04-18T13:36:30.608Z</time></trkpt><trkpt lat="46.1577217" lon="12.095425"><ele>385.0</ele><time>2026-04-18T13:36:31.608Z</time></trkpt><trkpt lat="46.157725" lon="12.0956783"><ele>385.6666666666667</ele><time>2026-04-18T13:36:32.609Z</time></trkpt><trkpt lat="46.1577567" lon="12.0959467"><ele>386.33333333333337</ele><time>2026-04-18T13:36:33.608Z</time></trkpt><trkpt lat="46.1578133" lon="12.096205"><ele>387.0</ele><time>2026-04-18T13:36:34.608Z</time></trkpt><trkpt lat="46.1578817" lon="12.096445"><ele>386.66666666666663</ele><time>2026-04-18T13:36:35.608Z</time></trkpt><trkpt lat="46.1579517" lon="12.096655"><ele>386.3333333333333</ele><time>2026-04-18T13:36:36.608Z</time></trkpt><trkpt lat="46.1579983" lon="12.0968667"><ele>386.0</ele><time>2026-04-18T13:36:37.608Z</time></trkpt><trkpt lat="46.15802" lon="12.0971033"><ele>386.0</ele><time>2026-04-18T13:36:38.608Z</time></trkpt><trkpt lat="46.1580267" lon="12.0973433"><ele>386.0</ele><time>2026-04-18T13:36:39.608Z</time></trkpt><trkpt lat="46.1580517" lon="12.0975817"><ele>386.0</ele><time>2026-04-18T13:36:40.608Z</time></trkpt><trkpt lat="46.1580983" lon="12.097835"><ele>386.3333333333333</ele><time>2026-04-18T13:36:41.608Z</time></trkpt><trkpt lat="46.1581817" lon="12.0980783"><ele>386.66666666666663</ele><time>2026-04-18T13:36:42.608Z</time></trkpt><trkpt lat="46.1582717" lon="12.0983233"><ele>387.0</ele><time>2026-04-18T13:36:43.608Z</time></trkpt><trkpt lat="46.15837" lon="12.0985583"><ele>388.0</ele><time>2026-04-18T13:36:44.608Z</time></trkpt><trkpt lat="46.1584783" lon="12.0987667"><ele>389.0</ele><time>2026-04-18T13:36:45.609Z</time></trkpt><trkpt lat="46.1585783" lon="12.0989717"><ele>390.0</ele><time>2026-04-18T13:36:46.608Z</time></trkpt><trkpt lat="46.158675" lon="12.0991583"><ele>390.0</ele><time>2026-04-18T13:36:47.608Z</time></trkpt><trkpt lat="46.15877" lon="12.099345"><ele>390.0</ele><time>2026-04-18T13:36:48.609Z</time></trkpt><trkpt lat="46.15885" lon="12.0995267"><ele>390.0</ele><time>2026-04-18T13:36:49.609Z</time></trkpt><trkpt lat="46.1589283" lon="12.0997133"><ele>390.0</ele><time>2026-04-18T13:36:50.608Z</time></trkpt><trkpt lat="46.1589983" lon="12.09991"><ele>390.0</ele><time>2026-04-18T13:36:51.608Z</time></trkpt><trkpt lat="46.1590567" lon="12.1001217"><ele>390.0</ele><time>2026-04-18T13:36:52.608Z</time></trkpt><trkpt lat="46.1590867" lon="12.1003333"><ele>391.75</ele><time>2026-04-18T13:36:53.608Z</time></trkpt><trkpt lat="46.1591167" lon="12.1005267"><ele>393.5</ele><time>2026-04-18T13:36:54.608Z</time></trkpt><trkpt lat="46.159145" lon="12.1007133"><ele>395.25</ele><time>2026-04-18T13:36:55.609Z</time></trkpt><trkpt lat="46.1591717" lon="12.100895"><ele>397.0</ele><time>2026-04-18T13:36:56.609Z</time></trkpt><trkpt lat="46.15919" lon="12.1010583"><ele>397.0</ele><time>2026-04-18T13:36:57.608Z</time></trkpt><trkpt lat="46.15921" lon="12.1011967"><ele>397.0</ele><time>2026-04-18T13:36:58.608Z</time></trkpt><trkpt lat="46.1592267" lon="12.10133"><ele>397.0</ele><time>2026-04-18T13:36:59.608Z</time></trkpt><trkpt lat="46.1592433" lon="12.101475"><ele>397.0</ele><time>2026-04-18T13:37:00.608Z</time></trkpt><trkpt lat="46.1592567" lon="12.101635"><ele>397.0</ele><time>2026-04-18T13:37:01.609Z</time></trkpt><trkpt lat="46.1592783" lon="12.1018017"><ele>395.33333333333337</ele><time>2026-04-18T13:37:02.608Z</time></trkpt><trkpt lat="46.1593217" lon="12.1019817"><ele>393.66666666666663</ele><time>2026-04-18T13:37:03.608Z</time></trkpt><trkpt lat="46.1594" lon="12.1021917"><ele>392.0</ele><time>2026-04-18T13:37:04.608Z</time></trkpt><trkpt lat="46.1595183" lon="12.1024217"><ele>390.3333333333333</ele><time>2026-04-18T13:37:05.608Z</time></trkpt><trkpt lat="46.159625" lon="12.1026567"><ele>388.66666666666663</ele><time>2026-04-18T13:37:06.609Z</time></trkpt><trkpt lat="46.1597267" lon="12.1028817"><ele>387.0</ele><time>2026-04-18T13:37:07.608Z</time></trkpt><trkpt lat="46.159815" lon="12.103095"><ele>392.33333333333337</ele><time>2026-04-18T13:37:08.608Z</time></trkpt><trkpt lat="46.15989" lon="12.1032983"><ele>397.6666666666667</ele><time>2026-04-18T13:37:09.608Z</time></trkpt><trkpt lat="46.1599583" lon="12.1035133"><ele>403.0</ele><time>2026-04-18T13:37:10.608Z</time></trkpt><trkpt lat="46.1600283" lon="12.10373"><ele>403.0</ele><time>2026-04-18T13:37:11.608Z</time></trkpt><trkpt lat="46.1601233" lon="12.1039317"><ele>403.0</ele><time>2026-04-18T13:37:12.608Z</time></trkpt><trkpt lat="46.16022" lon="12.1041283"><ele>403.0</ele><time>2026-04-18T13:37:13.608Z</time></trkpt><trkpt lat="46.1603217" lon="12.10433"><ele>398.0</ele><time>2026-04-18T13:37:14.608Z</time></trkpt><trkpt lat="46.1604233" lon="12.1045017"><ele>393.0</ele><time>2026-04-18T13:37:15.608Z</time></trkpt><trkpt lat="46.1605517" lon="12.1046433"><ele>388.0</ele><time>2026-04-18T13:37:16.608Z</time></trkpt><trkpt lat="46.16069" lon="12.104765"><ele>390.0</ele><time>2026-04-18T13:37:17.608Z</time></trkpt><trkpt lat="46.1608183" lon="12.1048783"><ele>392.0</ele><time>2026-04-18T13:37:18.608Z</time></trkpt><trkpt lat="46.1609367" lon="12.1050317"><ele>394.0</ele><time>2026-04-18T13:37:19.608Z</time></trkpt><trkpt lat="46.1610467" lon="12.105205"><ele>394.0</ele><time>2026-04-18T13:37:20.608Z</time></trkpt><trkpt lat="46.16115" lon="12.1053967"><ele>394.0</ele><time>2026-04-18T13:37:21.609Z</time></trkpt><trkpt lat="46.1612333" lon="12.105585"><ele>394.0</ele><time>2026-04-18T13:37:22.608Z</time></trkpt><trkpt lat="46.1613133" lon="12.1057683"><ele>394.0</ele><time>2026-04-18T13:37:23.609Z</time></trkpt><trkpt lat="46.161395" lon="12.1059517"><ele>394.0</ele><time>2026-04-18T13:37:24.608Z</time></trkpt><trkpt lat="46.161475" lon="12.1061433"><ele>394.0</ele><time>2026-04-18T13:37:25.608Z</time></trkpt><trkpt lat="46.161565" lon="12.106335"><ele>398.0</ele><time>2026-04-18T13:37:26.608Z</time></trkpt><trkpt lat="46.161665" lon="12.1065333"><ele>402.0</ele><time>2026-04-18T13:37:27.609Z</time></trkpt><trkpt lat="46.1617717" lon="12.1067233"><ele>406.0</ele><time>2026-04-18T13:37:28.608Z</time></trkpt><trkpt lat="46.16191" lon="12.1068833"><ele>406.0</ele><time>2026-04-18T13:37:29.608Z</time></trkpt><trkpt lat="46.162045" lon="12.10706"><ele>406.0</ele><time>2026-04-18T13:37:30.608Z</time></trkpt><trkpt lat="46.1621817" lon="12.107275"><ele>406.0</ele><time>2026-04-18T13:37:31.609Z</time></trkpt><trkpt lat="46.1623" lon="12.1074933"><ele>405.6666666666667</ele><time>2026-04-18T13:37:32.608Z</time></trkpt><trkpt lat="46.1624217" lon="12.1077183"><ele>405.33333333333337</ele><time>2026-04-18T13:37:33.608Z</time></trkpt><trkpt lat="46.162525" lon="12.1079467"><ele>405.0</ele><time>2026-04-18T13:37:34.608Z</time></trkpt><trkpt lat="46.1626133" lon="12.10817"><ele>402.66666666666663</ele><time>2026-04-18T13:37:35.608Z</time></trkpt><trkpt lat="46.1626683" lon="12.1083783"><ele>400.3333333333333</ele><time>2026-04-18T13:37:36.608Z</time></trkpt><trkpt lat="46.16272" lon="12.1085867"><ele>398.0</ele><time>2026-04-18T13:37:37.608Z</time></trkpt><trkpt lat="46.162755" lon="12.108825"><ele>398.0</ele><time>2026-04-18T13:37:38.608Z</time></trkpt><trkpt lat="46.1627833" lon="12.1090433"><ele>398.0</ele><time>2026-04-18T13:37:39.607Z</time></trkpt><trkpt lat="46.1628" lon="12.1092417"><ele>398.0</ele><time>2026-04-18T13:37:40.608Z</time></trkpt><trkpt lat="46.1628117" lon="12.10942"><ele>398.0</ele><time>2026-04-18T13:37:41.608Z</time></trkpt><trkpt lat="46.16281" lon="12.1095767"><ele>397.5</ele><time>2026-04-18T13:37:42.608Z</time></trkpt><trkpt lat="46.1628083" lon="12.1097183"><ele>397.0</ele><time>2026-04-18T13:37:43.608Z</time></trkpt><trkpt lat="46.16283" lon="12.1098517"><ele>396.5</ele><time>2026-04-18T13:37:44.609Z</time></trkpt><trkpt lat="46.162905" lon="12.1099767"><ele>396.0</ele><time>2026-04-18T13:37:45.608Z</time></trkpt><trkpt lat="46.1630217" lon="12.1101033"><ele>396.33333333333337</ele><time>2026-04-18T13:37:46.608Z</time></trkpt><trkpt lat="46.16315" lon="12.1102417"><ele>396.6666666666667</ele><time>2026-04-18T13:37:47.608Z</time></trkpt><trkpt lat="46.1632633" lon="12.1104"><ele>397.0</ele><time>2026-04-18T13:37:48.608Z</time></trkpt><trkpt lat="46.1633583" lon="12.110545"><ele>397.0</ele><time>2026-04-18T13:37:49.609Z</time></trkpt><trkpt lat="46.163425" lon="12.1106967"><ele>397.0</ele><time>2026-04-18T13:37:50.608Z</time></trkpt><trkpt lat="46.16347" lon="12.1108467"><ele>397.0</ele><time>2026-04-18T13:37:51.608Z</time></trkpt><trkpt lat="46.1634733" lon="12.1110183"><ele>397.0</ele><time>2026-04-18T13:37:52.609Z</time></trkpt><trkpt lat="46.1634383" lon="12.1111983"><ele>395.33333333333337</ele><time>2026-04-18T13:37:53.609Z</time></trkpt><trkpt lat="46.1633467" lon="12.1114183"><ele>393.66666666666663</ele><time>2026-04-18T13:37:54.608Z</time></trkpt><trkpt lat="46.163235" lon="12.1116733"><ele>392.0</ele><time>2026-04-18T13:37:55.608Z</time></trkpt><trkpt lat="46.163105" lon="12.1119333"><ele>391.3333333333333</ele><time>2026-04-18T13:37:56.608Z</time></trkpt><trkpt lat="46.1629867" lon="12.1121733"><ele>390.66666666666663</ele><time>2026-04-18T13:37:57.608Z</time></trkpt><trkpt lat="46.162885" lon="12.11239"><ele>390.0</ele><time>2026-04-18T13:37:58.608Z</time></trkpt><trkpt lat="46.1628067" lon="12.1126017"><ele>390.0</ele><time>2026-04-18T13:37:59.608Z</time></trkpt><trkpt lat="46.1627483" lon="12.112855"><ele>390.0</ele><time>2026-04-18T13:38:00.609Z</time></trkpt><trkpt lat="46.1627" lon="12.1131533"><ele>390.0</ele><time>2026-04-18T13:38:01.609Z</time></trkpt><trkpt lat="46.162675" lon="12.11344"><ele>390.66666666666663</ele><time>2026-04-18T13:38:02.608Z</time></trkpt><trkpt lat="46.1626567" lon="12.1136833"><ele>391.3333333333333</ele><time>2026-04-18T13:38:03.608Z</time></trkpt><trkpt lat="46.1626517" lon="12.1139183"><ele>392.0</ele><time>2026-04-18T13:38:04.608Z</time></trkpt><trkpt lat="46.1626567" lon="12.1141667"><ele>392.66666666666663</ele><time>2026-04-18T13:38:05.608Z</time></trkpt><trkpt lat="46.1626817" lon="12.1144183"><ele>393.33333333333337</ele><time>2026-04-18T13:38:06.609Z</time></trkpt><trkpt lat="46.1627033" lon="12.1146583"><ele>394.0</ele><time>2026-04-18T13:38:07.608Z</time></trkpt><trkpt lat="46.162695" lon="12.1148733"><ele>393.0</ele><time>2026-04-18T13:38:08.609Z</time></trkpt><trkpt lat="46.1626633" lon="12.1150617"><ele>392.0</ele><time>2026-04-18T13:38:09.608Z</time></trkpt><trkpt lat="46.1626" lon="12.115225"><ele>391.0</ele><time>2026-04-18T13:38:10.608Z</time></trkpt><trkpt lat="46.1625133" lon="12.1153667"><ele>390.0</ele><time>2026-04-18T13:38:11.609Z</time></trkpt><trkpt lat="46.16241" lon="12.1155067"><ele>390.66666666666663</ele><time>2026-04-18T13:38:12.608Z</time></trkpt><trkpt lat="46.1622683" lon="12.1156317"><ele>391.3333333333333</ele><time>2026-04-18T13:38:13.609Z</time></trkpt><trkpt lat="46.1621183" lon="12.1157633"><ele>392.0</ele><time>2026-04-18T13:38:14.608Z</time></trkpt><trkpt lat="46.1619883" lon="12.11591"><ele>390.3333333333333</ele><time>2026-04-18T13:38:15.608Z</time></trkpt><trkpt lat="46.1618533" lon="12.11611"><ele>388.66666666666663</ele><time>2026-04-18T13:38:16.608Z</time></trkpt><trkpt lat="46.1617083" lon="12.1163583"><ele>387.0</ele><time>2026-04-18T13:38:17.608Z</time></trkpt><trkpt lat="46.1615467" lon="12.11664"><ele>386.0</ele><time>2026-04-18T13:38:18.609Z</time></trkpt><trkpt lat="46.1613867" lon="12.116895"><ele>385.0</ele><time>2026-04-18T13:38:19.608Z</time></trkpt><trkpt lat="46.1612567" lon="12.1170983"><ele>384.0</ele><time>2026-04-18T13:38:20.608Z</time></trkpt><trkpt lat="46.16115" lon="12.11723"><ele>384.0</ele><time>2026-04-18T13:38:21.608Z</time></trkpt><trkpt lat="46.16103" lon="12.1173417"><ele>384.0</ele><time>2026-04-18T13:38:22.609Z</time></trkpt><trkpt lat="46.160885" lon="12.1174217"><ele>384.0</ele><time>2026-04-18T13:38:23.608Z</time></trkpt><trkpt lat="46.1607417" lon="12.1174883"><ele>384.0</ele><time>2026-04-18T13:38:24.608Z</time></trkpt><trkpt lat="46.1606183" lon="12.1175617"><ele>384.25</ele><time>2026-04-18T13:38:25.609Z</time></trkpt><trkpt lat="46.1605383" lon="12.1176783"><ele>384.5</ele><time>2026-04-18T13:38:26.608Z</time></trkpt><trkpt lat="46.1605067" lon="12.1178383"><ele>384.75</ele><time>2026-04-18T13:38:27.609Z</time></trkpt><trkpt lat="46.160525" lon="12.1180483"><ele>385.0</ele><time>2026-04-18T13:38:28.608Z</time></trkpt><trkpt lat="46.1605717" lon="12.11829"><ele>386.33333333333337</ele><time>2026-04-18T13:38:29.608Z</time></trkpt><trkpt lat="46.1606217" lon="12.11851"><ele>387.66666666666663</ele><time>2026-04-18T13:38:30.608Z</time></trkpt><trkpt lat="46.1606367" lon="12.1187267"><ele>389.0</ele><time>2026-04-18T13:38:31.608Z</time></trkpt><trkpt lat="46.1606" lon="12.1189283"><ele>390.3333333333333</ele><time>2026-04-18T13:38:32.608Z</time></trkpt><trkpt lat="46.1605233" lon="12.1191217"><ele>391.66666666666663</ele><time>2026-04-18T13:38:33.608Z</time></trkpt><trkpt lat="46.160405" lon="12.1192917"><ele>393.0</ele><time>2026-04-18T13:38:34.608Z</time></trkpt><trkpt lat="46.160285" lon="12.1194517"><ele>393.0</ele><time>2026-04-18T13:38:35.608Z</time></trkpt><trkpt lat="46.1601967" lon="12.1196317"><ele>393.0</ele><time>2026-04-18T13:38:36.608Z</time></trkpt><trkpt lat="46.1601417" lon="12.1198467"><ele>393.0</ele><time>2026-04-18T13:38:37.609Z</time></trkpt><trkpt lat="46.1600783" lon="12.1200633"><ele>392.33333333333337</ele><time>2026-04-18T13:38:38.609Z</time></trkpt><trkpt lat="46.1599983" lon="12.120285"><ele>391.6666666666667</ele><time>2026-04-18T13:38:39.608Z</time></trkpt><trkpt lat="46.1598867" lon="12.120505"><ele>391.0</ele><time>2026-04-18T13:38:40.608Z</time></trkpt><trkpt lat="46.1597633" lon="12.1207283"><ele>391.6666666666667</ele><time>2026-04-18T13:38:41.609Z</time></trkpt><trkpt lat="46.159655" lon="12.1209433"><ele>392.33333333333337</ele><time>2026-04-18T13:38:42.609Z</time></trkpt><trkpt lat="46.1595417" lon="12.121145"><ele>393.0</ele><time>2026-04-18T13:38:43.608Z</time></trkpt><trkpt lat="46.15941" lon="12.1213283"><ele>393.0</ele><time>2026-04-18T13:38:44.608Z</time></trkpt><trkpt lat="46.1592617" lon="12.12148"><ele>393.0</ele><time>2026-04-18T13:38:45.608Z</time></trkpt><trkpt lat="46.1591433" lon="12.1215983"><ele>393.0</ele><time>2026-04-18T13:38:46.608Z</time></trkpt><trkpt lat="46.1590333" lon="12.1216933"><ele>392.75</ele><time>2026-04-18T13:38:47.608Z</time></trkpt><trkpt lat="46.158915" lon="12.1217533"><ele>392.5</ele><time>2026-04-18T13:38:48.608Z</time></trkpt><trkpt lat="46.1587817" lon="12.1217983"><ele>392.25</ele><time>2026-04-18T13:38:49.608Z</time></trkpt><trkpt lat="46.1586233" lon="12.1218467"><ele>392.0</ele><time>2026-04-18T13:38:50.608Z</time></trkpt><trkpt lat="46.1584633" lon="12.1219183"><ele>392.0</ele><time>2026-04-18T13:38:51.608Z</time></trkpt><trkpt lat="46.1583333" lon="12.1220283"><ele>392.0</ele><time>2026-04-18T13:38:52.608Z</time></trkpt><trkpt lat="46.1582233" lon="12.12216"><ele>392.0</ele><time>2026-04-18T13:38:53.608Z</time></trkpt><trkpt lat="46.158125" lon="12.1223233"><ele>392.0</ele><time>2026-04-18T13:38:54.608Z</time></trkpt><trkpt lat="46.1580733" lon="12.1224917"><ele>391.3333333333333</ele><time>2026-04-18T13:38:55.608Z</time></trkpt><trkpt lat="46.158065" lon="12.1226917"><ele>390.66666666666663</ele><time>2026-04-18T13:38:56.608Z</time></trkpt><trkpt lat="46.15808" lon="12.12294"><ele>390.0</ele><time>2026-04-18T13:38:57.608Z</time></trkpt><trkpt lat="46.1580983" lon="12.123215"><ele>389.66666666666663</ele><time>2026-04-18T13:38:58.609Z</time></trkpt><trkpt lat="46.1581017" lon="12.1234767"><ele>389.3333333333333</ele><time>2026-04-18T13:38:59.608Z</time></trkpt><trkpt lat="46.1580983" lon="12.1237217"><ele>389.0</ele><time>2026-04-18T13:39:00.609Z</time></trkpt><trkpt lat="46.1580633" lon="12.1239717"><ele>388.66666666666663</ele><time>2026-04-18T13:39:01.608Z</time></trkpt><trkpt lat="46.1579967" lon="12.124225"><ele>388.33333333333337</ele><time>2026-04-18T13:39:02.608Z</time></trkpt><trkpt lat="46.15792" lon="12.1244533"><ele>388.0</ele><time>2026-04-18T13:39:03.608Z</time></trkpt><trkpt lat="46.1578567" lon="12.124645"><ele>388.0</ele><time>2026-04-18T13:39:04.609Z</time></trkpt><trkpt lat="46.1577983" lon="12.1247883"><ele>388.0</ele><time>2026-04-18T13:39:05.608Z</time></trkpt><trkpt lat="46.157735" lon="12.124885"><ele>388.0</ele><time>2026-04-18T13:39:06.608Z</time></trkpt><trkpt lat="46.1576517" lon="12.1249233"><ele>388.0</ele><time>2026-04-18T13:39:07.608Z</time></trkpt><trkpt lat="46.157535" lon="12.1249317"><ele>388.0</ele><time>2026-04-18T13:39:08.608Z</time></trkpt><trkpt lat="46.15739" lon="12.124915"><ele>389.0</ele><time>2026-04-18T13:39:09.608Z</time></trkpt><trkpt lat="46.1572033" lon="12.124855"><ele>390.0</ele><time>2026-04-18T13:39:10.608Z</time></trkpt><trkpt lat="46.1570017" lon="12.124755"><ele>391.0</ele><time>2026-04-18T13:39:11.609Z</time></trkpt><trkpt lat="46.1568267" lon="12.1246367"><ele>391.0</ele><time>2026-04-18T13:39:12.608Z</time></trkpt><trkpt lat="46.1566717" lon="12.1245033"><ele>391.0</ele><time>2026-04-18T13:39:13.608Z</time></trkpt><trkpt lat="46.1565333" lon="12.1244067"><ele>391.0</ele><time>2026-04-18T13:39:14.609Z</time></trkpt><trkpt lat="46.1563983" lon="12.1243167"><ele>390.75</ele><time>2026-04-18T13:39:15.608Z</time></trkpt><trkpt lat="46.1562817" lon="12.1242717"><ele>390.5</ele><time>2026-04-18T13:39:16.609Z</time></trkpt><trkpt lat="46.1561717" lon="12.12426"><ele>390.25</ele><time>2026-04-18T13:39:17.608Z</time></trkpt><trkpt lat="46.156055" lon="12.1243033"><ele>390.0</ele><time>2026-04-18T13:39:18.608Z</time></trkpt><trkpt lat="46.1559467" lon="12.1244017"><ele>390.0</ele><time>2026-04-18T13:39:19.609Z</time></trkpt><trkpt lat="46.1558467" lon="12.1245483"><ele>390.0</ele><time>2026-04-18T13:39:20.608Z</time></trkpt><trkpt lat="46.15575" lon="12.1246683"><ele>390.0</ele><time>2026-04-18T13:39:21.608Z</time></trkpt><trkpt lat="46.1556317" lon="12.124735"><ele>390.0</ele><time>2026-04-18T13:39:22.609Z</time></trkpt><trkpt lat="46.1554667" lon="12.1247567"><ele>388.33333333333337</ele><time>2026-04-18T13:39:23.608Z</time></trkpt><trkpt lat="46.1552817" lon="12.12476"><ele>386.6666666666667</ele><time>2026-04-18T13:39:24.608Z</time></trkpt><trkpt lat="46.1551217" lon="12.1247517"><ele>385.0</ele><time>2026-04-18T13:39:25.608Z</time></trkpt><trkpt lat="46.1549883" lon="12.124745"><ele>384.6</ele><time>2026-04-18T13:39:26.608Z</time></trkpt><trkpt lat="46.1548683" lon="12.12474"><ele>384.2</ele><time>2026-04-18T13:39:27.608Z</time></trkpt><trkpt lat="46.1547567" lon="12.1247283"><ele>383.79999999999995</ele><time>2026-04-18T13:39:28.608Z</time></trkpt><trkpt lat="46.1546483" lon="12.1246933"><ele>383.4</ele><time>2026-04-18T13:39:29.608Z</time></trkpt><trkpt lat="46.15455" lon="12.1246383"><ele>383.0</ele><time>2026-04-18T13:39:30.608Z</time></trkpt><trkpt lat="46.1544567" lon="12.1245967"><ele>383.0</ele><time>2026-04-18T13:39:31.609Z</time></trkpt><trkpt lat="46.15437" lon="12.124585"><ele>383.0</ele><time>2026-04-18T13:39:32.608Z</time></trkpt><trkpt lat="46.15426" lon="12.1246867"><ele>383.0</ele><time>2026-04-18T13:39:34.608Z</time></trkpt><trkpt lat="46.1542517" lon="12.1248067"><ele>383.0</ele><time>2026-04-18T13:39:35.608Z</time></trkpt><trkpt lat="46.1542517" lon="12.1249667"><ele>383.0</ele><time>2026-04-18T13:39:36.608Z</time></trkpt><trkpt lat="46.15425" lon="12.1251417"><ele>382.0</ele><time>2026-04-18T13:39:37.609Z</time></trkpt><trkpt lat="46.1542433" lon="12.125295"><ele>381.0</ele><time>2026-04-18T13:39:38.609Z</time></trkpt><trkpt lat="46.1542317" lon="12.1254317"><ele>380.0</ele><time>2026-04-18T13:39:39.608Z</time></trkpt><trkpt lat="46.154215" lon="12.12554"><ele>379.0</ele><time>2026-04-18T13:39:40.608Z</time></trkpt><trkpt lat="46.154185" lon="12.1256217"><ele>378.0</ele><time>2026-04-18T13:39:41.608Z</time></trkpt><trkpt lat="46.1541383" lon="12.1257"><ele>377.0</ele><time>2026-04-18T13:39:42.609Z</time></trkpt><trkpt lat="46.1540633" lon="12.125765"><ele>376.6</ele><time>2026-04-18T13:39:43.609Z</time></trkpt><trkpt lat="46.153985" lon="12.125815"><ele>376.20000000000005</ele><time>2026-04-18T13:39:44.608Z</time></trkpt><trkpt lat="46.1538983" lon="12.1258717"><ele>375.8</ele><time>2026-04-18T13:39:45.609Z</time></trkpt><trkpt lat="46.1538117" lon="12.1259467"><ele>375.4</ele><time>2026-04-18T13:39:46.609Z</time></trkpt><trkpt lat="46.15372" lon="12.12602"><ele>375.0</ele><time>2026-04-18T13:39:47.609Z</time></trkpt><trkpt lat="46.1536283" lon="12.1260917"><ele>375.0</ele><time>2026-04-18T13:39:48.608Z</time></trkpt><trkpt lat="46.1535417" lon="12.1261583"><ele>375.0</ele><time>2026-04-18T13:39:49.608Z</time></trkpt><trkpt lat="46.1534417" lon="12.1262317"><ele>375.0</ele><time>2026-04-18T13:39:50.608Z</time></trkpt><trkpt lat="46.1533317" lon="12.1263067"><ele>375.0</ele><time>2026-04-18T13:39:51.608Z</time></trkpt><trkpt lat="46.15323" lon="12.1264"><ele>375.25</ele><time>2026-04-18T13:39:52.608Z</time></trkpt><trkpt lat="46.1531133" lon="12.1264867"><ele>375.5</ele><time>2026-04-18T13:39:53.608Z</time></trkpt><trkpt lat="46.152995" lon="12.126575"><ele>375.75</ele><time>2026-04-18T13:39:54.609Z</time></trkpt><trkpt lat="46.152885" lon="12.126685"><ele>376.0</ele><time>2026-04-18T13:39:55.608Z</time></trkpt><trkpt lat="46.152775" lon="12.1267633"><ele>376.0</ele><time>2026-04-18T13:39:56.609Z</time></trkpt><trkpt lat="46.1526667" lon="12.1268583"><ele>376.0</ele><time>2026-04-18T13:39:57.608Z</time></trkpt><trkpt lat="46.152565" lon="12.1269333"><ele>376.0</ele><time>2026-04-18T13:39:58.608Z</time></trkpt><trkpt lat="46.152455" lon="12.12701"><ele>376.0</ele><time>2026-04-18T13:39:59.608Z</time></trkpt><trkpt lat="46.152355" lon="12.1270883"><ele>375.5</ele><time>2026-04-18T13:40:00.608Z</time></trkpt><trkpt lat="46.1522617" lon="12.127185"><ele>375.0</ele><time>2026-04-18T13:40:01.609Z</time></trkpt><trkpt lat="46.1521583" lon="12.1272683"><ele>374.5</ele><time>2026-04-18T13:40:02.608Z</time></trkpt><trkpt lat="46.15205" lon="12.12734"><ele>374.0</ele><time>2026-04-18T13:40:03.608Z</time></trkpt><trkpt lat="46.15194" lon="12.1274217"><ele>374.0</ele><time>2026-04-18T13:40:04.608Z</time></trkpt><trkpt lat="46.1518333" lon="12.1274983"><ele>374.0</ele><time>2026-04-18T13:40:05.608Z</time></trkpt><trkpt lat="46.151735" lon="12.1275833"><ele>374.0</ele><time>2026-04-18T13:40:06.609Z</time></trkpt><trkpt lat="46.1516317" lon="12.127655"><ele>374.0</ele><time>2026-04-18T13:40:07.608Z</time></trkpt><trkpt lat="46.1515333" lon="12.1277383"><ele>374.0</ele><time>2026-04-18T13:40:08.608Z</time></trkpt><trkpt lat="46.1514317" lon="12.1278083"><ele>374.0</ele><time>2026-04-18T13:40:09.608Z</time></trkpt><trkpt lat="46.1513283" lon="12.12787"><ele>374.0</ele><time>2026-04-18T13:40:10.608Z</time></trkpt><trkpt lat="46.1512217" lon="12.1279583"><ele>374.0</ele><time>2026-04-18T13:40:11.608Z</time></trkpt><trkpt lat="46.1511" lon="12.1280533"><ele>374.0</ele><time>2026-04-18T13:40:12.608Z</time></trkpt><trkpt lat="46.1509733" lon="12.1281417"><ele>374.0</ele><time>2026-04-18T13:40:13.609Z</time></trkpt><trkpt lat="46.1508533" lon="12.1282367"><ele>374.0</ele><time>2026-04-18T13:40:14.608Z</time></trkpt><trkpt lat="46.15071" lon="12.1283183"><ele>374.0</ele><time>2026-04-18T13:40:15.608Z</time></trkpt><trkpt lat="46.15057" lon="12.1284183"><ele>373.6666666666667</ele><time>2026-04-18T13:40:16.609Z</time></trkpt><trkpt lat="46.1504233" lon="12.128505"><ele>373.3333333333333</ele><time>2026-04-18T13:40:17.608Z</time></trkpt><trkpt lat="46.15028" lon="12.1285833"><ele>373.0</ele><time>2026-04-18T13:40:18.609Z</time></trkpt><trkpt lat="46.1501117" lon="12.1286717"><ele>373.0</ele><time>2026-04-18T13:40:19.609Z</time></trkpt><trkpt lat="46.1499483" lon="12.1287483"><ele>373.0</ele><time>2026-04-18T13:40:20.609Z</time></trkpt><trkpt lat="46.1497817" lon="12.128825"><ele>373.0</ele><time>2026-04-18T13:40:21.608Z</time></trkpt><trkpt lat="46.1496133" lon="12.1289133"><ele>373.0</ele><time>2026-04-18T13:40:22.608Z</time></trkpt><trkpt lat="46.1494533" lon="12.1289933"><ele>373.0</ele><time>2026-04-18T13:40:23.608Z</time></trkpt><trkpt lat="46.149295" lon="12.12906"><ele>373.0</ele><time>2026-04-18T13:40:24.608Z</time></trkpt><trkpt lat="46.149135" lon="12.1291267"><ele>372.66666666666663</ele><time>2026-04-18T13:40:25.608Z</time></trkpt><trkpt lat="46.1489783" lon="12.129205"><ele>372.3333333333333</ele><time>2026-04-18T13:40:26.608Z</time></trkpt><trkpt lat="46.1488433" lon="12.1292767"><ele>372.0</ele><time>2026-04-18T13:40:27.608Z</time></trkpt><trkpt lat="46.1487083" lon="12.12934"><ele>372.0</ele><time>2026-04-18T13:40:28.608Z</time></trkpt><trkpt lat="46.1485783" lon="12.1294117"><ele>372.0</ele><time>2026-04-18T13:40:29.609Z</time></trkpt><trkpt lat="46.1484417" lon="12.1294817"><ele>372.0</ele><time>2026-04-18T13:40:30.608Z</time></trkpt><trkpt lat="46.14829" lon="12.1295433"><ele>372.0</ele><time>2026-04-18T13:40:31.608Z</time></trkpt><trkpt lat="46.1481433" lon="12.129615"><ele>372.5</ele><time>2026-04-18T13:40:32.608Z</time></trkpt><trkpt lat="46.1480067" lon="12.1296733"><ele>373.0</ele><time>2026-04-18T13:40:33.608Z</time></trkpt><trkpt lat="46.1478767" lon="12.1297317"><ele>373.5</ele><time>2026-04-18T13:40:34.608Z</time></trkpt><trkpt lat="46.1477417" lon="12.1297867"><ele>374.0</ele><time>2026-04-18T13:40:35.609Z</time></trkpt><trkpt lat="46.1476117" lon="12.1298333"><ele>374.0</ele><time>2026-04-18T13:40:36.608Z</time></trkpt><trkpt lat="46.1474983" lon="12.1298667"><ele>374.0</ele><time>2026-04-18T13:40:37.608Z</time></trkpt><trkpt lat="46.147395" lon="12.1298883"><ele>374.0</ele><time>2026-04-18T13:40:38.608Z</time></trkpt><trkpt lat="46.14729" lon="12.12989"><ele>374.0</ele><time>2026-04-18T13:40:39.608Z</time></trkpt><trkpt lat="46.1471933" lon="12.1298883"><ele>374.0</ele><time>2026-04-18T13:40:40.608Z</time></trkpt><trkpt lat="46.1471" lon="12.1299133"><ele>374.6666666666667</ele><time>2026-04-18T13:40:41.608Z</time></trkpt><trkpt lat="46.1470267" lon="12.1299617"><ele>375.33333333333337</ele><time>2026-04-18T13:40:42.608Z</time></trkpt><trkpt lat="46.1469633" lon="12.1300433"><ele>376.0</ele><time>2026-04-18T13:40:43.608Z</time></trkpt><trkpt lat="46.146905" lon="12.130155"><ele>376.6666666666667</ele><time>2026-04-18T13:40:44.608Z</time></trkpt><trkpt lat="46.1468533" lon="12.1302617"><ele>377.3333333333333</ele><time>2026-04-18T13:40:45.608Z</time></trkpt><trkpt lat="46.1467883" lon="12.1303433"><ele>378.0</ele><time>2026-04-18T13:40:46.608Z</time></trkpt><trkpt lat="46.1467033" lon="12.1303983"><ele>378.0</ele><time>2026-04-18T13:40:47.608Z</time></trkpt><trkpt lat="46.1465933" lon="12.1304433"><ele>378.0</ele><time>2026-04-18T13:40:48.609Z</time></trkpt><trkpt lat="46.1464533" lon="12.130495"><ele>378.0</ele><time>2026-04-18T13:40:49.609Z</time></trkpt><trkpt lat="46.1462783" lon="12.1305517"><ele>378.0</ele><time>2026-04-18T13:40:50.608Z</time></trkpt><trkpt lat="46.14608" lon="12.130615"><ele>378.0</ele><time>2026-04-18T13:40:51.609Z</time></trkpt><trkpt lat="46.1458783" lon="12.1307167"><ele>378.0</ele><time>2026-04-18T13:40:52.608Z</time></trkpt><trkpt lat="46.1456783" lon="12.1308367"><ele>378.0</ele><time>2026-04-18T13:40:53.609Z</time></trkpt><trkpt lat="46.1454833" lon="12.1309617"><ele>378.3333333333333</ele><time>2026-04-18T13:40:54.608Z</time></trkpt><trkpt lat="46.14531" lon="12.1310767"><ele>378.66666666666663</ele><time>2026-04-18T13:40:55.608Z</time></trkpt><trkpt lat="46.1451333" lon="12.131185"><ele>379.0</ele><time>2026-04-18T13:40:56.608Z</time></trkpt><trkpt lat="46.1449667" lon="12.1313083"><ele>379.3333333333333</ele><time>2026-04-18T13:40:57.608Z</time></trkpt><trkpt lat="46.1447917" lon="12.13141"><ele>379.6666666666667</ele><time>2026-04-18T13:40:58.608Z</time></trkpt><trkpt lat="46.1446233" lon="12.13152"><ele>380.0</ele><time>2026-04-18T13:40:59.608Z</time></trkpt><trkpt lat="46.1444517" lon="12.1316183"><ele>380.0</ele><time>2026-04-18T13:41:00.608Z</time></trkpt><trkpt lat="46.144285" lon="12.1317267"><ele>380.0</ele><time>2026-04-18T13:41:01.609Z</time></trkpt><trkpt lat="46.1441133" lon="12.1318467"><ele>380.0</ele><time>2026-04-18T13:41:02.608Z</time></trkpt><trkpt lat="46.14395" lon="12.1319433"><ele>381.0</ele><time>2026-04-18T13:41:03.608Z</time></trkpt><trkpt lat="46.1438067" lon="12.1320383"><ele>382.0</ele><time>2026-04-18T13:41:04.608Z</time></trkpt><trkpt lat="46.1436633" lon="12.1321383"><ele>383.0</ele><time>2026-04-18T13:41:05.608Z</time></trkpt><trkpt lat="46.1435183" lon="12.1322417"><ele>383.0</ele><time>2026-04-18T13:41:06.609Z</time></trkpt><trkpt lat="46.14338" lon="12.1323783"><ele>383.0</ele><time>2026-04-18T13:41:07.608Z</time></trkpt><trkpt lat="46.1432733" lon="12.132585"><ele>383.0</ele><time>2026-04-18T13:41:08.608Z</time></trkpt><trkpt lat="46.1431617" lon="12.13284"><ele>381.33333333333337</ele><time>2026-04-18T13:41:09.609Z</time></trkpt><trkpt lat="46.14305" lon="12.1330917"><ele>379.6666666666667</ele><time>2026-04-18T13:41:10.608Z</time></trkpt><trkpt lat="46.14292" lon="12.1333483"><ele>378.0</ele><time>2026-04-18T13:41:11.608Z</time></trkpt><trkpt lat="46.1427983" lon="12.1335983"><ele>378.0</ele><time>2026-04-18T13:41:12.608Z</time></trkpt><trkpt lat="46.1426667" lon="12.1338383"><ele>378.0</ele><time>2026-04-18T13:41:13.608Z</time></trkpt><trkpt lat="46.1425433" lon="12.1340833"><ele>378.0</ele><time>2026-04-18T13:41:14.608Z</time></trkpt><trkpt lat="46.1424217" lon="12.1343217"><ele>378.3333333333333</ele><time>2026-04-18T13:41:15.608Z</time></trkpt><trkpt lat="46.1423067" lon="12.1345883"><ele>378.66666666666663</ele><time>2026-04-18T13:41:16.608Z</time></trkpt><trkpt lat="46.1421917" lon="12.1348767"><ele>379.0</ele><time>2026-04-18T13:41:17.609Z</time></trkpt><trkpt lat="46.14207" lon="12.1351733"><ele>379.0</ele><time>2026-04-18T13:41:18.608Z</time></trkpt><trkpt lat="46.1419417" lon="12.13549"><ele>379.0</ele><time>2026-04-18T13:41:19.608Z</time></trkpt><trkpt lat="46.14182" lon="12.135795"><ele>382.5</ele><time>2026-04-18T13:41:20.608Z</time></trkpt><trkpt lat="46.1417017" lon="12.1360867"><ele>386.0</ele><time>2026-04-18T13:41:21.609Z</time></trkpt><trkpt lat="46.1415817" lon="12.13635"><ele>385.66666666666663</ele><time>2026-04-18T13:41:22.608Z</time></trkpt><trkpt lat="46.1414633" lon="12.1365933"><ele>385.33333333333337</ele><time>2026-04-18T13:41:23.608Z</time></trkpt><trkpt lat="46.1413617" lon="12.1368317"><ele>385.0</ele><time>2026-04-18T13:41:24.608Z</time></trkpt><trkpt lat="46.141275" lon="12.1370417"><ele>385.0</ele><time>2026-04-18T13:41:25.608Z</time></trkpt><trkpt lat="46.1411917" lon="12.137235"><ele>385.0</ele><time>2026-04-18T13:41:26.609Z</time></trkpt><trkpt lat="46.1411183" lon="12.1374217"><ele>385.0</ele><time>2026-04-18T13:41:27.609Z</time></trkpt><trkpt lat="46.1410567" lon="12.1376083"><ele>388.6666666666667</ele><time>2026-04-18T13:41:28.608Z</time></trkpt><trkpt lat="46.14103" lon="12.13781"><ele>392.33333333333337</ele><time>2026-04-18T13:41:29.608Z</time></trkpt><trkpt lat="46.1410167" lon="12.13802"><ele>396.0</ele><time>2026-04-18T13:41:30.608Z</time></trkpt><trkpt lat="46.14102" lon="12.1382583"><ele>396.33333333333337</ele><time>2026-04-18T13:41:31.608Z</time></trkpt><trkpt lat="46.1410217" lon="12.1385317"><ele>396.6666666666667</ele><time>2026-04-18T13:41:32.608Z</time></trkpt><trkpt lat="46.1410267" lon="12.138825"><ele>397.0</ele><time>2026-04-18T13:41:33.608Z</time></trkpt><trkpt lat="46.1410133" lon="12.139145"><ele>397.0</ele><time>2026-04-18T13:41:34.608Z</time></trkpt><trkpt lat="46.1410017" lon="12.1394917"><ele>397.0</ele><time>2026-04-18T13:41:35.609Z</time></trkpt><trkpt lat="46.1409917" lon="12.139845"><ele>399.0</ele><time>2026-04-18T13:41:36.608Z</time></trkpt><trkpt lat="46.14099" lon="12.1401967"><ele>401.0</ele><time>2026-04-18T13:41:37.608Z</time></trkpt><trkpt lat="46.1409733" lon="12.1405283"><ele>402.3333333333333</ele><time>2026-04-18T13:41:38.609Z</time></trkpt><trkpt lat="46.1409583" lon="12.14084"><ele>403.66666666666663</ele><time>2026-04-18T13:41:39.608Z</time></trkpt><trkpt lat="46.1409433" lon="12.1411417"><ele>405.0</ele><time>2026-04-18T13:41:40.608Z</time></trkpt><trkpt lat="46.140935" lon="12.1414217"><ele>406.0</ele><time>2026-04-18T13:41:41.608Z</time></trkpt><trkpt lat="46.1409283" lon="12.1416767"><ele>407.0</ele><time>2026-04-18T13:41:42.608Z</time></trkpt><trkpt lat="46.1409333" lon="12.1418917"><ele>408.0</ele><time>2026-04-18T13:41:43.608Z</time></trkpt><trkpt lat="46.140955" lon="12.1420817"><ele>408.0</ele><time>2026-04-18T13:41:44.609Z</time></trkpt><trkpt lat="46.140985" lon="12.1422467"><ele>408.0</ele><time>2026-04-18T13:41:45.608Z</time></trkpt><trkpt lat="46.14106" lon="12.142395"><ele>408.0</ele><time>2026-04-18T13:41:46.608Z</time></trkpt><trkpt lat="46.1411683" lon="12.1425283"><ele>408.0</ele><time>2026-04-18T13:41:47.608Z</time></trkpt><trkpt lat="46.1413217" lon="12.1426317"><ele>408.66666666666663</ele><time>2026-04-18T13:41:48.608Z</time></trkpt><trkpt lat="46.141505" lon="12.1427033"><ele>409.3333333333333</ele><time>2026-04-18T13:41:49.608Z</time></trkpt><trkpt lat="46.1417" lon="12.1427933"><ele>410.0</ele><time>2026-04-18T13:41:50.608Z</time></trkpt><trkpt lat="46.141875" lon="12.1428567"><ele>411.0</ele><time>2026-04-18T13:41:51.608Z</time></trkpt><trkpt lat="46.142035" lon="12.1429383"><ele>412.0</ele><time>2026-04-18T13:41:52.608Z</time></trkpt><trkpt lat="46.1421633" lon="12.1430333"><ele>413.0</ele><time>2026-04-18T13:41:53.608Z</time></trkpt><trkpt lat="46.1422767" lon="12.143125"><ele>414.0</ele><time>2026-04-18T13:41:54.609Z</time></trkpt><trkpt lat="46.142355" lon="12.1432367"><ele>416.66666666666663</ele><time>2026-04-18T13:41:55.608Z</time></trkpt><trkpt lat="46.14241" lon="12.1434183"><ele>419.3333333333333</ele><time>2026-04-18T13:41:56.608Z</time></trkpt><trkpt lat="46.14245" lon="12.1436467"><ele>422.0</ele><time>2026-04-18T13:41:57.608Z</time></trkpt><trkpt lat="46.1424983" lon="12.143905"><ele>420.66666666666663</ele><time>2026-04-18T13:41:58.609Z</time></trkpt><trkpt lat="46.1425217" lon="12.1442083"><ele>419.33333333333337</ele><time>2026-04-18T13:41:59.608Z</time></trkpt><trkpt lat="46.142565" lon="12.1445417"><ele>418.0</ele><time>2026-04-18T13:42:00.608Z</time></trkpt><trkpt lat="46.1425983" lon="12.1448683"><ele>419.0</ele><time>2026-04-18T13:42:01.608Z</time></trkpt><trkpt lat="46.14264" lon="12.14518"><ele>420.0</ele><time>2026-04-18T13:42:02.608Z</time></trkpt><trkpt lat="46.1426783" lon="12.145515"><ele>421.5</ele><time>2026-04-18T13:42:03.608Z</time></trkpt><trkpt lat="46.142715" lon="12.1458467"><ele>423.0</ele><time>2026-04-18T13:42:04.608Z</time></trkpt><trkpt lat="46.14276" lon="12.1461583"><ele>423.0</ele><time>2026-04-18T13:42:05.608Z</time></trkpt><trkpt lat="46.1427967" lon="12.1464267"><ele>423.0</ele><time>2026-04-18T13:42:06.609Z</time></trkpt><trkpt lat="46.1428283" lon="12.1466533"><ele>423.0</ele><time>2026-04-18T13:42:07.608Z</time></trkpt><trkpt lat="46.1428517" lon="12.1468467"><ele>423.75</ele><time>2026-04-18T13:42:08.608Z</time></trkpt><trkpt lat="46.14286" lon="12.14702"><ele>424.5</ele><time>2026-04-18T13:42:09.608Z</time></trkpt><trkpt lat="46.14285" lon="12.1471917"><ele>425.25</ele><time>2026-04-18T13:42:10.608Z</time></trkpt><trkpt lat="46.1428033" lon="12.1473617"><ele>426.0</ele><time>2026-04-18T13:42:11.608Z</time></trkpt><trkpt lat="46.1427133" lon="12.1475433"><ele>426.66666666666663</ele><time>2026-04-18T13:42:12.608Z</time></trkpt><trkpt lat="46.1425917" lon="12.1477367"><ele>427.3333333333333</ele><time>2026-04-18T13:42:13.608Z</time></trkpt><trkpt lat="46.1424533" lon="12.1479167"><ele>428.0</ele><time>2026-04-18T13:42:14.608Z</time></trkpt><trkpt lat="46.1423283" lon="12.1481083"><ele>428.0</ele><time>2026-04-18T13:42:15.608Z</time></trkpt><trkpt lat="46.142205" lon="12.1482933"><ele>428.0</ele><time>2026-04-18T13:42:16.608Z</time></trkpt><trkpt lat="46.1420917" lon="12.1484433"><ele>428.0</ele><time>2026-04-18T13:42:17.608Z</time></trkpt><trkpt lat="46.1420117" lon="12.1486317"><ele>428.0</ele><time>2026-04-18T13:42:18.609Z</time></trkpt><trkpt lat="46.1419483" lon="12.1488433"><ele>428.0</ele><time>2026-04-18T13:42:19.609Z</time></trkpt><trkpt lat="46.1419233" lon="12.1490933"><ele>428.0</ele><time>2026-04-18T13:42:20.608Z</time></trkpt><trkpt lat="46.141905" lon="12.1493883"><ele>426.3333333333333</ele><time>2026-04-18T13:42:21.608Z</time></trkpt><trkpt lat="46.1418867" lon="12.1496833"><ele>424.66666666666663</ele><time>2026-04-18T13:42:22.608Z</time></trkpt><trkpt lat="46.141865" lon="12.1499633"><ele>423.0</ele><time>2026-04-18T13:42:23.609Z</time></trkpt><trkpt lat="46.141835" lon="12.15021"><ele>423.0</ele><time>2026-04-18T13:42:24.608Z</time></trkpt><trkpt lat="46.1418167" lon="12.1504383"><ele>423.0</ele><time>2026-04-18T13:42:25.608Z</time></trkpt><trkpt lat="46.141835" lon="12.150645"><ele>423.0</ele><time>2026-04-18T13:42:26.608Z</time></trkpt><trkpt lat="46.141895" lon="12.1508633"><ele>425.66666666666663</ele><time>2026-04-18T13:42:27.608Z</time></trkpt><trkpt lat="46.1419733" lon="12.15111"><ele>428.3333333333333</ele><time>2026-04-18T13:42:28.608Z</time></trkpt><trkpt lat="46.1420517" lon="12.15137"><ele>431.0</ele><time>2026-04-18T13:42:29.609Z</time></trkpt><trkpt lat="46.142145" lon="12.1516583"><ele>436.0</ele><time>2026-04-18T13:42:30.608Z</time></trkpt><trkpt lat="46.1422233" lon="12.1519833"><ele>441.0</ele><time>2026-04-18T13:42:31.608Z</time></trkpt><trkpt lat="46.1423167" lon="12.1523217"><ele>439.0</ele><time>2026-04-18T13:42:32.608Z</time></trkpt><trkpt lat="46.142425" lon="12.15266"><ele>437.0</ele><time>2026-04-18T13:42:33.608Z</time></trkpt><trkpt lat="46.1425267" lon="12.152985"><ele>440.5</ele><time>2026-04-18T13:42:34.608Z</time></trkpt><trkpt lat="46.1426133" lon="12.1533017"><ele>444.0</ele><time>2026-04-18T13:42:35.608Z</time></trkpt><trkpt lat="46.14271" lon="12.153595"><ele>444.0</ele><time>2026-04-18T13:42:36.609Z</time></trkpt><trkpt lat="46.14279" lon="12.1538667"><ele>444.0</ele><time>2026-04-18T13:42:37.608Z</time></trkpt><trkpt lat="46.14287" lon="12.1541283"><ele>444.0</ele><time>2026-04-18T13:42:38.609Z</time></trkpt><trkpt lat="46.142945" lon="12.1543833"><ele>446.0</ele><time>2026-04-18T13:42:39.608Z</time></trkpt><trkpt lat="46.1430233" lon="12.1546383"><ele>448.0</ele><time>2026-04-18T13:42:40.608Z</time></trkpt><trkpt lat="46.1431" lon="12.1548883"><ele>450.0</ele><time>2026-04-18T13:42:41.607Z</time></trkpt><trkpt lat="46.1431633" lon="12.1551067"><ele>451.33333333333337</ele><time>2026-04-18T13:42:42.608Z</time></trkpt><trkpt lat="46.1431983" lon="12.1553333"><ele>452.6666666666667</ele><time>2026-04-18T13:42:43.608Z</time></trkpt><trkpt lat="46.1431933" lon="12.1555433"><ele>454.0</ele><time>2026-04-18T13:42:44.608Z</time></trkpt><trkpt lat="46.1431667" lon="12.1557867"><ele>454.0</ele><time>2026-04-18T13:42:45.607Z</time></trkpt><trkpt lat="46.143145" lon="12.1560633"><ele>454.0</ele><time>2026-04-18T13:42:46.607Z</time></trkpt><trkpt lat="46.1431117" lon="12.1563617"><ele>454.0</ele><time>2026-04-18T13:42:47.607Z</time></trkpt><trkpt lat="46.1430733" lon="12.156655"><ele>456.6666666666667</ele><time>2026-04-18T13:42:48.607Z</time></trkpt><trkpt lat="46.1430417" lon="12.1569383"><ele>459.33333333333337</ele><time>2026-04-18T13:42:49.608Z</time></trkpt><trkpt lat="46.1430083" lon="12.1572167"><ele>462.0</ele><time>2026-04-18T13:42:50.607Z</time></trkpt><trkpt lat="46.1429583" lon="12.157485"><ele>463.66666666666663</ele><time>2026-04-18T13:42:51.608Z</time></trkpt><trkpt lat="46.1429133" lon="12.15774"><ele>465.3333333333333</ele><time>2026-04-18T13:42:52.608Z</time></trkpt><trkpt lat="46.14286" lon="12.1579633"><ele>467.0</ele><time>2026-04-18T13:42:53.607Z</time></trkpt><trkpt lat="46.1427883" lon="12.1581717"><ele>466.66666666666663</ele><time>2026-04-18T13:42:54.607Z</time></trkpt><trkpt lat="46.1426917" lon="12.15838"><ele>466.33333333333337</ele><time>2026-04-18T13:42:55.608Z</time></trkpt><trkpt lat="46.1425783" lon="12.158585"><ele>466.0</ele><time>2026-04-18T13:42:56.607Z</time></trkpt><trkpt lat="46.1424767" lon="12.158795"><ele>472.33333333333337</ele><time>2026-04-18T13:42:57.607Z</time></trkpt><trkpt lat="46.1423733" lon="12.15899"><ele>478.66666666666663</ele><time>2026-04-18T13:42:58.608Z</time></trkpt><trkpt lat="46.14227" lon="12.1591967"><ele>485.0</ele><time>2026-04-18T13:42:59.607Z</time></trkpt><trkpt lat="46.1421733" lon="12.1594117"><ele>485.0</ele><time>2026-04-18T13:43:00.607Z</time></trkpt><trkpt lat="46.1420683" lon="12.1596117"><ele>485.0</ele><time>2026-04-18T13:43:01.608Z</time></trkpt><trkpt lat="46.1419667" lon="12.15981"><ele>485.0</ele><time>2026-04-18T13:43:02.607Z</time></trkpt><trkpt lat="46.1418617" lon="12.160005"><ele>481.66666666666663</ele><time>2026-04-18T13:43:03.607Z</time></trkpt><trkpt lat="46.1417617" lon="12.160215"><ele>478.33333333333337</ele><time>2026-04-18T13:43:04.607Z</time></trkpt><trkpt lat="46.141665" lon="12.16042"><ele>475.0</ele><time>2026-04-18T13:43:05.607Z</time></trkpt><trkpt lat="46.1415717" lon="12.1606217"><ele>476.6666666666667</ele><time>2026-04-18T13:43:06.608Z</time></trkpt><trkpt lat="46.141475" lon="12.160825"><ele>478.33333333333337</ele><time>2026-04-18T13:43:07.607Z</time></trkpt><trkpt lat="46.1413783" lon="12.1610333"><ele>480.0</ele><time>2026-04-18T13:43:08.607Z</time></trkpt><trkpt lat="46.14128" lon="12.1612417"><ele>480.0</ele><time>2026-04-18T13:43:09.607Z</time></trkpt><trkpt lat="46.1411867" lon="12.1614433"><ele>480.0</ele><time>2026-04-18T13:43:10.607Z</time></trkpt><trkpt lat="46.1411017" lon="12.1616417"><ele>480.0</ele><time>2026-04-18T13:43:11.607Z</time></trkpt><trkpt lat="46.1410333" lon="12.1618417"><ele>478.66666666666663</ele><time>2026-04-18T13:43:12.607Z</time></trkpt><trkpt lat="46.14098" lon="12.1620483"><ele>477.3333333333333</ele><time>2026-04-18T13:43:13.607Z</time></trkpt><trkpt lat="46.1409383" lon="12.1622617"><ele>476.0</ele><time>2026-04-18T13:43:14.608Z</time></trkpt><trkpt lat="46.1409067" lon="12.1624917"><ele>476.0</ele><time>2026-04-18T13:43:15.607Z</time></trkpt><trkpt lat="46.1408783" lon="12.162725"><ele>476.0</ele><time>2026-04-18T13:43:16.607Z</time></trkpt><trkpt lat="46.1408767" lon="12.1629867"><ele>476.0</ele><time>2026-04-18T13:43:17.608Z</time></trkpt><trkpt lat="46.1409" lon="12.1632517"><ele>475.66666666666663</ele><time>2026-04-18T13:43:18.607Z</time></trkpt><trkpt lat="46.140925" lon="12.16349"><ele>475.33333333333337</ele><time>2026-04-18T13:43:19.608Z</time></trkpt><trkpt lat="46.140935" lon="12.1637167"><ele>475.0</ele><time>2026-04-18T13:43:20.607Z</time></trkpt><trkpt lat="46.14094" lon="12.1639233"><ele>474.0</ele><time>2026-04-18T13:43:21.607Z</time></trkpt><trkpt lat="46.1409583" lon="12.1641167"><ele>473.0</ele><time>2026-04-18T13:43:22.607Z</time></trkpt><trkpt lat="46.140965" lon="12.1643217"><ele>472.0</ele><time>2026-04-18T13:43:23.607Z</time></trkpt><trkpt lat="46.1409633" lon="12.164535"><ele>471.0</ele><time>2026-04-18T13:43:24.607Z</time></trkpt><trkpt lat="46.1409783" lon="12.1647433"><ele>470.25</ele><time>2026-04-18T13:43:25.607Z</time></trkpt><trkpt lat="46.1409817" lon="12.164955"><ele>469.5</ele><time>2026-04-18T13:43:26.607Z</time></trkpt><trkpt lat="46.140995" lon="12.1651633"><ele>468.75</ele><time>2026-04-18T13:43:27.607Z</time></trkpt><trkpt lat="46.1409983" lon="12.1653767"><ele>468.0</ele><time>2026-04-18T13:43:28.607Z</time></trkpt><trkpt lat="46.1409883" lon="12.1656"><ele>467.66666666666663</ele><time>2026-04-18T13:43:29.607Z</time></trkpt><trkpt lat="46.14098" lon="12.1658133"><ele>467.3333333333333</ele><time>2026-04-18T13:43:30.607Z</time></trkpt><trkpt lat="46.1409717" lon="12.1660567"><ele>467.0</ele><time>2026-04-18T13:43:31.607Z</time></trkpt><trkpt lat="46.14097" lon="12.166315"><ele>466.66666666666663</ele><time>2026-04-18T13:43:32.607Z</time></trkpt><trkpt lat="46.1409733" lon="12.1665817"><ele>466.33333333333337</ele><time>2026-04-18T13:43:33.608Z</time></trkpt><trkpt lat="46.1409883" lon="12.1668517"><ele>466.0</ele><time>2026-04-18T13:43:34.607Z</time></trkpt><trkpt lat="46.1409933" lon="12.1670983"><ele>466.0</ele><time>2026-04-18T13:43:35.607Z</time></trkpt><trkpt lat="46.1410033" lon="12.1673433"><ele>466.0</ele><time>2026-04-18T13:43:36.607Z</time></trkpt><trkpt lat="46.1410133" lon="12.1675817"><ele>466.0</ele><time>2026-04-18T13:43:37.607Z</time></trkpt><trkpt lat="46.14102" lon="12.167805"><ele>466.6666666666667</ele><time>2026-04-18T13:43:38.608Z</time></trkpt><trkpt lat="46.1410417" lon="12.16803"><ele>467.33333333333337</ele><time>2026-04-18T13:43:39.607Z</time></trkpt><trkpt lat="46.141055" lon="12.16825"><ele>468.0</ele><time>2026-04-18T13:43:40.608Z</time></trkpt><trkpt lat="46.1410717" lon="12.1684683"><ele>468.0</ele><time>2026-04-18T13:43:41.607Z</time></trkpt><trkpt lat="46.1410833" lon="12.1686883"><ele>468.0</ele><time>2026-04-18T13:43:42.607Z</time></trkpt><trkpt lat="46.1410867" lon="12.1688883"><ele>468.0</ele><time>2026-04-18T13:43:43.607Z</time></trkpt><trkpt lat="46.14109" lon="12.1690867"><ele>468.0</ele><time>2026-04-18T13:43:44.608Z</time></trkpt><trkpt lat="46.141095" lon="12.1692917"><ele>468.0</ele><time>2026-04-18T13:43:45.607Z</time></trkpt><trkpt lat="46.1410967" lon="12.1695"><ele>468.0</ele><time>2026-04-18T13:43:46.607Z</time></trkpt><trkpt lat="46.1410933" lon="12.1697017"><ele>468.0</ele><time>2026-04-18T13:43:47.607Z</time></trkpt><trkpt lat="46.141085" lon="12.1699167"><ele>468.0</ele><time>2026-04-18T13:43:48.607Z</time></trkpt><trkpt lat="46.1410783" lon="12.17013"><ele>468.0</ele><time>2026-04-18T13:43:49.607Z</time></trkpt><trkpt lat="46.1410717" lon="12.1703467"><ele>468.0</ele><time>2026-04-18T13:43:50.607Z</time></trkpt><trkpt lat="46.1410783" lon="12.170545"><ele>468.0</ele><time>2026-04-18T13:43:51.607Z</time></trkpt><trkpt lat="46.141085" lon="12.170735"><ele>468.0</ele><time>2026-04-18T13:43:52.607Z</time></trkpt><trkpt lat="46.141095" lon="12.1709267"><ele>468.25</ele><time>2026-04-18T13:43:53.607Z</time></trkpt><trkpt lat="46.1411083" lon="12.171125"><ele>468.5</ele><time>2026-04-18T13:43:54.608Z</time></trkpt><trkpt lat="46.141115" lon="12.1713183"><ele>468.75</ele><time>2026-04-18T13:43:55.607Z</time></trkpt><trkpt lat="46.14111" lon="12.171515"><ele>469.0</ele><time>2026-04-18T13:43:56.608Z</time></trkpt><trkpt lat="46.1411133" lon="12.17171"><ele>469.0</ele><time>2026-04-18T13:43:57.607Z</time></trkpt><trkpt lat="46.14112" lon="12.1719083"><ele>469.0</ele><time>2026-04-18T13:43:58.607Z</time></trkpt><trkpt lat="46.141115" lon="12.1720983"><ele>469.0</ele><time>2026-04-18T13:43:59.607Z</time></trkpt><trkpt lat="46.1411133" lon="12.1722917"><ele>469.0</ele><time>2026-04-18T13:44:00.607Z</time></trkpt><trkpt lat="46.1411117" lon="12.17248"><ele>468.75</ele><time>2026-04-18T13:44:01.607Z</time></trkpt><trkpt lat="46.1411117" lon="12.1726717"><ele>468.5</ele><time>2026-04-18T13:44:02.607Z</time></trkpt><trkpt lat="46.1411067" lon="12.17287"><ele>468.25</ele><time>2026-04-18T13:44:03.607Z</time></trkpt><trkpt lat="46.14109" lon="12.1730717"><ele>468.0</ele><time>2026-04-18T13:44:04.608Z</time></trkpt><trkpt lat="46.1410633" lon="12.17327"><ele>468.0</ele><time>2026-04-18T13:44:05.608Z</time></trkpt><trkpt lat="46.1410283" lon="12.1734833"><ele>468.0</ele><time>2026-04-18T13:44:06.607Z</time></trkpt><trkpt lat="46.14098" lon="12.1736783"><ele>468.0</ele><time>2026-04-18T13:44:07.608Z</time></trkpt><trkpt lat="46.140925" lon="12.1738767"><ele>468.0</ele><time>2026-04-18T13:44:08.607Z</time></trkpt><trkpt lat="46.1408433" lon="12.174055"><ele>467.66666666666663</ele><time>2026-04-18T13:44:09.607Z</time></trkpt><trkpt lat="46.1407617" lon="12.1742483"><ele>467.3333333333333</ele><time>2026-04-18T13:44:10.607Z</time></trkpt><trkpt lat="46.1406617" lon="12.1744067"><ele>467.0</ele><time>2026-04-18T13:44:11.608Z</time></trkpt><trkpt lat="46.1405633" lon="12.1745617"><ele>467.0</ele><time>2026-04-18T13:44:12.608Z</time></trkpt><trkpt lat="46.1404817" lon="12.1747217"><ele>467.0</ele><time>2026-04-18T13:44:13.607Z</time></trkpt><trkpt lat="46.1404" lon="12.1748833"><ele>467.0</ele><time>2026-04-18T13:44:14.607Z</time></trkpt><trkpt lat="46.1403217" lon="12.17504"><ele>467.0</ele><time>2026-04-18T13:44:15.607Z</time></trkpt><trkpt lat="46.1402417" lon="12.175205"><ele>466.75</ele><time>2026-04-18T13:44:16.607Z</time></trkpt><trkpt lat="46.140155" lon="12.175365"><ele>466.5</ele><time>2026-04-18T13:44:17.608Z</time></trkpt><trkpt lat="46.1400733" lon="12.175535"><ele>466.25</ele><time>2026-04-18T13:44:18.607Z</time></trkpt><trkpt lat="46.1400017" lon="12.1757167"><ele>466.0</ele><time>2026-04-18T13:44:19.607Z</time></trkpt><trkpt lat="46.139955" lon="12.1759167"><ele>466.5</ele><time>2026-04-18T13:44:20.607Z</time></trkpt><trkpt lat="46.1399017" lon="12.1761133"><ele>467.0</ele><time>2026-04-18T13:44:21.607Z</time></trkpt><trkpt lat="46.1398667" lon="12.176305"><ele>467.5</ele><time>2026-04-18T13:44:22.607Z</time></trkpt><trkpt lat="46.1398467" lon="12.17651"><ele>468.0</ele><time>2026-04-18T13:44:23.608Z</time></trkpt><trkpt lat="46.1398483" lon="12.1767217"><ele>468.5</ele><time>2026-04-18T13:44:24.607Z</time></trkpt><trkpt lat="46.1398667" lon="12.1769383"><ele>469.0</ele><time>2026-04-18T13:44:25.607Z</time></trkpt><trkpt lat="46.1398917" lon="12.17715"><ele>469.5</ele><time>2026-04-18T13:44:26.607Z</time></trkpt><trkpt lat="46.1399233" lon="12.177355"><ele>470.0</ele><time>2026-04-18T13:44:27.607Z</time></trkpt><trkpt lat="46.13995" lon="12.1775617"><ele>469.0</ele><time>2026-04-18T13:44:28.607Z</time></trkpt><trkpt lat="46.1399733" lon="12.1777667"><ele>468.0</ele><time>2026-04-18T13:44:29.607Z</time></trkpt><trkpt lat="46.14" lon="12.1779667"><ele>467.0</ele><time>2026-04-18T13:44:30.607Z</time></trkpt><trkpt lat="46.1400383" lon="12.1781633"><ele>466.0</ele><time>2026-04-18T13:44:31.607Z</time></trkpt><trkpt lat="46.1400617" lon="12.17835"><ele>465.75</ele><time>2026-04-18T13:44:32.607Z</time></trkpt><trkpt lat="46.1400867" lon="12.178535"><ele>465.5</ele><time>2026-04-18T13:44:33.607Z</time></trkpt><trkpt lat="46.140105" lon="12.1787217"><ele>465.25</ele><time>2026-04-18T13:44:34.608Z</time></trkpt><trkpt lat="46.14013" lon="12.1789183"><ele>465.0</ele><time>2026-04-18T13:44:35.607Z</time></trkpt><trkpt lat="46.140155" lon="12.1791183"><ele>464.75</ele><time>2026-04-18T13:44:36.607Z</time></trkpt><trkpt lat="46.1401917" lon="12.1793233"><ele>464.5</ele><time>2026-04-18T13:44:37.607Z</time></trkpt><trkpt lat="46.1402133" lon="12.179515"><ele>464.25</ele><time>2026-04-18T13:44:38.608Z</time></trkpt><trkpt lat="46.140235" lon="12.1796967"><ele>464.0</ele><time>2026-04-18T13:44:39.607Z</time></trkpt><trkpt lat="46.1402483" lon="12.1798717"><ele>464.0</ele><time>2026-04-18T13:44:40.607Z</time></trkpt><trkpt lat="46.14027" lon="12.180025"><ele>464.0</ele><time>2026-04-18T13:44:41.607Z</time></trkpt><trkpt lat="46.1402817" lon="12.1801617"><ele>464.0</ele><time>2026-04-18T13:44:42.607Z</time></trkpt><trkpt lat="46.1403033" lon="12.1802883"><ele>464.0</ele><time>2026-04-18T13:44:43.608Z</time></trkpt><trkpt lat="46.1403117" lon="12.1804"><ele>464.0</ele><time>2026-04-18T13:44:44.607Z</time></trkpt><trkpt lat="46.14033" lon="12.1805317"><ele>463.0</ele><time>2026-04-18T13:44:45.608Z</time></trkpt><trkpt lat="46.1403417" lon="12.1806883"><ele>462.0</ele><time>2026-04-18T13:44:46.607Z</time></trkpt><trkpt lat="46.140365" lon="12.1808567"><ele>461.0</ele><time>2026-04-18T13:44:47.607Z</time></trkpt><trkpt lat="46.1403967" lon="12.1810583"><ele>460.0</ele><time>2026-04-18T13:44:48.608Z</time></trkpt><trkpt lat="46.140425" lon="12.18127"><ele>460.0</ele><time>2026-04-18T13:44:49.608Z</time></trkpt><trkpt lat="46.14046" lon="12.181485"><ele>460.0</ele><time>2026-04-18T13:44:50.607Z</time></trkpt><trkpt lat="46.1404817" lon="12.1816983"><ele>460.0</ele><time>2026-04-18T13:44:51.607Z</time></trkpt><trkpt lat="46.1405067" lon="12.181905"><ele>460.0</ele><time>2026-04-18T13:44:52.607Z</time></trkpt><trkpt lat="46.1405333" lon="12.1821217"><ele>460.0</ele><time>2026-04-18T13:44:53.607Z</time></trkpt><trkpt lat="46.140565" lon="12.1823317"><ele>460.0</ele><time>2026-04-18T13:44:54.608Z</time></trkpt><trkpt lat="46.140595" lon="12.1825433"><ele>460.0</ele><time>2026-04-18T13:44:55.607Z</time></trkpt><trkpt lat="46.14063" lon="12.1827683"><ele>459.33333333333337</ele><time>2026-04-18T13:44:56.607Z</time></trkpt><trkpt lat="46.14066" lon="12.182995"><ele>458.66666666666663</ele><time>2026-04-18T13:44:57.607Z</time></trkpt><trkpt lat="46.1406833" lon="12.1832317"><ele>458.0</ele><time>2026-04-18T13:44:58.607Z</time></trkpt><trkpt lat="46.14071" lon="12.1834717"><ele>457.3333333333333</ele><time>2026-04-18T13:44:59.607Z</time></trkpt><trkpt lat="46.1407417" lon="12.183705"><ele>456.66666666666663</ele><time>2026-04-18T13:45:00.608Z</time></trkpt><trkpt lat="46.1407733" lon="12.183935"><ele>456.0</ele><time>2026-04-18T13:45:01.608Z</time></trkpt><trkpt lat="46.140805" lon="12.1841617"><ele>456.0</ele><time>2026-04-18T13:45:02.607Z</time></trkpt><trkpt lat="46.1408367" lon="12.1843983"><ele>456.0</ele><time>2026-04-18T13:45:03.607Z</time></trkpt><trkpt lat="46.14086" lon="12.184635"><ele>456.0</ele><time>2026-04-18T13:45:04.607Z</time></trkpt><trkpt lat="46.14088" lon="12.18489"><ele>456.0</ele><time>2026-04-18T13:45:05.607Z</time></trkpt><trkpt lat="46.1409117" lon="12.1851383"><ele>456.0</ele><time>2026-04-18T13:45:06.607Z</time></trkpt><trkpt lat="46.1409417" lon="12.18539"><ele>456.0</ele><time>2026-04-18T13:45:07.608Z</time></trkpt><trkpt lat="46.1409783" lon="12.185635"><ele>455.66666666666663</ele><time>2026-04-18T13:45:08.607Z</time></trkpt><trkpt lat="46.1410083" lon="12.185895"><ele>455.3333333333333</ele><time>2026-04-18T13:45:09.608Z</time></trkpt><trkpt lat="46.1410367" lon="12.1861467"><ele>455.0</ele><time>2026-04-18T13:45:10.608Z</time></trkpt><trkpt lat="46.1410617" lon="12.1863867"><ele>454.3333333333333</ele><time>2026-04-18T13:45:11.607Z</time></trkpt><trkpt lat="46.1410867" lon="12.186605"><ele>453.66666666666663</ele><time>2026-04-18T13:45:12.607Z</time></trkpt><trkpt lat="46.1411183" lon="12.1868367"><ele>453.0</ele><time>2026-04-18T13:45:13.607Z</time></trkpt><trkpt lat="46.1411517" lon="12.18704"><ele>453.0</ele><time>2026-04-18T13:45:14.607Z</time></trkpt><trkpt lat="46.14118" lon="12.18724"><ele>453.0</ele><time>2026-04-18T13:45:15.607Z</time></trkpt><trkpt lat="46.141215" lon="12.1874433"><ele>453.0</ele><time>2026-04-18T13:45:16.607Z</time></trkpt><trkpt lat="46.14124" lon="12.1876417"><ele>453.0</ele><time>2026-04-18T13:45:17.607Z</time></trkpt><trkpt lat="46.1412633" lon="12.18785"><ele>452.75</ele><time>2026-04-18T13:45:18.607Z</time></trkpt><trkpt lat="46.1412967" lon="12.1880683"><ele>452.5</ele><time>2026-04-18T13:45:19.608Z</time></trkpt><trkpt lat="46.141335" lon="12.1882767"><ele>452.25</ele><time>2026-04-18T13:45:20.607Z</time></trkpt><trkpt lat="46.1413517" lon="12.1884817"><ele>452.0</ele><time>2026-04-18T13:45:21.608Z</time></trkpt><trkpt lat="46.1413767" lon="12.188665"><ele>451.5</ele><time>2026-04-18T13:45:22.608Z</time></trkpt><trkpt lat="46.141395" lon="12.18885"><ele>451.0</ele><time>2026-04-18T13:45:23.607Z</time></trkpt><trkpt lat="46.1414217" lon="12.1890417"><ele>450.5</ele><time>2026-04-18T13:45:24.607Z</time></trkpt><trkpt lat="46.1414417" lon="12.1892233"><ele>450.0</ele><time>2026-04-18T13:45:25.607Z</time></trkpt><trkpt lat="46.1414683" lon="12.1894117"><ele>449.25</ele><time>2026-04-18T13:45:26.607Z</time></trkpt><trkpt lat="46.141485" lon="12.189585"><ele>448.5</ele><time>2026-04-18T13:45:27.607Z</time></trkpt><trkpt lat="46.1415083" lon="12.1897583"><ele>447.75</ele><time>2026-04-18T13:45:28.607Z</time></trkpt><trkpt lat="46.1415367" lon="12.1899267"><ele>447.0</ele><time>2026-04-18T13:45:29.607Z</time></trkpt><trkpt lat="46.1415633" lon="12.1901117"><ele>446.75</ele><time>2026-04-18T13:45:30.608Z</time></trkpt><trkpt lat="46.1415817" lon="12.1903117"><ele>446.5</ele><time>2026-04-18T13:45:31.607Z</time></trkpt><trkpt lat="46.1415833" lon="12.1905117"><ele>446.25</ele><time>2026-04-18T13:45:32.607Z</time></trkpt><trkpt lat="46.141565" lon="12.190715"><ele>446.0</ele><time>2026-04-18T13:45:33.607Z</time></trkpt><trkpt lat="46.1415283" lon="12.19091"><ele>446.0</ele><time>2026-04-18T13:45:34.608Z</time></trkpt><trkpt lat="46.1414517" lon="12.191085"><ele>446.0</ele><time>2026-04-18T13:45:35.607Z</time></trkpt><trkpt lat="46.1413433" lon="12.19125"><ele>446.0</ele><time>2026-04-18T13:45:36.607Z</time></trkpt><trkpt lat="46.1412383" lon="12.1914117"><ele>446.0</ele><time>2026-04-18T13:45:37.607Z</time></trkpt><trkpt lat="46.1411283" lon="12.19158"><ele>446.0</ele><time>2026-04-18T13:45:38.607Z</time></trkpt><trkpt lat="46.14104" lon="12.19175"><ele>446.0</ele><time>2026-04-18T13:45:39.608Z</time></trkpt><trkpt lat="46.14097" lon="12.1919333"><ele>446.0</ele><time>2026-04-18T13:45:40.607Z</time></trkpt><trkpt lat="46.140915" lon="12.1921217"><ele>446.0</ele><time>2026-04-18T13:45:41.607Z</time></trkpt><trkpt lat="46.1408717" lon="12.1923117"><ele>446.0</ele><time>2026-04-18T13:45:42.607Z</time></trkpt><trkpt lat="46.140825" lon="12.192495"><ele>446.0</ele><time>2026-04-18T13:45:43.607Z</time></trkpt><trkpt lat="46.1408017" lon="12.192685"><ele>445.75</ele><time>2026-04-18T13:45:44.607Z</time></trkpt><trkpt lat="46.140805" lon="12.1928767"><ele>445.5</ele><time>2026-04-18T13:45:45.607Z</time></trkpt><trkpt lat="46.140815" lon="12.1930767"><ele>445.25</ele><time>2026-04-18T13:45:46.607Z</time></trkpt><trkpt lat="46.1408383" lon="12.19329"><ele>445.0</ele><time>2026-04-18T13:45:47.607Z</time></trkpt><trkpt lat="46.1408667" lon="12.1935"><ele>445.0</ele><time>2026-04-18T13:45:48.607Z</time></trkpt><trkpt lat="46.1408967" lon="12.1936933"><ele>445.0</ele><time>2026-04-18T13:45:49.607Z</time></trkpt><trkpt lat="46.1409367" lon="12.1938867"><ele>445.0</ele><time>2026-04-18T13:45:50.608Z</time></trkpt><trkpt lat="46.1409717" lon="12.1940967"><ele>445.0</ele><time>2026-04-18T13:45:51.607Z</time></trkpt><trkpt lat="46.1410133" lon="12.19429"><ele>445.0</ele><time>2026-04-18T13:45:52.607Z</time></trkpt><trkpt lat="46.1410517" lon="12.1944917"><ele>445.0</ele><time>2026-04-18T13:45:53.607Z</time></trkpt><trkpt lat="46.1410967" lon="12.1947033"><ele>445.0</ele><time>2026-04-18T13:45:54.607Z</time></trkpt><trkpt lat="46.1411367" lon="12.1949167"><ele>444.75</ele><time>2026-04-18T13:45:55.608Z</time></trkpt><trkpt lat="46.1411817" lon="12.1951183"><ele>444.5</ele><time>2026-04-18T13:45:56.607Z</time></trkpt><trkpt lat="46.14122" lon="12.1953067"><ele>444.25</ele><time>2026-04-18T13:45:57.607Z</time></trkpt><trkpt lat="46.1412583" lon="12.1954883"><ele>444.0</ele><time>2026-04-18T13:45:58.607Z</time></trkpt><trkpt lat="46.1413017" lon="12.1956717"><ele>443.0</ele><time>2026-04-18T13:45:59.608Z</time></trkpt><trkpt lat="46.1413467" lon="12.1958617"><ele>442.0</ele><time>2026-04-18T13:46:00.607Z</time></trkpt><trkpt lat="46.1413967" lon="12.1960483"><ele>441.0</ele><time>2026-04-18T13:46:01.608Z</time></trkpt><trkpt lat="46.141445" lon="12.19623"><ele>440.0</ele><time>2026-04-18T13:46:02.607Z</time></trkpt><trkpt lat="46.14149" lon="12.196395"><ele>439.0</ele><time>2026-04-18T13:46:03.608Z</time></trkpt><trkpt lat="46.1415433" lon="12.1965683"><ele>438.0</ele><time>2026-04-18T13:46:04.607Z</time></trkpt><trkpt lat="46.1415883" lon="12.1967433"><ele>437.0</ele><time>2026-04-18T13:46:05.608Z</time></trkpt><trkpt lat="46.1416467" lon="12.1969217"><ele>436.0</ele><time>2026-04-18T13:46:06.607Z</time></trkpt><trkpt lat="46.1417017" lon="12.1971167"><ele>438.0</ele><time>2026-04-18T13:46:07.608Z</time></trkpt><trkpt lat="46.1417633" lon="12.197295"><ele>440.0</ele><time>2026-04-18T13:46:08.607Z</time></trkpt><trkpt lat="46.1418283" lon="12.197475"><ele>442.0</ele><time>2026-04-18T13:46:09.608Z</time></trkpt><trkpt lat="46.1418883" lon="12.1976617"><ele>444.0</ele><time>2026-04-18T13:46:10.607Z</time></trkpt><trkpt lat="46.1419583" lon="12.1978383"><ele>444.0</ele><time>2026-04-18T13:46:11.607Z</time></trkpt><trkpt lat="46.1420133" lon="12.1980233"><ele>444.0</ele><time>2026-04-18T13:46:12.607Z</time></trkpt><trkpt lat="46.1420717" lon="12.1981983"><ele>444.0</ele><time>2026-04-18T13:46:13.607Z</time></trkpt><trkpt lat="46.1421217" lon="12.19837"><ele>444.0</ele><time>2026-04-18T13:46:14.607Z</time></trkpt><trkpt lat="46.1421733" lon="12.1985217"><ele>443.25</ele><time>2026-04-18T13:46:15.607Z</time></trkpt><trkpt lat="46.14223" lon="12.1986567"><ele>442.5</ele><time>2026-04-18T13:46:16.607Z</time></trkpt><trkpt lat="46.1422783" lon="12.1988017"><ele>441.75</ele><time>2026-04-18T13:46:17.607Z</time></trkpt><trkpt lat="46.1423317" lon="12.1989717"><ele>441.0</ele><time>2026-04-18T13:46:18.607Z</time></trkpt><trkpt lat="46.142395" lon="12.1991433"><ele>441.0</ele><time>2026-04-18T13:46:19.608Z</time></trkpt><trkpt lat="46.1424633" lon="12.1992883"><ele>441.0</ele><time>2026-04-18T13:46:20.608Z</time></trkpt><trkpt lat="46.1425317" lon="12.1994317"><ele>441.0</ele><time>2026-04-18T13:46:21.607Z</time></trkpt><trkpt lat="46.142585" lon="12.1995733"><ele>441.0</ele><time>2026-04-18T13:46:22.607Z</time></trkpt><trkpt lat="46.142635" lon="12.1997033"><ele>440.20000000000005</ele><time>2026-04-18T13:46:23.607Z</time></trkpt><trkpt lat="46.14269" lon="12.199835"><ele>439.40000000000003</ele><time>2026-04-18T13:46:24.607Z</time></trkpt><trkpt lat="46.142745" lon="12.1999717"><ele>438.6</ele><time>2026-04-18T13:46:25.607Z</time></trkpt><trkpt lat="46.1428017" lon="12.200105"><ele>437.8</ele><time>2026-04-18T13:46:26.607Z</time></trkpt><trkpt lat="46.14286" lon="12.200245"><ele>437.0</ele><time>2026-04-18T13:46:27.607Z</time></trkpt><trkpt lat="46.1429183" lon="12.2003583"><ele>437.0</ele><time>2026-04-18T13:46:28.607Z</time></trkpt><trkpt lat="46.1429717" lon="12.200455"><ele>437.00000000000006</ele><time>2026-04-18T13:46:29.607Z</time></trkpt><trkpt lat="46.1430083" lon="12.2005383"><ele>437.00000000000006</ele><time>2026-04-18T13:46:30.608Z</time></trkpt><trkpt lat="46.143065" lon="12.2006783"><ele>437.0</ele><time>2026-04-18T13:46:32.607Z</time></trkpt><trkpt lat="46.1431167" lon="12.2008033"><ele>437.0</ele><time>2026-04-18T13:46:34.608Z</time></trkpt><trkpt lat="46.1431767" lon="12.2009583"><ele>437.3333333333333</ele><time>2026-04-18T13:46:36.608Z</time></trkpt><trkpt lat="46.14321" lon="12.2010517"><ele>437.66666666666663</ele><time>2026-04-18T13:46:37.607Z</time></trkpt><trkpt lat="46.14324" lon="12.20114"><ele>438.0</ele><time>2026-04-18T13:46:38.607Z</time></trkpt><trkpt lat="46.1432833" lon="12.2012267"><ele>438.33333333333337</ele><time>2026-04-18T13:46:39.607Z</time></trkpt><trkpt lat="46.14333" lon="12.2013267"><ele>438.6666666666667</ele><time>2026-04-18T13:46:40.607Z</time></trkpt><trkpt lat="46.14337" lon="12.201445"><ele>439.0</ele><time>2026-04-18T13:46:41.607Z</time></trkpt><trkpt lat="46.143415" lon="12.2015583"><ele>438.0</ele><time>2026-04-18T13:46:42.608Z</time></trkpt><trkpt lat="46.14347" lon="12.2016683"><ele>437.0</ele><time>2026-04-18T13:46:43.608Z</time></trkpt><trkpt lat="46.14352" lon="12.2018"><ele>436.0</ele><time>2026-04-18T13:46:44.607Z</time></trkpt><trkpt lat="46.143575" lon="12.2019133"><ele>435.0</ele><time>2026-04-18T13:46:45.607Z</time></trkpt><trkpt lat="46.1436133" lon="12.2020117"><ele>434.0</ele><time>2026-04-18T13:46:46.608Z</time></trkpt><trkpt lat="46.1436617" lon="12.20212"><ele>434.0</ele><time>2026-04-18T13:46:47.607Z</time></trkpt><trkpt lat="46.14372" lon="12.202255"><ele>434.0</ele><time>2026-04-18T13:46:48.607Z</time></trkpt><trkpt lat="46.143805" lon="12.202425"><ele>434.0</ele><time>2026-04-18T13:46:49.607Z</time></trkpt><trkpt lat="46.1438933" lon="12.2026383"><ele>434.0</ele><time>2026-04-18T13:46:50.607Z</time></trkpt><trkpt lat="46.14399" lon="12.2028533"><ele>433.25</ele><time>2026-04-18T13:46:51.608Z</time></trkpt><trkpt lat="46.144075" lon="12.2030683"><ele>432.5</ele><time>2026-04-18T13:46:52.607Z</time></trkpt><trkpt lat="46.1441483" lon="12.20325"><ele>431.75</ele><time>2026-04-18T13:46:53.607Z</time></trkpt><trkpt lat="46.1442067" lon="12.2034033"><ele>431.0</ele><time>2026-04-18T13:46:54.607Z</time></trkpt><trkpt lat="46.1442617" lon="12.2035583"><ele>430.6</ele><time>2026-04-18T13:46:55.607Z</time></trkpt><trkpt lat="46.1443233" lon="12.2036933"><ele>430.20000000000005</ele><time>2026-04-18T13:46:56.607Z</time></trkpt><trkpt lat="46.1443917" lon="12.2037967"><ele>429.79999999999995</ele><time>2026-04-18T13:46:57.607Z</time></trkpt><trkpt lat="46.1444467" lon="12.2039"><ele>429.4</ele><time>2026-04-18T13:46:58.607Z</time></trkpt><trkpt lat="46.1444967" lon="12.2040183"><ele>429.0</ele><time>2026-04-18T13:46:59.607Z</time></trkpt><trkpt lat="46.1445383" lon="12.20418"><ele>428.66666666666663</ele><time>2026-04-18T13:47:00.607Z</time></trkpt><trkpt lat="46.1445817" lon="12.20439"><ele>428.3333333333333</ele><time>2026-04-18T13:47:01.607Z</time></trkpt><trkpt lat="46.1446483" lon="12.2046417"><ele>428.0</ele><time>2026-04-18T13:47:02.607Z</time></trkpt><trkpt lat="46.1447167" lon="12.2048867"><ele>427.75</ele><time>2026-04-18T13:47:03.607Z</time></trkpt><trkpt lat="46.1448017" lon="12.2051017"><ele>427.5</ele><time>2026-04-18T13:47:04.608Z</time></trkpt><trkpt lat="46.144875" lon="12.2052917"><ele>427.25</ele><time>2026-04-18T13:47:05.607Z</time></trkpt><trkpt lat="46.14494" lon="12.2054233"><ele>427.0</ele><time>2026-04-18T13:47:06.607Z</time></trkpt><trkpt lat="46.145005" lon="12.2055417"><ele>427.0</ele><time>2026-04-18T13:47:07.607Z</time></trkpt><trkpt lat="46.1450683" lon="12.2056333"><ele>427.0</ele><time>2026-04-18T13:47:08.607Z</time></trkpt><trkpt lat="46.1451267" lon="12.20575"><ele>427.0</ele><time>2026-04-18T13:47:09.607Z</time></trkpt><trkpt lat="46.145205" lon="12.205885"><ele>427.0</ele><time>2026-04-18T13:47:10.608Z</time></trkpt><trkpt lat="46.1452833" lon="12.20605"><ele>426.75</ele><time>2026-04-18T13:47:11.607Z</time></trkpt><trkpt lat="46.145345" lon="12.2062417"><ele>426.5</ele><time>2026-04-18T13:47:12.608Z</time></trkpt><trkpt lat="46.145425" lon="12.20641"><ele>426.25</ele><time>2026-04-18T13:47:13.608Z</time></trkpt><trkpt lat="46.1454983" lon="12.2065667"><ele>426.0</ele><time>2026-04-18T13:47:14.608Z</time></trkpt><trkpt lat="46.1455617" lon="12.2067033"><ele>424.5</ele><time>2026-04-18T13:47:15.607Z</time></trkpt><trkpt lat="46.145615" lon="12.2068467"><ele>423.0</ele><time>2026-04-18T13:47:16.607Z</time></trkpt><trkpt lat="46.1456483" lon="12.2070017"><ele>421.5</ele><time>2026-04-18T13:47:17.607Z</time></trkpt><trkpt lat="46.1456533" lon="12.20719"><ele>420.0</ele><time>2026-04-18T13:47:18.607Z</time></trkpt><trkpt lat="46.14565" lon="12.2073967"><ele>418.66666666666663</ele><time>2026-04-18T13:47:19.607Z</time></trkpt><trkpt lat="46.1456367" lon="12.207615"><ele>417.3333333333333</ele><time>2026-04-18T13:47:20.607Z</time></trkpt><trkpt lat="46.14562" lon="12.2078367"><ele>416.0</ele><time>2026-04-18T13:47:21.607Z</time></trkpt><trkpt lat="46.1456067" lon="12.2080567"><ele>415.3333333333333</ele><time>2026-04-18T13:47:22.607Z</time></trkpt><trkpt lat="46.145595" lon="12.2082817"><ele>414.66666666666663</ele><time>2026-04-18T13:47:23.607Z</time></trkpt><trkpt lat="46.14557" lon="12.2085183"><ele>414.0</ele><time>2026-04-18T13:47:24.607Z</time></trkpt><trkpt lat="46.1455583" lon="12.2087583"><ele>413.66666666666663</ele><time>2026-04-18T13:47:25.607Z</time></trkpt><trkpt lat="46.1455467" lon="12.2090017"><ele>413.3333333333333</ele><time>2026-04-18T13:47:26.607Z</time></trkpt><trkpt lat="46.1455417" lon="12.2092433"><ele>413.0</ele><time>2026-04-18T13:47:27.608Z</time></trkpt><trkpt lat="46.145525" lon="12.209495"><ele>413.0</ele><time>2026-04-18T13:47:28.607Z</time></trkpt><trkpt lat="46.145525" lon="12.209735"><ele>413.0</ele><time>2026-04-18T13:47:29.608Z</time></trkpt><trkpt lat="46.1455267" lon="12.20996"><ele>413.0</ele><time>2026-04-18T13:47:30.608Z</time></trkpt><trkpt lat="46.1455033" lon="12.210175"><ele>412.5</ele><time>2026-04-18T13:47:31.607Z</time></trkpt><trkpt lat="46.1454883" lon="12.21038"><ele>412.0</ele><time>2026-04-18T13:47:32.608Z</time></trkpt><trkpt lat="46.1454783" lon="12.2105817"><ele>411.5</ele><time>2026-04-18T13:47:33.607Z</time></trkpt><trkpt lat="46.1454617" lon="12.2107617"><ele>411.0</ele><time>2026-04-18T13:47:34.607Z</time></trkpt><trkpt lat="46.1454317" lon="12.210935"><ele>410.5</ele><time>2026-04-18T13:47:35.608Z</time></trkpt><trkpt lat="46.1453883" lon="12.2110867"><ele>410.0</ele><time>2026-04-18T13:47:36.608Z</time></trkpt><trkpt lat="46.1453233" lon="12.2112433"><ele>409.5</ele><time>2026-04-18T13:47:37.607Z</time></trkpt><trkpt lat="46.1452533" lon="12.2113967"><ele>409.0</ele><time>2026-04-18T13:47:38.607Z</time></trkpt><trkpt lat="46.1451833" lon="12.21154"><ele>408.6</ele><time>2026-04-18T13:47:39.607Z</time></trkpt><trkpt lat="46.1451183" lon="12.2116667"><ele>408.2</ele><time>2026-04-18T13:47:40.608Z</time></trkpt><trkpt lat="46.1450567" lon="12.2117783"><ele>407.8</ele><time>2026-04-18T13:47:41.608Z</time></trkpt><trkpt lat="46.14501" lon="12.2118717"><ele>407.40000000000003</ele><time>2026-04-18T13:47:42.608Z</time></trkpt><trkpt lat="46.1449417" lon="12.2119683"><ele>407.0</ele><time>2026-04-18T13:47:44.607Z</time></trkpt><trkpt lat="46.1448883" lon="12.2120267"><ele>406.99999999999994</ele><time>2026-04-18T13:47:46.608Z</time></trkpt><trkpt lat="46.1448267" lon="12.2121133"><ele>407.0</ele><time>2026-04-18T13:47:48.607Z</time></trkpt><trkpt lat="46.144775" lon="12.2121783"><ele>407.0</ele><time>2026-04-18T13:47:50.607Z</time></trkpt><trkpt lat="46.1447117" lon="12.2122417"><ele>407.0</ele><time>2026-04-18T13:47:53.607Z</time></trkpt><trkpt lat="46.14465" lon="12.21233"><ele>406.99999999999994</ele><time>2026-04-18T13:47:55.608Z</time></trkpt><trkpt lat="46.144585" lon="12.2124167"><ele>407.0</ele><time>2026-04-18T13:47:57.607Z</time></trkpt><trkpt lat="46.14453" lon="12.2124817"><ele>406.99999999999994</ele><time>2026-04-18T13:47:59.607Z</time></trkpt><trkpt lat="46.1444733" lon="12.2125617"><ele>407.0</ele><time>2026-04-18T13:48:02.607Z</time></trkpt><trkpt lat="46.14442" lon="12.2126383"><ele>407.0</ele><time>2026-04-18T13:48:05.607Z</time></trkpt><trkpt lat="46.144355" lon="12.2127117"><ele>407.0</ele><time>2026-04-18T13:48:08.607Z</time></trkpt><trkpt lat="46.1442967" lon="12.2128"><ele>406.99999999999994</ele><time>2026-04-18T13:48:11.607Z</time></trkpt><trkpt lat="46.1442417" lon="12.2128783"><ele>407.0</ele><time>2026-04-18T13:48:15.607Z</time></trkpt><trkpt lat="46.1441833" lon="12.2129233"><ele>406.99999999999994</ele><time>2026-04-18T13:48:18.607Z</time></trkpt><trkpt lat="46.1441167" lon="12.2129467"><ele>407.0</ele><time>2026-04-18T13:48:20.607Z</time></trkpt><trkpt lat="46.14405" lon="12.21294"><ele>407.0</ele><time>2026-04-18T13:48:22.608Z</time></trkpt><trkpt lat="46.1439583" lon="12.21295"><ele>407.0</ele><time>2026-04-18T13:48:24.607Z</time></trkpt><trkpt lat="46.1438867" lon="12.21302"><ele>406.99999999999994</ele><time>2026-04-18T13:48:26.607Z</time></trkpt><trkpt lat="46.143825" lon="12.2131633"><ele>407.0</ele><time>2026-04-18T13:48:28.607Z</time></trkpt><trkpt lat="46.143755" lon="12.2132533"><ele>406.0</ele><time>2026-04-18T13:48:29.607Z</time></trkpt><trkpt lat="46.14365" lon="12.2133417"><ele>405.0</ele><time>2026-04-18T13:48:30.607Z</time></trkpt><trkpt lat="46.1435467" lon="12.213415"><ele>404.0</ele><time>2026-04-18T13:48:31.608Z</time></trkpt><trkpt lat="46.14346" lon="12.213465"><ele>403.0</ele><time>2026-04-18T13:48:32.608Z</time></trkpt><trkpt lat="46.14337" lon="12.21352"><ele>402.0</ele><time>2026-04-18T13:48:33.607Z</time></trkpt><trkpt lat="46.1432817" lon="12.2136"><ele>401.40000000000003</ele><time>2026-04-18T13:48:34.608Z</time></trkpt><trkpt lat="46.143185" lon="12.21368"><ele>400.8</ele><time>2026-04-18T13:48:35.608Z</time></trkpt><trkpt lat="46.143095" lon="12.213745"><ele>400.2</ele><time>2026-04-18T13:48:36.607Z</time></trkpt><trkpt lat="46.1430083" lon="12.2138117"><ele>399.6</ele><time>2026-04-18T13:48:37.607Z</time></trkpt><trkpt lat="46.1429167" lon="12.2138783"><ele>399.0</ele><time>2026-04-18T13:48:38.607Z</time></trkpt><trkpt lat="46.14282" lon="12.2139183"><ele>399.0</ele><time>2026-04-18T13:48:39.608Z</time></trkpt><trkpt lat="46.142735" lon="12.213975"><ele>399.0</ele><time>2026-04-18T13:48:40.607Z</time></trkpt><trkpt lat="46.1426517" lon="12.21403"><ele>399.0</ele><time>2026-04-18T13:48:41.608Z</time></trkpt><trkpt lat="46.14257" lon="12.2140883"><ele>399.0</ele><time>2026-04-18T13:48:42.607Z</time></trkpt><trkpt lat="46.1424967" lon="12.2141467"><ele>399.0</ele><time>2026-04-18T13:48:43.607Z</time></trkpt><trkpt lat="46.1424267" lon="12.2142167"><ele>399.0</ele><time>2026-04-18T13:48:44.607Z</time></trkpt><trkpt lat="46.1423467" lon="12.2142883"><ele>399.1666666666667</ele><time>2026-04-18T13:48:45.608Z</time></trkpt><trkpt lat="46.1422667" lon="12.214345"><ele>399.33333333333337</ele><time>2026-04-18T13:48:46.607Z</time></trkpt><trkpt lat="46.142205" lon="12.2143967"><ele>399.5</ele><time>2026-04-18T13:48:47.608Z</time></trkpt><trkpt lat="46.1421267" lon="12.2144533"><ele>399.6666666666667</ele><time>2026-04-18T13:48:48.607Z</time></trkpt><trkpt lat="46.1420267" lon="12.2145117"><ele>399.83333333333337</ele><time>2026-04-18T13:48:50.607Z</time></trkpt><trkpt lat="46.1419617" lon="12.2145383"><ele>400.0</ele><time>2026-04-18T13:48:52.608Z</time></trkpt><trkpt lat="46.1418667" lon="12.2145967"><ele>400.00000000000006</ele><time>2026-04-18T13:49:07.607Z</time></trkpt><trkpt lat="46.1418067" lon="12.2146483"><ele>400.0</ele><time>2026-04-18T13:49:09.608Z</time></trkpt><trkpt lat="46.14175" lon="12.21471"><ele>400.0</ele><time>2026-04-18T13:49:12.607Z</time></trkpt><trkpt lat="46.1417167" lon="12.2148083"><ele>400.0</ele><time>2026-04-18T13:49:15.608Z</time></trkpt><trkpt lat="46.1417467" lon="12.2149317"><ele>400.00000000000006</ele><time>2026-04-18T13:49:17.607Z</time></trkpt><trkpt lat="46.14177" lon="12.21503"><ele>400.0</ele><time>2026-04-18T13:49:18.607Z</time></trkpt><trkpt lat="46.1418167" lon="12.215135"><ele>399.83333333333337</ele><time>2026-04-18T13:49:19.607Z</time></trkpt><trkpt lat="46.141855" lon="12.2152417"><ele>399.6666666666667</ele><time>2026-04-18T13:49:20.607Z</time></trkpt><trkpt lat="46.1418917" lon="12.2153417"><ele>399.5</ele><time>2026-04-18T13:49:21.607Z</time></trkpt><trkpt lat="46.141925" lon="12.2154333"><ele>399.33333333333337</ele><time>2026-04-18T13:49:22.607Z</time></trkpt><trkpt lat="46.1419567" lon="12.21552"><ele>399.1666666666667</ele><time>2026-04-18T13:49:23.608Z</time></trkpt><trkpt lat="46.1419883" lon="12.2156033"><ele>399.0</ele><time>2026-04-18T13:49:24.607Z</time></trkpt><trkpt lat="46.14205" lon="12.2157633"><ele>399.0</ele><time>2026-04-18T13:49:26.607Z</time></trkpt><trkpt lat="46.1420717" lon="12.2159467"><ele>399.0</ele><time>2026-04-18T13:49:28.607Z</time></trkpt><trkpt lat="46.1420867" lon="12.2160517"><ele>399.0</ele><time>2026-04-18T13:49:29.607Z</time></trkpt><trkpt lat="46.1421167" lon="12.2161683"><ele>399.0</ele><time>2026-04-18T13:49:30.607Z</time></trkpt><trkpt lat="46.142155" lon="12.2162683"><ele>399.0</ele><time>2026-04-18T13:49:31.607Z</time></trkpt><trkpt lat="46.1421967" lon="12.2163567"><ele>399.0</ele><time>2026-04-18T13:49:32.607Z</time></trkpt><trkpt lat="46.1422333" lon="12.2164333"><ele>398.4</ele><time>2026-04-18T13:49:33.607Z</time></trkpt><trkpt lat="46.1422667" lon="12.216515"><ele>397.79999999999995</ele><time>2026-04-18T13:49:34.607Z</time></trkpt><trkpt lat="46.14233" lon="12.2166733"><ele>397.20000000000005</ele><time>2026-04-18T13:49:36.607Z</time></trkpt><trkpt lat="46.1424117" lon="12.2167917"><ele>396.6</ele><time>2026-04-18T13:49:38.607Z</time></trkpt><trkpt lat="46.1425117" lon="12.2168383"><ele>396.0</ele><time>2026-04-18T13:49:40.607Z</time></trkpt><trkpt lat="46.142625" lon="12.216755"><ele>396.3333333333333</ele><time>2026-04-18T13:49:42.607Z</time></trkpt><trkpt lat="46.1426783" lon="12.2166733"><ele>396.66666666666663</ele><time>2026-04-18T13:49:43.607Z</time></trkpt><trkpt lat="46.1427267" lon="12.2165767"><ele>397.0</ele><time>2026-04-18T13:49:44.608Z</time></trkpt><trkpt lat="46.14278" lon="12.2164917"><ele>397.3333333333333</ele><time>2026-04-18T13:49:45.607Z</time></trkpt><trkpt lat="46.1428333" lon="12.2164083"><ele>397.66666666666663</ele><time>2026-04-18T13:49:46.608Z</time></trkpt><trkpt lat="46.1428883" lon="12.2163267"><ele>398.0</ele><time>2026-04-18T13:49:47.608Z</time></trkpt><trkpt lat="46.142945" lon="12.216245"><ele>397.99999999999994</ele><time>2026-04-18T13:49:48.608Z</time></trkpt><trkpt lat="46.143005" lon="12.21616"><ele>398.0</ele><time>2026-04-18T13:49:49.607Z</time></trkpt><trkpt lat="46.1430567" lon="12.216075"><ele>398.0</ele><time>2026-04-18T13:49:50.607Z</time></trkpt><trkpt lat="46.1431167" lon="12.2159933"><ele>398.0</ele><time>2026-04-18T13:49:51.607Z</time></trkpt><trkpt lat="46.1431833" lon="12.21591"><ele>397.99999999999994</ele><time>2026-04-18T13:49:52.608Z</time></trkpt><trkpt lat="46.1432433" lon="12.2158217"><ele>398.0</ele><time>2026-04-18T13:49:53.608Z</time></trkpt><trkpt lat="46.143305" lon="12.215725"><ele>397.8333333333333</ele><time>2026-04-18T13:49:54.607Z</time></trkpt><trkpt lat="46.1433783" lon="12.21566"><ele>397.66666666666663</ele><time>2026-04-18T13:49:55.607Z</time></trkpt><trkpt lat="46.1434583" lon="12.2156083"><ele>397.5</ele><time>2026-04-18T13:49:56.608Z</time></trkpt><trkpt lat="46.1435317" lon="12.2156417"><ele>397.33333333333337</ele><time>2026-04-18T13:49:57.607Z</time></trkpt><trkpt lat="46.1436" lon="12.215715"><ele>397.1666666666667</ele><time>2026-04-18T13:49:58.607Z</time></trkpt><trkpt lat="46.1436517" lon="12.21581"><ele>397.0</ele><time>2026-04-18T13:49:59.607Z</time></trkpt><trkpt lat="46.1436883" lon="12.2159"><ele>395.6666666666667</ele><time>2026-04-18T13:50:00.607Z</time></trkpt><trkpt lat="46.1436917" lon="12.216035"><ele>394.33333333333337</ele><time>2026-04-18T13:50:02.608Z</time></trkpt><trkpt lat="46.1436333" lon="12.2161233"><ele>393.0</ele><time>2026-04-18T13:50:03.607Z</time></trkpt><trkpt lat="46.1435867" lon="12.2161967"><ele>391.66666666666663</ele><time>2026-04-18T13:50:04.607Z</time></trkpt><trkpt lat="46.1435367" lon="12.2162583"><ele>390.3333333333333</ele><time>2026-04-18T13:50:05.607Z</time></trkpt><trkpt lat="46.14343" lon="12.2163483"><ele>389.0</ele><time>2026-04-18T13:50:07.607Z</time></trkpt><trkpt lat="46.1433733" lon="12.2164"><ele>388.99999999999994</ele><time>2026-04-18T13:50:08.607Z</time></trkpt><trkpt lat="46.1433083" lon="12.21645"><ele>389.0</ele><time>2026-04-18T13:50:09.607Z</time></trkpt><trkpt lat="46.1432367" lon="12.2165083"><ele>389.0</ele><time>2026-04-18T13:50:10.607Z</time></trkpt><trkpt lat="46.1431767" lon="12.2165667"><ele>389.0</ele><time>2026-04-18T13:50:11.608Z</time></trkpt><trkpt lat="46.143135" lon="12.216645"><ele>388.99999999999994</ele><time>2026-04-18T13:50:12.607Z</time></trkpt><trkpt lat="46.1431383" lon="12.2167517"><ele>389.0</ele><time>2026-04-18T13:50:14.607Z</time></trkpt><trkpt lat="46.1431733" lon="12.216855"><ele>387.6</ele><time>2026-04-18T13:50:16.607Z</time></trkpt><trkpt lat="46.1432233" lon="12.2169133"><ele>386.2</ele><time>2026-04-18T13:50:18.608Z</time></trkpt><trkpt lat="46.1433067" lon="12.21704"><ele>384.8</ele><time>2026-04-18T13:50:27.607Z</time></trkpt><trkpt lat="46.1433633" lon="12.2171533"><ele>383.40000000000003</ele><time>2026-04-18T13:50:36.607Z</time></trkpt><trkpt lat="46.1434317" lon="12.2170917"><ele>382.0</ele><time>2026-04-18T13:50:38.607Z</time></trkpt><trkpt lat="46.1434967" lon="12.2170083"><ele>382.0</ele><time>2026-04-18T13:50:40.607Z</time></trkpt><trkpt lat="46.1435767" lon="12.216995"><ele>382.0</ele><time>2026-04-18T13:50:42.607Z</time></trkpt><trkpt lat="46.1436317" lon="12.2170867"><ele>382.0</ele><time>2026-04-18T13:50:44.607Z</time></trkpt><trkpt lat="46.1436167" lon="12.2172133"><ele>382.0</ele><time>2026-04-18T13:50:46.607Z</time></trkpt><trkpt lat="46.143515" lon="12.2173233"><ele>382.0</ele><time>2026-04-18T13:50:48.607Z</time></trkpt><trkpt lat="46.1434267" lon="12.2174233"><ele>383.3333333333333</ele><time>2026-04-18T13:50:49.607Z</time></trkpt><trkpt lat="46.1433217" lon="12.217585"><ele>384.66666666666663</ele><time>2026-04-18T13:50:50.607Z</time></trkpt><trkpt lat="46.1432433" lon="12.217795"><ele>386.0</ele><time>2026-04-18T13:50:51.606Z</time></trkpt><trkpt lat="46.1431933" lon="12.2179917"><ele>384.75</ele><time>2026-04-18T13:50:52.607Z</time></trkpt><trkpt lat="46.143165" lon="12.218165"><ele>383.5</ele><time>2026-04-18T13:50:53.606Z</time></trkpt><trkpt lat="46.1431567" lon="12.2183267"><ele>382.25</ele><time>2026-04-18T13:50:54.607Z</time></trkpt><trkpt lat="46.1431633" lon="12.2184883"><ele>381.0</ele><time>2026-04-18T13:50:55.606Z</time></trkpt><trkpt lat="46.143175" lon="12.218635"><ele>381.0</ele><time>2026-04-18T13:50:56.606Z</time></trkpt><trkpt lat="46.1432033" lon="12.2187717"><ele>381.0</ele><time>2026-04-18T13:50:57.606Z</time></trkpt><trkpt lat="46.14324" lon="12.2189083"><ele>381.0</ele><time>2026-04-18T13:50:58.607Z</time></trkpt><trkpt lat="46.1432933" lon="12.21903"><ele>381.0</ele><time>2026-04-18T13:50:59.607Z</time></trkpt><trkpt lat="46.1433317" lon="12.21914"><ele>381.0</ele><time>2026-04-18T13:51:00.607Z</time></trkpt><trkpt lat="46.14337" lon="12.2192367"><ele>378.3333333333333</ele><time>2026-04-18T13:51:01.606Z</time></trkpt><trkpt lat="46.1433983" lon="12.2193333"><ele>375.6666666666667</ele><time>2026-04-18T13:51:02.606Z</time></trkpt><trkpt lat="46.1434133" lon="12.2194317"><ele>373.0</ele><time>2026-04-18T13:51:03.606Z</time></trkpt><trkpt lat="46.1433967" lon="12.2195267"><ele>370.33333333333337</ele><time>2026-04-18T13:51:04.606Z</time></trkpt><trkpt lat="46.1432983" lon="12.21965"><ele>367.6666666666667</ele><time>2026-04-18T13:51:06.607Z</time></trkpt><trkpt lat="46.1432183" lon="12.2196817"><ele>365.0</ele><time>2026-04-18T13:51:07.606Z</time></trkpt><trkpt lat="46.14313" lon="12.219715"><ele>365.0</ele><time>2026-04-18T13:51:08.606Z</time></trkpt><trkpt lat="46.1430517" lon="12.2197517"><ele>365.0</ele><time>2026-04-18T13:51:09.606Z</time></trkpt><trkpt lat="46.1429733" lon="12.2197817"><ele>365.0</ele><time>2026-04-18T13:51:10.606Z</time></trkpt><trkpt lat="46.1428967" lon="12.2197983"><ele>365.0</ele><time>2026-04-18T13:51:11.606Z</time></trkpt><trkpt lat="46.1428267" lon="12.2198"><ele>365.0</ele><time>2026-04-18T13:51:12.606Z</time></trkpt><trkpt lat="46.142755" lon="12.2197967"><ele>365.0</ele><time>2026-04-18T13:51:13.607Z</time></trkpt><trkpt lat="46.142675" lon="12.2197767"><ele>365.0</ele><time>2026-04-18T13:51:14.607Z</time></trkpt><trkpt lat="46.14259" lon="12.2197483"><ele>365.0</ele><time>2026-04-18T13:51:15.606Z</time></trkpt><trkpt lat="46.1425083" lon="12.2197183"><ele>365.0</ele><time>2026-04-18T13:51:16.606Z</time></trkpt><trkpt lat="46.1424233" lon="12.21969"><ele>365.0</ele><time>2026-04-18T13:51:17.606Z</time></trkpt><trkpt lat="46.1423383" lon="12.2196717"><ele>365.0</ele><time>2026-04-18T13:51:18.607Z</time></trkpt><trkpt lat="46.14225" lon="12.2196767"><ele>365.0</ele><time>2026-04-18T13:51:19.606Z</time></trkpt><trkpt lat="46.142165" lon="12.2196867"><ele>364.6</ele><time>2026-04-18T13:51:20.607Z</time></trkpt><trkpt lat="46.142075" lon="12.2197033"><ele>364.2</ele><time>2026-04-18T13:51:21.606Z</time></trkpt><trkpt lat="46.1419833" lon="12.2197283"><ele>363.79999999999995</ele><time>2026-04-18T13:51:22.606Z</time></trkpt><trkpt lat="46.141885" lon="12.2197367"><ele>363.4</ele><time>2026-04-18T13:51:23.606Z</time></trkpt><trkpt lat="46.1417883" lon="12.21975"><ele>363.0</ele><time>2026-04-18T13:51:24.606Z</time></trkpt><trkpt lat="46.14169" lon="12.2197517"><ele>363.0</ele><time>2026-04-18T13:51:25.606Z</time></trkpt><trkpt lat="46.1415833" lon="12.219775"><ele>363.0</ele><time>2026-04-18T13:51:26.606Z</time></trkpt><trkpt lat="46.1414867" lon="12.219785"><ele>363.0</ele><time>2026-04-18T13:51:27.607Z</time></trkpt><trkpt lat="46.1413933" lon="12.2197817"><ele>363.0</ele><time>2026-04-18T13:51:28.606Z</time></trkpt><trkpt lat="46.1413033" lon="12.2197717"><ele>363.0</ele><time>2026-04-18T13:51:29.606Z</time></trkpt><trkpt lat="46.1412067" lon="12.219765"><ele>364.59999999999997</ele><time>2026-04-18T13:51:30.606Z</time></trkpt><trkpt lat="46.141115" lon="12.219755"><ele>366.2</ele><time>2026-04-18T13:51:31.606Z</time></trkpt><trkpt lat="46.1410133" lon="12.2197517"><ele>367.8</ele><time>2026-04-18T13:51:32.606Z</time></trkpt><trkpt lat="46.14089" lon="12.219735"><ele>369.4</ele><time>2026-04-18T13:51:33.606Z</time></trkpt><trkpt lat="46.140765" lon="12.2197183"><ele>371.0</ele><time>2026-04-18T13:51:34.606Z</time></trkpt><trkpt lat="46.1406517" lon="12.2197333"><ele>372.5</ele><time>2026-04-18T13:51:35.606Z</time></trkpt><trkpt lat="46.1405267" lon="12.219755"><ele>374.0</ele><time>2026-04-18T13:51:36.606Z</time></trkpt><trkpt lat="46.14039" lon="12.2197917"><ele>375.5</ele><time>2026-04-18T13:51:37.606Z</time></trkpt><trkpt lat="46.14026" lon="12.2198483"><ele>377.0</ele><time>2026-04-18T13:51:38.606Z</time></trkpt><trkpt lat="46.140145" lon="12.2199183"><ele>373.25</ele><time>2026-04-18T13:51:39.606Z</time></trkpt><trkpt lat="46.1400267" lon="12.2199967"><ele>369.5</ele><time>2026-04-18T13:51:40.606Z</time></trkpt><trkpt lat="46.139925" lon="12.2200633"><ele>365.75</ele><time>2026-04-18T13:51:41.607Z</time></trkpt><trkpt lat="46.1398317" lon="12.2201367"><ele>362.0</ele><time>2026-04-18T13:51:42.606Z</time></trkpt><trkpt lat="46.13973" lon="12.220205"><ele>362.0</ele><time>2026-04-18T13:51:43.606Z</time></trkpt><trkpt lat="46.139625" lon="12.2202567"><ele>362.0</ele><time>2026-04-18T13:51:44.607Z</time></trkpt><trkpt lat="46.1395267" lon="12.2203133"><ele>362.0</ele><time>2026-04-18T13:51:45.606Z</time></trkpt><trkpt lat="46.139425" lon="12.2203767"><ele>362.0</ele><time>2026-04-18T13:51:46.607Z</time></trkpt><trkpt lat="46.13932" lon="12.2204433"><ele>362.0</ele><time>2026-04-18T13:51:47.606Z</time></trkpt><trkpt lat="46.13922" lon="12.2205083"><ele>362.0</ele><time>2026-04-18T13:51:48.606Z</time></trkpt><trkpt lat="46.1391183" lon="12.2205733"><ele>362.0</ele><time>2026-04-18T13:51:49.606Z</time></trkpt><trkpt lat="46.1390117" lon="12.2206517"><ele>362.0</ele><time>2026-04-18T13:51:50.606Z</time></trkpt><trkpt lat="46.138905" lon="12.2207317"><ele>362.0</ele><time>2026-04-18T13:51:51.606Z</time></trkpt><trkpt lat="46.13879" lon="12.220795"><ele>359.0</ele><time>2026-04-18T13:51:52.606Z</time></trkpt><trkpt lat="46.13867" lon="12.2208667"><ele>356.0</ele><time>2026-04-18T13:51:53.607Z</time></trkpt><trkpt lat="46.1385617" lon="12.2209467"><ele>353.0</ele><time>2026-04-18T13:51:54.606Z</time></trkpt><trkpt lat="46.1384517" lon="12.221025"><ele>350.0</ele><time>2026-04-18T13:51:55.607Z</time></trkpt><trkpt lat="46.13834" lon="12.2211"><ele>350.0</ele><time>2026-04-18T13:51:56.607Z</time></trkpt><trkpt lat="46.1382283" lon="12.2211717"><ele>350.0</ele><time>2026-04-18T13:51:57.606Z</time></trkpt><trkpt lat="46.1381267" lon="12.2212317"><ele>350.0</ele><time>2026-04-18T13:51:58.606Z</time></trkpt><trkpt lat="46.1380283" lon="12.2212967"><ele>350.0</ele><time>2026-04-18T13:51:59.606Z</time></trkpt><trkpt lat="46.1379383" lon="12.2213483"><ele>350.0</ele><time>2026-04-18T13:52:00.607Z</time></trkpt><trkpt lat="46.137865" lon="12.2214017"><ele>349.0</ele><time>2026-04-18T13:52:01.606Z</time></trkpt><trkpt lat="46.1377983" lon="12.22145"><ele>348.0</ele><time>2026-04-18T13:52:02.606Z</time></trkpt><trkpt lat="46.1377117" lon="12.2215233"><ele>347.0</ele><time>2026-04-18T13:52:04.606Z</time></trkpt><trkpt lat="46.1376417" lon="12.2215717"><ele>346.0</ele><time>2026-04-18T13:52:06.606Z</time></trkpt><trkpt lat="46.1375567" lon="12.221595"><ele>345.0</ele><time>2026-04-18T13:52:08.606Z</time></trkpt><trkpt lat="46.137465" lon="12.2216283"><ele>344.0</ele><time>2026-04-18T13:52:10.606Z</time></trkpt><trkpt lat="46.1373883" lon="12.2217567"><ele>344.0</ele><time>2026-04-18T13:52:12.607Z</time></trkpt><trkpt lat="46.1374167" lon="12.221935"><ele>344.0</ele><time>2026-04-18T13:52:14.607Z</time></trkpt><trkpt lat="46.1374967" lon="12.2220933"><ele>344.0</ele><time>2026-04-18T13:52:15.606Z</time></trkpt><trkpt lat="46.1375733" lon="12.2222833"><ele>344.0</ele><time>2026-04-18T13:52:16.607Z</time></trkpt><trkpt lat="46.1376567" lon="12.2224667"><ele>343.25</ele><time>2026-04-18T13:52:17.606Z</time></trkpt><trkpt lat="46.1377283" lon="12.2226317"><ele>342.5</ele><time>2026-04-18T13:52:18.606Z</time></trkpt><trkpt lat="46.1378033" lon="12.2227933"><ele>341.75</ele><time>2026-04-18T13:52:19.606Z</time></trkpt><trkpt lat="46.1378633" lon="12.2229417"><ele>341.0</ele><time>2026-04-18T13:52:20.607Z</time></trkpt><trkpt lat="46.1379067" lon="12.22306"><ele>340.6</ele><time>2026-04-18T13:52:21.606Z</time></trkpt><trkpt lat="46.1379083" lon="12.2231783"><ele>340.20000000000005</ele><time>2026-04-18T13:52:22.606Z</time></trkpt><trkpt lat="46.13789" lon="12.2232817"><ele>339.79999999999995</ele><time>2026-04-18T13:52:23.606Z</time></trkpt><trkpt lat="46.13782" lon="12.2233883"><ele>339.4</ele><time>2026-04-18T13:52:24.607Z</time></trkpt><trkpt lat="46.1377117" lon="12.2234883"><ele>339.0</ele><time>2026-04-18T13:52:25.606Z</time></trkpt><trkpt lat="46.13756" lon="12.2236083"><ele>339.0</ele><time>2026-04-18T13:52:26.606Z</time></trkpt><trkpt lat="46.1374" lon="12.2237333"><ele>339.0</ele><time>2026-04-18T13:52:27.606Z</time></trkpt><trkpt lat="46.1372467" lon="12.2238383"><ele>339.0</ele><time>2026-04-18T13:52:28.606Z</time></trkpt><trkpt lat="46.1370817" lon="12.223955"><ele>339.3333333333333</ele><time>2026-04-18T13:52:29.607Z</time></trkpt><trkpt lat="46.1369383" lon="12.2240767"><ele>339.66666666666663</ele><time>2026-04-18T13:52:30.606Z</time></trkpt><trkpt lat="46.1367867" lon="12.22419"><ele>340.0</ele><time>2026-04-18T13:52:31.606Z</time></trkpt><trkpt lat="46.1366233" lon="12.22432"><ele>339.3333333333333</ele><time>2026-04-18T13:52:32.606Z</time></trkpt><trkpt lat="46.13645" lon="12.224455"><ele>338.6666666666667</ele><time>2026-04-18T13:52:33.606Z</time></trkpt><trkpt lat="46.136275" lon="12.2245967"><ele>338.0</ele><time>2026-04-18T13:52:34.606Z</time></trkpt><trkpt lat="46.1361083" lon="12.224725"><ele>338.0</ele><time>2026-04-18T13:52:35.606Z</time></trkpt><trkpt lat="46.1359483" lon="12.224845"><ele>338.0</ele><time>2026-04-18T13:52:36.606Z</time></trkpt><trkpt lat="46.1358067" lon="12.2249567"><ele>338.0</ele><time>2026-04-18T13:52:37.606Z</time></trkpt><trkpt lat="46.135675" lon="12.225065"><ele>338.0</ele><time>2026-04-18T13:52:38.606Z</time></trkpt><trkpt lat="46.1355583" lon="12.225175"><ele>338.0</ele><time>2026-04-18T13:52:39.606Z</time></trkpt><trkpt lat="46.1354433" lon="12.22528"><ele>338.0</ele><time>2026-04-18T13:52:40.607Z</time></trkpt><trkpt lat="46.135335" lon="12.2253917"><ele>338.0</ele><time>2026-04-18T13:52:41.606Z</time></trkpt><trkpt lat="46.1352333" lon="12.22552"><ele>337.5</ele><time>2026-04-18T13:52:42.606Z</time></trkpt><trkpt lat="46.1351333" lon="12.225665"><ele>337.0</ele><time>2026-04-18T13:52:43.606Z</time></trkpt><trkpt lat="46.135045" lon="12.225825"><ele>336.5</ele><time>2026-04-18T13:52:44.607Z</time></trkpt><trkpt lat="46.134955" lon="12.2259867"><ele>336.0</ele><time>2026-04-18T13:52:45.606Z</time></trkpt><trkpt lat="46.1348767" lon="12.2261467"><ele>336.0</ele><time>2026-04-18T13:52:46.606Z</time></trkpt><trkpt lat="46.13478" lon="12.22632"><ele>336.0</ele><time>2026-04-18T13:52:47.606Z</time></trkpt><trkpt lat="46.1346933" lon="12.2264917"><ele>336.0</ele><time>2026-04-18T13:52:48.606Z</time></trkpt><trkpt lat="46.1346017" lon="12.226655"><ele>336.0</ele><time>2026-04-18T13:52:49.606Z</time></trkpt><trkpt lat="46.134515" lon="12.2268083"><ele>337.4</ele><time>2026-04-18T13:52:50.606Z</time></trkpt><trkpt lat="46.134445" lon="12.2269483"><ele>338.8</ele><time>2026-04-18T13:52:51.606Z</time></trkpt><trkpt lat="46.13437" lon="12.2270733"><ele>340.2</ele><time>2026-04-18T13:52:52.606Z</time></trkpt><trkpt lat="46.1343117" lon="12.2271767"><ele>341.59999999999997</ele><time>2026-04-18T13:52:53.607Z</time></trkpt><trkpt lat="46.1342583" lon="12.22725"><ele>343.0</ele><time>2026-04-18T13:52:54.606Z</time></trkpt><trkpt lat="46.1341767" lon="12.2273667"><ele>347.16666666666663</ele><time>2026-04-18T13:52:56.606Z</time></trkpt><trkpt lat="46.1340467" lon="12.227405"><ele>351.3333333333333</ele><time>2026-04-18T13:52:58.606Z</time></trkpt><trkpt lat="46.1339717" lon="12.2274283"><ele>355.5</ele><time>2026-04-18T13:52:59.606Z</time></trkpt><trkpt lat="46.1339067" lon="12.2274817"><ele>359.6666666666667</ele><time>2026-04-18T13:53:00.606Z</time></trkpt><trkpt lat="46.1338617" lon="12.2275683"><ele>363.83333333333337</ele><time>2026-04-18T13:53:01.606Z</time></trkpt><trkpt lat="46.1338417" lon="12.22766"><ele>368.0</ele><time>2026-04-18T13:53:02.606Z</time></trkpt><trkpt lat="46.133875" lon="12.2278317"><ele>368.0</ele><time>2026-04-18T13:53:04.606Z</time></trkpt><trkpt lat="46.133955" lon="12.227925"><ele>368.0</ele><time>2026-04-18T13:53:05.606Z</time></trkpt><trkpt lat="46.13405" lon="12.2279767"><ele>368.0</ele><time>2026-04-18T13:53:06.606Z</time></trkpt><trkpt lat="46.134155" lon="12.2280183"><ele>368.0</ele><time>2026-04-18T13:53:07.607Z</time></trkpt><trkpt lat="46.1342517" lon="12.228105"><ele>368.0</ele><time>2026-04-18T13:53:08.606Z</time></trkpt><trkpt lat="46.1343517" lon="12.2282233"><ele>363.33333333333337</ele><time>2026-04-18T13:53:09.606Z</time></trkpt><trkpt lat="46.13445" lon="12.2283783"><ele>358.6666666666667</ele><time>2026-04-18T13:53:10.606Z</time></trkpt><trkpt lat="46.1345617" lon="12.2285467"><ele>354.0</ele><time>2026-04-18T13:53:11.606Z</time></trkpt><trkpt lat="46.134675" lon="12.228715"><ele>354.0</ele><time>2026-04-18T13:53:12.606Z</time></trkpt><trkpt lat="46.1348" lon="12.2288833"><ele>354.0</ele><time>2026-04-18T13:53:13.607Z</time></trkpt><trkpt lat="46.134955" lon="12.2290533"><ele>354.0</ele><time>2026-04-18T13:53:14.606Z</time></trkpt><trkpt lat="46.135145" lon="12.2292283"><ele>352.0</ele><time>2026-04-18T13:53:15.607Z</time></trkpt><trkpt lat="46.135355" lon="12.2294217"><ele>350.0</ele><time>2026-04-18T13:53:16.607Z</time></trkpt><trkpt lat="46.1355783" lon="12.2296467"><ele>351.5</ele><time>2026-04-18T13:53:17.606Z</time></trkpt><trkpt lat="46.1357967" lon="12.2298683"><ele>353.0</ele><time>2026-04-18T13:53:18.606Z</time></trkpt><trkpt lat="46.1360017" lon="12.2300783"><ele>353.0</ele><time>2026-04-18T13:53:19.607Z</time></trkpt><trkpt lat="46.1361933" lon="12.2302917"><ele>353.0</ele><time>2026-04-18T13:53:20.606Z</time></trkpt><trkpt lat="46.1363883" lon="12.2304983"><ele>354.0</ele><time>2026-04-18T13:53:21.606Z</time></trkpt><trkpt lat="46.13657" lon="12.2307117"><ele>355.0</ele><time>2026-04-18T13:53:22.607Z</time></trkpt><trkpt lat="46.1367567" lon="12.230925"><ele>355.0</ele><time>2026-04-18T13:53:23.606Z</time></trkpt><trkpt lat="46.1369383" lon="12.2311467"><ele>355.0</ele><time>2026-04-18T13:53:24.606Z</time></trkpt><trkpt lat="46.137115" lon="12.231365"><ele>354.66666666666663</ele><time>2026-04-18T13:53:25.606Z</time></trkpt><trkpt lat="46.137285" lon="12.2315667"><ele>354.3333333333333</ele><time>2026-04-18T13:53:26.607Z</time></trkpt><trkpt lat="46.1374467" lon="12.2317667"><ele>354.0</ele><time>2026-04-18T13:53:27.607Z</time></trkpt><trkpt lat="46.1376017" lon="12.2319733"><ele>354.0</ele><time>2026-04-18T13:53:28.606Z</time></trkpt><trkpt lat="46.1377633" lon="12.2321767"><ele>354.0</ele><time>2026-04-18T13:53:29.606Z</time></trkpt><trkpt lat="46.1379167" lon="12.23238"><ele>354.0</ele><time>2026-04-18T13:53:30.606Z</time></trkpt><trkpt lat="46.1380783" lon="12.2325917"><ele>353.0</ele><time>2026-04-18T13:53:31.607Z</time></trkpt><trkpt lat="46.1382433" lon="12.2328083"><ele>352.0</ele><time>2026-04-18T13:53:32.606Z</time></trkpt><trkpt lat="46.1384033" lon="12.23302"><ele>351.0</ele><time>2026-04-18T13:53:33.606Z</time></trkpt><trkpt lat="46.1385617" lon="12.2332267"><ele>354.0</ele><time>2026-04-18T13:53:34.606Z</time></trkpt><trkpt lat="46.1387" lon="12.2334367"><ele>357.0</ele><time>2026-04-18T13:53:35.606Z</time></trkpt><trkpt lat="46.1388383" lon="12.2336383"><ele>360.0</ele><time>2026-04-18T13:53:36.607Z</time></trkpt><trkpt lat="46.1389833" lon="12.23385"><ele>360.3333333333333</ele><time>2026-04-18T13:53:37.606Z</time></trkpt><trkpt lat="46.1391317" lon="12.23407"><ele>360.66666666666663</ele><time>2026-04-18T13:53:38.607Z</time></trkpt><trkpt lat="46.139285" lon="12.234295"><ele>361.0</ele><time>2026-04-18T13:53:39.606Z</time></trkpt><trkpt lat="46.1394533" lon="12.2345367"><ele>361.0</ele><time>2026-04-18T13:53:40.606Z</time></trkpt><trkpt lat="46.1396267" lon="12.234785"><ele>361.0</ele><time>2026-04-18T13:53:41.607Z</time></trkpt><trkpt lat="46.1398033" lon="12.235035"><ele>359.5</ele><time>2026-04-18T13:53:42.606Z</time></trkpt><trkpt lat="46.1399683" lon="12.2352783"><ele>358.0</ele><time>2026-04-18T13:53:43.606Z</time></trkpt><trkpt lat="46.1401217" lon="12.23552"><ele>365.0</ele><time>2026-04-18T13:53:44.606Z</time></trkpt><trkpt lat="46.1402883" lon="12.235745"><ele>372.0</ele><time>2026-04-18T13:53:45.606Z</time></trkpt><trkpt lat="46.1404483" lon="12.23597"><ele>372.0</ele><time>2026-04-18T13:53:46.606Z</time></trkpt><trkpt lat="46.1406167" lon="12.2361933"><ele>372.0</ele><time>2026-04-18T13:53:47.606Z</time></trkpt><trkpt lat="46.1407833" lon="12.2364283"><ele>369.0</ele><time>2026-04-18T13:53:48.607Z</time></trkpt><trkpt lat="46.1409567" lon="12.2366783"><ele>366.0</ele><time>2026-04-18T13:53:49.606Z</time></trkpt><trkpt lat="46.1411433" lon="12.2369383"><ele>366.0</ele><time>2026-04-18T13:53:50.606Z</time></trkpt><trkpt lat="46.141335" lon="12.2372183"><ele>366.0</ele><time>2026-04-18T13:53:51.607Z</time></trkpt><trkpt lat="46.1415333" lon="12.2375217"><ele>361.5</ele><time>2026-04-18T13:53:52.607Z</time></trkpt><trkpt lat="46.1417483" lon="12.2378183"><ele>357.0</ele><time>2026-04-18T13:53:53.606Z</time></trkpt><trkpt lat="46.1419317" lon="12.23811"><ele>365.0</ele><time>2026-04-18T13:53:54.606Z</time></trkpt><trkpt lat="46.14212" lon="12.23838"><ele>373.0</ele><time>2026-04-18T13:53:55.607Z</time></trkpt><trkpt lat="46.1422983" lon="12.2386533"><ele>371.5</ele><time>2026-04-18T13:53:56.606Z</time></trkpt><trkpt lat="46.1424767" lon="12.2389233"><ele>370.0</ele><time>2026-04-18T13:53:57.606Z</time></trkpt><trkpt lat="46.1426567" lon="12.2391967"><ele>370.0</ele><time>2026-04-18T13:53:58.606Z</time></trkpt><trkpt lat="46.1428383" lon="12.2394817"><ele>370.0</ele><time>2026-04-18T13:53:59.607Z</time></trkpt><trkpt lat="46.1430167" lon="12.239775"><ele>365.5</ele><time>2026-04-18T13:54:00.607Z</time></trkpt><trkpt lat="46.1431867" lon="12.2400667"><ele>361.0</ele><time>2026-04-18T13:54:01.607Z</time></trkpt><trkpt lat="46.1433483" lon="12.2403617"><ele>367.5</ele><time>2026-04-18T13:54:02.606Z</time></trkpt><trkpt lat="46.1435133" lon="12.2406467"><ele>374.0</ele><time>2026-04-18T13:54:03.607Z</time></trkpt><trkpt lat="46.1436783" lon="12.24092"><ele>374.0</ele><time>2026-04-18T13:54:04.607Z</time></trkpt><trkpt lat="46.1438417" lon="12.2411933"><ele>374.0</ele><time>2026-04-18T13:54:05.607Z</time></trkpt><trkpt lat="46.1440033" lon="12.241465"><ele>371.5</ele><time>2026-04-18T13:54:06.607Z</time></trkpt><trkpt lat="46.1441733" lon="12.2417267"><ele>369.0</ele><time>2026-04-18T13:54:07.606Z</time></trkpt><trkpt lat="46.1443333" lon="12.2419917"><ele>369.0</ele><time>2026-04-18T13:54:08.607Z</time></trkpt><trkpt lat="46.1444817" lon="12.2422567"><ele>369.0</ele><time>2026-04-18T13:54:09.606Z</time></trkpt><trkpt lat="46.144635" lon="12.24251"><ele>366.0</ele><time>2026-04-18T13:54:10.607Z</time></trkpt><trkpt lat="46.1447983" lon="12.2427567"><ele>363.0</ele><time>2026-04-18T13:54:11.606Z</time></trkpt><trkpt lat="46.1449617" lon="12.2430033"><ele>367.0</ele><time>2026-04-18T13:54:12.606Z</time></trkpt><trkpt lat="46.1451233" lon="12.24324"><ele>371.0</ele><time>2026-04-18T13:54:13.606Z</time></trkpt><trkpt lat="46.145295" lon="12.24347"><ele>371.0</ele><time>2026-04-18T13:54:14.607Z</time></trkpt><trkpt lat="46.1454717" lon="12.243685"><ele>371.0</ele><time>2026-04-18T13:54:15.606Z</time></trkpt><trkpt lat="46.1456617" lon="12.2438867"><ele>370.5</ele><time>2026-04-18T13:54:16.606Z</time></trkpt><trkpt lat="46.14585" lon="12.2441067"><ele>370.0</ele><time>2026-04-18T13:54:17.607Z</time></trkpt><trkpt lat="46.146035" lon="12.2443117"><ele>370.0</ele><time>2026-04-18T13:54:18.606Z</time></trkpt><trkpt lat="46.14621" lon="12.2445367"><ele>370.0</ele><time>2026-04-18T13:54:19.606Z</time></trkpt><trkpt lat="46.1463867" lon="12.244755"><ele>371.0</ele><time>2026-04-18T13:54:20.606Z</time></trkpt><trkpt lat="46.1465633" lon="12.24496"><ele>372.0</ele><time>2026-04-18T13:54:21.606Z</time></trkpt><trkpt lat="46.1467233" lon="12.24516"><ele>373.0</ele><time>2026-04-18T13:54:22.606Z</time></trkpt><trkpt lat="46.1468733" lon="12.2453617"><ele>373.0</ele><time>2026-04-18T13:54:23.606Z</time></trkpt><trkpt lat="46.1470283" lon="12.2455483"><ele>373.0</ele><time>2026-04-18T13:54:24.606Z</time></trkpt><trkpt lat="46.1471783" lon="12.2457483"><ele>373.0</ele><time>2026-04-18T13:54:25.606Z</time></trkpt><trkpt lat="46.1473267" lon="12.2459567"><ele>372.0</ele><time>2026-04-18T13:54:26.607Z</time></trkpt><trkpt lat="46.1474767" lon="12.2461683"><ele>371.0</ele><time>2026-04-18T13:54:27.607Z</time></trkpt><trkpt lat="46.1476217" lon="12.2463983"><ele>370.0</ele><time>2026-04-18T13:54:28.607Z</time></trkpt><trkpt lat="46.14776" lon="12.2466433"><ele>372.3333333333333</ele><time>2026-04-18T13:54:29.606Z</time></trkpt><trkpt lat="46.1479033" lon="12.2468933"><ele>374.6666666666667</ele><time>2026-04-18T13:54:30.607Z</time></trkpt><trkpt lat="46.14803" lon="12.2471483"><ele>377.0</ele><time>2026-04-18T13:54:31.606Z</time></trkpt><trkpt lat="46.148165" lon="12.2474083"><ele>377.33333333333337</ele><time>2026-04-18T13:54:32.606Z</time></trkpt><trkpt lat="46.1482817" lon="12.2476633"><ele>377.6666666666667</ele><time>2026-04-18T13:54:33.606Z</time></trkpt><trkpt lat="46.14839" lon="12.2479267"><ele>378.0</ele><time>2026-04-18T13:54:34.607Z</time></trkpt><trkpt lat="46.1484917" lon="12.2481867"><ele>378.0</ele><time>2026-04-18T13:54:35.606Z</time></trkpt><trkpt lat="46.1486017" lon="12.24847"><ele>378.0</ele><time>2026-04-18T13:54:36.606Z</time></trkpt><trkpt lat="46.1487117" lon="12.2487633"><ele>379.0</ele><time>2026-04-18T13:54:37.606Z</time></trkpt><trkpt lat="46.14881" lon="12.249065"><ele>380.0</ele><time>2026-04-18T13:54:38.607Z</time></trkpt><trkpt lat="46.1489" lon="12.2493683"><ele>380.0</ele><time>2026-04-18T13:54:39.606Z</time></trkpt><trkpt lat="46.1489967" lon="12.2496717"><ele>380.0</ele><time>2026-04-18T13:54:40.607Z</time></trkpt><trkpt lat="46.1490933" lon="12.24997"><ele>377.0</ele><time>2026-04-18T13:54:41.606Z</time></trkpt><trkpt lat="46.1491867" lon="12.250265"><ele>374.0</ele><time>2026-04-18T13:54:42.607Z</time></trkpt><trkpt lat="46.1492867" lon="12.250575"><ele>374.0</ele><time>2026-04-18T13:54:43.607Z</time></trkpt><trkpt lat="46.1493983" lon="12.2508817"><ele>374.0</ele><time>2026-04-18T13:54:44.606Z</time></trkpt><trkpt lat="46.1495133" lon="12.2511983"><ele>373.5</ele><time>2026-04-18T13:54:45.606Z</time></trkpt><trkpt lat="46.1496317" lon="12.25155"><ele>373.0</ele><time>2026-04-18T13:54:46.606Z</time></trkpt><trkpt lat="46.149745" lon="12.251895"><ele>373.0</ele><time>2026-04-18T13:54:47.606Z</time></trkpt><trkpt lat="46.149865" lon="12.2522167"><ele>373.0</ele><time>2026-04-18T13:54:48.606Z</time></trkpt><trkpt lat="46.1499683" lon="12.25252"><ele>373.3333333333333</ele><time>2026-04-18T13:54:49.607Z</time></trkpt><trkpt lat="46.1500717" lon="12.2528067"><ele>373.6666666666667</ele><time>2026-04-18T13:54:50.606Z</time></trkpt><trkpt lat="46.1501533" lon="12.25308"><ele>374.0</ele><time>2026-04-18T13:54:51.606Z</time></trkpt><trkpt lat="46.1502317" lon="12.2533317"><ele>374.0</ele><time>2026-04-18T13:54:52.606Z</time></trkpt><trkpt lat="46.1503167" lon="12.2535733"><ele>374.0</ele><time>2026-04-18T13:54:53.606Z</time></trkpt><trkpt lat="46.15039" lon="12.253815"><ele>374.0</ele><time>2026-04-18T13:54:54.606Z</time></trkpt><trkpt lat="46.15048" lon="12.2540617"><ele>375.0</ele><time>2026-04-18T13:54:55.606Z</time></trkpt><trkpt lat="46.150565" lon="12.2543"><ele>376.0</ele><time>2026-04-18T13:54:56.606Z</time></trkpt><trkpt lat="46.1506467" lon="12.254535"><ele>377.0</ele><time>2026-04-18T13:54:57.607Z</time></trkpt><trkpt lat="46.1506933" lon="12.2547483"><ele>376.0</ele><time>2026-04-18T13:54:58.606Z</time></trkpt><trkpt lat="46.15074" lon="12.2549467"><ele>375.0</ele><time>2026-04-18T13:54:59.606Z</time></trkpt><trkpt lat="46.1507817" lon="12.25514"><ele>374.0</ele><time>2026-04-18T13:55:00.606Z</time></trkpt><trkpt lat="46.15082" lon="12.2553233"><ele>373.0</ele><time>2026-04-18T13:55:01.606Z</time></trkpt><trkpt lat="46.1508533" lon="12.255495"><ele>373.25</ele><time>2026-04-18T13:55:02.606Z</time></trkpt><trkpt lat="46.150885" lon="12.255635"><ele>373.5</ele><time>2026-04-18T13:55:03.606Z</time></trkpt><trkpt lat="46.1508983" lon="12.25581"><ele>373.75</ele><time>2026-04-18T13:55:04.606Z</time></trkpt><trkpt lat="46.150895" lon="12.2559833"><ele>374.0</ele><time>2026-04-18T13:55:05.606Z</time></trkpt><trkpt lat="46.1509067" lon="12.2561717"><ele>374.0</ele><time>2026-04-18T13:55:06.606Z</time></trkpt><trkpt lat="46.150925" lon="12.256375"><ele>374.0</ele><time>2026-04-18T13:55:07.606Z</time></trkpt><trkpt lat="46.1509567" lon="12.2566"><ele>374.0</ele><time>2026-04-18T13:55:08.606Z</time></trkpt><trkpt lat="46.15099" lon="12.256865"><ele>374.33333333333337</ele><time>2026-04-18T13:55:09.607Z</time></trkpt><trkpt lat="46.1510383" lon="12.2571717"><ele>374.6666666666667</ele><time>2026-04-18T13:55:10.606Z</time></trkpt><trkpt lat="46.1510817" lon="12.257495"><ele>375.0</ele><time>2026-04-18T13:55:11.606Z</time></trkpt><trkpt lat="46.151125" lon="12.2578283"><ele>375.0</ele><time>2026-04-18T13:55:12.606Z</time></trkpt><trkpt lat="46.1511683" lon="12.2581717"><ele>375.0</ele><time>2026-04-18T13:55:13.606Z</time></trkpt><trkpt lat="46.1512033" lon="12.2584917"><ele>375.0</ele><time>2026-04-18T13:55:14.607Z</time></trkpt><trkpt lat="46.1512417" lon="12.2588067"><ele>375.0</ele><time>2026-04-18T13:55:15.606Z</time></trkpt><trkpt lat="46.1512683" lon="12.2591217"><ele>375.0</ele><time>2026-04-18T13:55:16.607Z</time></trkpt><trkpt lat="46.151315" lon="12.2594317"><ele>375.0</ele><time>2026-04-18T13:55:17.607Z</time></trkpt><trkpt lat="46.1513683" lon="12.2597333"><ele>375.0</ele><time>2026-04-18T13:55:18.606Z</time></trkpt><trkpt lat="46.1514033" lon="12.2600283"><ele>375.0</ele><time>2026-04-18T13:55:19.606Z</time></trkpt><trkpt lat="46.1514467" lon="12.2603167"><ele>375.0</ele><time>2026-04-18T13:55:20.606Z</time></trkpt><trkpt lat="46.15148" lon="12.26058"><ele>375.0</ele><time>2026-04-18T13:55:21.606Z</time></trkpt><trkpt lat="46.151515" lon="12.2608433"><ele>375.0</ele><time>2026-04-18T13:55:22.606Z</time></trkpt><trkpt lat="46.15154" lon="12.2611017"><ele>374.0</ele><time>2026-04-18T13:55:23.606Z</time></trkpt><trkpt lat="46.1515867" lon="12.2613467"><ele>373.0</ele><time>2026-04-18T13:55:24.606Z</time></trkpt><trkpt lat="46.1516717" lon="12.2615833"><ele>372.0</ele><time>2026-04-18T13:55:25.606Z</time></trkpt><trkpt lat="46.1517683" lon="12.2618233"><ele>372.0</ele><time>2026-04-18T13:55:26.607Z</time></trkpt><trkpt lat="46.1518917" lon="12.2620417"><ele>372.0</ele><time>2026-04-18T13:55:27.606Z</time></trkpt><trkpt lat="46.1520333" lon="12.26225"><ele>372.0</ele><time>2026-04-18T13:55:28.607Z</time></trkpt><trkpt lat="46.1521733" lon="12.2624267"><ele>371.6666666666667</ele><time>2026-04-18T13:55:29.606Z</time></trkpt><trkpt lat="46.1523217" lon="12.2625883"><ele>371.33333333333337</ele><time>2026-04-18T13:55:30.606Z</time></trkpt><trkpt lat="46.15245" lon="12.2627533"><ele>371.0</ele><time>2026-04-18T13:55:31.606Z</time></trkpt><trkpt lat="46.1525667" lon="12.2629117"><ele>371.0</ele><time>2026-04-18T13:55:32.607Z</time></trkpt><trkpt lat="46.1526767" lon="12.26306"><ele>371.0</ele><time>2026-04-18T13:55:33.607Z</time></trkpt><trkpt lat="46.1527733" lon="12.2631967"><ele>371.0</ele><time>2026-04-18T13:55:34.607Z</time></trkpt><trkpt lat="46.1528617" lon="12.2633283"><ele>371.0</ele><time>2026-04-18T13:55:35.606Z</time></trkpt><trkpt lat="46.1529633" lon="12.2634583"><ele>371.33333333333337</ele><time>2026-04-18T13:55:36.606Z</time></trkpt><trkpt lat="46.1530817" lon="12.2636"><ele>371.6666666666667</ele><time>2026-04-18T13:55:37.607Z</time></trkpt><trkpt lat="46.1532117" lon="12.26377"><ele>372.0</ele><time>2026-04-18T13:55:38.606Z</time></trkpt><trkpt lat="46.1533333" lon="12.2639433"><ele>372.6666666666667</ele><time>2026-04-18T13:55:39.606Z</time></trkpt><trkpt lat="46.1534683" lon="12.2641117"><ele>373.33333333333337</ele><time>2026-04-18T13:55:40.606Z</time></trkpt><trkpt lat="46.1535983" lon="12.2642833"><ele>374.0</ele><time>2026-04-18T13:55:41.606Z</time></trkpt><trkpt lat="46.1537383" lon="12.26445"><ele>374.0</ele><time>2026-04-18T13:55:42.606Z</time></trkpt><trkpt lat="46.1538817" lon="12.264595"><ele>374.0</ele><time>2026-04-18T13:55:43.607Z</time></trkpt><trkpt lat="46.1540283" lon="12.264735"><ele>374.0</ele><time>2026-04-18T13:55:44.606Z</time></trkpt><trkpt lat="46.1541833" lon="12.2648667"><ele>374.33333333333337</ele><time>2026-04-18T13:55:45.607Z</time></trkpt><trkpt lat="46.1543433" lon="12.2649917"><ele>374.6666666666667</ele><time>2026-04-18T13:55:46.607Z</time></trkpt><trkpt lat="46.15451" lon="12.265105"><ele>375.0</ele><time>2026-04-18T13:55:47.607Z</time></trkpt><trkpt lat="46.154685" lon="12.2652267"><ele>373.6666666666667</ele><time>2026-04-18T13:55:48.606Z</time></trkpt><trkpt lat="46.154875" lon="12.2653567"><ele>372.33333333333337</ele><time>2026-04-18T13:55:49.606Z</time></trkpt><trkpt lat="46.15506" lon="12.2654833"><ele>371.0</ele><time>2026-04-18T13:55:50.606Z</time></trkpt><trkpt lat="46.155255" lon="12.2655917"><ele>373.33333333333337</ele><time>2026-04-18T13:55:51.607Z</time></trkpt><trkpt lat="46.1554583" lon="12.2656917"><ele>375.6666666666667</ele><time>2026-04-18T13:55:52.606Z</time></trkpt><trkpt lat="46.1556667" lon="12.2657683"><ele>378.0</ele><time>2026-04-18T13:55:53.606Z</time></trkpt><trkpt lat="46.1559033" lon="12.2658417"><ele>378.0</ele><time>2026-04-18T13:55:54.607Z</time></trkpt><trkpt lat="46.15615" lon="12.265895"><ele>378.0</ele><time>2026-04-18T13:55:55.606Z</time></trkpt><trkpt lat="46.1563867" lon="12.26593"><ele>376.0</ele><time>2026-04-18T13:55:56.606Z</time></trkpt><trkpt lat="46.1566183" lon="12.2659633"><ele>374.0</ele><time>2026-04-18T13:55:57.606Z</time></trkpt><trkpt lat="46.1568333" lon="12.2659967"><ele>372.0</ele><time>2026-04-18T13:55:58.606Z</time></trkpt><trkpt lat="46.15704" lon="12.266025"><ele>372.0</ele><time>2026-04-18T13:55:59.606Z</time></trkpt><trkpt lat="46.1572533" lon="12.2660583"><ele>372.0</ele><time>2026-04-18T13:56:00.606Z</time></trkpt><trkpt lat="46.15747" lon="12.2661"><ele>372.0</ele><time>2026-04-18T13:56:01.607Z</time></trkpt><trkpt lat="46.1576867" lon="12.2661567"><ele>371.0</ele><time>2026-04-18T13:56:02.606Z</time></trkpt><trkpt lat="46.1578917" lon="12.2662167"><ele>370.0</ele><time>2026-04-18T13:56:03.606Z</time></trkpt><trkpt lat="46.1580967" lon="12.2663033"><ele>369.0</ele><time>2026-04-18T13:56:04.607Z</time></trkpt><trkpt lat="46.1582933" lon="12.2664017"><ele>373.0</ele><time>2026-04-18T13:56:05.606Z</time></trkpt><trkpt lat="46.1584983" lon="12.2665233"><ele>377.0</ele><time>2026-04-18T13:56:06.607Z</time></trkpt><trkpt lat="46.158685" lon="12.2666567"><ele>381.0</ele><time>2026-04-18T13:56:07.606Z</time></trkpt><trkpt lat="46.15887" lon="12.26679"><ele>377.6666666666667</ele><time>2026-04-18T13:56:08.606Z</time></trkpt><trkpt lat="46.15905" lon="12.2669333"><ele>374.33333333333337</ele><time>2026-04-18T13:56:09.607Z</time></trkpt><trkpt lat="46.1592233" lon="12.2670817"><ele>371.0</ele><time>2026-04-18T13:56:10.606Z</time></trkpt><trkpt lat="46.1593983" lon="12.267235"><ele>376.5</ele><time>2026-04-18T13:56:11.607Z</time></trkpt><trkpt lat="46.1595983" lon="12.2674"><ele>382.0</ele><time>2026-04-18T13:56:12.607Z</time></trkpt><trkpt lat="46.1598067" lon="12.2675667"><ele>378.5</ele><time>2026-04-18T13:56:13.606Z</time></trkpt><trkpt lat="46.1600133" lon="12.26774"><ele>375.0</ele><time>2026-04-18T13:56:14.606Z</time></trkpt><trkpt lat="46.1602167" lon="12.2679217"><ele>375.0</ele><time>2026-04-18T13:56:15.606Z</time></trkpt><trkpt lat="46.1604183" lon="12.2681033"><ele>375.0</ele><time>2026-04-18T13:56:16.606Z</time></trkpt><trkpt lat="46.16061" lon="12.268285"><ele>377.0</ele><time>2026-04-18T13:56:17.607Z</time></trkpt><trkpt lat="46.1607983" lon="12.2684567"><ele>379.0</ele><time>2026-04-18T13:56:18.606Z</time></trkpt><trkpt lat="46.160975" lon="12.2686133"><ele>381.0</ele><time>2026-04-18T13:56:19.606Z</time></trkpt><trkpt lat="46.1611633" lon="12.2687717"><ele>381.0</ele><time>2026-04-18T13:56:20.607Z</time></trkpt><trkpt lat="46.1613433" lon="12.268925"><ele>381.0</ele><time>2026-04-18T13:56:21.606Z</time></trkpt><trkpt lat="46.16152" lon="12.26907"><ele>381.0</ele><time>2026-04-18T13:56:22.606Z</time></trkpt><trkpt lat="46.1616917" lon="12.269225"><ele>382.66666666666663</ele><time>2026-04-18T13:56:23.606Z</time></trkpt><trkpt lat="46.1618633" lon="12.2693683"><ele>384.3333333333333</ele><time>2026-04-18T13:56:24.607Z</time></trkpt><trkpt lat="46.1620367" lon="12.2695267"><ele>386.0</ele><time>2026-04-18T13:56:25.606Z</time></trkpt><trkpt lat="46.16221" lon="12.2696733"><ele>387.0</ele><time>2026-04-18T13:56:26.606Z</time></trkpt><trkpt lat="46.1623733" lon="12.2697967"><ele>388.0</ele><time>2026-04-18T13:56:27.607Z</time></trkpt><trkpt lat="46.1625417" lon="12.2699133"><ele>389.0</ele><time>2026-04-18T13:56:28.606Z</time></trkpt><trkpt lat="46.1627167" lon="12.2700017"><ele>389.0</ele><time>2026-04-18T13:56:29.606Z</time></trkpt><trkpt lat="46.1628833" lon="12.2700817"><ele>389.0</ele><time>2026-04-18T13:56:30.606Z</time></trkpt><trkpt lat="46.163055" lon="12.2701433"><ele>389.0</ele><time>2026-04-18T13:56:31.606Z</time></trkpt><trkpt lat="46.1632283" lon="12.2702"><ele>389.0</ele><time>2026-04-18T13:56:32.607Z</time></trkpt><trkpt lat="46.1634067" lon="12.270255"><ele>389.0</ele><time>2026-04-18T13:56:33.606Z</time></trkpt><trkpt lat="46.163585" lon="12.27028"><ele>389.0</ele><time>2026-04-18T13:56:34.606Z</time></trkpt><trkpt lat="46.163765" lon="12.2702917"><ele>389.0</ele><time>2026-04-18T13:56:35.607Z</time></trkpt><trkpt lat="46.1639583" lon="12.27029"><ele>389.0</ele><time>2026-04-18T13:56:36.607Z</time></trkpt><trkpt lat="46.1641833" lon="12.27028"><ele>389.0</ele><time>2026-04-18T13:56:37.606Z</time></trkpt><trkpt lat="46.1644217" lon="12.2702483"><ele>388.0</ele><time>2026-04-18T13:56:38.607Z</time></trkpt><trkpt lat="46.1646867" lon="12.2702083"><ele>387.0</ele><time>2026-04-18T13:56:39.606Z</time></trkpt><trkpt lat="46.1649467" lon="12.2701683"><ele>389.5</ele><time>2026-04-18T13:56:40.606Z</time></trkpt><trkpt lat="46.1651883" lon="12.2701333"><ele>392.0</ele><time>2026-04-18T13:56:41.607Z</time></trkpt><trkpt lat="46.1654317" lon="12.270105"><ele>392.0</ele><time>2026-04-18T13:56:42.607Z</time></trkpt><trkpt lat="46.1656767" lon="12.27009"><ele>392.0</ele><time>2026-04-18T13:56:43.606Z</time></trkpt><trkpt lat="46.16592" lon="12.2700883"><ele>393.0</ele><time>2026-04-18T13:56:44.606Z</time></trkpt><trkpt lat="46.1661467" lon="12.270115"><ele>394.0</ele><time>2026-04-18T13:56:45.606Z</time></trkpt><trkpt lat="46.16637" lon="12.27016"><ele>389.5</ele><time>2026-04-18T13:56:46.607Z</time></trkpt><trkpt lat="46.1666017" lon="12.2702217"><ele>385.0</ele><time>2026-04-18T13:56:47.606Z</time></trkpt><trkpt lat="46.1668417" lon="12.270305"><ele>385.0</ele><time>2026-04-18T13:56:48.606Z</time></trkpt><trkpt lat="46.1670983" lon="12.27041"><ele>385.0</ele><time>2026-04-18T13:56:49.606Z</time></trkpt><trkpt lat="46.1673633" lon="12.2705183"><ele>393.5</ele><time>2026-04-18T13:56:50.606Z</time></trkpt><trkpt lat="46.16761" lon="12.270645"><ele>402.0</ele><time>2026-04-18T13:56:51.606Z</time></trkpt><trkpt lat="46.1678433" lon="12.270755"><ele>402.0</ele><time>2026-04-18T13:56:52.606Z</time></trkpt><trkpt lat="46.1680583" lon="12.270855"><ele>402.0</ele><time>2026-04-18T13:56:53.606Z</time></trkpt><trkpt lat="46.1682733" lon="12.2709567"><ele>396.0</ele><time>2026-04-18T13:56:54.606Z</time></trkpt><trkpt lat="46.16849" lon="12.2710583"><ele>390.0</ele><time>2026-04-18T13:56:55.606Z</time></trkpt><trkpt lat="46.1687067" lon="12.27117"><ele>390.0</ele><time>2026-04-18T13:56:56.606Z</time></trkpt><trkpt lat="46.16892" lon="12.271285"><ele>390.0</ele><time>2026-04-18T13:56:57.606Z</time></trkpt><trkpt lat="46.1691267" lon="12.27141"><ele>393.66666666666663</ele><time>2026-04-18T13:56:58.606Z</time></trkpt><trkpt lat="46.1693167" lon="12.27154"><ele>397.3333333333333</ele><time>2026-04-18T13:56:59.606Z</time></trkpt><trkpt lat="46.1695083" lon="12.271695"><ele>401.0</ele><time>2026-04-18T13:57:00.607Z</time></trkpt><trkpt lat="46.1696917" lon="12.2718483"><ele>400.66666666666663</ele><time>2026-04-18T13:57:01.606Z</time></trkpt><trkpt lat="46.1698833" lon="12.2720167"><ele>400.33333333333337</ele><time>2026-04-18T13:57:02.606Z</time></trkpt><trkpt lat="46.1700617" lon="12.2722083"><ele>400.0</ele><time>2026-04-18T13:57:03.606Z</time></trkpt><trkpt lat="46.1702183" lon="12.2724067"><ele>400.0</ele><time>2026-04-18T13:57:04.606Z</time></trkpt><trkpt lat="46.1703667" lon="12.272605"><ele>400.0</ele><time>2026-04-18T13:57:05.606Z</time></trkpt><trkpt lat="46.1705117" lon="12.27281"><ele>400.0</ele><time>2026-04-18T13:57:06.607Z</time></trkpt><trkpt lat="46.170645" lon="12.2730333"><ele>397.33333333333337</ele><time>2026-04-18T13:57:07.607Z</time></trkpt><trkpt lat="46.1707767" lon="12.2732683"><ele>394.66666666666663</ele><time>2026-04-18T13:57:08.606Z</time></trkpt><trkpt lat="46.17091" lon="12.2735217"><ele>392.0</ele><time>2026-04-18T13:57:09.606Z</time></trkpt><trkpt lat="46.171035" lon="12.2737783"><ele>393.66666666666663</ele><time>2026-04-18T13:57:10.606Z</time></trkpt><trkpt lat="46.17115" lon="12.2740383"><ele>395.33333333333337</ele><time>2026-04-18T13:57:11.605Z</time></trkpt><trkpt lat="46.1712533" lon="12.2743133"><ele>397.0</ele><time>2026-04-18T13:57:12.606Z</time></trkpt><trkpt lat="46.1713583" lon="12.2745917"><ele>398.5</ele><time>2026-04-18T13:57:13.605Z</time></trkpt><trkpt lat="46.1714583" lon="12.2748933"><ele>400.0</ele><time>2026-04-18T13:57:14.605Z</time></trkpt><trkpt lat="46.1715383" lon="12.2751967"><ele>397.33333333333337</ele><time>2026-04-18T13:57:15.606Z</time></trkpt><trkpt lat="46.17161" lon="12.2755017"><ele>394.66666666666663</ele><time>2026-04-18T13:57:16.606Z</time></trkpt><trkpt lat="46.1716667" lon="12.2757967"><ele>392.0</ele><time>2026-04-18T13:57:17.605Z</time></trkpt><trkpt lat="46.171705" lon="12.2760817"><ele>392.0</ele><time>2026-04-18T13:57:18.605Z</time></trkpt><trkpt lat="46.1717383" lon="12.2763717"><ele>392.0</ele><time>2026-04-18T13:57:19.605Z</time></trkpt><trkpt lat="46.1717683" lon="12.2766767"><ele>392.0</ele><time>2026-04-18T13:57:20.605Z</time></trkpt><trkpt lat="46.17178" lon="12.276985"><ele>391.66666666666663</ele><time>2026-04-18T13:57:21.605Z</time></trkpt><trkpt lat="46.17179" lon="12.2772867"><ele>391.33333333333337</ele><time>2026-04-18T13:57:22.605Z</time></trkpt><trkpt lat="46.1717917" lon="12.2776"><ele>391.0</ele><time>2026-04-18T13:57:23.605Z</time></trkpt><trkpt lat="46.1718117" lon="12.2779133"><ele>391.0</ele><time>2026-04-18T13:57:24.605Z</time></trkpt><trkpt lat="46.17183" lon="12.27823"><ele>391.0</ele><time>2026-04-18T13:57:25.605Z</time></trkpt><trkpt lat="46.17184" lon="12.2785417"><ele>391.0</ele><time>2026-04-18T13:57:26.605Z</time></trkpt><trkpt lat="46.1718517" lon="12.278855"><ele>390.5</ele><time>2026-04-18T13:57:27.606Z</time></trkpt><trkpt lat="46.1718683" lon="12.2791733"><ele>390.0</ele><time>2026-04-18T13:57:28.605Z</time></trkpt><trkpt lat="46.1718817" lon="12.2795067"><ele>389.33333333333337</ele><time>2026-04-18T13:57:29.605Z</time></trkpt><trkpt lat="46.1719" lon="12.279835"><ele>388.6666666666667</ele><time>2026-04-18T13:57:30.606Z</time></trkpt><trkpt lat="46.171915" lon="12.2801467"><ele>388.0</ele><time>2026-04-18T13:57:31.605Z</time></trkpt><trkpt lat="46.1719333" lon="12.2804517"><ele>388.0</ele><time>2026-04-18T13:57:32.606Z</time></trkpt><trkpt lat="46.1719433" lon="12.2807683"><ele>388.0</ele><time>2026-04-18T13:57:33.605Z</time></trkpt><trkpt lat="46.1719567" lon="12.281075"><ele>388.0</ele><time>2026-04-18T13:57:34.606Z</time></trkpt><trkpt lat="46.171975" lon="12.2813583"><ele>388.6666666666667</ele><time>2026-04-18T13:57:35.605Z</time></trkpt><trkpt lat="46.1719967" lon="12.281625"><ele>389.33333333333337</ele><time>2026-04-18T13:57:36.605Z</time></trkpt><trkpt lat="46.172025" lon="12.2818767"><ele>390.0</ele><time>2026-04-18T13:57:37.606Z</time></trkpt><trkpt lat="46.1720417" lon="12.2821"><ele>390.5</ele><time>2026-04-18T13:57:38.605Z</time></trkpt><trkpt lat="46.17206" lon="12.2823017"><ele>391.0</ele><time>2026-04-18T13:57:39.605Z</time></trkpt><trkpt lat="46.1720783" lon="12.2824817"><ele>391.5</ele><time>2026-04-18T13:57:40.606Z</time></trkpt><trkpt lat="46.1720917" lon="12.2826333"><ele>392.0</ele><time>2026-04-18T13:57:41.606Z</time></trkpt><trkpt lat="46.1721" lon="12.28276"><ele>392.0</ele><time>2026-04-18T13:57:42.605Z</time></trkpt><trkpt lat="46.1721083" lon="12.2829117"><ele>392.0</ele><time>2026-04-18T13:57:44.605Z</time></trkpt><trkpt lat="46.1721033" lon="12.2830067"><ele>392.0</ele><time>2026-04-18T13:57:47.605Z</time></trkpt><trkpt lat="46.1720483" lon="12.2831517"><ele>392.0</ele><time>2026-04-18T13:57:50.605Z</time></trkpt><trkpt lat="46.1719817" lon="12.283245"><ele>392.0</ele><time>2026-04-18T13:57:52.605Z</time></trkpt><trkpt lat="46.1719667" lon="12.283355"><ele>392.40000000000003</ele><time>2026-04-18T13:57:54.606Z</time></trkpt><trkpt lat="46.172035" lon="12.2835217"><ele>392.8</ele><time>2026-04-18T13:57:56.605Z</time></trkpt><trkpt lat="46.1720967" lon="12.2835867"><ele>393.2</ele><time>2026-04-18T13:57:57.606Z</time></trkpt><trkpt lat="46.17215" lon="12.2836633"><ele>393.6</ele><time>2026-04-18T13:57:58.605Z</time></trkpt><trkpt lat="46.172195" lon="12.283755"><ele>394.0</ele><time>2026-04-18T13:57:59.606Z</time></trkpt><trkpt lat="46.1722283" lon="12.2838767"><ele>394.6666666666667</ele><time>2026-04-18T13:58:00.605Z</time></trkpt><trkpt lat="46.17225" lon="12.2840517"><ele>395.33333333333337</ele><time>2026-04-18T13:58:01.606Z</time></trkpt><trkpt lat="46.1722683" lon="12.284285"><ele>396.0</ele><time>2026-04-18T13:58:02.605Z</time></trkpt><trkpt lat="46.1722817" lon="12.2845817"><ele>396.33333333333337</ele><time>2026-04-18T13:58:03.605Z</time></trkpt><trkpt lat="46.1722983" lon="12.2849"><ele>396.6666666666667</ele><time>2026-04-18T13:58:04.605Z</time></trkpt><trkpt lat="46.17232" lon="12.2852117"><ele>397.0</ele><time>2026-04-18T13:58:05.605Z</time></trkpt><trkpt lat="46.1723417" lon="12.2854967"><ele>392.6666666666667</ele><time>2026-04-18T13:58:06.605Z</time></trkpt><trkpt lat="46.1723667" lon="12.28578"><ele>388.33333333333337</ele><time>2026-04-18T13:58:07.605Z</time></trkpt><trkpt lat="46.1723817" lon="12.28607"><ele>384.0</ele><time>2026-04-18T13:58:08.605Z</time></trkpt><trkpt lat="46.1723967" lon="12.286355"><ele>386.0</ele><time>2026-04-18T13:58:09.606Z</time></trkpt><trkpt lat="46.172415" lon="12.2866367"><ele>388.0</ele><time>2026-04-18T13:58:10.606Z</time></trkpt><trkpt lat="46.1724367" lon="12.2869183"><ele>390.0</ele><time>2026-04-18T13:58:11.605Z</time></trkpt><trkpt lat="46.17247" lon="12.2872"><ele>391.33333333333337</ele><time>2026-04-18T13:58:12.606Z</time></trkpt><trkpt lat="46.172495" lon="12.2875017"><ele>392.6666666666667</ele><time>2026-04-18T13:58:13.605Z</time></trkpt><trkpt lat="46.17252" lon="12.2878167"><ele>394.0</ele><time>2026-04-18T13:58:14.606Z</time></trkpt><trkpt lat="46.1725417" lon="12.2881167"><ele>394.6666666666667</ele><time>2026-04-18T13:58:15.605Z</time></trkpt><trkpt lat="46.17257" lon="12.28839"><ele>395.33333333333337</ele><time>2026-04-18T13:58:16.605Z</time></trkpt><trkpt lat="46.1725983" lon="12.28864"><ele>396.0</ele><time>2026-04-18T13:58:17.605Z</time></trkpt><trkpt lat="46.1726117" lon="12.2888717"><ele>397.0</ele><time>2026-04-18T13:58:18.606Z</time></trkpt><trkpt lat="46.17262" lon="12.2890883"><ele>398.0</ele><time>2026-04-18T13:58:19.605Z</time></trkpt><trkpt lat="46.1726283" lon="12.2892817"><ele>399.0</ele><time>2026-04-18T13:58:20.605Z</time></trkpt><trkpt lat="46.1726433" lon="12.2894767"><ele>400.0</ele><time>2026-04-18T13:58:21.606Z</time></trkpt><trkpt lat="46.1726567" lon="12.28968"><ele>400.33333333333337</ele><time>2026-04-18T13:58:22.605Z</time></trkpt><trkpt lat="46.1726683" lon="12.2898917"><ele>400.66666666666663</ele><time>2026-04-18T13:58:23.606Z</time></trkpt><trkpt lat="46.1726883" lon="12.2901133"><ele>401.0</ele><time>2026-04-18T13:58:24.605Z</time></trkpt><trkpt lat="46.172705" lon="12.2903417"><ele>401.0</ele><time>2026-04-18T13:58:25.605Z</time></trkpt><trkpt lat="46.172725" lon="12.2905583"><ele>401.0</ele><time>2026-04-18T13:58:26.605Z</time></trkpt><trkpt lat="46.1727433" lon="12.2907983"><ele>401.0</ele><time>2026-04-18T13:58:27.606Z</time></trkpt><trkpt lat="46.17277" lon="12.2910517"><ele>401.66666666666663</ele><time>2026-04-18T13:58:28.605Z</time></trkpt><trkpt lat="46.172835" lon="12.2913183"><ele>402.33333333333337</ele><time>2026-04-18T13:58:29.606Z</time></trkpt><trkpt lat="46.1729117" lon="12.2915683"><ele>403.0</ele><time>2026-04-18T13:58:30.605Z</time></trkpt><trkpt lat="46.1730017" lon="12.2918067"><ele>403.33333333333337</ele><time>2026-04-18T13:58:31.605Z</time></trkpt><trkpt lat="46.1730917" lon="12.2920433"><ele>403.66666666666663</ele><time>2026-04-18T13:58:32.606Z</time></trkpt><trkpt lat="46.1732033" lon="12.2922633"><ele>404.0</ele><time>2026-04-18T13:58:33.605Z</time></trkpt><trkpt lat="46.17331" lon="12.2924767"><ele>405.0</ele><time>2026-04-18T13:58:34.605Z</time></trkpt><trkpt lat="46.173415" lon="12.2926817"><ele>406.0</ele><time>2026-04-18T13:58:35.605Z</time></trkpt><trkpt lat="46.1735117" lon="12.292885"><ele>407.0</ele><time>2026-04-18T13:58:36.606Z</time></trkpt><trkpt lat="46.1736217" lon="12.2930917"><ele>407.0</ele><time>2026-04-18T13:58:37.605Z</time></trkpt><trkpt lat="46.1737217" lon="12.293285"><ele>407.0</ele><time>2026-04-18T13:58:38.605Z</time></trkpt><trkpt lat="46.17382" lon="12.2934533"><ele>407.0</ele><time>2026-04-18T13:58:39.606Z</time></trkpt><trkpt lat="46.1739333" lon="12.29361"><ele>406.0</ele><time>2026-04-18T13:58:40.606Z</time></trkpt><trkpt lat="46.17404" lon="12.29374"><ele>405.0</ele><time>2026-04-18T13:58:41.606Z</time></trkpt><trkpt lat="46.1741583" lon="12.293855"><ele>404.0</ele><time>2026-04-18T13:58:42.606Z</time></trkpt><trkpt lat="46.174275" lon="12.2939733"><ele>403.0</ele><time>2026-04-18T13:58:43.605Z</time></trkpt><trkpt lat="46.1743883" lon="12.29408"><ele>403.0</ele><time>2026-04-18T13:58:44.605Z</time></trkpt><trkpt lat="46.1745233" lon="12.29418"><ele>403.0</ele><time>2026-04-18T13:58:45.605Z</time></trkpt><trkpt lat="46.174665" lon="12.2942833"><ele>403.0</ele><time>2026-04-18T13:58:46.606Z</time></trkpt><trkpt lat="46.1748133" lon="12.2944017"><ele>402.6666666666667</ele><time>2026-04-18T13:58:47.605Z</time></trkpt><trkpt lat="46.1749517" lon="12.294515"><ele>402.33333333333337</ele><time>2026-04-18T13:58:48.606Z</time></trkpt><trkpt lat="46.1750933" lon="12.2946483"><ele>402.0</ele><time>2026-04-18T13:58:49.605Z</time></trkpt><trkpt lat="46.1752083" lon="12.29481"><ele>404.66666666666663</ele><time>2026-04-18T13:58:50.605Z</time></trkpt><trkpt lat="46.17531" lon="12.2949933"><ele>407.3333333333333</ele><time>2026-04-18T13:58:51.605Z</time></trkpt><trkpt lat="46.1753683" lon="12.2952"><ele>410.0</ele><time>2026-04-18T13:58:52.605Z</time></trkpt><trkpt lat="46.1754083" lon="12.2953933"><ele>411.75</ele><time>2026-04-18T13:58:53.606Z</time></trkpt><trkpt lat="46.1754267" lon="12.2955983"><ele>413.5</ele><time>2026-04-18T13:58:54.605Z</time></trkpt><trkpt lat="46.175435" lon="12.2957817"><ele>415.25</ele><time>2026-04-18T13:58:55.605Z</time></trkpt><trkpt lat="46.1754117" lon="12.2959517"><ele>417.0</ele><time>2026-04-18T13:58:56.605Z</time></trkpt><trkpt lat="46.175375" lon="12.2961183"><ele>417.0</ele><time>2026-04-18T13:58:57.605Z</time></trkpt><trkpt lat="46.1753217" lon="12.2962883"><ele>417.0</ele><time>2026-04-18T13:58:58.605Z</time></trkpt><trkpt lat="46.1752467" lon="12.2964483"><ele>417.0</ele><time>2026-04-18T13:58:59.605Z</time></trkpt><trkpt lat="46.1751517" lon="12.2966033"><ele>417.0</ele><time>2026-04-18T13:59:00.605Z</time></trkpt><trkpt lat="46.1750483" lon="12.29676"><ele>419.0</ele><time>2026-04-18T13:59:01.605Z</time></trkpt><trkpt lat="46.1749483" lon="12.296885"><ele>421.0</ele><time>2026-04-18T13:59:02.605Z</time></trkpt><trkpt lat="46.1748517" lon="12.2970033"><ele>423.0</ele><time>2026-04-18T13:59:03.605Z</time></trkpt><trkpt lat="46.1747517" lon="12.2971183"><ele>425.0</ele><time>2026-04-18T13:59:04.606Z</time></trkpt><trkpt lat="46.1746533" lon="12.2972433"><ele>421.25</ele><time>2026-04-18T13:59:05.606Z</time></trkpt><trkpt lat="46.174555" lon="12.2973883"><ele>417.5</ele><time>2026-04-18T13:59:06.606Z</time></trkpt><trkpt lat="46.1744533" lon="12.2975417"><ele>413.75</ele><time>2026-04-18T13:59:07.605Z</time></trkpt><trkpt lat="46.1743567" lon="12.2977017"><ele>410.0</ele><time>2026-04-18T13:59:08.606Z</time></trkpt><trkpt lat="46.1742633" lon="12.2978567"><ele>410.0</ele><time>2026-04-18T13:59:09.605Z</time></trkpt><trkpt lat="46.174175" lon="12.2980183"><ele>410.0</ele><time>2026-04-18T13:59:10.605Z</time></trkpt><trkpt lat="46.1741033" lon="12.2981983"><ele>410.0</ele><time>2026-04-18T13:59:11.605Z</time></trkpt><trkpt lat="46.1740333" lon="12.298375"><ele>410.0</ele><time>2026-04-18T13:59:12.605Z</time></trkpt><trkpt lat="46.1739683" lon="12.29854"><ele>410.0</ele><time>2026-04-18T13:59:13.605Z</time></trkpt><trkpt lat="46.1739267" lon="12.2987017"><ele>410.0</ele><time>2026-04-18T13:59:14.605Z</time></trkpt><trkpt lat="46.1738917" lon="12.2988667"><ele>410.0</ele><time>2026-04-18T13:59:15.605Z</time></trkpt><trkpt lat="46.17386" lon="12.2990233"><ele>410.0</ele><time>2026-04-18T13:59:16.605Z</time></trkpt><trkpt lat="46.1738367" lon="12.2991783"><ele>410.0</ele><time>2026-04-18T13:59:17.605Z</time></trkpt><trkpt lat="46.1738217" lon="12.2993367"><ele>410.0</ele><time>2026-04-18T13:59:18.606Z</time></trkpt><trkpt lat="46.1738033" lon="12.299485"><ele>410.0</ele><time>2026-04-18T13:59:19.605Z</time></trkpt><trkpt lat="46.1737767" lon="12.2996533"><ele>410.0</ele><time>2026-04-18T13:59:20.605Z</time></trkpt><trkpt lat="46.1737583" lon="12.29981"><ele>410.0</ele><time>2026-04-18T13:59:21.605Z</time></trkpt><trkpt lat="46.1737283" lon="12.29999"><ele>409.0</ele><time>2026-04-18T13:59:22.605Z</time></trkpt><trkpt lat="46.1737117" lon="12.300145"><ele>408.0</ele><time>2026-04-18T13:59:23.605Z</time></trkpt><trkpt lat="46.173705" lon="12.3003083"><ele>407.0</ele><time>2026-04-18T13:59:24.605Z</time></trkpt><trkpt lat="46.1737367" lon="12.3004667"><ele>406.0</ele><time>2026-04-18T13:59:25.605Z</time></trkpt><trkpt lat="46.17379" lon="12.3006083"><ele>405.0</ele><time>2026-04-18T13:59:26.605Z</time></trkpt><trkpt lat="46.173855" lon="12.30076"><ele>405.0</ele><time>2026-04-18T13:59:27.605Z</time></trkpt><trkpt lat="46.1739317" lon="12.300915"><ele>405.0</ele><time>2026-04-18T13:59:28.605Z</time></trkpt><trkpt lat="46.1739983" lon="12.3010817"><ele>405.0</ele><time>2026-04-18T13:59:29.605Z</time></trkpt><trkpt lat="46.17403" lon="12.3012717"><ele>405.0</ele><time>2026-04-18T13:59:30.605Z</time></trkpt><trkpt lat="46.17403" lon="12.301465"><ele>405.8</ele><time>2026-04-18T13:59:31.605Z</time></trkpt><trkpt lat="46.1740183" lon="12.301635"><ele>406.6</ele><time>2026-04-18T13:59:32.605Z</time></trkpt><trkpt lat="46.1740033" lon="12.3017883"><ele>407.4</ele><time>2026-04-18T13:59:33.606Z</time></trkpt><trkpt lat="46.173995" lon="12.30195"><ele>408.2</ele><time>2026-04-18T13:59:34.605Z</time></trkpt><trkpt lat="46.1739967" lon="12.3020967"><ele>409.0</ele><time>2026-04-18T13:59:35.605Z</time></trkpt><trkpt lat="46.1739933" lon="12.3022367"><ele>409.2</ele><time>2026-04-18T13:59:36.606Z</time></trkpt><trkpt lat="46.1739933" lon="12.3023867"><ele>409.4</ele><time>2026-04-18T13:59:37.605Z</time></trkpt><trkpt lat="46.1739967" lon="12.3025433"><ele>409.6</ele><time>2026-04-18T13:59:38.605Z</time></trkpt><trkpt lat="46.1739983" lon="12.3027"><ele>409.8</ele><time>2026-04-18T13:59:39.605Z</time></trkpt><trkpt lat="46.1739917" lon="12.30286"><ele>410.0</ele><time>2026-04-18T13:59:40.606Z</time></trkpt><trkpt lat="46.1739767" lon="12.3030333"><ele>409.5</ele><time>2026-04-18T13:59:41.606Z</time></trkpt><trkpt lat="46.1739633" lon="12.303205"><ele>409.0</ele><time>2026-04-18T13:59:42.605Z</time></trkpt><trkpt lat="46.1739433" lon="12.3033917"><ele>408.5</ele><time>2026-04-18T13:59:43.605Z</time></trkpt><trkpt lat="46.1738983" lon="12.3035817"><ele>408.0</ele><time>2026-04-18T13:59:44.605Z</time></trkpt><trkpt lat="46.1738533" lon="12.3037517"><ele>408.0</ele><time>2026-04-18T13:59:45.605Z</time></trkpt><trkpt lat="46.17377" lon="12.3038933"><ele>408.0</ele><time>2026-04-18T13:59:46.606Z</time></trkpt><trkpt lat="46.173685" lon="12.3040133"><ele>408.0</ele><time>2026-04-18T13:59:47.605Z</time></trkpt><trkpt lat="46.1735767" lon="12.3041167"><ele>408.0</ele><time>2026-04-18T13:59:48.606Z</time></trkpt><trkpt lat="46.17346" lon="12.3042"><ele>408.25</ele><time>2026-04-18T13:59:49.605Z</time></trkpt><trkpt lat="46.1733467" lon="12.3042617"><ele>408.5</ele><time>2026-04-18T13:59:50.605Z</time></trkpt><trkpt lat="46.1732467" lon="12.304335"><ele>408.75</ele><time>2026-04-18T13:59:51.605Z</time></trkpt><trkpt lat="46.1731583" lon="12.304445"><ele>409.0</ele><time>2026-04-18T13:59:52.605Z</time></trkpt><trkpt lat="46.17308" lon="12.3045817"><ele>409.0</ele><time>2026-04-18T13:59:53.606Z</time></trkpt><trkpt lat="46.1730133" lon="12.3047333"><ele>409.0</ele><time>2026-04-18T13:59:54.605Z</time></trkpt><trkpt lat="46.17295" lon="12.30489"><ele>409.0</ele><time>2026-04-18T13:59:55.605Z</time></trkpt><trkpt lat="46.1728933" lon="12.3050417"><ele>409.0</ele><time>2026-04-18T13:59:56.605Z</time></trkpt><trkpt lat="46.1728333" lon="12.3051933"><ele>407.0</ele><time>2026-04-18T13:59:57.605Z</time></trkpt><trkpt lat="46.1727667" lon="12.3053417"><ele>405.0</ele><time>2026-04-18T13:59:58.605Z</time></trkpt><trkpt lat="46.1727033" lon="12.3054933"><ele>403.0</ele><time>2026-04-18T13:59:59.605Z</time></trkpt><trkpt lat="46.1726433" lon="12.3056517"><ele>401.0</ele><time>2026-04-18T14:00:00.606Z</time></trkpt><trkpt lat="46.172575" lon="12.305815"><ele>401.25</ele><time>2026-04-18T14:00:01.605Z</time></trkpt><trkpt lat="46.1725017" lon="12.3059717"><ele>401.5</ele><time>2026-04-18T14:00:02.605Z</time></trkpt><trkpt lat="46.1724183" lon="12.3061317"><ele>401.75</ele><time>2026-04-18T14:00:03.606Z</time></trkpt><trkpt lat="46.17234" lon="12.3062817"><ele>402.0</ele><time>2026-04-18T14:00:04.605Z</time></trkpt><trkpt lat="46.1722567" lon="12.3064217"><ele>402.0</ele><time>2026-04-18T14:00:05.605Z</time></trkpt><trkpt lat="46.17216" lon="12.306555"><ele>402.0</ele><time>2026-04-18T14:00:06.605Z</time></trkpt><trkpt lat="46.172065" lon="12.3066767"><ele>402.0</ele><time>2026-04-18T14:00:07.605Z</time></trkpt><trkpt lat="46.1719783" lon="12.30681"><ele>402.0</ele><time>2026-04-18T14:00:08.605Z</time></trkpt><trkpt lat="46.17188" lon="12.30695"><ele>402.0</ele><time>2026-04-18T14:00:09.605Z</time></trkpt><trkpt lat="46.17179" lon="12.3070983"><ele>402.0</ele><time>2026-04-18T14:00:10.605Z</time></trkpt><trkpt lat="46.171695" lon="12.30724"><ele>402.0</ele><time>2026-04-18T14:00:11.605Z</time></trkpt><trkpt lat="46.1715967" lon="12.3073883"><ele>402.0</ele><time>2026-04-18T14:00:12.605Z</time></trkpt><trkpt lat="46.1714983" lon="12.307545"><ele>401.33333333333337</ele><time>2026-04-18T14:00:13.605Z</time></trkpt><trkpt lat="46.1714033" lon="12.3077167"><ele>400.6666666666667</ele><time>2026-04-18T14:00:14.605Z</time></trkpt><trkpt lat="46.1713117" lon="12.3079033"><ele>400.0</ele><time>2026-04-18T14:00:15.605Z</time></trkpt><trkpt lat="46.1712017" lon="12.308095"><ele>400.0</ele><time>2026-04-18T14:00:16.605Z</time></trkpt><trkpt lat="46.1711" lon="12.3082917"><ele>400.0</ele><time>2026-04-18T14:00:17.606Z</time></trkpt><trkpt lat="46.17099" lon="12.3084817"><ele>400.0</ele><time>2026-04-18T14:00:18.605Z</time></trkpt><trkpt lat="46.1708683" lon="12.3086883"><ele>400.0</ele><time>2026-04-18T14:00:19.605Z</time></trkpt><trkpt lat="46.170725" lon="12.3088983"><ele>400.0</ele><time>2026-04-18T14:00:20.605Z</time></trkpt><trkpt lat="46.1705817" lon="12.3091133"><ele>400.0</ele><time>2026-04-18T14:00:21.605Z</time></trkpt><trkpt lat="46.17042" lon="12.3093217"><ele>402.33333333333337</ele><time>2026-04-18T14:00:22.606Z</time></trkpt><trkpt lat="46.17028" lon="12.309535"><ele>404.66666666666663</ele><time>2026-04-18T14:00:23.605Z</time></trkpt><trkpt lat="46.170135" lon="12.30974"><ele>407.0</ele><time>2026-04-18T14:00:24.606Z</time></trkpt><trkpt lat="46.1700033" lon="12.3099567"><ele>408.3333333333333</ele><time>2026-04-18T14:00:25.606Z</time></trkpt><trkpt lat="46.1698833" lon="12.310175"><ele>409.66666666666663</ele><time>2026-04-18T14:00:26.605Z</time></trkpt><trkpt lat="46.1697433" lon="12.31038"><ele>411.0</ele><time>2026-04-18T14:00:27.605Z</time></trkpt><trkpt lat="46.16962" lon="12.3105967"><ele>406.0</ele><time>2026-04-18T14:00:28.605Z</time></trkpt><trkpt lat="46.1695033" lon="12.310815"><ele>401.0</ele><time>2026-04-18T14:00:29.605Z</time></trkpt><trkpt lat="46.16938" lon="12.311005"><ele>396.0</ele><time>2026-04-18T14:00:30.605Z</time></trkpt><trkpt lat="46.1692467" lon="12.3111817"><ele>396.0</ele><time>2026-04-18T14:00:31.606Z</time></trkpt><trkpt lat="46.1691083" lon="12.3113517"><ele>396.0</ele><time>2026-04-18T14:00:32.606Z</time></trkpt><trkpt lat="46.1689667" lon="12.3114983"><ele>396.0</ele><time>2026-04-18T14:00:33.605Z</time></trkpt><trkpt lat="46.1688083" lon="12.3116233"><ele>395.33333333333337</ele><time>2026-04-18T14:00:34.605Z</time></trkpt><trkpt lat="46.1686517" lon="12.31173"><ele>394.6666666666667</ele><time>2026-04-18T14:00:35.605Z</time></trkpt><trkpt lat="46.1684967" lon="12.3118367"><ele>394.0</ele><time>2026-04-18T14:00:36.605Z</time></trkpt><trkpt lat="46.168335" lon="12.3119433"><ele>394.33333333333337</ele><time>2026-04-18T14:00:37.605Z</time></trkpt><trkpt lat="46.1681583" lon="12.3120517"><ele>394.66666666666663</ele><time>2026-04-18T14:00:38.606Z</time></trkpt><trkpt lat="46.1679767" lon="12.3121717"><ele>395.0</ele><time>2026-04-18T14:00:39.605Z</time></trkpt><trkpt lat="46.16779" lon="12.3122817"><ele>395.0</ele><time>2026-04-18T14:00:40.605Z</time></trkpt><trkpt lat="46.16759" lon="12.312405"><ele>395.0</ele><time>2026-04-18T14:00:41.605Z</time></trkpt><trkpt lat="46.1673733" lon="12.3125283"><ele>395.5</ele><time>2026-04-18T14:00:42.605Z</time></trkpt><trkpt lat="46.167135" lon="12.3126617"><ele>396.0</ele><time>2026-04-18T14:00:43.606Z</time></trkpt><trkpt lat="46.166915" lon="12.312805"><ele>396.0</ele><time>2026-04-18T14:00:44.605Z</time></trkpt><trkpt lat="46.1666967" lon="12.3129333"><ele>396.0</ele><time>2026-04-18T14:00:45.605Z</time></trkpt><trkpt lat="46.1664917" lon="12.3130667"><ele>398.33333333333337</ele><time>2026-04-18T14:00:46.606Z</time></trkpt><trkpt lat="46.1662933" lon="12.313225"><ele>400.6666666666667</ele><time>2026-04-18T14:00:47.606Z</time></trkpt><trkpt lat="46.1661233" lon="12.3133933"><ele>403.0</ele><time>2026-04-18T14:00:48.605Z</time></trkpt><trkpt lat="46.165935" lon="12.3136133"><ele>403.0</ele><time>2026-04-18T14:00:49.605Z</time></trkpt><trkpt lat="46.1657633" lon="12.313855"><ele>403.0</ele><time>2026-04-18T14:00:50.605Z</time></trkpt><trkpt lat="46.1656133" lon="12.31412"><ele>399.6666666666667</ele><time>2026-04-18T14:00:51.606Z</time></trkpt><trkpt lat="46.16548" lon="12.31438"><ele>396.33333333333337</ele><time>2026-04-18T14:00:52.606Z</time></trkpt><trkpt lat="46.1653317" lon="12.3145883"><ele>393.0</ele><time>2026-04-18T14:00:53.606Z</time></trkpt><trkpt lat="46.1651967" lon="12.3147967"><ele>392.33333333333337</ele><time>2026-04-18T14:00:54.605Z</time></trkpt><trkpt lat="46.1650717" lon="12.3150067"><ele>391.6666666666667</ele><time>2026-04-18T14:00:55.605Z</time></trkpt><trkpt lat="46.1649483" lon="12.31519"><ele>391.0</ele><time>2026-04-18T14:00:56.605Z</time></trkpt><trkpt lat="46.1648317" lon="12.3153683"><ele>392.33333333333337</ele><time>2026-04-18T14:00:57.605Z</time></trkpt><trkpt lat="46.1647233" lon="12.3155433"><ele>393.66666666666663</ele><time>2026-04-18T14:00:58.606Z</time></trkpt><trkpt lat="46.1646233" lon="12.3157"><ele>395.0</ele><time>2026-04-18T14:00:59.605Z</time></trkpt><trkpt lat="46.1645233" lon="12.31587"><ele>395.0</ele><time>2026-04-18T14:01:00.605Z</time></trkpt><trkpt lat="46.164425" lon="12.3160383"><ele>395.0</ele><time>2026-04-18T14:01:01.605Z</time></trkpt><trkpt lat="46.1643183" lon="12.3162133"><ele>395.0</ele><time>2026-04-18T14:01:02.605Z</time></trkpt><trkpt lat="46.1641933" lon="12.316385"><ele>395.66666666666663</ele><time>2026-04-18T14:01:03.605Z</time></trkpt><trkpt lat="46.1640767" lon="12.3165783"><ele>396.33333333333337</ele><time>2026-04-18T14:01:04.605Z</time></trkpt><trkpt lat="46.1639633" lon="12.316765"><ele>397.0</ele><time>2026-04-18T14:01:05.606Z</time></trkpt><trkpt lat="46.163845" lon="12.3169617"><ele>398.0</ele><time>2026-04-18T14:01:06.605Z</time></trkpt><trkpt lat="46.1637233" lon="12.317155"><ele>399.0</ele><time>2026-04-18T14:01:07.606Z</time></trkpt><trkpt lat="46.1636083" lon="12.3173417"><ele>400.0</ele><time>2026-04-18T14:01:08.605Z</time></trkpt><trkpt lat="46.16349" lon="12.3175133"><ele>400.0</ele><time>2026-04-18T14:01:09.605Z</time></trkpt><trkpt lat="46.1633617" lon="12.3176733"><ele>400.0</ele><time>2026-04-18T14:01:10.605Z</time></trkpt><trkpt lat="46.1632317" lon="12.317825"><ele>400.0</ele><time>2026-04-18T14:01:11.605Z</time></trkpt><trkpt lat="46.163095" lon="12.3179767"><ele>400.0</ele><time>2026-04-18T14:01:12.605Z</time></trkpt><trkpt lat="46.1629733" lon="12.318135"><ele>400.0</ele><time>2026-04-18T14:01:13.605Z</time></trkpt><trkpt lat="46.1628567" lon="12.31829"><ele>400.0</ele><time>2026-04-18T14:01:14.605Z</time></trkpt><trkpt lat="46.1627333" lon="12.318425"><ele>400.0</ele><time>2026-04-18T14:01:15.605Z</time></trkpt><trkpt lat="46.1626117" lon="12.318565"><ele>400.0</ele><time>2026-04-18T14:01:16.605Z</time></trkpt><trkpt lat="46.1624933" lon="12.3187"><ele>400.0</ele><time>2026-04-18T14:01:17.605Z</time></trkpt><trkpt lat="46.1623683" lon="12.31883"><ele>400.0</ele><time>2026-04-18T14:01:18.605Z</time></trkpt><trkpt lat="46.1622533" lon="12.3189633"><ele>400.0</ele><time>2026-04-18T14:01:19.605Z</time></trkpt><trkpt lat="46.162135" lon="12.3191"><ele>400.0</ele><time>2026-04-18T14:01:20.605Z</time></trkpt><trkpt lat="46.1620033" lon="12.31922"><ele>400.0</ele><time>2026-04-18T14:01:21.605Z</time></trkpt><trkpt lat="46.1618917" lon="12.319345"><ele>400.0</ele><time>2026-04-18T14:01:22.605Z</time></trkpt><trkpt lat="46.1617833" lon="12.3194533"><ele>400.0</ele><time>2026-04-18T14:01:23.606Z</time></trkpt><trkpt lat="46.1616733" lon="12.3195633"><ele>400.0</ele><time>2026-04-18T14:01:24.605Z</time></trkpt><trkpt lat="46.1615467" lon="12.3196433"><ele>398.5</ele><time>2026-04-18T14:01:25.605Z</time></trkpt><trkpt lat="46.161405" lon="12.31971"><ele>397.0</ele><time>2026-04-18T14:01:26.605Z</time></trkpt><trkpt lat="46.161255" lon="12.3197333"><ele>395.5</ele><time>2026-04-18T14:01:27.605Z</time></trkpt><trkpt lat="46.16111" lon="12.3197167"><ele>394.0</ele><time>2026-04-18T14:01:28.605Z</time></trkpt><trkpt lat="46.160965" lon="12.319645"><ele>394.0</ele><time>2026-04-18T14:01:29.605Z</time></trkpt><trkpt lat="46.1608217" lon="12.31952"><ele>394.0</ele><time>2026-04-18T14:01:30.605Z</time></trkpt><trkpt lat="46.16068" lon="12.3193733"><ele>394.0</ele><time>2026-04-18T14:01:31.605Z</time></trkpt><trkpt lat="46.1605433" lon="12.3192283"><ele>393.75</ele><time>2026-04-18T14:01:32.605Z</time></trkpt><trkpt lat="46.160425" lon="12.3190983"><ele>393.5</ele><time>2026-04-18T14:01:33.605Z</time></trkpt><trkpt lat="46.160295" lon="12.3189783"><ele>393.25</ele><time>2026-04-18T14:01:34.605Z</time></trkpt><trkpt lat="46.160175" lon="12.3188667"><ele>393.0</ele><time>2026-04-18T14:01:35.605Z</time></trkpt><trkpt lat="46.1600583" lon="12.3187617"><ele>393.0</ele><time>2026-04-18T14:01:36.605Z</time></trkpt><trkpt lat="46.1599383" lon="12.3186717"><ele>393.0</ele><time>2026-04-18T14:01:37.606Z</time></trkpt><trkpt lat="46.1598183" lon="12.3185767"><ele>393.0</ele><time>2026-04-18T14:01:38.605Z</time></trkpt><trkpt lat="46.1596883" lon="12.3184917"><ele>393.0</ele><time>2026-04-18T14:01:39.605Z</time></trkpt><trkpt lat="46.159535" lon="12.318425"><ele>390.0</ele><time>2026-04-18T14:01:40.605Z</time></trkpt><trkpt lat="46.1593867" lon="12.3183583"><ele>387.0</ele><time>2026-04-18T14:01:41.606Z</time></trkpt><trkpt lat="46.1592417" lon="12.3182883"><ele>384.0</ele><time>2026-04-18T14:01:42.605Z</time></trkpt><trkpt lat="46.159095" lon="12.3182233"><ele>383.3333333333333</ele><time>2026-04-18T14:01:43.606Z</time></trkpt><trkpt lat="46.15894" lon="12.318185"><ele>382.66666666666663</ele><time>2026-04-18T14:01:44.605Z</time></trkpt><trkpt lat="46.1587817" lon="12.318165"><ele>382.0</ele><time>2026-04-18T14:01:45.605Z</time></trkpt><trkpt lat="46.1586217" lon="12.31816"><ele>382.0</ele><time>2026-04-18T14:01:46.605Z</time></trkpt><trkpt lat="46.158455" lon="12.318155"><ele>382.0</ele><time>2026-04-18T14:01:47.605Z</time></trkpt><trkpt lat="46.158295" lon="12.3181583"><ele>382.0</ele><time>2026-04-18T14:01:48.605Z</time></trkpt><trkpt lat="46.1581283" lon="12.31817"><ele>382.3333333333333</ele><time>2026-04-18T14:01:49.605Z</time></trkpt><trkpt lat="46.1579617" lon="12.3181883"><ele>382.6666666666667</ele><time>2026-04-18T14:01:50.605Z</time></trkpt><trkpt lat="46.1578067" lon="12.3182117"><ele>383.0</ele><time>2026-04-18T14:01:51.605Z</time></trkpt><trkpt lat="46.157655" lon="12.3182267"><ele>383.0</ele><time>2026-04-18T14:01:52.605Z</time></trkpt><trkpt lat="46.1575067" lon="12.3182567"><ele>383.0</ele><time>2026-04-18T14:01:53.605Z</time></trkpt><trkpt lat="46.1573667" lon="12.3182917"><ele>383.0</ele><time>2026-04-18T14:01:54.605Z</time></trkpt><trkpt lat="46.1572133" lon="12.3183383"><ele>383.0</ele><time>2026-04-18T14:01:55.605Z</time></trkpt><trkpt lat="46.1570517" lon="12.31838"><ele>385.33333333333337</ele><time>2026-04-18T14:01:56.606Z</time></trkpt><trkpt lat="46.1568983" lon="12.31844"><ele>387.6666666666667</ele><time>2026-04-18T14:01:57.606Z</time></trkpt><trkpt lat="46.1567417" lon="12.3185033"><ele>390.0</ele><time>2026-04-18T14:01:58.605Z</time></trkpt><trkpt lat="46.15658" lon="12.318555"><ele>390.75</ele><time>2026-04-18T14:01:59.605Z</time></trkpt><trkpt lat="46.156435" lon="12.3186017"><ele>391.5</ele><time>2026-04-18T14:02:00.605Z</time></trkpt><trkpt lat="46.1563017" lon="12.318645"><ele>392.25</ele><time>2026-04-18T14:02:01.605Z</time></trkpt><trkpt lat="46.1561683" lon="12.3186883"><ele>393.0</ele><time>2026-04-18T14:02:02.605Z</time></trkpt><trkpt lat="46.1560367" lon="12.31875"><ele>393.0</ele><time>2026-04-18T14:02:03.606Z</time></trkpt><trkpt lat="46.1558933" lon="12.3187783"><ele>393.0</ele><time>2026-04-18T14:02:04.605Z</time></trkpt><trkpt lat="46.155755" lon="12.3188233"><ele>393.0</ele><time>2026-04-18T14:02:05.605Z</time></trkpt><trkpt lat="46.1556217" lon="12.3188533"><ele>393.0</ele><time>2026-04-18T14:02:06.605Z</time></trkpt><trkpt lat="46.15549" lon="12.3188967"><ele>390.75</ele><time>2026-04-18T14:02:07.606Z</time></trkpt><trkpt lat="46.1553517" lon="12.318935"><ele>388.5</ele><time>2026-04-18T14:02:08.605Z</time></trkpt><trkpt lat="46.1552217" lon="12.3189817"><ele>386.25</ele><time>2026-04-18T14:02:09.606Z</time></trkpt><trkpt lat="46.1550967" lon="12.3190167"><ele>384.0</ele><time>2026-04-18T14:02:10.605Z</time></trkpt><trkpt lat="46.1549767" lon="12.3190467"><ele>385.0</ele><time>2026-04-18T14:02:11.605Z</time></trkpt><trkpt lat="46.1548617" lon="12.3190833"><ele>386.0</ele><time>2026-04-18T14:02:12.606Z</time></trkpt><trkpt lat="46.1547383" lon="12.319115"><ele>387.0</ele><time>2026-04-18T14:02:13.606Z</time></trkpt><trkpt lat="46.15462" lon="12.319155"><ele>388.0</ele><time>2026-04-18T14:02:14.605Z</time></trkpt><trkpt lat="46.1544883" lon="12.3191833"><ele>388.0</ele><time>2026-04-18T14:02:15.606Z</time></trkpt><trkpt lat="46.1543433" lon="12.3192033"><ele>388.0</ele><time>2026-04-18T14:02:16.606Z</time></trkpt><trkpt lat="46.1541967" lon="12.3192183"><ele>388.0</ele><time>2026-04-18T14:02:17.606Z</time></trkpt><trkpt lat="46.1540467" lon="12.31926"><ele>388.0</ele><time>2026-04-18T14:02:18.605Z</time></trkpt><trkpt lat="46.1539" lon="12.31928"><ele>389.0</ele><time>2026-04-18T14:02:19.605Z</time></trkpt><trkpt lat="46.15375" lon="12.3192967"><ele>390.0</ele><time>2026-04-18T14:02:20.606Z</time></trkpt><trkpt lat="46.15359" lon="12.3193167"><ele>391.0</ele><time>2026-04-18T14:02:21.605Z</time></trkpt><trkpt lat="46.1534417" lon="12.3193133"><ele>391.0</ele><time>2026-04-18T14:02:22.606Z</time></trkpt><trkpt lat="46.1532917" lon="12.3193233"><ele>391.0</ele><time>2026-04-18T14:02:23.605Z</time></trkpt><trkpt lat="46.1531183" lon="12.3193317"><ele>391.0</ele><time>2026-04-18T14:02:24.606Z</time></trkpt><trkpt lat="46.1529683" lon="12.3193433"><ele>391.0</ele><time>2026-04-18T14:02:25.605Z</time></trkpt><trkpt lat="46.1528267" lon="12.3193517"><ele>391.0</ele><time>2026-04-18T14:02:26.605Z</time></trkpt><trkpt lat="46.1526933" lon="12.319345"><ele>391.0</ele><time>2026-04-18T14:02:27.605Z</time></trkpt><trkpt lat="46.1525667" lon="12.3193433"><ele>391.0</ele><time>2026-04-18T14:02:28.605Z</time></trkpt><trkpt lat="46.152445" lon="12.3193433"><ele>391.25</ele><time>2026-04-18T14:02:29.605Z</time></trkpt><trkpt lat="46.1523233" lon="12.3193417"><ele>391.5</ele><time>2026-04-18T14:02:30.605Z</time></trkpt><trkpt lat="46.152205" lon="12.319355"><ele>391.75</ele><time>2026-04-18T14:02:31.605Z</time></trkpt><trkpt lat="46.1520833" lon="12.3193783"><ele>392.0</ele><time>2026-04-18T14:02:32.605Z</time></trkpt><trkpt lat="46.15197" lon="12.31939"><ele>391.99999999999994</ele><time>2026-04-18T14:02:33.605Z</time></trkpt><trkpt lat="46.1518617" lon="12.3193867"><ele>392.0</ele><time>2026-04-18T14:02:34.605Z</time></trkpt><trkpt lat="46.15177" lon="12.3193767"><ele>392.0</ele><time>2026-04-18T14:02:35.605Z</time></trkpt><trkpt lat="46.1516917" lon="12.3193717"><ele>392.0</ele><time>2026-04-18T14:02:36.605Z</time></trkpt><trkpt lat="46.1516133" lon="12.3193933"><ele>391.99999999999994</ele><time>2026-04-18T14:02:37.605Z</time></trkpt><trkpt lat="46.1515533" lon="12.3194433"><ele>392.0</ele><time>2026-04-18T14:02:38.605Z</time></trkpt><trkpt lat="46.1515183" lon="12.3195417"><ele>391.0</ele><time>2026-04-18T14:02:39.605Z</time></trkpt><trkpt lat="46.1515167" lon="12.3196883"><ele>390.0</ele><time>2026-04-18T14:02:40.605Z</time></trkpt><trkpt lat="46.151525" lon="12.3198583"><ele>389.0</ele><time>2026-04-18T14:02:41.605Z</time></trkpt><trkpt lat="46.1515217" lon="12.3200317"><ele>388.0</ele><time>2026-04-18T14:02:42.605Z</time></trkpt><trkpt lat="46.1514817" lon="12.3202267"><ele>386.0</ele><time>2026-04-18T14:02:43.605Z</time></trkpt><trkpt lat="46.15142" lon="12.3204433"><ele>384.0</ele><time>2026-04-18T14:02:44.605Z</time></trkpt><trkpt lat="46.1513317" lon="12.320685"><ele>382.0</ele><time>2026-04-18T14:02:45.605Z</time></trkpt><trkpt lat="46.15126" lon="12.3208833"><ele>381.25</ele><time>2026-04-18T14:02:46.605Z</time></trkpt><trkpt lat="46.15121" lon="12.3210783"><ele>380.5</ele><time>2026-04-18T14:02:47.605Z</time></trkpt><trkpt lat="46.1511867" lon="12.32127"><ele>379.75</ele><time>2026-04-18T14:02:48.605Z</time></trkpt><trkpt lat="46.1511683" lon="12.321465"><ele>379.0</ele><time>2026-04-18T14:02:49.605Z</time></trkpt><trkpt lat="46.1511533" lon="12.3216533"><ele>378.79999999999995</ele><time>2026-04-18T14:02:50.605Z</time></trkpt><trkpt lat="46.1511383" lon="12.3218133"><ele>378.59999999999997</ele><time>2026-04-18T14:02:51.606Z</time></trkpt><trkpt lat="46.1511283" lon="12.321965"><ele>378.4</ele><time>2026-04-18T14:02:52.605Z</time></trkpt><trkpt lat="46.15112" lon="12.32209"><ele>378.2</ele><time>2026-04-18T14:02:53.606Z</time></trkpt><trkpt lat="46.151115" lon="12.32222"><ele>378.0</ele><time>2026-04-18T14:02:54.605Z</time></trkpt><trkpt lat="46.1511083" lon="12.3223617"><ele>378.5</ele><time>2026-04-18T14:02:55.605Z</time></trkpt><trkpt lat="46.1511" lon="12.322525"><ele>379.0</ele><time>2026-04-18T14:02:56.606Z</time></trkpt><trkpt lat="46.151085" lon="12.3227033"><ele>379.5</ele><time>2026-04-18T14:02:57.605Z</time></trkpt><trkpt lat="46.1510733" lon="12.32289"><ele>380.0</ele><time>2026-04-18T14:02:58.605Z</time></trkpt><trkpt lat="46.1510583" lon="12.3230667"><ele>380.25</ele><time>2026-04-18T14:02:59.605Z</time></trkpt><trkpt lat="46.1510467" lon="12.32324"><ele>380.5</ele><time>2026-04-18T14:03:00.605Z</time></trkpt><trkpt lat="46.1510367" lon="12.323395"><ele>380.75</ele><time>2026-04-18T14:03:01.605Z</time></trkpt><trkpt lat="46.1510267" lon="12.323565"><ele>381.0</ele><time>2026-04-18T14:03:02.606Z</time></trkpt><trkpt lat="46.15101" lon="12.3237267"><ele>381.0</ele><time>2026-04-18T14:03:03.605Z</time></trkpt><trkpt lat="46.1510017" lon="12.3238867"><ele>381.0</ele><time>2026-04-18T14:03:04.605Z</time></trkpt><trkpt lat="46.15099" lon="12.324045"><ele>381.0</ele><time>2026-04-18T14:03:05.605Z</time></trkpt><trkpt lat="46.1509817" lon="12.32419"><ele>381.0</ele><time>2026-04-18T14:03:06.605Z</time></trkpt><trkpt lat="46.15097" lon="12.3243317"><ele>381.0</ele><time>2026-04-18T14:03:07.605Z</time></trkpt><trkpt lat="46.1509683" lon="12.324475"><ele>381.0</ele><time>2026-04-18T14:03:08.605Z</time></trkpt><trkpt lat="46.1509583" lon="12.32461"><ele>381.0</ele><time>2026-04-18T14:03:09.605Z</time></trkpt><trkpt lat="46.1509467" lon="12.3247317"><ele>381.0</ele><time>2026-04-18T14:03:10.605Z</time></trkpt><trkpt lat="46.150955" lon="12.3248267"><ele>381.0</ele><time>2026-04-18T14:03:11.605Z</time></trkpt><trkpt lat="46.1510283" lon="12.3248783"><ele>381.0</ele><time>2026-04-18T14:03:13.605Z</time></trkpt><trkpt lat="46.15109" lon="12.3247717"><ele>381.0</ele><time>2026-04-18T14:03:15.606Z</time></trkpt><trkpt lat="46.1510783" lon="12.3246267"><ele>381.0</ele><time>2026-04-18T14:03:17.605Z</time></trkpt><trkpt lat="46.1510517" lon="12.324525"><ele>381.0</ele><time>2026-04-18T14:03:18.605Z</time></trkpt><trkpt lat="46.151025" lon="12.324395"><ele>381.0</ele><time>2026-04-18T14:03:19.605Z</time></trkpt><trkpt lat="46.1510067" lon="12.324235"><ele>381.0</ele><time>2026-04-18T14:03:20.605Z</time></trkpt><trkpt lat="46.15101" lon="12.3240867"><ele>381.0</ele><time>2026-04-18T14:03:21.606Z</time></trkpt><trkpt lat="46.1510067" lon="12.3239883"><ele>381.0</ele><time>2026-04-18T14:03:22.605Z</time></trkpt><trkpt lat="46.150995" lon="12.32388"><ele>381.0</ele><time>2026-04-18T14:03:24.605Z</time></trkpt><trkpt lat="46.1509133" lon="12.3238367"><ele>381.0</ele><time>2026-04-18T14:03:26.605Z</time></trkpt><trkpt lat="46.1508317" lon="12.3238683"><ele>381.0</ele><time>2026-04-18T14:03:27.605Z</time></trkpt><trkpt lat="46.1507433" lon="12.3239033"><ele>381.0</ele><time>2026-04-18T14:03:28.605Z</time></trkpt><trkpt lat="46.1506183" lon="12.3239317"><ele>381.0</ele><time>2026-04-18T14:03:29.605Z</time></trkpt><trkpt lat="46.1504767" lon="12.32396"><ele>381.0</ele><time>2026-04-18T14:03:30.606Z</time></trkpt><trkpt lat="46.15033" lon="12.323975"><ele>381.0</ele><time>2026-04-18T14:03:31.606Z</time></trkpt><trkpt lat="46.150215" lon="12.3239833"><ele>381.0</ele><time>2026-04-18T14:03:32.605Z</time></trkpt><trkpt lat="46.1501067" lon="12.3239967"><ele>381.0</ele><time>2026-04-18T14:03:33.606Z</time></trkpt><trkpt lat="46.1499883" lon="12.3240167"><ele>381.0</ele><time>2026-04-18T14:03:34.605Z</time></trkpt><trkpt lat="46.1498367" lon="12.3240217"><ele>381.0</ele><time>2026-04-18T14:03:35.605Z</time></trkpt><trkpt lat="46.1496433" lon="12.324025"><ele>381.0</ele><time>2026-04-18T14:03:36.605Z</time></trkpt><trkpt lat="46.1494383" lon="12.32404"><ele>381.0</ele><time>2026-04-18T14:03:37.605Z</time></trkpt><trkpt lat="46.1492233" lon="12.324055"><ele>381.0</ele><time>2026-04-18T14:03:38.605Z</time></trkpt><trkpt lat="46.1489967" lon="12.3240683"><ele>381.0</ele><time>2026-04-18T14:03:39.605Z</time></trkpt><trkpt lat="46.1487517" lon="12.3240833"><ele>381.0</ele><time>2026-04-18T14:03:40.605Z</time></trkpt><trkpt lat="46.148515" lon="12.324105"><ele>381.0</ele><time>2026-04-18T14:03:41.605Z</time></trkpt><trkpt lat="46.1482867" lon="12.3241183"><ele>381.0</ele><time>2026-04-18T14:03:42.605Z</time></trkpt><trkpt lat="46.14808" lon="12.3241317"><ele>381.0</ele><time>2026-04-18T14:03:43.606Z</time></trkpt><trkpt lat="46.1478783" lon="12.32415"><ele>380.6666666666667</ele><time>2026-04-18T14:03:44.605Z</time></trkpt><trkpt lat="46.1476883" lon="12.32417"><ele>380.33333333333337</ele><time>2026-04-18T14:03:45.605Z</time></trkpt><trkpt lat="46.1474983" lon="12.3241833"><ele>380.0</ele><time>2026-04-18T14:03:46.606Z</time></trkpt><trkpt lat="46.1472967" lon="12.3241983"><ele>380.0</ele><time>2026-04-18T14:03:47.605Z</time></trkpt><trkpt lat="46.147095" lon="12.324215"><ele>380.0</ele><time>2026-04-18T14:03:48.605Z</time></trkpt><trkpt lat="46.1468917" lon="12.3242317"><ele>380.0</ele><time>2026-04-18T14:03:49.605Z</time></trkpt><trkpt lat="46.1466917" lon="12.3242467"><ele>379.6666666666667</ele><time>2026-04-18T14:03:50.606Z</time></trkpt><trkpt lat="46.1464817" lon="12.3242617"><ele>379.3333333333333</ele><time>2026-04-18T14:03:51.606Z</time></trkpt><trkpt lat="46.14627" lon="12.3242817"><ele>379.0</ele><time>2026-04-18T14:03:52.606Z</time></trkpt><trkpt lat="46.1460583" lon="12.3242917"><ele>379.0</ele><time>2026-04-18T14:03:53.605Z</time></trkpt><trkpt lat="46.14585" lon="12.3242983"><ele>379.0</ele><time>2026-04-18T14:03:54.605Z</time></trkpt><trkpt lat="46.1456617" lon="12.3243133"><ele>379.0</ele><time>2026-04-18T14:03:55.606Z</time></trkpt><trkpt lat="46.14549" lon="12.3243333"><ele>379.0</ele><time>2026-04-18T14:03:56.605Z</time></trkpt><trkpt lat="46.145325" lon="12.32434"><ele>379.0</ele><time>2026-04-18T14:03:57.605Z</time></trkpt><trkpt lat="46.1451783" lon="12.3243567"><ele>379.0</ele><time>2026-04-18T14:03:58.606Z</time></trkpt><trkpt lat="46.1450417" lon="12.32436"><ele>379.0</ele><time>2026-04-18T14:03:59.606Z</time></trkpt><trkpt lat="46.1448917" lon="12.3243733"><ele>379.25</ele><time>2026-04-18T14:04:00.606Z</time></trkpt><trkpt lat="46.144745" lon="12.3243883"><ele>379.5</ele><time>2026-04-18T14:04:01.605Z</time></trkpt><trkpt lat="46.1445967" lon="12.3243917"><ele>379.75</ele><time>2026-04-18T14:04:02.605Z</time></trkpt><trkpt lat="46.1444733" lon="12.3243983"><ele>380.0</ele><time>2026-04-18T14:04:03.605Z</time></trkpt><trkpt lat="46.1443683" lon="12.32441"><ele>380.0</ele><time>2026-04-18T14:04:04.605Z</time></trkpt><trkpt lat="46.1442783" lon="12.3244217"><ele>380.0</ele><time>2026-04-18T14:04:05.605Z</time></trkpt><trkpt lat="46.1442067" lon="12.3244283"><ele>380.0</ele><time>2026-04-18T14:04:06.605Z</time></trkpt><trkpt lat="46.1441233" lon="12.3244433"><ele>380.0</ele><time>2026-04-18T14:04:08.605Z</time></trkpt><trkpt lat="46.1440483" lon="12.3244583"><ele>380.0</ele><time>2026-04-18T14:04:10.605Z</time></trkpt><trkpt lat="46.1439567" lon="12.3244483"><ele>380.0</ele><time>2026-04-18T14:04:13.606Z</time></trkpt><trkpt lat="46.1438883" lon="12.3244517"><ele>380.0</ele><time>2026-04-18T14:04:15.604Z</time></trkpt><trkpt lat="46.1438267" lon="12.3245067"><ele>380.0</ele><time>2026-04-18T14:04:18.604Z</time></trkpt><trkpt lat="46.1439067" lon="12.3244883"><ele>380.0</ele><time>2026-04-18T14:04:40.604Z</time></trkpt><trkpt lat="46.1440433" lon="12.3244633"><ele>380.0</ele><time>2026-04-18T14:04:42.604Z</time></trkpt><trkpt lat="46.1441733" lon="12.3244567"><ele>380.0</ele><time>2026-04-18T14:04:43.605Z</time></trkpt><trkpt lat="46.1443367" lon="12.324445"><ele>380.0</ele><time>2026-04-18T14:04:44.605Z</time></trkpt><trkpt lat="46.14452" lon="12.32444"><ele>380.0</ele><time>2026-04-18T14:04:45.604Z</time></trkpt><trkpt lat="46.1446733" lon="12.324435"><ele>380.0</ele><time>2026-04-18T14:04:46.604Z</time></trkpt><trkpt lat="46.1447983" lon="12.3244217"><ele>380.0</ele><time>2026-04-18T14:04:47.604Z</time></trkpt><trkpt lat="46.14491" lon="12.32441"><ele>379.0</ele><time>2026-04-18T14:04:48.605Z</time></trkpt><trkpt lat="46.1449933" lon="12.3244067"><ele>379.0</ele><time>2026-04-18T14:04:49.605Z</time></trkpt><trkpt lat="46.14506" lon="12.3243967"><ele>379.0</ele><time>2026-04-18T14:04:50.604Z</time></trkpt><trkpt lat="46.1451617" lon="12.3243917"><ele>379.0</ele><time>2026-04-18T14:04:52.605Z</time></trkpt></trkseg></trk></gpx>